<
# Wetter Temperatur Luftdruck Luftfeuchtigkeit Sichtweite Windgeschwindigkeit Windrichtung Zeit
1 Clouds 16 1010 40 10000 2.95 189 07:29 02.10.2022
2 Clouds 10 1014 64 10000 2.03 155 02:54 02.10.2022
3 Clouds 8 1012 71 10000 2.27 166 00:45 02.10.2022
4 Clouds 9 1011 68 10000 2.24 167 23:43 01.10.2022
5 Clouds 10 1011 66 10000 2.27 166 22:31 01.10.2022
6 Clouds 11 1009 58 10000 2.7 163 20:21 01.10.2022
7 Clouds 12 1007 47 10000 2.5 172 17:55 01.10.2022
8 Clouds 13 1006 43 10000 2.08 187 16:30 01.10.2022
9 Clouds 15 1003 41 10000 1.72 280 14:25 01.10.2022
10 Clouds 18 1001 34 10000 1.77 255 12:59 01.10.2022
11 Clouds 19 1001 29 10000 1.74 185 12:29 01.10.2022
12 Clouds 19 1002 29 10000 1.91 191 11:19 01.10.2022
13 Clouds 19 1002 29 10000 1.91 191 10:31 01.10.2022
14 Clouds 18 1005 33 10000 2.89 195 09:27 01.10.2022
15 Clouds 18 1005 33 10000 2.89 195 08:57 01.10.2022
16 Clouds 12 1013 61 10000 2.06 162 04:19 01.10.2022
17 Clouds 10 1014 71 10000 2.01 160 03:29 01.10.2022
18 Clouds 8 1012 74 10000 2.01 159 23:47 30.09.2022
19 Clouds 9 1011 71 10000 1.96 159 22:36 30.09.2022
20 Clear 10 1010 64 10000 2.07 171 21:28 30.09.2022
21 Clouds 10 1010 67 10000 2 164 20:43 30.09.2022
22 Clear 10 1010 64 10000 2.07 175 19:43 30.09.2022
23 Clear 12 1008 55 10000 1.88 168 17:28 30.09.2022
24 Clear 13 1007 51 10000 1.89 176 15:32 30.09.2022
25 Clouds 17 1002 36 10000 1.42 203 13:29 30.09.2022
26 Clouds 18 1003 31 10000 1.37 222 11:57 30.09.2022
27 Clouds 18 1003 31 10000 1.59 216 10:30 30.09.2022
28 Clouds 17 1007 39 10000 3.14 199 08:24 30.09.2022
29 Clouds 15 1011 48 10000 2.77 191 05:47 30.09.2022
30 Clouds 10 1014 68 10000 2.15 171 02:36 30.09.2022
31 Clouds 9 1011 70 10000 2.44 161 22:31 29.09.2022
32 Clouds 10 1010 65 10000 2.18 170 21:27 29.09.2022
33 Clouds 10 1010 65 10000 2.18 170 20:44 29.09.2022
34 Clouds 11 1009 57 10000 2.3 181 18:34 29.09.2022
35 Clouds 12 1008 51 10000 2.27 182 17:23 29.09.2022
36 Clouds 13 1007 49 10000 2.1 192 16:28 29.09.2022
37 Clouds 13 1007 49 10000 2.1 192 15:36 29.09.2022
38 Clouds 13 1004 47 10000 1.58 241 14:29 29.09.2022
39 Clouds 17 1004 35 10000 2.55 208 09:57 29.09.2022
40 Clouds 14 1010 52 10000 2.33 178 06:46 29.09.2022
41 Clouds 9 1015 80 10000 1.16 135 02:49 29.09.2022
42 Clouds 7 1013 88 10000 0.54 102 23:55 28.09.2022
43 Clouds 8 1013 87 10000 0.1 144 22:42 28.09.2022
44 Clouds 8 1012 87 10000 0.88 181 21:29 28.09.2022
45 Clouds 9 1012 85 10000 1.16 177 20:22 28.09.2022
46 Clouds 9 1012 86 10000 1.03 213 18:31 28.09.2022
47 Clouds 10 1010 84 10000 1.86 164 15:26 28.09.2022
48 Clouds 14 1005 61 10000 0.84 304 13:26 28.09.2022
49 Clouds 14 1005 59 10000 0.92 348 10:59 28.09.2022
50 Clouds 12 1010 69 10000 1.52 12 09:18 28.09.2022
51 Clouds 10 1015 81 10000 1.04 338 07:19 28.09.2022
52 Clouds 8 1016 94 382 0.69 42 03:18 28.09.2022
53 Clouds 7 1016 96 131 0.84 26 01:35 28.09.2022
54 Clouds 7 1014 95 1694 1.09 358 23:20 27.09.2022
55 Clouds 8 1014 94 1623 1.18 329 21:44 27.09.2022
56 Clouds 9 1014 92 3566 1.09 340 20:38 27.09.2022
57 Clouds 9 1013 88 10000 0.91 30 19:48 27.09.2022
58 Clouds 10 1012 80 10000 0.99 78 18:45 27.09.2022
59 Clouds 11 1012 77 10000 1.12 107 17:45 27.09.2022
60 Clouds 11 1010 74 10000 0.19 31 15:40 27.09.2022
61 Clouds 12 1009 72 10000 0.87 338 14:55 27.09.2022
62 Rain 13 1007 65 10000 1.93 336 12:50 27.09.2022
63 Clouds 14 1006 61 10000 2.55 3 11:34 27.09.2022
64 Clouds 14 1008 64 10000 2.4 5 08:50 27.09.2022
65 Clouds 15 1009 53 9093 0.57 359 06:46 27.09.2022
66 Clouds 11 1012 67 10000 1.14 168 02:41 27.09.2022
67 Clouds 9 1012 77 10000 1.5 162 01:35 27.09.2022
68 Clouds 10 1010 75 10000 2.06 171 23:26 26.09.2022
69 Clouds 10 1010 75 10000 2.06 171 22:38 26.09.2022
70 Clouds 11 1009 73 10000 2.78 172 20:46 26.09.2022
71 Clouds 11 1010 74 10000 2.76 177 19:32 26.09.2022
72 Clouds 11 1010 75 10000 2.56 189 18:32 26.09.2022
73 Clouds 12 1008 71 10000 2.43 194 16:36 26.09.2022
74 Clouds 14 1004 59 10000 2.89 186 14:41 26.09.2022
75 Clouds 19 1000 41 10000 3.21 199 11:35 26.09.2022
76 Clouds 19 1001 40 10000 2.85 210 10:41 26.09.2022
77 Clouds 19 1002 40 10000 2.27 220 10:21 26.09.2022
78 Clouds 19 1002 40 10000 2.27 220 09:55 26.09.2022
79 Clouds 18 1003 41 10000 2.13 210 09:24 26.09.2022
80 Clouds 18 1003 41 10000 2.13 210 08:57 26.09.2022
81 Clouds 11 1012 70 10000 1.56 171 02:57 26.09.2022
82 Clouds 10 1011 78 10000 2.08 174 00:35 26.09.2022
83 Clouds 11 1010 78 10000 2.28 166 22:59 25.09.2022
84 Clouds 11 1010 77 10000 2.25 167 21:41 25.09.2022
85 Clouds 12 1010 76 10000 2.11 173 20:49 25.09.2022
86 Clouds 11 1010 81 10000 2.03 185 19:43 25.09.2022
87 Clouds 12 1010 79 10000 1.99 181 18:43 25.09.2022
88 Clouds 12 1010 76 10000 2.03 183 18:20 25.09.2022
89 Clouds 13 1009 72 10000 2.12 188 16:49 25.09.2022
90 Clouds 13 1008 69 10000 2.38 186 15:45 25.09.2022
91 Clouds 13 1006 66 10000 2.4 200 14:30 25.09.2022
92 Clouds 17 1002 49 10000 2.53 199 13:19 25.09.2022
93 Clouds 18 1002 44 10000 2.62 198 10:36 25.09.2022
94 Clouds 16 1008 56 10000 2.4 194 08:25 25.09.2022
95 Clouds 13 1013 69 10000 2.16 201 06:24 25.09.2022
96 Clouds 10 1015 83 10000 1.79 186 03:20 25.09.2022
97 Clouds 9 1012 93 3720 1.86 193 23:23 24.09.2022
98 Rain 11 1011 86 7413 1.95 182 21:19 24.09.2022
99 Clouds 11 1009 82 10000 2.22 178 19:23 24.09.2022
100 Rain 11 1009 80 10000 1.43 169 18:18 24.09.2022
101 Clouds 12 1008 76 10000 0.26 141 16:36 24.09.2022
102 Rain 14 1004 61 10000 1.07 13 15:23 24.09.2022
103 Clouds 14 1003 60 10000 1.55 350 13:50 24.09.2022
104 Clouds 17 1002 47 10000 1.33 354 12:59 24.09.2022
105 Clouds 18 1002 45 10000 1.48 343 12:20 24.09.2022
106 Clouds 17 1004 48 10000 1.17 311 09:57 24.09.2022
107 Clouds 17 1007 52 10000 0.87 300 08:50 24.09.2022
108 Clouds 14 1011 66 10000 1.44 349 07:39 24.09.2022
109 Clouds 10 1016 84 10000 0.8 62 04:50 24.09.2022
110 Clouds 9 1017 87 10000 0.77 79 03:43 24.09.2022
111 Clouds 9 1013 88 10000 0.52 92 22:48 23.09.2022
112 Clouds 9 1013 86 10000 0.45 50 21:32 23.09.2022
113 Clouds 9 1014 88 10000 0.55 52 20:57 23.09.2022
114 Clouds 9 1014 90 8018 1.88 62 20:23 23.09.2022
115 Clouds 9 1014 90 9334 2.12 56 18:51 23.09.2022
116 Clouds 9 1012 89 7750 4.34 43 15:23 23.09.2022
117 Clouds 21 998 34 10000 2.88 224 11:28 23.09.2022
118 Clouds 20 1000 36 10000 2.7 224 09:35 23.09.2022
119 Clouds 16 1008 51 10000 2.32 189 05:59 23.09.2022
120 Clouds 9 1011 83 10000 1.42 161 00:36 23.09.2022
121 Clouds 10 1010 83 10000 1.13 162 23:22 22.09.2022
122 Clouds 10 1010 84 10000 0.39 96 22:27 22.09.2022
123 Clouds 11 1010 84 10000 0.6 90 21:18 22.09.2022
124 Clouds 12 1008 74 10000 0.97 159 19:56 22.09.2022
125 Clouds 15 1005 55 10000 2.05 179 17:28 22.09.2022
126 Rain 19 1000 42 10000 2.21 232 12:52 22.09.2022
127 Clouds 21 998 33 10000 2.99 203 10:36 22.09.2022
128 Clouds 20 1002 38 10000 2.82 207 08:58 22.09.2022
129 Clouds 18 1006 45 10000 2.72 197 06:57 22.09.2022
130 Clouds 16 1010 54 10000 1.94 175 04:36 22.09.2022
131 Clouds 10 1010 76 10000 1.88 170 23:31 21.09.2022
132 Clouds 11 1010 73 10000 1.44 162 21:51 21.09.2022
133 Clouds 11 1009 70 10000 1.48 156 20:40 21.09.2022
134 Clouds 15 1006 52 10000 2.33 173 17:50 21.09.2022
135 Clouds 15 1005 49 10000 1.64 163 16:55 21.09.2022
136 Clouds 16 1002 48 10000 0.95 205 14:46 21.09.2022
137 Clouds 20 999 34 10000 1.44 209 12:58 21.09.2022
138 Clouds 21 1000 32 10000 1.22 193 11:30 21.09.2022
139 Clouds 21 1001 34 10000 1.35 215 10:33 21.09.2022
140 Clouds 21 1004 37 10000 2.49 203 09:24 21.09.2022
141 Clouds 19 1006 43 10000 2.26 200 07:58 21.09.2022
142 Clouds 12 1015 72 10000 0.32 68 02:51 21.09.2022
143 Clouds 10 1015 82 10000 0.54 81 02:29 21.09.2022
144 Clouds 10 1014 80 10000 1.49 189 00:57 21.09.2022
145 Clouds 10 1013 78 10000 1.01 211 23:19 20.09.2022
146 Clouds 11 1013 77 10000 1.61 203 21:21 20.09.2022
147 Clouds 12 1011 69 10000 1.76 199 19:43 20.09.2022
148 Clouds 14 1010 57 10000 2.08 226 16:41 20.09.2022
149 Clouds 15 1007 52 10000 2.61 241 14:53 20.09.2022
150 Clouds 16 1002 39 10000 1.81 225 13:52 20.09.2022
151 Clouds 22 1002 26 10000 1.88 220 10:41 20.09.2022
152 Clear 20 1007 31 10000 2.38 202 08:29 20.09.2022
153 Clouds 18 1011 38 10000 2.04 190 06:22 20.09.2022
154 Clouds 15 1014 48 10000 1.49 177 04:28 20.09.2022
155 Clouds 10 1013 57 10000 1.89 173 23:49 19.09.2022
156 Clouds 11 1012 50 10000 2.01 187 22:28 19.09.2022
157 Clouds 12 1012 49 10000 2.16 190 20:58 19.09.2022
158 Clouds 12 1012 49 10000 2.16 190 20:39 19.09.2022
159 Clear 13 1011 50 10000 2.46 188 18:41 19.09.2022
160 Clear 14 1008 50 10000 2.55 201 15:56 19.09.2022
161 Clouds 16 1004 43 10000 2.48 221 13:39 19.09.2022
162 Clouds 22 1001 26 10000 2.8 229 11:30 19.09.2022
163 Clouds 22 1003 28 10000 1.95 216 09:33 19.09.2022
164 Clear 21 1007 35 10000 3.02 196 08:20 19.09.2022
165 Clear 13 1015 63 10000 1.77 168 02:31 19.09.2022
166 Clouds 11 1012 65 10000 2.18 167 23:26 18.09.2022
167 Clouds 12 1011 63 10000 2.15 169 21:53 18.09.2022
168 Clouds 12 1011 61 10000 2.17 163 20:34 18.09.2022
169 Clouds 14 1009 54 10000 2.27 162 18:42 18.09.2022
170 Clouds 15 1009 52 10000 2.26 157 17:45 18.09.2022
171 Clouds 16 1008 49 10000 2.46 160 16:43 18.09.2022
172 Clouds 16 1004 47 10000 2.16 153 14:39 18.09.2022
173 Clouds 21 1001 35 10000 1.68 200 12:56 18.09.2022
174 Clouds 21 1001 31 10000 1.91 208 11:51 18.09.2022
175 Clouds 19 1008 43 10000 2.5 188 06:57 18.09.2022
176 Clouds 11 1013 75 10000 2.1 159 01:37 18.09.2022
177 Clouds 11 1011 73 10000 2.34 158 01:18 18.09.2022
178 Clouds 12 1010 70 10000 2.43 155 22:55 17.09.2022
179 Clouds 13 1008 67 10000 2.09 158 20:51 17.09.2022
180 Clouds 14 1007 60 10000 2.12 155 19:30 17.09.2022
181 Clouds 15 1006 56 10000 2.22 178 17:36 17.09.2022
182 Clouds 17 1000 47 10000 2.32 200 14:22 17.09.2022
183 Clouds 20 999 38 10000 2.11 203 12:44 17.09.2022
184 Clouds 21 999 37 10000 1.88 215 10:48 17.09.2022
185 Clouds 18 1005 47 10000 2.4 189 06:35 17.09.2022
186 Clouds 16 1008 57 10000 1.93 176 04:35 17.09.2022
187 Clouds 11 1008 77 10000 1.98 158 23:36 16.09.2022
188 Clouds 12 1007 76 10000 2.11 181 21:47 16.09.2022
189 Clouds 12 1006 74 10000 2.49 178 20:42 16.09.2022
190 Clouds 16 1002 51 10000 1.79 182 18:29 16.09.2022
191 Clouds 15 1001 52 10000 1.6 182 16:22 16.09.2022
192 Clouds 15 999 50 10000 1.94 189 14:50 16.09.2022
193 Clouds 20 997 39 10000 2.18 204 12:51 16.09.2022
194 Clouds 20 999 38 10000 1.84 221 09:55 16.09.2022
195 Clouds 18 1004 44 10000 2.59 193 07:23 16.09.2022
196 Clouds 18 1004 44 10000 2.59 193 06:48 16.09.2022
197 Clouds 17 1006 49 10000 2.3 182 05:55 16.09.2022
198 Clouds 10 1009 78 10000 1.92 172 01:31 16.09.2022
199 Clouds 13 1006 67 10000 2.5 179 21:33 15.09.2022
200 Clouds 15 1005 60 10000 2.76 176 20:33 15.09.2022
201 Clouds 15 1004 56 10000 2.1 180 18:57 15.09.2022
202 Clouds 16 1003 53 10000 2.15 177 17:40 15.09.2022
203 Clouds 16 1003 52 10000 2.05 183 17:22 15.09.2022
204 Clouds 16 1002 52 10000 1.91 205 15:38 15.09.2022
205 Clouds 20 998 38 10000 1.85 209 12:50 15.09.2022
206 Clouds 21 999 36 10000 1.32 217 11:47 15.09.2022
207 Clouds 20 1001 38 10000 1.92 216 09:43 15.09.2022
208 Clouds 19 1006 45 10000 2.12 187 06:45 15.09.2022
209 Clouds 12 1012 69 10000 0.88 135 03:29 15.09.2022
210 Clouds 12 1010 71 10000 1.65 147 22:51 14.09.2022
211 Clouds 12 1011 74 10000 1.1 146 20:30 14.09.2022
212 Clouds 12 1010 71 10000 1.81 146 19:32 14.09.2022
213 Clouds 14 1008 62 10000 0.51 180 17:35 14.09.2022
214 Clouds 14 1007 59 10000 0.13 99 16:36 14.09.2022
215 Clouds 15 1004 55 10000 0.48 66 14:50 14.09.2022
216 Clouds 19 1002 42 10000 0.39 118 12:34 14.09.2022
217 Clouds 19 1005 45 10000 0.61 202 09:52 14.09.2022
218 Clouds 17 1009 51 10000 1.25 170 08:21 14.09.2022
219 Clouds 17 1010 52 10000 1.62 181 06:49 14.09.2022
220 Clouds 17 1012 56 10000 1.22 167 06:25 14.09.2022
221 Clouds 11 1015 85 10000 1.41 16 02:19 14.09.2022
222 Clouds 11 1015 85 10000 1.41 16 01:32 14.09.2022
223 Clouds 11 1014 83 10000 1.3 16 00:52 14.09.2022
224 Clouds 11 1014 83 10000 1.3 16 00:52 14.09.2022
225 Clouds 11 1013 81 10000 1.25 30 23:54 13.09.2022
226 Clouds 11 1013 81 10000 1.25 30 23:36 13.09.2022
227 Clouds 12 1013 79 10000 1.49 31 23:18 13.09.2022
228 Clouds 12 1012 75 10000 1.57 30 22:26 13.09.2022
229 Clouds 13 1012 73 10000 1.26 27 20:45 13.09.2022
230 Clouds 13 1012 78 10000 1.3 44 18:54 13.09.2022
231 Clouds 15 1009 63 10000 0.75 184 16:34 13.09.2022
232 Clouds 16 1005 51 10000 1.99 177 15:18 13.09.2022
233 Clouds 17 1002 47 10000 1.89 196 13:31 13.09.2022
234 Clouds 20 1003 39 10000 1.37 185 09:58 13.09.2022
235 Clouds 18 1007 44 10000 2.5 187 07:54 13.09.2022
236 Clouds 10 1013 79 10000 1.4 176 02:20 13.09.2022
237 Clouds 10 1011 79 10000 1.43 173 23:22 12.09.2022
238 Clouds 10 1011 79 10000 1.43 173 22:37 12.09.2022
239 Clouds 11 1010 74 10000 2.16 178 20:54 12.09.2022
240 Clouds 12 1010 73 10000 1.92 178 19:31 12.09.2022
241 Clouds 13 1009 67 10000 0.56 165 17:47 12.09.2022
242 Clouds 13 1006 64 10000 0.44 77 15:48 12.09.2022
243 Clouds 19 1002 44 10000 0.43 146 12:26 12.09.2022
244 Clouds 18 1005 51 10000 0.81 168 10:27 12.09.2022
245 Clouds 13 1013 72 10000 0.64 31 07:21 12.09.2022
246 Clouds 10 1016 84 9348 1.06 20 04:35 12.09.2022
247 Clouds 10 1015 89 10000 1.04 70 01:53 12.09.2022
248 Clouds 10 1013 89 10000 1.14 21 22:46 11.09.2022
249 Clouds 11 1012 84 10000 1.55 294 21:25 11.09.2022
250 Clouds 11 1012 84 10000 1.55 294 20:44 11.09.2022
251 Clouds 12 1010 75 10000 1.14 149 19:27 11.09.2022
252 Clouds 12 1010 75 10000 1.14 149 18:58 11.09.2022
253 Clouds 13 1007 61 10000 1.62 162 17:28 11.09.2022
254 Clouds 14 1006 56 10000 1.59 152 15:51 11.09.2022
255 Clouds 18 1002 42 10000 1 179 13:22 11.09.2022
256 Clouds 19 1004 41 10000 0.39 202 11:25 11.09.2022
257 Clouds 18 1008 43 10000 2.06 172 08:19 11.09.2022
258 Clouds 16 1012 50 10000 1.21 185 05:30 11.09.2022
259 Clouds 9 1015 75 10000 0.3 146 23:51 10.09.2022
260 Clouds 9 1015 73 10000 0.03 2 22:22 10.09.2022
261 Clouds 10 1014 71 10000 0.46 37 20:34 10.09.2022
262 Clouds 11 1014 68 10000 1.03 55 19:44 10.09.2022
263 Clouds 11 1014 67 10000 1.22 62 19:25 10.09.2022
264 Clouds 11 1014 66 10000 1.75 42 17:49 10.09.2022
265 Clouds 13 1011 57 10000 1.97 45 15:35 10.09.2022
266 Clouds 15 1006 47 10000 0.48 188 13:41 10.09.2022
267 Clouds 19 1005 33 10000 1.35 208 12:51 10.09.2022
268 Clouds 20 1005 31 10000 1.56 179 10:34 10.09.2022
269 Clear 19 1009 36 10000 0.66 150 08:42 10.09.2022
270 Clouds 18 1011 43 10000 1.11 185 08:20 10.09.2022
271 Clouds 18 1011 43 10000 1.11 185 08:20 10.09.2022
272 Clouds 14 1018 66 10000 0.85 138 04:30 10.09.2022
273 Clear 8 1018 87 10000 0.73 127 23:38 09.09.2022
274 Clear 8 1018 86 10000 0.74 153 22:36 09.09.2022
275 Clear 9 1017 85 10000 0.91 185 20:59 09.09.2022
276 Clouds 10 1017 84 10000 1.12 228 20:20 09.09.2022
277 Clouds 10 1017 82 10000 1.08 209 19:23 09.09.2022
278 Clouds 10 1017 82 10000 0.88 136 17:50 09.09.2022
279 Clouds 11 1015 78 10000 0.9 162 15:45 09.09.2022
280 Clouds 14 1012 69 10000 2.01 158 13:43 09.09.2022
281 Clouds 17 1009 56 10000 3.18 193 11:38 09.09.2022
282 Clouds 16 1013 58 9550 1.99 175 07:58 09.09.2022
283 Clouds 12 1019 74 10000 0.24 356 03:43 09.09.2022
284 Clouds 9 1019 86 10000 0.61 19 00:39 09.09.2022
285 Clouds 9 1019 85 10000 1.39 355 21:52 08.09.2022
286 Clouds 9 1019 84 10000 1.56 355 20:49 08.09.2022
287 Clouds 10 1018 87 10000 1.37 9 20:29 08.09.2022
288 Clouds 10 1018 86 10000 1.2 2 19:28 08.09.2022
289 Clouds 10 1019 87 10000 1.43 355 17:35 08.09.2022
290 Clouds 11 1017 87 10000 1.65 356 16:18 08.09.2022
291 Clouds 13 1015 78 10000 2.01 313 13:30 08.09.2022
292 Clouds 14 1012 69 10000 1.09 286 12:50 08.09.2022
293 Clouds 16 1010 57 10000 1.64 183 11:32 08.09.2022
294 Clouds 17 1011 56 10000 2.45 181 09:57 08.09.2022
295 Clouds 15 1016 63 10000 1.91 202 07:45 08.09.2022
296 Clouds 12 1021 77 10000 1.48 208 05:30 08.09.2022
297 Clouds 9 1022 88 10000 1.25 201 02:36 08.09.2022
298 Clouds 9 1021 90 10000 1.78 200 02:18 08.09.2022
299 Clouds 9 1021 91 10000 1.32 186 00:21 08.09.2022
300 Clouds 9 1021 91 10000 1.61 195 22:19 07.09.2022
301 Clouds 9 1021 91 10000 1.61 195 21:39 07.09.2022
302 Clouds 9 1020 92 10000 1.44 198 20:31 07.09.2022
303 Clouds 10 1020 90 10000 0.69 177 19:26 07.09.2022
304 Clouds 11 1018 85 10000 2.84 12 17:22 07.09.2022
305 Clouds 19 1006 43 10000 1.97 29 11:32 07.09.2022
306 Clouds 19 1007 44 10000 1.83 41 10:36 07.09.2022
307 Clouds 18 1010 53 10000 1.17 49 08:33 07.09.2022
308 Clouds 15 1015 70 10000 1.23 72 06:50 07.09.2022
309 Clouds 12 1014 83 10000 0.39 14 00:53 07.09.2022
310 Clouds 11 1013 85 10000 0.09 223 22:28 06.09.2022
311 Clouds 11 1013 85 10000 0.09 223 21:38 06.09.2022
312 Clouds 11 1013 86 10000 0.77 100 19:40 06.09.2022
313 Clouds 12 1012 84 10000 0.49 75 18:40 06.09.2022
314 Clouds 12 1011 79 9772 0.58 159 17:51 06.09.2022
315 Clouds 14 1010 71 10000 1.08 168 16:53 06.09.2022
316 Clouds 15 1007 61 10000 1.11 168 16:26 06.09.2022
317 Clouds 16 1004 54 10000 0.96 244 14:54 06.09.2022
318 Clouds 17 1002 54 10000 2.2 209 13:44 06.09.2022
319 Clouds 21 1000 39 10000 3.05 206 13:20 06.09.2022
320 Clouds 21 1001 36 10000 1.67 187 10:57 06.09.2022
321 Clouds 20 1004 40 10000 1.46 198 09:56 06.09.2022
322 Clouds 18 1008 50 10000 1.31 188 08:27 06.09.2022
323 Clouds 17 1011 57 10000 0.81 160 06:58 06.09.2022
324 Clouds 9 1013 87 10000 0.42 66 01:23 06.09.2022
325 Clouds 9 1013 89 10000 0.7 32 23:19 05.09.2022
326 Clouds 10 1013 89 10000 0.62 60 21:39 05.09.2022
327 Clouds 10 1012 88 10000 0.78 55 20:32 05.09.2022
328 Clouds 11 1011 84 10000 1.47 88 18:59 05.09.2022
329 Clouds 11 1011 84 10000 1.47 88 18:38 05.09.2022
330 Clouds 11 1010 81 10000 1.48 66 18:19 05.09.2022
331 Clouds 12 1008 77 10000 1.24 56 16:25 05.09.2022
332 Clouds 12 1006 76 10000 1.94 11 15:23 05.09.2022
333 Clouds 17 1003 54 10000 1.09 43 12:56 05.09.2022
334 Clouds 18 1003 53 10000 1.74 29 11:53 05.09.2022
335 Clouds 15 1009 65 10000 1.69 35 08:58 05.09.2022
336 Clouds 12 1013 79 10000 1.88 21 06:38 05.09.2022
337 Clouds 8 1015 94 4945 1.94 31 01:35 05.09.2022
338 Clouds 11 1011 89 7931 1.27 348 22:29 04.09.2022
339 Clouds 11 1011 89 7931 1.27 348 21:59 04.09.2022
340 Clouds 11 1011 87 10000 1.63 5 20:37 04.09.2022
341 Clouds 11 1011 88 10000 1.15 138 18:55 04.09.2022
342 Clouds 11 1011 89 8475 1.53 131 17:43 04.09.2022
343 Rain 12 1009 86 7736 2.24 141 16:28 04.09.2022
344 Clouds 14 1005 75 10000 3 154 14:26 04.09.2022
345 Clouds 16 1003 62 10000 2.99 167 12:57 04.09.2022
346 Clouds 17 1002 60 10000 2.13 181 11:37 04.09.2022
347 Clouds 16 1005 65 10000 1.65 166 09:39 04.09.2022
348 Clouds 12 1011 79 10000 0.56 118 06:51 04.09.2022
349 Clouds 10 1013 83 10000 0.63 108 03:30 04.09.2022
350 Clouds 9 1013 90 10000 0.86 145 23:33 03.09.2022
351 Clouds 9 1014 93 5142 1.49 187 22:20 03.09.2022
352 Clouds 9 1013 93 7203 1.68 172 21:22 03.09.2022
353 Rain 9 1014 94 4255 2.06 102 18:57 03.09.2022
354 Clouds 10 1012 93 4814 2.19 40 17:25 03.09.2022
355 Clouds 12 1007 87 3966 3.5 21 16:20 03.09.2022
356 Clouds 14 1004 75 10000 3.09 358 14:43 03.09.2022
357 Rain 16 1000 67 10000 1.78 1 13:50 03.09.2022
358 Clouds 21 996 40 10000 1.36 226 11:37 03.09.2022
359 Clouds 20 999 45 10000 1.58 202 09:51 03.09.2022
360 Clouds 19 1002 46 10000 3.08 205 07:57 03.09.2022
361 Clouds 16 1007 59 10000 2.53 186 04:56 03.09.2022
362 Clouds 15 1008 63 10000 2.09 178 03:57 03.09.2022
363 Rain 13 1008 76 10000 0.93 129 23:49 02.09.2022
364 Clouds 13 1008 76 10000 1.05 119 22:34 02.09.2022
365 Clouds 13 1008 77 10000 1.45 159 20:57 02.09.2022
366 Rain 13 1008 75 10000 1.57 161 20:23 02.09.2022
367 Clouds 14 1007 70 10000 2.39 160 18:59 02.09.2022
368 Clouds 15 1006 62 10000 2.33 155 18:27 02.09.2022
369 Clouds 15 1006 62 10000 2.33 155 17:30 02.09.2022
370 Clouds 17 1003 53 10000 2.69 152 16:45 02.09.2022
371 Clouds 20 998 46 10000 2.74 211 13:51 02.09.2022
372 Clouds 23 998 34 10000 2.84 209 11:47 02.09.2022
373 Clouds 22 1001 36 10000 2.47 211 09:49 02.09.2022
374 Clouds 22 1003 39 10000 2.95 208 08:55 02.09.2022
375 Clouds 20 1006 43 10000 2.8 196 07:24 02.09.2022
376 Clouds 20 1006 43 10000 2.8 196 06:34 02.09.2022
377 Clouds 15 1011 66 10000 2.22 176 02:37 02.09.2022
378 Clouds 15 1009 71 10000 2.39 177 22:26 01.09.2022
379 Clouds 15 1009 71 10000 2.39 177 21:40 01.09.2022
380 Clouds 15 1008 70 10000 1.85 173 21:21 01.09.2022
381 Clouds 14 1009 74 10000 2.58 165 20:37 01.09.2022
382 Clouds 15 1008 73 10000 2.26 159 18:38 01.09.2022
383 Clouds 16 1008 67 10000 1.41 191 16:58 01.09.2022
384 Clouds 16 1004 63 10000 1.59 162 15:29 01.09.2022
385 Clouds 18 1003 59 10000 1.58 163 13:44 01.09.2022
386 Clouds 20 1002 49 10000 1.2 152 12:57 01.09.2022
387 Clouds 20 1002 47 10000 1.09 156 11:52 01.09.2022
388 Clouds 20 1003 46 10000 1.15 160 11:29 01.09.2022
389 Clouds 20 1004 48 10000 1.62 168 09:49 01.09.2022
390 Clouds 17 1009 61 10000 1.19 122 07:50 01.09.2022
391 Clouds 13 1015 77 10000 1.63 120 05:58 01.09.2022
392 Rain 11 1014 89 9850 2.23 112 01:31 01.09.2022
393 Rain 12 1011 89 10000 1.14 123 23:19 31.08.2022
394 Rain 13 1010 84 10000 0.53 173 20:48 31.08.2022
395 Rain 14 1010 81 10000 1.33 213 19:23 31.08.2022
396 Clouds 14 1009 76 10000 1.91 278 17:25 31.08.2022
397 Clouds 14 1007 75 10000 1.47 223 15:39 31.08.2022
398 Clouds 16 1004 67 10000 0.92 360 13:38 31.08.2022
399 Clouds 16 1004 67 10000 0.92 360 13:38 31.08.2022
400 Clouds 19 1003 55 10000 1.52 55 12:19 31.08.2022
401 Clouds 18 1006 59 10000 2 44 09:39 31.08.2022
402 Clouds 16 1008 71 10000 2.07 46 08:32 31.08.2022
403 Clouds 15 1011 75 10000 0.75 126 03:41 31.08.2022
404 Rain 12 1010 84 10000 0.72 70 22:42 30.08.2022
405 Rain 13 1011 81 10000 0.99 71 21:33 30.08.2022
406 Rain 13 1009 79 10000 0.71 74 20:38 30.08.2022
407 Rain 17 1007 52 10000 0.93 147 17:25 30.08.2022
408 Clouds 17 1003 53 10000 1.43 126 14:41 30.08.2022
409 Clouds 22 1000 37 10000 1.53 175 12:54 30.08.2022
410 Clouds 22 1002 39 10000 1.5 200 11:20 30.08.2022
411 Clouds 22 1003 40 10000 2.19 209 10:20 30.08.2022
412 Clouds 21 1007 43 10000 2.79 195 06:49 30.08.2022
413 Clouds 12 1013 78 10000 1.37 180 01:44 30.08.2022
414 Clouds 12 1011 76 10000 1.81 178 22:44 29.08.2022
415 Clouds 13 1011 74 10000 1.8 177 22:18 29.08.2022
416 Clouds 13 1010 71 10000 1.95 178 21:23 29.08.2022
417 Clouds 14 1010 66 10000 2.19 172 19:42 29.08.2022
418 Clouds 16 1008 57 10000 2.61 172 17:42 29.08.2022
419 Clouds 17 1007 51 10000 2.62 179 17:24 29.08.2022
420 Clouds 19 1005 45 10000 1.71 172 15:41 29.08.2022
421 Clouds 20 1002 46 10000 1.94 186 14:18 29.08.2022
422 Clouds 22 1001 36 10000 2.2 195 12:34 29.08.2022
423 Clouds 22 1002 36 10000 2.24 213 10:49 29.08.2022
424 Clouds 22 1003 37 10000 2.49 218 09:30 29.08.2022
425 Clouds 21 1006 39 10000 2.65 196 08:27 29.08.2022
426 Clouds 15 1012 61 10000 2.17 180 02:42 29.08.2022
427 Clouds 14 1010 70 10000 2.15 168 23:50 28.08.2022
428 Clouds 15 1009 67 10000 2.37 159 21:57 28.08.2022
429 Clouds 15 1008 64 10000 2.7 169 21:32 28.08.2022
430 Clouds 16 1008 63 10000 2.72 168 20:39 28.08.2022
431 Clouds 16 1007 61 10000 2.72 164 18:38 28.08.2022
432 Clouds 17 1007 59 10000 2.86 166 18:19 28.08.2022
433 Clouds 17 1006 59 10000 3.03 171 16:55 28.08.2022
434 Clouds 18 1004 56 10000 3.6 163 15:42 28.08.2022
435 Clouds 19 999 49 10000 4.11 168 13:47 28.08.2022
436 Clouds 22 997 37 10000 3.04 179 12:31 28.08.2022
437 Clouds 22 998 36 10000 2.21 180 10:40 28.08.2022
438 Clouds 23 998 35 10000 2.69 200 09:40 28.08.2022
439 Clouds 22 1000 37 10000 2.55 198 08:36 28.08.2022
440 Clouds 22 1002 40 10000 2.65 187 07:41 28.08.2022
441 Clouds 13 1009 76 10000 1.34 153 01:31 28.08.2022
442 Clouds 13 1008 78 10000 1.5 136 00:22 28.08.2022
443 Clouds 13 1008 79 10000 1.48 119 22:32 27.08.2022
444 Clouds 15 1007 75 10000 0.76 66 21:24 27.08.2022
445 Clouds 14 1008 80 10000 0.75 124 19:39 27.08.2022
446 Clouds 15 1008 78 10000 1.81 50 16:42 27.08.2022
447 Clouds 15 1007 79 10000 1.89 41 15:52 27.08.2022
448 Clouds 16 1004 71 10000 1.52 77 15:23 27.08.2022
449 Clouds 25 994 28 10000 2.56 201 12:23 27.08.2022
450 Clouds 25 995 28 10000 2.92 197 11:24 27.08.2022
451 Clouds 25 996 30 10000 2.87 187 09:42 27.08.2022
452 Clouds 23 999 37 10000 2.67 181 07:31 27.08.2022
453 Clouds 15 1008 70 10000 1 160 02:33 27.08.2022
454 Clouds 12 1007 80 10000 0.81 125 23:55 26.08.2022
455 Clouds 13 1007 76 10000 1.21 124 22:31 26.08.2022
456 Clouds 14 1006 68 10000 1.1 108 20:42 26.08.2022
457 Clouds 15 1006 69 10000 0.97 36 19:23 26.08.2022
458 Clouds 16 1004 56 10000 1.93 109 16:46 26.08.2022
459 Clouds 19 998 44 10000 1.05 103 15:27 26.08.2022
460 Clouds 21 996 45 10000 0.55 74 14:29 26.08.2022
461 Clouds 24 996 31 10000 0.78 115 12:47 26.08.2022
462 Clouds 24 998 33 10000 1.81 155 11:27 26.08.2022
463 Clouds 24 999 33 10000 1.85 151 10:25 26.08.2022
464 Clouds 22 1003 40 10000 1.66 204 07:28 26.08.2022
465 Clouds 11 1010 79 10000 0.46 318 01:28 26.08.2022
466 Clouds 12 1009 78 10000 0.63 321 23:32 25.08.2022
467 Clouds 12 1010 77 10000 1.02 39 21:27 25.08.2022
468 Clouds 13 1009 73 10000 1.03 45 20:29 25.08.2022
469 Clouds 13 1010 80 10000 0.7 39 18:53 25.08.2022
470 Clouds 13 1010 78 10000 1.28 17 17:44 25.08.2022
471 Clouds 15 1009 73 10000 1.29 15 17:24 25.08.2022
472 Clouds 16 1008 68 10000 1.34 22 15:40 25.08.2022
473 Clouds 17 1006 61 10000 1.13 63 14:34 25.08.2022
474 Clouds 25 998 29 10000 1.74 150 11:54 25.08.2022
475 Clouds 24 999 30 10000 1.87 173 10:46 25.08.2022
476 Clouds 24 1002 32 10000 2.02 194 08:54 25.08.2022
477 Clouds 19 1010 47 10000 0.96 189 05:24 25.08.2022
478 Clouds 13 1012 64 10000 1.25 186 01:37 25.08.2022
479 Clouds 12 1010 63 10000 0.81 167 23:26 24.08.2022
480 Clouds 12 1010 61 10000 0.87 169 22:22 24.08.2022
481 Clouds 12 1010 61 10000 0.87 169 21:35 24.08.2022
482 Clouds 12 1011 65 10000 1.08 178 20:32 24.08.2022
483 Clear 13 1011 62 10000 1.39 204 18:57 24.08.2022
484 Clouds 14 1011 60 10000 2.21 217 16:37 24.08.2022
485 Clouds 15 1010 60 10000 2.39 204 15:52 24.08.2022
486 Clouds 20 1003 43 10000 2.58 211 13:40 24.08.2022
487 Clouds 24 1003 26 10000 1.16 242 11:29 24.08.2022
488 Clouds 24 1004 28 10000 1.45 217 09:35 24.08.2022
489 Clouds 22 1008 33 10000 2.06 213 07:50 24.08.2022
490 Clouds 12 1017 77 10000 1.18 140 02:29 24.08.2022
491 Clouds 11 1015 76 10000 1.63 139 23:32 23.08.2022
492 Clouds 12 1014 72 10000 1.64 134 22:32 23.08.2022
493 Clouds 13 1013 65 10000 2.08 146 21:29 23.08.2022
494 Clouds 14 1012 62 10000 1.97 152 20:20 23.08.2022
495 Clouds 14 1012 59 10000 2.15 163 18:44 23.08.2022
496 Clouds 16 1010 53 10000 2.88 171 17:48 23.08.2022
497 Clouds 17 1009 50 10000 2.72 177 16:53 23.08.2022
498 Clouds 17 1008 49 10000 2.47 179 15:37 23.08.2022
499 Clouds 23 1002 31 10000 2.56 147 13:29 23.08.2022
500 Clouds 23 1002 30 10000 2.38 163 11:32 23.08.2022
501 Clouds 23 1002 30 10000 2.01 174 10:36 23.08.2022
502 Clouds 23 1003 31 10000 1.79 185 09:54 23.08.2022
503 Clouds 22 1005 33 10000 1.98 176 08:51 23.08.2022
504 Clouds 22 1006 34 10000 2.29 180 08:20 23.08.2022
505 Clouds 22 1006 34 10000 2.29 180 08:20 23.08.2022
506 Clouds 22 1006 34 10000 2.29 180 07:34 23.08.2022
507 Clouds 19 1010 44 10000 1.59 173 06:28 23.08.2022
508 Clouds 18 1012 50 10000 1.66 161 04:38 23.08.2022
509 Clouds 11 1012 79 10000 1.19 152 00:28 23.08.2022
510 Clouds 11 1012 79 10000 1.19 152 23:37 22.08.2022
511 Clouds 11 1012 78 10000 1.32 165 22:44 22.08.2022
512 Clouds 12 1011 75 10000 1.87 177 21:29 22.08.2022
513 Clouds 13 1010 72 10000 2.24 182 19:48 22.08.2022
514 Clouds 13 1010 70 10000 2.22 187 19:18 22.08.2022
515 Clouds 14 1008 66 10000 2.88 205 17:22 22.08.2022
516 Clouds 15 1006 59 10000 3.19 212 15:39 22.08.2022
517 Clouds 17 1002 48 10000 3.44 201 14:32 22.08.2022
518 Clouds 24 998 27 10000 0.94 146 10:43 22.08.2022
519 Clouds 22 1003 34 10000 2.14 182 07:59 22.08.2022
520 Clear 16 1009 56 10000 1.28 154 04:25 22.08.2022
521 Clouds 11 1009 77 10000 1.1 142 00:49 22.08.2022
522 Clouds 11 1008 74 10000 1.17 145 00:26 22.08.2022
523 Clouds 12 1007 72 10000 1.09 155 22:53 21.08.2022
524 Clouds 13 1007 66 10000 1.92 151 21:28 21.08.2022
525 Clouds 13 1007 66 10000 1.92 151 20:56 21.08.2022
526 Clouds 14 1006 59 10000 2.35 157 19:27 21.08.2022
527 Clouds 15 1006 55 10000 2.37 157 17:39 21.08.2022
528 Clouds 16 1003 50 10000 2.69 148 15:58 21.08.2022
529 Clouds 17 1001 48 10000 2.23 141 15:22 21.08.2022
530 Clouds 20 998 46 10000 1.8 136 13:53 21.08.2022
531 Clouds 20 998 46 10000 1.8 136 13:30 21.08.2022
532 Clouds 22 998 33 10000 1.98 145 11:55 21.08.2022
533 Clouds 22 1000 32 10000 1.32 193 09:31 21.08.2022
534 Clouds 22 1001 34 10000 1.95 188 08:56 21.08.2022
535 Clouds 22 1001 33 10000 2.09 186 08:38 21.08.2022
536 Clouds 20 1005 40 10000 2.31 186 07:27 21.08.2022
537 Clouds 16 1010 59 10000 1.59 160 03:41 21.08.2022
538 Clouds 11 1009 74 10000 2.2 173 00:24 21.08.2022
539 Clouds 12 1008 72 10000 2.14 171 22:41 20.08.2022
540 Clouds 13 1007 67 10000 2.07 170 21:38 20.08.2022
541 Clouds 15 1005 58 10000 1.99 167 20:43 20.08.2022
542 Clouds 16 1005 53 10000 2.05 162 19:41 20.08.2022
543 Clouds 16 1005 51 10000 2.29 169 18:31 20.08.2022
544 Clouds 16 1004 50 10000 2.54 177 17:52 20.08.2022
545 Clouds 16 1004 50 10000 2.16 174 17:18 20.08.2022
546 Clear 16 1003 49 10000 2.28 172 15:37 20.08.2022
547 Clouds 22 999 32 10000 1.5 184 13:27 20.08.2022
548 Clouds 22 999 33 10000 1.39 205 11:52 20.08.2022
549 Clouds 21 1002 37 10000 2.8 190 09:43 20.08.2022
550 Clouds 21 1003 37 10000 2.88 186 08:50 20.08.2022
551 Clouds 19 1008 49 10000 2.26 175 05:57 20.08.2022
552 Clouds 12 1012 78 10000 1.23 143 01:46 20.08.2022
553 Clouds 11 1011 80 10000 1.56 154 00:35 20.08.2022
554 Clouds 12 1010 78 10000 1.68 166 23:19 19.08.2022
555 Clouds 12 1010 78 10000 1.68 166 22:35 19.08.2022
556 Clouds 14 1008 73 10000 2.23 170 20:28 19.08.2022
557 Clouds 14 1008 70 10000 1.94 170 18:46 19.08.2022
558 Clouds 18 1001 53 10000 2.25 171 15:21 19.08.2022
559 Clouds 20 1000 52 10000 1.45 174 13:36 19.08.2022
560 Clouds 21 1000 43 10000 1.74 171 11:33 19.08.2022
561 Clouds 22 1001 42 10000 1.42 172 10:26 19.08.2022
562 Clouds 19 1006 54 10000 1.35 168 07:21 19.08.2022
563 Clouds 12 1010 88 10000 1.4 35 01:24 19.08.2022
564 Clouds 12 1010 88 10000 1.4 35 00:31 19.08.2022
565 Clouds 12 1010 87 10000 1.05 33 23:48 18.08.2022
566 Clouds 12 1010 88 10000 0.99 28 22:51 18.08.2022
567 Clouds 12 1010 87 10000 0.64 57 22:18 18.08.2022
568 Clouds 12 1010 87 10000 0.64 57 21:40 18.08.2022
569 Rain 12 1011 89 10000 0.66 88 20:27 18.08.2022
570 Clouds 13 1010 89 10000 1.07 31 19:30 18.08.2022
571 Clouds 13 1009 86 10000 1.74 53 17:55 18.08.2022
572 Clouds 14 1008 83 10000 2.53 25 17:18 18.08.2022
573 Clouds 14 1006 79 10000 3.18 56 15:20 18.08.2022
574 Clouds 20 999 52 10000 2.35 75 14:20 18.08.2022
575 Rain 20 999 52 10000 2.35 75 13:34 18.08.2022
576 Clouds 23 997 33 10000 0.96 173 12:26 18.08.2022
577 Clouds 23 999 36 10000 0.77 218 10:22 18.08.2022
578 Clouds 23 999 36 10000 0.77 218 09:42 18.08.2022
579 Clouds 20 1005 46 10000 1.53 187 07:24 18.08.2022
580 Clouds 18 1008 57 10000 1.54 177 04:38 18.08.2022
581 Clouds 12 1008 81 10000 0.82 115 23:49 17.08.2022
582 Clouds 13 1007 74 10000 0.73 119 21:54 17.08.2022
583 Clouds 14 1007 66 10000 1.02 98 20:20 17.08.2022
584 Clouds 14 1007 66 10000 1.02 98 19:32 17.08.2022
585 Clouds 16 1004 55 10000 1.59 164 17:39 17.08.2022
586 Clouds 17 1003 52 10000 1.95 191 16:47 17.08.2022
587 Clouds 17 1002 51 10000 2.46 191 15:30 17.08.2022
588 Clouds 22 997 43 10000 2.16 179 13:52 17.08.2022
589 Clouds 24 997 31 10000 1.36 198 11:42 17.08.2022
590 Clouds 24 999 32 10000 2.02 199 10:22 17.08.2022
591 Clouds 23 1002 38 10000 1.98 179 08:24 17.08.2022
592 Clouds 16 1010 60 10000 0.8 168 03:52 17.08.2022
593 Clouds 11 1011 82 10000 0.71 157 00:40 17.08.2022
594 Clouds 11 1010 78 10000 0.72 176 22:50 16.08.2022
595 Clouds 12 1011 75 10000 1.33 179 20:59 16.08.2022
596 Clouds 13 1011 74 10000 1.61 188 19:54 16.08.2022
597 Clouds 13 1011 75 10000 1.96 197 19:22 16.08.2022
598 Clouds 13 1011 76 10000 2.3 194 17:54 16.08.2022
599 Clouds 13 1011 76 10000 2.3 194 17:54 16.08.2022
600 Clouds 13 1010 77 10000 2.92 187 16:35 16.08.2022
601 Clouds 15 1008 71 10000 3.18 189 15:39 16.08.2022
602 Clouds 16 1005 60 10000 3.52 177 14:43 16.08.2022
603 Clouds 20 1001 47 10000 3.83 147 14:25 16.08.2022
604 Clouds 23 999 35 10000 2.88 153 11:39 16.08.2022
605 Clouds 24 1000 30 10000 0.97 211 09:58 16.08.2022
606 Clouds 24 1002 32 10000 1.14 215 08:49 16.08.2022
607 Clouds 23 1004 36 10000 1.12 209 08:19 16.08.2022
608 Clouds 18 1010 56 10000 1.26 164 05:28 16.08.2022
609 Clouds 11 1012 83 10000 1.15 168 23:18 15.08.2022
610 Clouds 12 1012 80 10000 1.59 164 22:20 15.08.2022
611 Clouds 12 1012 80 10000 1.59 164 21:43 15.08.2022
612 Clouds 13 1011 73 10000 1.57 165 20:31 15.08.2022
613 Clouds 15 1010 59 10000 1.64 168 18:57 15.08.2022
614 Clouds 16 1009 54 10000 1.88 168 17:59 15.08.2022
615 Clouds 16 1006 50 10000 2.27 166 16:24 15.08.2022
616 Clouds 18 1004 47 10000 2.04 161 14:49 15.08.2022
617 Clouds 22 1001 33 10000 1.96 131 13:23 15.08.2022
618 Clouds 23 1002 32 10000 1.48 177 10:37 15.08.2022
619 Clouds 23 1004 33 10000 2.14 196 08:54 15.08.2022
620 Clouds 21 1008 38 10000 1.98 195 06:49 15.08.2022
621 Clear 16 1013 54 10000 1.53 174 03:56 15.08.2022
622 Clouds 11 1013 72 10000 2.13 165 23:38 14.08.2022
623 Clouds 13 1011 67 10000 2.24 160 21:49 14.08.2022
624 Clouds 14 1010 63 10000 2.33 162 20:54 14.08.2022
625 Clouds 15 1010 57 10000 2.78 163 19:45 14.08.2022
626 Clouds 15 1009 55 10000 2.8 168 18:41 14.08.2022
627 Clouds 16 1007 52 10000 3.17 164 17:41 14.08.2022
628 Clouds 16 1006 49 10000 2.79 156 16:30 14.08.2022
629 Clouds 17 1004 47 10000 2.25 156 15:45 14.08.2022
630 Clouds 21 1000 44 10000 1.31 149 13:52 14.08.2022
631 Clouds 21 1000 44 10000 1.31 149 13:34 14.08.2022
632 Clouds 22 1000 35 10000 1.7 179 12:54 14.08.2022
633 Clouds 23 1000 34 10000 1.73 173 11:31 14.08.2022
634 Clouds 23 1001 33 10000 1.47 129 10:26 14.08.2022
635 Clouds 21 1005 39 10000 1.71 176 08:20 14.08.2022
636 Clouds 19 1008 48 10000 1.58 160 06:18 14.08.2022
637 Clouds 14 1011 71 10000 1.62 147 02:35 14.08.2022
638 Clouds 12 1009 84 10000 0.95 98 23:23 13.08.2022
639 Clouds 12 1009 83 10000 0.89 132 22:28 13.08.2022
640 Clouds 13 1009 80 10000 1.33 151 20:58 13.08.2022
641 Clouds 13 1008 78 10000 1.42 156 19:50 13.08.2022
642 Clouds 14 1007 75 10000 1.3 155 19:19 13.08.2022
643 Clouds 14 1007 74 10000 0.82 190 17:35 13.08.2022
644 Clouds 19 1000 49 10000 1.42 68 15:18 13.08.2022
645 Clouds 22 997 43 10000 1.93 81 14:24 13.08.2022
646 Clouds 18 1001 55 10000 2.91 63 13:37 13.08.2022
647 Rain 24 996 29 10000 1.86 108 11:49 13.08.2022
648 Clouds 24 998 31 10000 1.25 201 09:50 13.08.2022
649 Clouds 22 1002 38 10000 1.23 190 07:50 13.08.2022
650 Clouds 16 1008 56 10000 1.64 178 02:33 13.08.2022
651 Clouds 13 1006 57 10000 1.96 162 23:45 12.08.2022
652 Clouds 15 1005 49 10000 1.99 160 21:40 12.08.2022
653 Clouds 16 1004 44 10000 1.17 134 19:51 12.08.2022
654 Clouds 16 1003 47 10000 1 132 19:26 12.08.2022
655 Clouds 16 1003 47 10000 1 132 18:34 12.08.2022
656 Clouds 18 1001 45 10000 1.16 145 16:28 12.08.2022
657 Clouds 18 1000 43 10000 0.78 105 15:23 12.08.2022
658 Clouds 22 998 41 10000 0.33 86 14:27 12.08.2022
659 Clouds 24 998 27 10000 0.55 24 12:51 12.08.2022
660 Clouds 24 1000 25 10000 0.88 232 09:50 12.08.2022
661 Clouds 23 1003 29 10000 1.34 223 07:47 12.08.2022
662 Clear 21 1007 39 10000 1.25 198 06:28 12.08.2022
663 Clouds 12 1012 67 10000 1.44 161 01:45 12.08.2022
664 Clouds 12 1011 64 10000 1.98 164 00:23 12.08.2022
665 Clouds 12 1011 64 10000 1.98 164 23:34 11.08.2022
666 Clouds 13 1009 55 10000 1.95 155 21:58 11.08.2022
667 Clouds 13 1009 55 10000 1.95 155 21:35 11.08.2022
668 Clouds 13 1008 51 10000 1.93 142 20:32 11.08.2022
669 Clouds 14 1007 47 10000 1.78 130 19:53 11.08.2022
670 Clouds 14 1007 46 10000 1.93 135 19:30 11.08.2022
671 Clouds 15 1005 39 10000 1.79 124 17:47 11.08.2022
672 Clouds 16 1004 37 10000 1.66 146 16:32 11.08.2022
673 Clouds 18 1001 35 10000 1.4 157 15:20 11.08.2022
674 Clouds 23 999 23 10000 2.08 149 12:39 11.08.2022
675 Clouds 23 1003 27 10000 1.44 189 09:29 11.08.2022
676 Clouds 21 1006 36 10000 0.96 180 06:59 11.08.2022
677 Clouds 16 1011 61 10000 1.12 145 03:45 11.08.2022
678 Clouds 11 1011 78 10000 1.74 141 00:35 11.08.2022
679 Clouds 12 1009 77 10000 1.34 127 22:21 10.08.2022
680 Clouds 12 1008 76 10000 0.88 125 21:20 10.08.2022
681 Clouds 12 1008 76 10000 0.88 125 20:47 10.08.2022
682 Clouds 13 1008 75 10000 0.83 43 18:55 10.08.2022
683 Clouds 14 1008 74 10000 0.9 41 17:37 10.08.2022
684 Clouds 14 1007 75 10000 0.61 66 16:33 10.08.2022
685 Rain 21 999 47 10000 2.57 173 13:35 10.08.2022
686 Clouds 23 997 40 10000 3.85 176 12:27 10.08.2022
687 Clouds 23 999 38 10000 2.19 109 08:55 10.08.2022
688 Clouds 23 999 38 10000 2.19 109 08:31 10.08.2022
689 Clouds 21 1002 46 10000 0.78 127 06:23 10.08.2022
690 Clouds 15 1007 65 10000 0.72 56 03:24 10.08.2022
691 Clouds 12 1007 75 10000 0.91 359 23:34 09.08.2022
692 Clouds 12 1008 76 10000 0.76 35 22:56 09.08.2022
693 Clouds 12 1008 75 10000 1.09 25 21:35 09.08.2022
694 Clouds 13 1006 72 10000 1.16 34 19:35 09.08.2022
695 Clouds 13 1007 72 10000 1.5 38 18:42 09.08.2022
696 Clouds 14 1008 73 10000 2.13 35 17:28 09.08.2022
697 Clouds 14 1008 73 10000 2.13 35 16:40 09.08.2022
698 Clouds 14 1008 73 10000 2.13 35 16:40 09.08.2022
699 Clouds 14 1007 75 10000 2.31 37 15:46 09.08.2022
700 Clouds 20 1001 49 10000 3.05 68 12:48 09.08.2022
701 Clouds 24 1000 27 10000 0.59 158 09:36 09.08.2022
702 Clouds 24 1001 28 10000 1 230 08:39 09.08.2022
703 Clouds 23 1003 31 10000 1.42 213 07:52 09.08.2022
704 Clouds 17 1010 49 10000 1.2 179 03:34 09.08.2022
705 Clouds 13 1008 62 10000 1.39 138 23:27 08.08.2022
706 Clouds 13 1008 62 10000 1.39 138 22:54 08.08.2022
707 Clouds 13 1008 60 10000 1.27 140 21:58 08.08.2022
708 Clouds 14 1008 59 10000 1.27 138 20:59 08.08.2022
709 Clouds 14 1007 58 10000 1.06 141 19:50 08.08.2022
710 Clouds 15 1006 53 10000 1.46 157 18:38 08.08.2022
711 Clouds 16 1005 51 10000 1.7 182 16:40 08.08.2022
712 Clouds 17 1003 49 10000 1.86 173 15:39 08.08.2022
713 Clouds 22 999 39 10000 1.91 122 13:50 08.08.2022
714 Clouds 24 998 29 10000 2.52 122 11:58 08.08.2022
715 Clouds 24 1000 30 10000 2.17 158 09:43 08.08.2022
716 Clouds 20 1007 42 10000 1.17 161 05:43 08.08.2022
717 Clear 15 1011 59 10000 0.99 146 02:55 08.08.2022
718 Clear 13 1007 65 10000 1.63 145 22:32 07.08.2022
719 Clear 13 1006 62 10000 1.67 145 21:39 07.08.2022
720 Clouds 14 1005 56 10000 1.54 149 20:26 07.08.2022
721 Clouds 14 1005 56 10000 1.54 149 20:26 07.08.2022
722 Clouds 14 1005 56 10000 1.54 149 19:55 07.08.2022
723 Clouds 14 1005 56 10000 1.54 149 19:34 07.08.2022
724 Clouds 16 1004 51 10000 1.62 149 18:23 07.08.2022
725 Clouds 16 1003 50 10000 1.82 137 16:54 07.08.2022
726 Clouds 16 1003 50 10000 1.82 137 16:35 07.08.2022
727 Clouds 19 1000 45 10000 1.6 102 15:20 07.08.2022
728 Clouds 23 998 34 10000 1.66 136 13:26 07.08.2022
729 Clouds 23 999 33 10000 1.21 136 11:27 07.08.2022
730 Clouds 23 999 33 10000 1.21 136 10:34 07.08.2022
731 Clouds 21 1003 39 10000 2.12 168 07:36 07.08.2022
732 Clouds 15 1010 66 10000 1.66 155 03:20 07.08.2022
733 Clouds 11 1009 80 10000 1.66 163 00:57 07.08.2022
734 Clouds 13 1007 72 10000 1.85 174 22:25 06.08.2022
735 Clouds 13 1007 70 10000 1.73 166 20:46 06.08.2022
736 Clear 14 1006 65 10000 1.77 154 19:41 06.08.2022
737 Clouds 15 1004 60 10000 2.12 150 18:30 06.08.2022
738 Clear 16 1004 55 10000 2.14 147 17:33 06.08.2022
739 Clear 18 999 50 10000 1.13 129 14:48 06.08.2022
740 Clouds 21 997 45 10000 1.63 127 13:49 06.08.2022
741 Clouds 22 997 37 10000 2.3 148 11:55 06.08.2022
742 Clouds 22 998 37 10000 2.34 161 10:33 06.08.2022
743 Clouds 22 1000 39 10000 1.84 170 08:40 06.08.2022
744 Clouds 17 1006 63 10000 1.85 157 03:53 06.08.2022
745 Clouds 12 1008 85 10000 1.09 148 23:54 05.08.2022
746 Clouds 12 1008 85 10000 1.32 135 22:33 05.08.2022
747 Clouds 13 1008 84 10000 0.72 204 19:59 05.08.2022
748 Clouds 13 1009 87 10000 1.2 271 18:47 05.08.2022
749 Clouds 15 1006 78 10000 1.47 172 18:25 05.08.2022
750 Clouds 17 1002 62 10000 2.56 126 16:50 05.08.2022
751 Clouds 19 998 51 10000 1.15 106 15:23 05.08.2022
752 Clouds 19 998 51 10000 1.15 106 14:32 05.08.2022
753 Rain 23 995 36 10000 1 121 13:25 05.08.2022
754 Clouds 23 995 36 10000 1 121 12:44 05.08.2022
755 Clouds 23 997 36 10000 1.33 139 10:55 05.08.2022
756 Clouds 23 999 37 10000 1.65 168 08:45 05.08.2022
757 Clouds 22 1003 44 10000 1.74 180 07:28 05.08.2022
758 Clouds 14 1009 76 10000 1.04 100 01:46 05.08.2022
759 Clouds 13 1008 78 10000 0.65 71 22:40 04.08.2022
760 Clouds 15 1008 72 10000 1.1 68 21:27 04.08.2022
761 Clouds 15 1008 72 10000 1.1 68 20:45 04.08.2022
762 Clouds 15 1007 69 10000 1.05 87 19:58 04.08.2022
763 Clouds 17 1005 59 10000 1.23 130 18:57 04.08.2022
764 Clouds 17 1005 59 10000 1.23 130 18:33 04.08.2022
765 Clouds 19 1000 48 10000 1.51 138 14:50 04.08.2022
766 Clouds 23 998 33 10000 0.63 216 13:23 04.08.2022
767 Clouds 23 999 33 10000 0.42 199 11:38 04.08.2022
768 Clouds 23 1001 36 10000 1.47 195 10:20 04.08.2022
769 Clouds 22 1004 39 10000 1.53 193 07:44 04.08.2022
770 Clouds 15 1010 65 10000 1.27 152 02:46 04.08.2022
771 Clouds 13 1009 74 10000 1.86 143 23:58 03.08.2022
772 Clouds 13 1009 74 10000 1.86 143 23:36 03.08.2022
773 Clouds 15 1008 68 10000 1.87 132 21:27 03.08.2022
774 Clouds 15 1008 67 10000 1.47 138 20:20 03.08.2022
775 Clouds 14 1010 81 10000 1.32 211 18:53 03.08.2022
776 Rain 16 1008 71 10000 3.02 159 16:48 03.08.2022
777 Clouds 18 1004 60 10000 2.52 147 16:22 03.08.2022
778 Clouds 21 999 51 10000 0.66 169 13:40 03.08.2022
779 Clouds 22 1000 41 10000 0.46 167 10:50 03.08.2022
780 Clouds 21 1005 46 10000 2.12 196 07:23 03.08.2022
781 Clouds 16 1009 66 10000 0.89 169 04:22 03.08.2022
782 Clouds 15 1010 73 10000 0.46 151 03:23 03.08.2022
783 Rain 14 1008 74 10000 0.79 143 00:49 03.08.2022
784 Clouds 14 1007 75 10000 1.21 171 22:37 02.08.2022
785 Rain 14 1007 76 10000 1.42 199 21:51 02.08.2022
786 Rain 14 1007 77 10000 1.62 198 20:30 02.08.2022
787 Clouds 15 1006 73 10000 0.64 233 17:52 02.08.2022
788 Clouds 16 1002 68 10000 0.29 216 14:46 02.08.2022
789 Clouds 21 999 46 10000 1.12 217 10:50 02.08.2022
790 Clouds 19 1002 53 10000 1.32 184 08:54 02.08.2022
791 Clouds 20 1003 50 10000 1.74 179 07:52 02.08.2022
792 Clouds 19 1005 55 10000 2.05 174 05:40 02.08.2022
793 Clouds 16 1006 66 10000 1.63 168 03:40 02.08.2022
794 Clouds 14 1006 81 10000 0.8 191 23:35 01.08.2022
795 Clouds 14 1007 84 10000 1.19 191 22:21 01.08.2022
796 Clouds 14 1007 84 10000 1.61 206 20:40 01.08.2022
797 Clouds 14 1007 84 10000 1.55 241 19:22 01.08.2022
798 Clouds 15 1005 73 10000 2.21 233 17:27 01.08.2022
799 Rain 15 1005 73 10000 2.21 233 16:50 01.08.2022
800 Rain 16 1003 68 10000 2.93 230 15:51 01.08.2022
801 Rain 17 1000 60 10000 1.96 229 15:28 01.08.2022
802 Rain 20 997 53 10000 1.92 216 13:44 01.08.2022
803 Clouds 22 996 40 10000 2.14 169 11:49 01.08.2022
804 Clouds 22 998 43 10000 1.54 193 09:38 01.08.2022
805 Clouds 20 1002 49 10000 1.86 216 08:21 01.08.2022
806 Clouds 15 1009 69 10000 1.65 251 04:45 01.08.2022
807 Clouds 13 1009 78 10000 1.43 209 02:31 01.08.2022
808 Clouds 11 1009 87 10000 1.43 221 23:54 31.07.2022
809 Clouds 11 1009 87 10000 1.53 225 22:36 31.07.2022
810 Rain 11 1009 90 10000 2.48 224 20:50 31.07.2022
811 Rain 12 1008 91 10000 2.98 223 19:40 31.07.2022
812 Rain 13 1006 81 10000 3.93 215 17:44 31.07.2022
813 Rain 16 1001 59 10000 2.22 228 15:30 31.07.2022
814 Clouds 19 997 51 10000 2.04 266 13:31 31.07.2022
815 Clouds 21 996 38 10000 1.49 222 11:45 31.07.2022
816 Clouds 20 999 42 10000 2.06 204 09:28 31.07.2022
817 Clouds 20 1001 44 10000 2.49 195 06:43 31.07.2022
818 Clouds 15 1005 63 10000 1.57 158 02:57 31.07.2022
819 Clouds 14 1004 67 10000 1.75 162 23:30 30.07.2022
820 Clouds 14 1004 67 10000 1.73 173 22:19 30.07.2022
821 Clouds 14 1004 67 10000 1.73 173 21:47 30.07.2022
822 Clouds 14 1004 66 10000 1.55 180 20:56 30.07.2022
823 Clouds 15 1004 64 10000 1.96 176 19:58 30.07.2022
824 Clouds 16 1003 59 10000 2.29 176 18:26 30.07.2022
825 Clouds 16 1003 59 10000 2.29 176 17:41 30.07.2022
826 Clouds 18 1000 50 10000 1.4 193 15:38 30.07.2022
827 Clouds 18 998 48 10000 1.29 199 14:53 30.07.2022
828 Clouds 22 998 38 10000 1.43 173 12:47 30.07.2022
829 Clouds 22 998 38 10000 2.05 178 11:55 30.07.2022
830 Clouds 22 1000 37 10000 2.32 186 10:28 30.07.2022
831 Clouds 22 1000 37 10000 2.32 186 09:46 30.07.2022
832 Clouds 21 1003 43 10000 2.41 189 07:54 30.07.2022
833 Clouds 13 1011 74 10000 0.53 152 02:36 30.07.2022
834 Clouds 12 1012 82 10000 0.79 166 01:46 30.07.2022
835 Clouds 10 1012 89 10000 1.05 169 22:25 29.07.2022
836 Clouds 11 1012 88 10000 1.46 170 21:23 29.07.2022
837 Clouds 12 1013 88 10000 1.57 196 19:57 29.07.2022
838 Clouds 12 1013 85 10000 2.06 205 17:53 29.07.2022
839 Clouds 14 1009 77 10000 3.19 216 15:21 29.07.2022
840 Clouds 15 1007 70 10000 4.2 280 13:18 29.07.2022
841 Clouds 20 1002 48 10000 1.11 270 10:42 29.07.2022
842 Clouds 20 1005 48 10000 0.38 182 08:50 29.07.2022
843 Clouds 19 1007 53 10000 0.32 185 07:54 29.07.2022
844 Clouds 13 1011 72 10000 1.86 158 01:47 29.07.2022
845 Clouds 14 1010 70 10000 2.18 164 22:49 28.07.2022
846 Clouds 14 1010 72 10000 2.38 171 21:20 28.07.2022
847 Clouds 14 1010 72 10000 2.38 171 20:31 28.07.2022
848 Clouds 14 1009 69 10000 2.75 175 19:43 28.07.2022
849 Clouds 15 1009 64 10000 3.21 176 18:50 28.07.2022
850 Clouds 16 1008 60 10000 2.8 179 17:43 28.07.2022
851 Clouds 16 1007 55 10000 2.21 171 16:51 28.07.2022
852 Clouds 17 1004 49 10000 2.79 160 15:30 28.07.2022
853 Clouds 22 1000 37 10000 2.28 166 13:29 28.07.2022
854 Clouds 22 1001 36 10000 2.31 181 10:37 28.07.2022
855 Clouds 19 1009 49 10000 1.3 192 06:42 28.07.2022
856 Clouds 16 1013 61 10000 0.43 144 05:29 28.07.2022
857 Clouds 10 1014 88 10000 0.47 38 00:49 28.07.2022
858 Clouds 11 1014 86 10000 0.88 59 22:41 27.07.2022
859 Clouds 11 1014 85 10000 1.08 45 21:28 27.07.2022
860 Clouds 11 1015 88 10000 0.83 35 19:43 27.07.2022
861 Clouds 12 1015 85 10000 0.39 42 17:50 27.07.2022
862 Clouds 12 1015 84 10000 2.15 33 15:52 27.07.2022
863 Clouds 11 1014 85 10000 3.01 4 14:58 27.07.2022
864 Clouds 11 1014 85 10000 3.01 4 14:35 27.07.2022
865 Clouds 19 1005 50 10000 3.1 39 12:50 27.07.2022
866 Clouds 20 1007 46 10000 2.32 193 07:54 27.07.2022
867 Clouds 18 1010 52 10000 2.13 193 06:56 27.07.2022
868 Clouds 12 1016 82 10000 0.95 204 02:42 27.07.2022
869 Clouds 12 1014 85 10000 0.41 98 22:29 26.07.2022
870 Clouds 12 1013 83 10000 0.76 64 21:21 26.07.2022
871 Clouds 12 1013 83 10000 0.76 64 20:31 26.07.2022
872 Clouds 12 1014 85 10000 1.96 47 18:44 26.07.2022
873 Clouds 12 1014 85 10000 2.66 13 18:19 26.07.2022
874 Rain 13 1013 81 10000 2.59 40 16:32 26.07.2022
875 Rain 13 1012 80 10000 3.21 41 15:36 26.07.2022
876 Clouds 15 1008 65 10000 1.44 333 13:46 26.07.2022
877 Clouds 18 1006 58 10000 1.64 3 11:39 26.07.2022
878 Clouds 21 1004 40 10000 1.81 189 09:32 26.07.2022
879 Clouds 17 1012 57 10000 1.61 190 06:26 26.07.2022
880 Clouds 11 1016 87 10000 0.51 234 00:57 26.07.2022
881 Clouds 11 1016 89 10000 0.7 229 23:33 25.07.2022
882 Clouds 11 1016 89 10000 0.38 186 22:27 25.07.2022
883 Clouds 11 1016 89 10000 0.38 186 21:43 25.07.2022
884 Clouds 11 1017 88 10000 1.44 219 20:42 25.07.2022
885 Clouds 11 1017 87 10000 2.06 222 19:50 25.07.2022
886 Clouds 12 1017 82 10000 0.57 13 18:21 25.07.2022
887 Clouds 12 1017 82 10000 0.57 13 17:31 25.07.2022
888 Clouds 15 1009 66 10000 3.14 59 15:20 25.07.2022
889 Clouds 22 1001 38 10000 3.75 138 12:29 25.07.2022
890 Clouds 22 1002 35 10000 3.66 129 10:32 25.07.2022
891 Clouds 21 1008 41 10000 1.12 188 06:32 25.07.2022
892 Clouds 11 1013 77 10000 0.6 129 23:55 24.07.2022
893 Clouds 11 1013 76 10000 1.01 171 23:18 24.07.2022
894 Clouds 11 1013 76 10000 1.01 171 22:34 24.07.2022
895 Clouds 12 1012 72 10000 1.03 109 21:28 24.07.2022
896 Clouds 12 1012 72 10000 1.03 109 20:53 24.07.2022
897 Clouds 12 1012 70 10000 0.5 116 20:27 24.07.2022
898 Clouds 12 1013 76 10000 1.47 63 18:56 24.07.2022
899 Clouds 13 1011 72 10000 2.31 42 16:48 24.07.2022
900 Clouds 14 1009 67 10000 3.43 34 15:51 24.07.2022
901 Clouds 16 1007 59 10000 3.63 48 14:38 24.07.2022
902 Clouds 23 999 27 10000 1.59 81 12:55 24.07.2022
903 Clouds 23 999 26 10000 1.51 174 12:18 24.07.2022
904 Clouds 23 1000 26 10000 1.5 153 11:26 24.07.2022
905 Clouds 22 1003 32 10000 1.67 98 08:56 24.07.2022
906 Clouds 21 1006 37 10000 1.44 93 07:52 24.07.2022
907 Clouds 19 1009 49 10000 1.1 164 06:27 24.07.2022
908 Clouds 11 1014 80 10000 0.79 58 01:50 24.07.2022
909 Clouds 10 1013 82 10000 0.52 83 22:25 23.07.2022
910 Clouds 11 1013 80 10000 0.8 95 20:35 23.07.2022
911 Clouds 10 1015 86 10000 1.26 48 18:51 23.07.2022
912 Clouds 11 1015 84 10000 1.13 38 17:48 23.07.2022
913 Clouds 12 1014 81 10000 2.39 70 17:23 23.07.2022
914 Clouds 13 1011 72 10000 3.41 83 15:51 23.07.2022
915 Clouds 16 1007 60 10000 1.25 126 15:20 23.07.2022
916 Clouds 16 1007 60 10000 1.25 126 14:36 23.07.2022
917 Clouds 18 1006 53 10000 2.64 196 13:53 23.07.2022
918 Clouds 20 1004 41 10000 2.61 210 11:46 23.07.2022
919 Clouds 21 1005 37 10000 3.32 158 10:28 23.07.2022
920 Clouds 20 1006 38 10000 2.48 145 09:26 23.07.2022
921 Clouds 18 1010 38 10000 0.45 169 05:58 23.07.2022
922 Clouds 13 1015 50 10000 0.5 71 02:54 23.07.2022
923 Clouds 10 1014 49 10000 1.33 34 23:57 22.07.2022
924 Clouds 11 1014 47 10000 1.69 18 21:18 22.07.2022
925 Clouds 13 1011 57 10000 0.77 7 19:58 22.07.2022
926 Clouds 14 1011 56 10000 0.8 341 18:41 22.07.2022
927 Clouds 15 1011 54 10000 1.17 34 17:38 22.07.2022
928 Clouds 15 1009 56 10000 0.36 21 15:30 22.07.2022
929 Clouds 21 1004 26 10000 0.65 106 12:33 22.07.2022
930 Clouds 21 1006 27 10000 1.29 89 09:45 22.07.2022
931 Clouds 21 1007 28 10000 1.41 84 09:19 22.07.2022
932 Clouds 19 1009 30 10000 1.45 56 07:30 22.07.2022
933 Clouds 13 1016 60 10000 2.29 34 04:19 22.07.2022
934 Clouds 10 1016 80 10000 2.03 31 23:27 21.07.2022
935 Clouds 11 1016 78 10000 1.8 37 21:37 21.07.2022
936 Clouds 12 1016 77 10000 1.15 46 19:41 21.07.2022
937 Clouds 13 1013 79 10000 0.64 209 18:29 21.07.2022
938 Clouds 14 1012 78 10000 0.59 210 17:20 21.07.2022
939 Clouds 14 1011 75 10000 1.08 183 15:49 21.07.2022
940 Clouds 14 1009 72 10000 1.57 184 14:46 21.07.2022
941 Clouds 16 1008 63 10000 1.77 180 13:49 21.07.2022
942 Clouds 17 1007 61 10000 0.59 204 11:48 21.07.2022
943 Clouds 15 1010 69 10000 0.63 123 09:54 21.07.2022
944 Clouds 15 1011 70 10000 0.81 84 08:53 21.07.2022
945 Clouds 13 1014 78 10000 1.58 41 07:50 21.07.2022
946 Clouds 11 1015 86 10000 2.32 25 06:27 21.07.2022
947 Clouds 11 1012 91 6245 1.53 329 02:49 21.07.2022
948 Rain 13 1008 82 10000 0.58 42 22:47 20.07.2022
949 Clouds 12 1009 82 10000 0.56 42 22:19 20.07.2022
950 Clouds 12 1009 83 10000 0.54 44 20:46 20.07.2022
951 Clouds 12 1010 83 10000 0.29 117 19:46 20.07.2022
952 Rain 12 1011 85 10000 0.6 56 18:54 20.07.2022
953 Rain 12 1011 85 10000 0.6 56 18:31 20.07.2022
954 Rain 12 1009 90 4953 1.5 37 17:28 20.07.2022
955 Clouds 13 1007 86 10000 2.06 71 15:33 20.07.2022
956 Clouds 14 1005 79 10000 0.84 88 14:49 20.07.2022
957 Clouds 20 998 47 10000 3 127 13:21 20.07.2022
958 Clouds 20 999 47 10000 5.13 140 10:59 20.07.2022
959 Clouds 23 1002 28 10000 0.7 182 06:35 20.07.2022
960 Clouds 14 1008 41 10000 1.08 36 01:56 20.07.2022
961 Clouds 11 1008 36 10000 1.43 33 00:42 20.07.2022
962 Clouds 12 1008 35 10000 1.93 33 22:37 19.07.2022
963 Clouds 12 1007 34 10000 2.2 36 22:18 19.07.2022
964 Clouds 13 1007 33 10000 2.63 31 20:50 19.07.2022
965 Clouds 14 1005 31 10000 2.28 29 19:37 19.07.2022
966 Clouds 15 1005 29 10000 2.47 20 18:42 19.07.2022
967 Clouds 15 1004 28 10000 2.2 12 17:55 19.07.2022
968 Clouds 16 1002 28 10000 2.14 351 15:49 19.07.2022
969 Clouds 21 999 27 10000 1.58 37 13:46 19.07.2022
970 Clouds 23 999 19 10000 2.1 55 11:34 19.07.2022
971 Clouds 23 1000 20 10000 2.5 27 09:54 19.07.2022
972 Clouds 23 1002 21 10000 2.16 28 08:48 19.07.2022
973 Clouds 22 1003 23 10000 1.82 30 08:21 19.07.2022
974 Clouds 22 1004 26 10000 1.77 28 07:18 19.07.2022
975 Clouds 19 1007 45 10000 1.44 21 05:20 19.07.2022
976 Clouds 19 1007 45 10000 1.44 21 04:40 19.07.2022
977 Clouds 11 1010 85 10000 0.47 306 00:21 19.07.2022
978 Clouds 12 1010 85 10000 0.8 260 23:21 18.07.2022
979 Clouds 12 1010 85 10000 0.8 260 22:51 18.07.2022
980 Clouds 12 1011 86 10000 1.43 230 21:27 18.07.2022
981 Clouds 12 1011 86 10000 1.43 230 20:49 18.07.2022
982 Clouds 12 1013 85 10000 0.71 191 19:24 18.07.2022
983 Clouds 12 1012 83 10000 1.98 184 16:50 18.07.2022
984 Clouds 12 1011 84 10000 1.05 209 15:41 18.07.2022
985 Clouds 11 1011 88 10000 1.53 25 13:41 18.07.2022
986 Clouds 11 1010 89 5433 2.07 359 12:37 18.07.2022
987 Clouds 24 996 37 10000 2.92 338 10:34 18.07.2022
988 Clouds 24 1000 37 10000 1.85 203 08:21 18.07.2022
989 Clouds 23 1002 41 10000 1.69 187 06:54 18.07.2022
990 Clouds 12 1009 80 10000 0.27 15 23:31 17.07.2022
991 Clouds 13 1009 80 10000 0.54 2 22:32 17.07.2022
992 Clouds 14 1009 77 10000 0.43 31 21:44 17.07.2022
993 Clouds 14 1010 77 10000 0.98 90 20:55 17.07.2022
994 Clouds 14 1010 77 10000 0.98 90 20:36 17.07.2022
995 Clouds 14 1010 78 10000 1.25 26 19:28 17.07.2022
996 Clouds 15 1009 75 10000 1.45 35 18:26 17.07.2022
997 Clouds 15 1009 75 10000 1.45 35 17:38 17.07.2022
998 Clouds 16 1007 67 10000 1.62 32 16:50 17.07.2022
999 Clouds 16 1006 63 10000 1.41 43 16:26 17.07.2022
1000 Clouds 17 1004 60 10000 2.29 4 14:37 17.07.2022
1001 Clouds 25 995 29 10000 0.89 297 13:30 17.07.2022
1002 Clouds 26 996 24 10000 1.5 240 11:32 17.07.2022
1003 Clouds 25 1000 28 10000 2.27 206 08:50 17.07.2022
1004 Clear 18 1009 48 10000 2.11 174 03:43 17.07.2022
1005 Clouds 17 1010 54 10000 1.82 169 02:32 17.07.2022
1006 Clouds 13 1009 61 10000 2.14 167 23:20 16.07.2022
1007 Clouds 15 1008 54 10000 2.17 170 21:25 16.07.2022
1008 Clouds 16 1007 50 10000 2.76 165 19:30 16.07.2022
1009 Clouds 17 1005 41 10000 2.96 153 18:27 16.07.2022
1010 Clouds 18 1002 36 10000 2.58 142 16:34 16.07.2022
1011 Clouds 24 997 26 10000 0.6 273 13:49 16.07.2022
1012 Clouds 25 998 22 10000 1.98 203 10:53 16.07.2022
1013 Clear 25 999 23 10000 2.4 198 09:33 16.07.2022
1014 Clear 24 1001 25 10000 2.5 202 08:43 16.07.2022
1015 Clear 23 1003 27 10000 2.48 196 08:19 16.07.2022
1016 Clear 17 1010 46 10000 1.8 174 04:21 16.07.2022
1017 Clear 16 1011 51 10000 1.75 166 02:49 16.07.2022
1018 Clear 12 1010 61 10000 2.14 165 23:30 15.07.2022
1019 Clear 12 1009 59 10000 1.92 165 22:41 15.07.2022
1020 Clear 14 1008 51 10000 2.65 166 21:29 15.07.2022
1021 Clear 14 1008 51 10000 2.65 166 20:30 15.07.2022
1022 Clouds 16 1006 44 10000 2.91 167 18:42 15.07.2022
1023 Clouds 17 1005 39 10000 2.93 171 17:38 15.07.2022
1024 Clouds 19 998 27 10000 1.56 199 14:54 15.07.2022
1025 Clear 24 997 18 10000 1.17 236 12:58 15.07.2022
1026 Clear 25 998 19 10000 1.24 218 11:44 15.07.2022
1027 Clear 24 1000 21 10000 2.34 189 10:23 15.07.2022
1028 Clear 21 1006 28 10000 3.11 185 06:30 15.07.2022
1029 Clouds 12 1011 66 10000 2.29 168 00:58 15.07.2022
1030 Clouds 12 1010 64 10000 2.36 171 00:22 15.07.2022
1031 Clouds 13 1009 62 10000 2.45 175 22:52 14.07.2022
1032 Clouds 14 1009 60 10000 2.36 170 21:51 14.07.2022
1033 Clouds 14 1009 60 10000 2.36 170 21:30 14.07.2022
1034 Clouds 15 1008 56 10000 2.7 165 20:45 14.07.2022
1035 Clouds 16 1007 52 10000 2.83 165 20:24 14.07.2022
1036 Clouds 17 1005 49 10000 3 167 19:19 14.07.2022
1037 Clouds 18 1001 42 10000 3.31 150 16:23 14.07.2022
1038 Clouds 18 1001 42 10000 3.31 150 15:34 14.07.2022
1039 Clouds 20 998 37 10000 3.72 141 14:31 14.07.2022
1040 Clouds 24 995 28 10000 1.8 142 13:21 14.07.2022
1041 Clouds 24 996 27 10000 1.6 136 11:56 14.07.2022
1042 Clouds 23 997 28 10000 1.13 140 11:24 14.07.2022
1043 Clouds 23 997 28 10000 1.13 140 10:37 14.07.2022
1044 Clouds 21 1002 36 10000 2.17 178 07:55 14.07.2022
1045 Clouds 16 1008 55 10000 2.6 167 03:29 14.07.2022
1046 Clouds 13 1007 65 10000 2.36 159 00:54 14.07.2022
1047 Clouds 13 1007 65 10000 2.56 157 23:35 13.07.2022
1048 Clouds 14 1005 61 10000 2.8 162 22:23 13.07.2022
1049 Clouds 15 1004 57 10000 2.87 160 21:21 13.07.2022
1050 Clouds 16 1003 54 10000 3.14 168 20:26 13.07.2022
1051 Clouds 18 1002 51 10000 3.12 163 17:56 13.07.2022
1052 Clouds 18 1000 49 10000 3.18 158 16:59 13.07.2022
1053 Clouds 20 998 43 10000 2.96 142 15:51 13.07.2022
1054 Clouds 22 994 37 10000 3.06 146 13:44 13.07.2022
1055 Clouds 23 996 33 10000 2.22 173 10:47 13.07.2022
1056 Clouds 23 997 34 10000 2.16 195 10:28 13.07.2022
1057 Clouds 23 997 33 10000 2.6 196 09:28 13.07.2022
1058 Clouds 23 998 34 10000 3.25 187 07:53 13.07.2022
1059 Clouds 18 1005 52 10000 2.6 165 03:34 13.07.2022
1060 Clouds 15 1004 64 10000 1.89 180 00:24 13.07.2022
1061 Clouds 15 1003 63 10000 1.29 182 22:28 12.07.2022
1062 Clouds 15 1003 63 10000 1.29 182 21:45 12.07.2022
1063 Clouds 16 1003 60 10000 1.46 189 20:44 12.07.2022
1064 Clouds 18 1002 51 10000 2.87 161 19:45 12.07.2022
1065 Clouds 19 1000 44 10000 2.68 151 18:25 12.07.2022
1066 Clouds 19 997 42 10000 1.63 135 16:24 12.07.2022
1067 Clouds 20 996 41 10000 0.98 106 14:31 12.07.2022
1068 Clouds 22 996 40 10000 1.47 11 13:34 12.07.2022
1069 Clouds 23 996 36 10000 0.64 147 11:54 12.07.2022
1070 Clouds 22 1000 39 10000 1.51 358 10:26 12.07.2022
1071 Clouds 22 1001 38 10000 0.97 333 08:46 12.07.2022
1072 Clouds 22 1002 38 10000 0.85 241 07:48 12.07.2022
1073 Clouds 20 1005 41 10000 2.37 175 05:45 12.07.2022
1074 Clouds 19 1006 44 10000 2.49 164 04:46 12.07.2022
1075 Clouds 15 1005 57 10000 2.56 178 00:20 12.07.2022
1076 Clouds 16 1004 57 10000 2.51 172 22:39 11.07.2022
1077 Clouds 18 1003 49 10000 2.95 171 20:56 11.07.2022
1078 Clouds 18 1003 49 10000 2.95 171 20:32 11.07.2022
1079 Clouds 17 1003 50 10000 2.89 166 18:50 11.07.2022
1080 Clouds 18 1002 47 10000 2.97 165 18:28 11.07.2022
1081 Clouds 19 1000 42 10000 2.9 155 16:26 11.07.2022
1082 Clouds 21 997 37 10000 3.7 161 15:28 11.07.2022
1083 Clouds 24 995 28 10000 2.78 183 13:19 11.07.2022
1084 Clouds 24 997 30 10000 2.2 180 11:23 11.07.2022
1085 Clouds 23 998 31 10000 2.16 172 09:55 11.07.2022
1086 Clouds 23 999 33 10000 3.11 190 09:27 11.07.2022
1087 Clouds 23 999 33 10000 3.11 190 08:31 11.07.2022
1088 Clouds 14 1006 63 10000 2.25 158 00:59 11.07.2022
1089 Clouds 14 1005 61 10000 2.33 163 23:54 10.07.2022
1090 Clouds 15 1005 59 10000 2.51 171 22:45 10.07.2022
1091 Clouds 16 1004 55 10000 3.1 168 20:56 10.07.2022
1092 Clouds 16 1004 55 10000 3.1 168 20:36 10.07.2022
1093 Clouds 18 1002 48 10000 3.34 175 19:29 10.07.2022
1094 Clouds 18 1002 48 10000 3.34 175 19:29 10.07.2022
1095 Clouds 19 1001 45 10000 2.71 179 18:25 10.07.2022
1096 Clouds 19 1001 45 10000 2.71 179 17:33 10.07.2022
1097 Clouds 20 998 39 10000 3.12 160 16:21 10.07.2022
1098 Clouds 21 996 35 10000 2.85 161 14:47 10.07.2022
1099 Clouds 24 994 28 10000 0.52 205 13:30 10.07.2022
1100 Clouds 25 994 23 10000 1.58 206 11:57 10.07.2022
1101 Clouds 25 996 26 10000 1.67 202 09:46 10.07.2022
1102 Clouds 24 998 28 10000 2.07 197 08:44 10.07.2022
1103 Clouds 22 1002 34 10000 2.59 189 07:20 10.07.2022
1104 Clouds 14 1005 63 10000 2.65 166 23:53 09.07.2022
1105 Clouds 16 1004 58 10000 2.79 164 22:26 09.07.2022
1106 Clouds 16 1004 58 10000 2.79 164 21:49 09.07.2022
1107 Clouds 16 1002 51 10000 2.84 159 19:57 09.07.2022
1108 Clouds 17 1001 48 10000 2.8 172 18:32 09.07.2022
1109 Clouds 18 1000 44 10000 2.66 177 17:32 09.07.2022
1110 Clouds 19 999 38 10000 2.78 176 16:39 09.07.2022
1111 Clouds 20 997 36 10000 2.47 154 15:39 09.07.2022
1112 Clouds 24 993 29 10000 2.28 140 14:24 09.07.2022
1113 Clouds 24 993 29 10000 2.28 140 13:49 09.07.2022
1114 Clouds 25 992 24 10000 1.97 133 12:43 09.07.2022
1115 Clouds 25 995 27 10000 1.48 148 11:19 09.07.2022
1116 Clouds 24 997 28 10000 1.85 158 10:22 09.07.2022
1117 Clouds 23 999 33 10000 2.04 175 07:45 09.07.2022
1118 Clouds 19 1005 49 10000 1.57 164 04:53 09.07.2022
1119 Clouds 12 1008 74 10000 1.13 138 00:59 09.07.2022
1120 Clouds 13 1007 72 10000 0.73 126 22:53 08.07.2022
1121 Clouds 13 1007 71 10000 0.83 98 21:34 08.07.2022
1122 Clouds 13 1007 71 10000 0.68 95 20:40 08.07.2022
1123 Clouds 14 1006 68 10000 0.78 113 19:48 08.07.2022
1124 Clouds 15 1007 67 10000 0.17 257 18:20 08.07.2022
1125 Clouds 16 1006 63 10000 0.08 58 16:40 08.07.2022
1126 Clouds 16 1004 64 10000 1.14 9 14:51 08.07.2022
1127 Clouds 22 998 37 10000 1.82 73 13:26 08.07.2022
1128 Clouds 21 1000 46 10000 4.31 159 11:28 08.07.2022
1129 Clouds 25 996 30 10000 2.46 120 10:28 08.07.2022
1130 Clouds 26 999 25 10000 0.4 191 08:27 08.07.2022
1131 Clouds 24 1002 31 10000 0.93 176 06:49 08.07.2022
1132 Clouds 13 1011 64 10000 0.54 33 01:31 08.07.2022
1133 Clouds 12 1010 72 10000 0.4 57 22:59 07.07.2022
1134 Clouds 12 1010 72 10000 0.96 22 22:29 07.07.2022
1135 Clear 13 1011 71 10000 0.88 4 20:35 07.07.2022
1136 Clouds 13 1012 76 10000 1.46 50 18:20 07.07.2022
1137 Clouds 14 1011 76 10000 2.13 53 16:51 07.07.2022
1138 Clouds 17 1009 64 10000 3.86 52 14:34 07.07.2022
1139 Clouds 24 999 28 10000 0.55 18 13:18 07.07.2022
1140 Clouds 24 1000 29 10000 1.44 193 12:24 07.07.2022
1141 Clouds 24 1000 29 10000 1.44 193 11:45 07.07.2022
1142 Clouds 24 1002 32 10000 2.09 148 11:24 07.07.2022
1143 Clouds 24 1002 32 10000 2.09 148 10:41 07.07.2022
1144 Clouds 23 1004 36 10000 3.18 133 10:23 07.07.2022
1145 Clouds 23 1006 35 10000 1.12 207 06:49 07.07.2022
1146 Clouds 13 1015 67 10000 0.49 53 01:51 07.07.2022
1147 Clouds 12 1014 73 10000 1.03 43 23:36 06.07.2022
1148 Clouds 12 1014 73 10000 1.2 48 23:18 06.07.2022
1149 Clouds 12 1014 73 10000 1.2 48 22:52 06.07.2022
1150 Clouds 12 1014 73 10000 1.2 48 22:34 06.07.2022
1151 Clouds 13 1014 71 10000 1.45 46 20:36 06.07.2022
1152 Clouds 13 1014 71 10000 1.32 38 19:34 06.07.2022
1153 Clouds 16 1011 54 10000 3.26 63 17:22 06.07.2022
1154 Clouds 18 1006 39 10000 3 67 15:59 06.07.2022
1155 Clouds 23 1001 28 10000 1.26 109 13:56 06.07.2022
1156 Clouds 24 1001 23 10000 0.87 93 12:30 06.07.2022
1157 Clouds 24 1001 23 10000 0.87 93 12:30 06.07.2022
1158 Clouds 24 1002 25 10000 0.99 89 11:44 06.07.2022
1159 Clouds 22 1005 33 10000 3.03 105 10:18 06.07.2022
1160 Clouds 21 1007 37 10000 3.38 119 07:44 06.07.2022
1161 Clouds 22 1008 30 10000 1.37 113 07:19 06.07.2022
1162 Clouds 12 1012 46 10000 0.93 66 01:20 06.07.2022
1163 Clouds 13 1010 43 10000 1.08 51 22:44 05.07.2022
1164 Clouds 13 1010 42 10000 1.1 61 21:32 05.07.2022
1165 Clouds 14 1010 40 10000 1.05 61 20:38 05.07.2022
1166 Clouds 15 1008 42 10000 1.03 107 19:41 05.07.2022
1167 Clouds 18 1007 34 10000 1.24 16 18:26 05.07.2022
1168 Clouds 18 1007 34 10000 1.24 16 17:41 05.07.2022
1169 Clouds 19 1005 31 10000 1.99 24 16:39 05.07.2022
1170 Clouds 20 1000 27 10000 2.63 354 15:23 05.07.2022
1171 Clear 24 998 22 10000 0.59 334 13:47 05.07.2022
1172 Clear 25 998 15 10000 0.72 31 12:41 05.07.2022
1173 Clear 25 1000 15 10000 1.2 42 10:46 05.07.2022
1174 Clear 24 1002 16 10000 1.28 46 10:25 05.07.2022
1175 Clear 23 1005 16 10000 1.53 47 08:24 05.07.2022
1176 Clear 23 1004 17 10000 1.69 45 07:31 05.07.2022
1177 Clear 20 1009 23 10000 2.26 38 04:46 05.07.2022
1178 Clear 15 1012 29 10000 2.11 30 02:48 05.07.2022
1179 Clear 12 1011 31 10000 2.41 27 23:42 04.07.2022
1180 Clear 12 1011 30 10000 2.56 24 22:59 04.07.2022
1181 Clear 13 1010 29 10000 2.56 13 22:20 04.07.2022
1182 Clear 13 1010 28 10000 2.59 11 21:18 04.07.2022
1183 Clear 13 1010 28 10000 2.59 11 20:50 04.07.2022
1184 Clear 13 1010 28 10000 2.59 11 20:50 04.07.2022
1185 Clear 13 1010 28 10000 2.59 11 20:32 04.07.2022
1186 Clear 14 1010 27 10000 2.71 10 19:44 04.07.2022
1187 Clear 15 1008 31 10000 2.35 21 19:25 04.07.2022
1188 Clear 16 1006 32 10000 2.41 19 17:40 04.07.2022
1189 Clouds 18 1003 33 10000 2.05 47 15:42 04.07.2022
1190 Clouds 19 1000 33 10000 2.23 68 14:39 04.07.2022
1191 Clouds 25 997 18 10000 4.13 38 13:27 04.07.2022
1192 Clouds 25 997 18 10000 3.74 15 11:43 04.07.2022
1193 Clouds 24 998 22 10000 2.24 16 10:33 04.07.2022
1194 Clouds 24 999 23 10000 2.27 30 09:36 04.07.2022
1195 Clear 22 1005 31 10000 1.84 40 06:53 04.07.2022
1196 Clear 16 1011 54 10000 1.3 35 03:30 04.07.2022
1197 Clear 11 1011 72 10000 1.34 22 00:27 04.07.2022
1198 Clear 11 1010 71 10000 1.16 23 22:58 03.07.2022
1199 Clear 12 1010 68 10000 0.98 46 20:47 03.07.2022
1200 Clouds 13 1010 66 10000 1.17 12 20:21 03.07.2022
1201 Clouds 13 1010 69 10000 1.2 21 19:26 03.07.2022
1202 Clouds 13 1010 69 10000 1.2 21 18:32 03.07.2022
1203 Clouds 13 1010 67 10000 1.91 56 17:43 03.07.2022
1204 Clouds 15 1005 58 10000 1.97 32 15:29 03.07.2022
1205 Clouds 15 1005 58 10000 1.97 32 14:58 03.07.2022
1206 Clouds 17 1004 49 10000 4.16 43 13:59 03.07.2022
1207 Clouds 17 1003 50 10000 1.33 17 13:27 03.07.2022
1208 Clouds 17 1003 50 10000 1.33 17 12:32 03.07.2022
1209 Clouds 21 998 35 10000 4.04 295 11:18 03.07.2022
1210 Clouds 21 998 35 10000 4.04 295 10:38 03.07.2022
1211 Clouds 24 997 21 10000 0.95 132 08:59 03.07.2022
1212 Clear 23 1001 28 10000 0.92 35 07:34 03.07.2022
1213 Clear 13 1009 63 10000 0.67 72 01:39 03.07.2022
1214 Clear 12 1008 68 10000 1.24 87 23:50 02.07.2022
1215 Clear 12 1007 68 10000 0.9 94 22:32 02.07.2022
1216 Clouds 13 1007 66 10000 0.84 79 20:37 02.07.2022
1217 Clouds 14 1006 59 10000 1.9 99 19:51 02.07.2022
1218 Clouds 15 1005 55 10000 1.98 107 19:19 02.07.2022
1219 Clouds 16 1004 51 10000 0.6 96 17:41 02.07.2022
1220 Clouds 17 1003 48 10000 0.26 17 16:38 02.07.2022
1221 Clouds 21 996 34 10000 1.71 290 13:51 02.07.2022
1222 Clouds 23 996 30 10000 0.46 1 12:19 02.07.2022
1223 Clouds 24 995 25 10000 1.39 273 10:54 02.07.2022
1224 Clouds 24 995 25 10000 1.39 273 10:33 02.07.2022
1225 Clouds 24 997 22 10000 1.01 94 08:54 02.07.2022
1226 Clouds 23 999 24 10000 1.36 81 08:19 02.07.2022
1227 Clear 22 1001 25 10000 1.03 64 06:51 02.07.2022
1228 Clouds 13 1005 53 10000 0.79 98 00:55 02.07.2022
1229 Clouds 13 1004 50 10000 0.65 95 23:37 01.07.2022
1230 Clouds 14 1004 47 10000 0.67 63 22:40 01.07.2022
1231 Clouds 14 1004 44 10000 0.95 54 21:40 01.07.2022
1232 Clouds 15 1003 42 10000 1.25 49 20:59 01.07.2022
1233 Clouds 15 1003 42 10000 1.25 49 20:38 01.07.2022
1234 Clouds 16 1003 50 10000 1.35 120 19:42 01.07.2022
1235 Clouds 17 1001 41 10000 0.77 34 17:53 01.07.2022
1236 Clouds 18 998 39 10000 1.64 349 15:50 01.07.2022
1237 Clouds 23 995 30 10000 2.31 3 13:54 01.07.2022
1238 Clouds 25 994 19 10000 2.76 7 11:56 01.07.2022
1239 Clouds 24 997 24 10000 2.2 309 10:20 01.07.2022
1240 Clouds 24 997 24 10000 2.2 309 10:20 01.07.2022
1241 Clouds 24 997 24 10000 2.2 309 09:31 01.07.2022
1242 Clouds 17 1006 43 10000 2.02 341 03:42 01.07.2022
1243 Clouds 14 1004 51 10000 1.15 73 00:26 01.07.2022
1244 Clouds 14 1003 49 10000 1.22 116 22:58 30.06.2022
1245 Clouds 14 1003 49 10000 1.22 116 22:34 30.06.2022
1246 Clouds 15 1003 45 10000 0.83 91 21:59 30.06.2022
1247 Clouds 15 1003 45 10000 0.83 91 21:41 30.06.2022
1248 Clouds 15 1002 42 10000 1.03 8 20:30 30.06.2022
1249 Clouds 16 1002 40 10000 1.62 17 19:54 30.06.2022
1250 Clouds 16 1000 39 10000 1.65 351 19:24 30.06.2022
1251 Clouds 16 1000 39 10000 1.65 351 18:42 30.06.2022
1252 Clouds 17 1000 40 10000 1.11 293 17:43 30.06.2022
1253 Clear 17 999 38 10000 1.22 263 16:55 30.06.2022
1254 Clear 18 998 37 10000 1.59 248 15:39 30.06.2022
1255 Clouds 23 994 25 10000 1.69 276 13:34 30.06.2022
1256 Clouds 24 994 19 10000 1.94 302 12:35 30.06.2022
1257 Clouds 24 994 18 10000 1.86 297 11:37 30.06.2022
1258 Clouds 24 997 19 10000 1.01 254 09:55 30.06.2022
1259 Clouds 24 997 19 10000 1.01 254 09:35 30.06.2022
1260 Clear 22 999 23 10000 0.91 79 08:18 30.06.2022
1261 Clear 22 1001 27 10000 0.85 14 07:18 30.06.2022
1262 Clear 13 1008 64 10000 0.65 32 01:46 30.06.2022
1263 Clear 11 1006 69 10000 0.94 38 23:34 29.06.2022
1264 Clear 12 1006 68 10000 0.65 13 22:40 29.06.2022
1265 Clear 12 1006 67 10000 0.48 4 21:39 29.06.2022
1266 Clear 13 1006 65 10000 0.3 35 20:34 29.06.2022
1267 Clouds 14 1004 61 10000 0.36 108 19:39 29.06.2022
1268 Clouds 15 1004 55 10000 1.47 73 17:54 29.06.2022
1269 Clouds 16 1002 52 10000 1.27 72 16:48 29.06.2022
1270 Clouds 16 1001 51 10000 0.93 34 15:32 29.06.2022
1271 Clouds 21 998 33 10000 1.21 33 12:49 29.06.2022
1272 Clouds 21 998 33 10000 1.44 10 11:47 29.06.2022
1273 Clouds 17 1004 48 10000 1.82 359 09:34 29.06.2022
1274 Clouds 17 1005 53 10000 4.26 334 08:46 29.06.2022
1275 Clouds 19 1004 44 10000 0.54 170 05:42 29.06.2022
1276 Clouds 12 1009 77 10000 0.44 158 02:21 29.06.2022
1277 Clouds 10 1009 84 10000 0.92 166 00:38 29.06.2022
1278 Clouds 11 1009 83 10000 0.9 139 23:55 28.06.2022
1279 Clouds 11 1008 82 10000 0.31 109 22:48 28.06.2022
1280 Clouds 12 1008 81 10000 0.42 184 21:55 28.06.2022
1281 Clouds 12 1008 81 10000 0.42 184 21:33 28.06.2022
1282 Clouds 12 1008 79 10000 0.77 166 20:55 28.06.2022
1283 Clouds 12 1008 77 10000 0.86 175 19:48 28.06.2022
1284 Rain 15 1003 64 10000 0.51 79 19:24 28.06.2022
1285 Clouds 15 1003 64 10000 0.51 79 18:37 28.06.2022
1286 Clouds 17 1002 59 10000 1.17 215 16:35 28.06.2022
1287 Clouds 17 1001 58 10000 0.93 201 15:54 28.06.2022
1288 Clouds 20 999 46 10000 0.5 194 14:22 28.06.2022
1289 Clouds 21 998 41 10000 0.19 18 13:55 28.06.2022
1290 Clouds 21 998 41 10000 0.19 18 13:32 28.06.2022
1291 Clouds 23 995 33 10000 2.35 78 11:57 28.06.2022
1292 Clouds 22 999 39 10000 0.73 83 09:49 28.06.2022
1293 Clouds 20 1001 42 10000 1.51 339 08:53 28.06.2022
1294 Clouds 21 1002 41 10000 1.96 327 07:58 28.06.2022
1295 Clouds 21 1002 39 10000 0.24 62 07:19 28.06.2022
1296 Clouds 13 1009 77 10000 1.18 22 02:25 28.06.2022
1297 Clouds 13 1007 77 10000 0.75 316 23:48 27.06.2022
1298 Clouds 13 1009 83 10000 1.31 21 22:56 27.06.2022
1299 Clouds 13 1009 83 10000 1.55 32 21:39 27.06.2022
1300 Clouds 13 1008 82 10000 1.81 51 21:18 27.06.2022
1301 Clouds 14 1008 77 10000 1.85 37 19:54 27.06.2022
1302 Clouds 14 1008 72 10000 2.12 32 18:45 27.06.2022
1303 Clouds 15 1006 67 10000 1.78 213 17:26 27.06.2022
1304 Clouds 15 1005 63 10000 2.09 187 15:43 27.06.2022
1305 Clouds 18 1002 52 10000 2.81 198 13:51 27.06.2022
1306 Clouds 19 1001 51 10000 3.33 208 12:57 27.06.2022
1307 Clouds 19 1002 52 10000 3.61 204 11:30 27.06.2022
1308 Clouds 19 1005 54 10000 3.61 207 09:45 27.06.2022
1309 Clouds 19 1006 55 10000 3.17 215 08:40 27.06.2022
1310 Clouds 18 1007 57 10000 2.88 201 07:39 27.06.2022
1311 Clouds 14 1011 72 10000 0.9 212 05:22 27.06.2022
1312 Clouds 11 1012 88 10000 1.03 88 01:22 27.06.2022
1313 Rain 12 1011 89 10000 2.11 98 22:58 26.06.2022
1314 Rain 13 1009 82 10000 1.32 131 21:37 26.06.2022
1315 Rain 14 1009 78 10000 1.6 163 20:28 26.06.2022
1316 Rain 14 1009 76 10000 1.68 181 18:33 26.06.2022
1317 Rain 14 1009 75 10000 1.28 208 17:40 26.06.2022
1318 Clouds 14 1007 73 10000 0.87 185 15:36 26.06.2022
1319 Clouds 18 1004 57 10000 1.48 246 14:22 26.06.2022
1320 Clouds 18 1003 56 10000 1.58 207 13:24 26.06.2022
1321 Clouds 18 1004 58 10000 1.42 227 11:39 26.06.2022
1322 Clouds 17 1006 61 10000 1.46 200 10:42 26.06.2022
1323 Clouds 17 1007 62 10000 1.46 225 09:58 26.06.2022
1324 Clouds 14 1010 75 10000 0.57 338 07:47 26.06.2022
1325 Clouds 14 1010 75 10000 0.57 338 07:47 26.06.2022
1326 Clouds 14 1011 82 10000 1.39 342 06:19 26.06.2022
1327 Clouds 13 1008 85 10000 0.92 151 00:37 26.06.2022
1328 Clouds 13 1007 86 10000 0.25 241 00:18 26.06.2022
1329 Clouds 13 1007 86 10000 0.25 241 23:31 25.06.2022
1330 Clouds 13 1006 82 10000 1.15 191 22:46 25.06.2022
1331 Clouds 13 1007 82 10000 0.55 148 22:24 25.06.2022
1332 Clouds 13 1006 80 10000 0.98 113 21:21 25.06.2022
1333 Rain 13 1006 80 10000 0.98 113 20:48 25.06.2022
1334 Rain 14 1006 76 10000 0.77 122 20:25 25.06.2022
1335 Rain 15 1004 65 10000 1.88 145 18:23 25.06.2022
1336 Rain 16 1003 65 10000 1.62 163 17:27 25.06.2022
1337 Rain 17 1002 61 10000 1.86 166 16:27 25.06.2022
1338 Rain 17 1001 59 10000 1.46 156 14:41 25.06.2022
1339 Clouds 18 1000 54 10000 0.73 165 12:51 25.06.2022
1340 Clouds 18 1001 56 10000 1.6 156 12:27 25.06.2022
1341 Clouds 17 1004 65 10000 2.12 139 09:35 25.06.2022
1342 Clouds 16 1005 67 10000 1.72 154 08:54 25.06.2022
1343 Clouds 16 1006 68 10000 1.18 171 08:20 25.06.2022
1344 Clouds 20 1002 49 10000 1.9 188 06:35 25.06.2022
1345 Rain 15 1004 66 10000 1.93 149 00:50 25.06.2022
1346 Clouds 15 1003 65 10000 1.94 159 23:57 24.06.2022
1347 Clouds 16 1002 64 10000 2.24 159 22:28 24.06.2022
1348 Rain 17 1002 60 10000 2.23 151 21:26 24.06.2022
1349 Clouds 18 1002 57 10000 2.56 155 20:23 24.06.2022
1350 Rain 18 1002 57 10000 2.56 155 19:37 24.06.2022
1351 Clouds 19 1001 52 10000 3.04 156 19:18 24.06.2022
1352 Rain 19 1001 52 10000 3.04 156 18:31 24.06.2022
1353 Clouds 19 1000 48 10000 2.95 153 17:57 24.06.2022
1354 Clouds 19 999 47 10000 2.44 159 16:46 24.06.2022
1355 Clouds 21 995 41 10000 2.24 134 14:32 24.06.2022
1356 Clouds 23 994 33 10000 1.02 130 13:59 24.06.2022
1357 Clouds 23 994 33 10000 1.02 130 13:41 24.06.2022
1358 Clouds 23 995 34 10000 1.28 164 11:41 24.06.2022
1359 Clouds 23 997 36 10000 1.11 161 10:36 24.06.2022
1360 Clouds 23 998 37 10000 1.59 175 09:42 24.06.2022
1361 Clouds 22 999 38 10000 2.1 199 08:54 24.06.2022
1362 Clouds 23 999 36 10000 2.61 205 07:57 24.06.2022
1363 Clouds 22 1001 40 10000 2.21 206 06:44 24.06.2022
1364 Clouds 21 1003 45 10000 1.85 195 06:22 24.06.2022
1365 Clouds 19 1005 50 10000 1.55 182 04:46 24.06.2022
1366 Clouds 14 1008 76 10000 0.83 216 23:32 23.06.2022
1367 Clouds 14 1008 76 10000 0.17 238 22:43 23.06.2022
1368 Clouds 14 1008 74 10000 1.01 279 20:59 23.06.2022
1369 Clouds 15 1007 76 10000 0.49 318 20:36 23.06.2022
1370 Clouds 15 1007 77 10000 1.82 11 19:48 23.06.2022
1371 Clouds 17 1006 67 10000 2.23 355 18:26 23.06.2022
1372 Clouds 17 1006 67 10000 2.23 355 17:34 23.06.2022
1373 Clouds 17 1003 60 10000 1.52 70 16:26 23.06.2022
1374 Clouds 20 999 51 10000 2.96 90 15:26 23.06.2022
1375 Clouds 23 996 38 10000 2.59 93 14:18 23.06.2022
1376 Clouds 25 994 28 10000 1.71 143 11:41 23.06.2022
1377 Clouds 25 995 28 10000 1.09 186 10:40 23.06.2022
1378 Clouds 25 999 31 10000 1.83 192 09:19 23.06.2022
1379 Clouds 19 1006 49 10000 1.88 178 04:43 23.06.2022
1380 Clouds 14 1009 73 10000 1.97 174 00:27 23.06.2022
1381 Clouds 14 1009 73 10000 1.97 174 23:52 22.06.2022
1382 Clouds 14 1008 70 10000 2 176 23:18 22.06.2022
1383 Clouds 15 1007 67 10000 2.2 178 21:36 22.06.2022
1384 Clouds 15 1007 63 10000 2.52 174 20:48 22.06.2022
1385 Clouds 16 1006 58 10000 2.99 173 20:18 22.06.2022
1386 Clouds 17 1006 58 10000 3.02 179 19:27 22.06.2022
1387 Clouds 18 1005 52 10000 3.26 175 17:33 22.06.2022
1388 Clouds 19 1003 47 10000 2.98 159 16:40 22.06.2022
1389 Clouds 21 998 33 10000 2.01 194 15:28 22.06.2022
1390 Clouds 21 998 33 10000 2.01 194 14:41 22.06.2022
1391 Clouds 24 995 26 10000 1.78 217 13:46 22.06.2022
1392 Clouds 24 995 24 10000 1.9 217 13:24 22.06.2022
1393 Clouds 25 996 24 10000 1.79 227 11:50 22.06.2022
1394 Clouds 24 997 25 10000 1.93 222 10:58 22.06.2022
1395 Clouds 24 997 25 10000 1.93 222 10:36 22.06.2022
1396 Clouds 23 1000 29 10000 2.22 215 08:57 22.06.2022
1397 Clouds 21 1003 35 10000 2.32 197 06:39 22.06.2022
1398 Clouds 14 1008 60 10000 1.82 158 01:52 22.06.2022
1399 Clouds 12 1007 64 10000 2.05 160 00:56 22.06.2022
1400 Clouds 13 1006 61 10000 2.88 166 22:40 21.06.2022
1401 Clouds 15 1003 54 10000 3.03 165 20:40 21.06.2022
1402 Clouds 17 1001 50 10000 3.26 171 19:18 21.06.2022
1403 Clouds 17 1000 48 10000 2.91 175 17:44 21.06.2022
1404 Clouds 18 999 46 10000 2.54 171 16:36 21.06.2022
1405 Clouds 23 993 29 10000 3.31 169 11:56 21.06.2022
1406 Clouds 23 994 29 10000 2.86 175 10:33 21.06.2022
1407 Clouds 22 996 31 10000 2.38 175 08:54 21.06.2022
1408 Clouds 21 998 34 10000 2.47 178 07:40 21.06.2022
1409 Clouds 17 1002 44 10000 2.01 176 04:42 21.06.2022
1410 Clouds 12 1003 64 10000 2.43 167 23:45 20.06.2022
1411 Clouds 14 1001 59 10000 3.01 171 22:21 20.06.2022
1412 Clouds 14 1001 59 10000 3.01 171 22:21 20.06.2022
1413 Clouds 14 1001 59 10000 3.01 171 21:36 20.06.2022
1414 Clouds 16 1000 54 10000 3.27 166 20:27 20.06.2022
1415 Clouds 16 999 56 10000 2.94 170 19:23 20.06.2022
1416 Clouds 16 999 58 10000 1.81 168 18:25 20.06.2022
1417 Clouds 16 999 58 10000 1.81 168 17:45 20.06.2022
1418 Clouds 17 997 57 10000 1.21 220 16:24 20.06.2022
1419 Clouds 18 994 47 10000 2.66 201 15:20 20.06.2022
1420 Clouds 21 992 37 10000 3.33 202 12:18 20.06.2022
1421 Clouds 21 994 36 10000 2.93 206 09:57 20.06.2022
1422 Clouds 21 996 37 10000 3.33 178 08:46 20.06.2022
1423 Clouds 20 997 38 10000 3.25 185 07:51 20.06.2022
1424 Clouds 18 1001 46 10000 2.78 176 05:18 20.06.2022
1425 Clouds 14 1003 62 10000 2.36 174 01:32 20.06.2022
1426 Clouds 13 1002 65 10000 2.52 173 23:49 19.06.2022
1427 Clouds 14 1002 64 10000 2.65 170 22:40 19.06.2022
1428 Clouds 14 1001 64 10000 2.71 171 21:45 19.06.2022
1429 Clouds 15 1001 63 10000 2.35 169 21:26 19.06.2022
1430 Clouds 16 1000 57 10000 2.97 166 20:25 19.06.2022
1431 Clouds 16 1000 57 10000 2.97 166 19:46 19.06.2022
1432 Clouds 16 1001 58 10000 2.86 179 18:41 19.06.2022
1433 Clouds 16 1000 56 10000 2.63 193 17:48 19.06.2022
1434 Clouds 17 998 54 10000 2.63 190 17:21 19.06.2022
1435 Rain 17 998 54 10000 2.63 190 16:34 19.06.2022
1436 Clouds 18 996 46 10000 3.16 207 15:38 19.06.2022
1437 Clouds 18 994 44 10000 2.9 182 14:55 19.06.2022
1438 Clouds 21 992 36 10000 3.5 180 13:58 19.06.2022
1439 Clouds 22 992 30 10000 3.5 186 12:56 19.06.2022
1440 Clouds 22 994 31 10000 2.7 181 10:54 19.06.2022
1441 Clouds 22 995 32 10000 2.61 187 09:40 19.06.2022
1442 Clouds 21 997 34 10000 2.54 184 08:47 19.06.2022
1443 Clouds 21 997 34 10000 2.54 184 08:47 19.06.2022
1444 Clouds 20 998 38 10000 2.94 193 07:51 19.06.2022
1445 Clouds 17 1002 47 10000 3.01 178 04:45 19.06.2022
1446 Clouds 12 1004 73 10000 2.42 162 01:29 19.06.2022
1447 Clouds 13 1004 73 10000 2.16 161 00:24 19.06.2022
1448 Clouds 13 1004 73 10000 2.16 161 23:35 18.06.2022
1449 Clouds 14 1003 69 10000 2.19 161 22:36 18.06.2022
1450 Clouds 14 1003 69 10000 2.19 161 22:36 18.06.2022
1451 Clouds 14 1003 70 10000 2.45 152 20:56 18.06.2022
1452 Clouds 14 1003 70 10000 2.45 152 20:38 18.06.2022
1453 Clouds 14 1002 70 10000 2.59 147 19:38 18.06.2022
1454 Clouds 14 1002 70 10000 2.78 155 18:45 18.06.2022
1455 Clouds 14 1002 69 10000 3.11 164 17:34 18.06.2022
1456 Clouds 15 1000 63 10000 3.63 158 16:47 18.06.2022
1457 Clouds 16 998 55 10000 3.77 165 15:31 18.06.2022
1458 Clouds 18 995 45 10000 3.1 175 14:44 18.06.2022
1459 Clouds 22 992 29 10000 2.04 205 13:23 18.06.2022
1460 Clouds 22 993 29 10000 2.87 210 11:45 18.06.2022
1461 Clouds 22 994 32 10000 2.83 212 10:47 18.06.2022
1462 Clouds 20 998 39 10000 2.74 207 09:23 18.06.2022
1463 Clouds 20 998 39 10000 2.74 207 08:30 18.06.2022
1464 Clouds 20 998 39 10000 2.74 207 08:30 18.06.2022
1465 Clouds 19 1000 43 10000 2.39 205 06:49 18.06.2022
1466 Clouds 14 1005 62 10000 0.99 127 03:46 18.06.2022
1467 Clouds 11 1006 78 10000 1.22 43 01:26 18.06.2022
1468 Clouds 11 1006 78 10000 1.22 43 01:26 18.06.2022
1469 Clouds 11 1006 78 10000 1.22 43 01:26 18.06.2022
1470 Clouds 11 1006 78 10000 1.22 43 01:26 18.06.2022
1471 Clouds 11 1006 78 10000 1.22 43 00:48 18.06.2022
1472 Clouds 11 1006 80 10000 0.95 77 23:58 17.06.2022
1473 Clouds 11 1006 81 10000 1.08 95 23:24 17.06.2022
1474 Clouds 12 1006 77 10000 1.15 111 21:27 17.06.2022
1475 Clouds 13 1004 72 10000 1.5 155 20:24 17.06.2022
1476 Clouds 14 1004 70 10000 1.93 147 18:49 17.06.2022
1477 Clouds 14 1004 70 10000 2.33 152 17:44 17.06.2022
1478 Rain 15 1003 65 10000 2.17 146 16:43 17.06.2022
1479 Clouds 16 1001 59 10000 1.45 128 16:18 17.06.2022
1480 Rain 16 1001 59 10000 1.45 128 15:34 17.06.2022
1481 Clouds 21 992 34 10000 1.32 324 14:20 17.06.2022
1482 Clouds 22 991 33 10000 1.1 177 13:48 17.06.2022
1483 Clouds 23 990 26 10000 0.98 167 13:26 17.06.2022
1484 Clouds 23 991 27 10000 0.69 178 11:58 17.06.2022
1485 Clouds 23 991 27 10000 0.69 178 11:39 17.06.2022
1486 Clouds 22 992 28 10000 1 211 11:21 17.06.2022
1487 Clouds 21 995 33 10000 1.99 176 08:33 17.06.2022
1488 Clouds 19 1000 46 10000 0.93 204 07:51 17.06.2022
1489 Clouds 17 1002 54 10000 0.8 165 06:32 17.06.2022
1490 Clouds 11 1009 83 10000 1.32 144 03:20 17.06.2022
1491 Clouds 9 1009 90 9858 1.63 192 00:43 17.06.2022
1492 Clouds 10 1008 87 10000 1.29 144 23:25 16.06.2022
1493 Clouds 10 1008 87 10000 1.29 144 22:31 16.06.2022
1494 Clouds 10 1009 89 8898 1.85 135 21:19 16.06.2022
1495 Clouds 10 1009 89 8898 1.85 135 20:50 16.06.2022
1496 Clouds 11 1008 86 10000 2.72 143 19:59 16.06.2022
1497 Clouds 11 1007 86 10000 1.46 194 18:48 16.06.2022
1498 Clouds 11 1007 84 10000 0.67 201 17:49 16.06.2022
1499 Rain 12 1005 82 5960 2 242 17:27 16.06.2022
1500 Clouds 17 997 53 10000 2.32 191 16:19 16.06.2022
1501 Clouds 18 996 47 10000 2.35 160 15:21 16.06.2022
1502 Clouds 20 994 40 10000 3.2 163 14:22 16.06.2022
1503 Clouds 20 994 40 10000 3.36 175 12:53 16.06.2022
1504 Clouds 20 994 40 10000 3.36 175 12:34 16.06.2022
1505 Clouds 20 995 41 10000 2.61 179 11:48 16.06.2022
1506 Clouds 20 997 43 10000 1.85 181 10:41 16.06.2022
1507 Clouds 19 999 47 10000 1.04 206 09:43 16.06.2022
1508 Clouds 18 1001 50 10000 1.5 243 08:59 16.06.2022
1509 Clouds 17 1002 58 10000 2.41 163 07:42 16.06.2022
1510 Clouds 16 1004 61 10000 2.23 164 06:36 16.06.2022
1511 Clouds 13 1007 73 10000 1.23 180 04:24 16.06.2022
1512 Clouds 11 1009 85 10000 1.36 188 01:52 16.06.2022
1513 Clouds 11 1008 86 10000 1.15 200 01:29 16.06.2022
1514 Clouds 11 1008 86 10000 1.22 213 00:29 16.06.2022
1515 Clouds 11 1008 86 10000 1.42 208 22:54 15.06.2022
1516 Clouds 11 1008 85 10000 1.3 179 21:55 15.06.2022
1517 Clouds 11 1008 83 10000 1.07 219 21:20 15.06.2022
1518 Clouds 11 1008 83 10000 1.07 219 20:37 15.06.2022
1519 Clouds 11 1009 84 10000 1.14 270 20:18 15.06.2022
1520 Clouds 11 1009 87 10000 2.37 191 18:47 15.06.2022
1521 Clouds 11 1010 86 9709 3.06 220 17:54 15.06.2022
1522 Rain 12 1008 82 9104 3.55 213 16:37 15.06.2022
1523 Rain 15 1001 65 10000 2.45 348 15:23 15.06.2022
1524 Clouds 16 1001 58 10000 2.22 42 13:37 15.06.2022
1525 Clouds 17 999 55 10000 3.33 33 12:51 15.06.2022
1526 Clouds 17 1000 55 10000 2.22 49 11:37 15.06.2022
1527 Clouds 15 1005 65 10000 2.43 55 10:23 15.06.2022
1528 Clouds 15 1005 65 10000 2.43 55 09:37 15.06.2022
1529 Clouds 11 1010 83 10000 2.96 338 08:27 15.06.2022
1530 Clouds 14 1007 67 10000 1.46 242 06:33 15.06.2022
1531 Clouds 12 1009 77 10000 0.99 132 03:28 15.06.2022
1532 Clouds 11 1010 81 10000 0.75 115 01:38 15.06.2022
1533 Clouds 11 1009 83 10000 0.99 157 00:50 15.06.2022
1534 Clouds 11 1009 84 10000 0.99 168 23:39 14.06.2022
1535 Clouds 11 1010 85 10000 0.63 170 22:52 14.06.2022
1536 Clouds 11 1009 85 10000 1.15 153 21:53 14.06.2022
1537 Clouds 11 1009 87 10000 1.66 157 21:27 14.06.2022
1538 Clouds 11 1009 87 10000 1.66 157 20:48 14.06.2022
1539 Clouds 12 1007 81 10000 1.15 162 19:59 14.06.2022
1540 Clouds 12 1008 79 10000 1.36 178 18:45 14.06.2022
1541 Clouds 11 1009 80 10000 0.77 189 17:29 14.06.2022
1542 Clouds 11 1009 80 10000 0.77 189 16:43 14.06.2022
1543 Clouds 11 1009 82 10000 2.23 235 15:49 14.06.2022
1544 Rain 10 1008 87 10000 1.73 218 14:57 14.06.2022
1545 Clouds 11 1007 87 2866 3.67 294 14:23 14.06.2022
1546 Rain 15 1001 66 7194 4.58 317 13:39 14.06.2022
1547 Clouds 23 993 30 10000 2.97 194 12:27 14.06.2022
1548 Clouds 23 994 32 10000 1.96 192 11:27 14.06.2022
1549 Clouds 23 994 32 10000 1.96 192 10:35 14.06.2022
1550 Clouds 22 997 35 10000 1.95 199 09:45 14.06.2022
1551 Clouds 20 1000 40 10000 2.28 204 08:41 14.06.2022
1552 Clouds 18 1005 48 10000 2.21 213 07:26 14.06.2022
1553 Clouds 18 1005 48 10000 2.21 213 07:26 14.06.2022
1554 Clouds 15 1008 61 10000 1.93 207 04:35 14.06.2022
1555 Clouds 12 1010 76 10000 1.6 201 02:45 14.06.2022
1556 Clouds 11 1009 82 10000 2.06 206 00:27 14.06.2022
1557 Clouds 11 1009 83 10000 2.75 207 23:18 13.06.2022
1558 Clouds 11 1009 84 10000 2.66 201 22:25 13.06.2022
1559 Clouds 11 1009 84 10000 2.66 201 21:43 13.06.2022
1560 Clouds 13 1008 72 10000 2.31 215 20:23 13.06.2022
1561 Clouds 12 1009 83 10000 3.13 178 19:34 13.06.2022
1562 Clouds 13 1008 76 10000 3.43 183 17:57 13.06.2022
1563 Clouds 13 1008 76 10000 3.43 183 17:36 13.06.2022
1564 Clouds 14 1006 72 10000 3.28 205 16:39 13.06.2022
1565 Clouds 14 1005 69 10000 1.49 209 15:37 13.06.2022
1566 Clouds 14 1004 74 10000 3.28 358 14:42 13.06.2022
1567 Clouds 16 1000 65 10000 3.5 10 13:46 13.06.2022
1568 Clouds 21 995 40 10000 3.72 338 12:47 13.06.2022
1569 Clouds 22 996 33 10000 0.76 36 11:26 13.06.2022
1570 Clouds 21 998 36 10000 1.29 296 10:26 13.06.2022
1571 Clouds 21 998 36 10000 1.29 296 09:31 13.06.2022
1572 Clouds 21 1000 38 10000 1.25 202 07:51 13.06.2022
1573 Clouds 18 1005 48 10000 1.1 186 05:49 13.06.2022
1574 Clouds 14 1009 65 10000 0.81 68 02:55 13.06.2022
1575 Clouds 13 1009 69 10000 0.62 71 01:37 13.06.2022
1576 Clouds 13 1008 72 10000 1.04 58 00:21 13.06.2022
1577 Clouds 13 1008 73 10000 0.89 58 23:25 12.06.2022
1578 Clouds 13 1007 71 10000 1.35 69 22:22 12.06.2022
1579 Rain 13 1008 69 10000 1.99 50 21:27 12.06.2022
1580 Clouds 13 1008 79 10000 2.04 51 20:33 12.06.2022
1581 Clouds 13 1008 78 10000 2.35 53 19:30 12.06.2022
1582 Rain 14 1006 70 10000 2.6 62 17:54 12.06.2022
1583 Rain 15 1004 64 10000 2.14 69 16:34 12.06.2022
1584 Clouds 21 994 36 10000 1.69 226 15:18 12.06.2022
1585 Clouds 23 992 29 10000 3.15 204 14:29 12.06.2022
1586 Clouds 23 992 29 10000 2.41 206 13:55 12.06.2022
1587 Clouds 24 992 26 10000 2.15 222 12:46 12.06.2022
1588 Clouds 24 992 25 10000 2.01 223 11:40 12.06.2022
1589 Clouds 24 993 26 10000 2.55 212 10:45 12.06.2022
1590 Clouds 22 997 32 10000 2.2 220 09:25 12.06.2022
1591 Clouds 22 997 32 10000 2.2 220 08:46 12.06.2022
1592 Clouds 21 998 35 10000 2.57 217 07:38 12.06.2022
1593 Clouds 18 1003 45 10000 2.7 189 05:29 12.06.2022
1594 Clouds 17 1004 49 10000 2.73 182 03:38 12.06.2022
1595 Clear 14 1006 60 10000 2 166 01:43 12.06.2022
1596 Clear 12 1005 66 10000 2.37 165 00:58 12.06.2022
1597 Clear 13 1004 66 10000 2.79 166 00:26 12.06.2022
1598 Clear 13 1004 66 10000 2.79 166 23:48 11.06.2022
1599 Clear 13 1004 66 10000 2.79 166 23:48 11.06.2022
1600 Clear 13 1004 65 10000 3.11 167 22:40 11.06.2022
1601 Clear 14 1003 63 10000 3.1 170 22:21 11.06.2022
1602 Clear 15 1002 61 10000 3.05 167 20:50 11.06.2022
1603 Clear 15 1001 60 10000 2.85 166 20:21 11.06.2022
1604 Clear 17 999 54 10000 3.02 184 19:26 11.06.2022
1605 Clear 17 999 54 10000 3.02 184 18:36 11.06.2022
1606 Clear 18 998 48 10000 2.95 185 17:52 11.06.2022
1607 Clear 18 997 46 10000 2.77 186 17:29 11.06.2022
1608 Clear 18 997 46 10000 2.77 186 16:58 11.06.2022
1609 Clear 18 997 46 10000 2.77 186 16:30 11.06.2022
1610 Clear 19 995 44 10000 2.93 202 15:45 11.06.2022
1611 Clear 19 995 44 10000 2.93 202 15:45 11.06.2022
1612 Clouds 22 993 34 10000 2.77 202 13:54 11.06.2022
1613 Clouds 22 993 34 10000 2.23 175 13:25 11.06.2022
1614 Clouds 21 996 39 10000 2.02 219 10:58 11.06.2022
1615 Clouds 21 996 38 10000 1.87 224 10:20 11.06.2022
1616 Clouds 21 996 38 10000 1.87 224 09:38 11.06.2022
1617 Clouds 19 1001 51 10000 0.43 232 07:52 11.06.2022
1618 Clouds 17 1003 58 10000 0.36 49 06:31 11.06.2022
1619 Clouds 13 1008 77 10000 1.29 36 05:22 11.06.2022
1620 Clouds 11 1008 85 7761 1.78 3 01:53 11.06.2022
1621 Clouds 11 1008 85 7761 1.78 3 01:53 11.06.2022
1622 Clouds 11 1008 85 7761 1.78 3 01:34 11.06.2022
1623 Clouds 12 1006 84 8832 1.53 355 00:34 11.06.2022
1624 Clouds 13 1004 75 10000 1.28 344 22:35 10.06.2022
1625 Clouds 13 1003 74 10000 0.76 343 21:54 10.06.2022
1626 Clouds 14 1004 73 10000 0.24 10 20:55 10.06.2022
1627 Clouds 14 1004 73 10000 0.24 10 20:36 10.06.2022
1628 Clouds 13 1004 74 10000 0.85 146 20:18 10.06.2022
1629 Clouds 13 1005 77 10000 1.32 167 19:18 10.06.2022
1630 Clouds 13 1005 77 10000 1.32 167 19:18 10.06.2022
1631 Clouds 14 1004 72 10000 1.72 170 18:20 10.06.2022
1632 Clouds 14 1004 72 10000 1.72 170 17:36 10.06.2022
1633 Clouds 15 1003 68 10000 2.14 180 16:58 10.06.2022
1634 Clouds 15 1003 66 10000 1.58 137 16:20 10.06.2022
1635 Clouds 15 1003 66 10000 1.58 137 15:36 10.06.2022
1636 Clouds 21 992 37 10000 2.71 224 13:52 10.06.2022
1637 Clouds 23 990 30 10000 2.9 206 12:41 10.06.2022
1638 Clouds 24 991 28 10000 3.33 203 11:40 10.06.2022
1639 Clouds 24 991 29 10000 3.45 181 10:44 10.06.2022
1640 Clouds 23 993 31 10000 2.24 181 09:44 10.06.2022
1641 Clouds 22 996 36 10000 1.87 194 08:30 10.06.2022
1642 Clouds 19 1000 44 10000 1.95 192 07:20 10.06.2022
1643 Clouds 19 1000 44 10000 1.95 192 06:43 10.06.2022
1644 Clouds 18 1002 49 10000 1.8 180 06:24 10.06.2022
1645 Clouds 15 1005 64 10000 1.28 148 03:52 10.06.2022
1646 Clouds 13 1006 76 10000 1.01 153 01:41 10.06.2022
1647 Clouds 13 1005 78 10000 1.11 160 00:28 10.06.2022
1648 Clouds 12 1005 80 10000 1.13 165 23:29 09.06.2022
1649 Clouds 12 1005 79 10000 1.24 181 21:58 09.06.2022
1650 Clouds 12 1005 79 10000 1.24 181 21:32 09.06.2022
1651 Clouds 13 1006 78 10000 1.19 148 20:54 09.06.2022
1652 Clouds 12 1006 79 10000 0.67 161 19:59 09.06.2022
1653 Clouds 12 1008 82 10000 0.7 326 19:19 09.06.2022
1654 Clouds 12 1008 81 10000 0.71 272 18:21 09.06.2022
1655 Clouds 13 1007 81 10000 1.13 219 16:50 09.06.2022
1656 Clouds 13 1006 76 10000 2.12 226 15:48 09.06.2022
1657 Clouds 14 1003 74 10000 2.5 263 14:35 09.06.2022
1658 Clouds 16 999 65 10000 4.8 215 13:51 09.06.2022
1659 Clouds 22 993 37 10000 5.01 202 13:27 09.06.2022
1660 Clouds 24 991 27 10000 3.28 188 11:54 09.06.2022
1661 Clouds 23 992 29 10000 2.86 199 11:18 09.06.2022
1662 Clouds 23 994 31 10000 2.93 196 09:43 09.06.2022
1663 Clouds 22 996 35 10000 2.45 201 09:23 09.06.2022
1664 Rain 21 999 39 10000 2.39 193 07:45 09.06.2022
1665 Rain 21 999 39 10000 2.39 193 07:45 09.06.2022
1666 Clouds 18 1003 49 10000 1.55 196 06:28 09.06.2022
1667 Clouds 14 1007 70 10000 0.51 175 02:38 09.06.2022
1668 Clouds 12 1006 75 10000 0.61 55 23:36 08.06.2022
1669 Clouds 12 1006 76 10000 0.56 83 22:58 08.06.2022
1670 Clouds 12 1005 76 10000 0.09 348 22:26 08.06.2022
1671 Clouds 12 1005 76 10000 0.09 348 21:54 08.06.2022
1672 Clouds 13 1006 73 10000 0.68 236 21:21 08.06.2022
1673 Clouds 12 1006 74 10000 0.68 128 20:20 08.06.2022
1674 Clouds 12 1006 75 10000 0.89 259 19:38 08.06.2022
1675 Clouds 12 1007 76 10000 1.77 344 18:43 08.06.2022
1676 Clouds 13 1006 76 7708 3.97 324 16:54 08.06.2022
1677 Clouds 15 1002 65 10000 2.03 244 15:44 08.06.2022
1678 Clouds 21 994 38 10000 4.3 193 13:44 08.06.2022
1679 Clouds 23 992 31 10000 2.4 209 11:52 08.06.2022
1680 Clouds 22 994 32 10000 2.59 218 11:29 08.06.2022
1681 Clouds 22 995 34 10000 2.94 200 09:55 08.06.2022
1682 Clouds 21 997 36 10000 2.46 188 09:21 08.06.2022
1683 Clouds 20 999 40 10000 2.31 186 08:26 08.06.2022
1684 Clouds 18 1003 50 10000 1.87 190 05:51 08.06.2022
1685 Clouds 15 1007 63 10000 1.31 199 03:52 08.06.2022
1686 Clouds 11 1008 79 10000 1.7 226 00:38 08.06.2022
1687 Clouds 11 1008 80 10000 1.87 183 23:28 07.06.2022
1688 Clouds 11 1008 80 10000 1.87 183 22:45 07.06.2022
1689 Clouds 11 1008 83 10000 2.35 202 22:23 07.06.2022
1690 Clouds 11 1008 83 10000 2.35 202 21:33 07.06.2022
1691 Clouds 12 1008 84 10000 3.43 216 20:58 07.06.2022
1692 Rain 12 1008 84 10000 3.43 216 20:32 07.06.2022
1693 Rain 10 1010 86 10000 2.31 182 19:38 07.06.2022
1694 Rain 9 1011 91 3726 2.65 170 18:23 07.06.2022
1695 Rain 12 1007 81 3674 3.87 283 17:26 07.06.2022
1696 Clouds 12 1007 81 3674 3.87 283 16:43 07.06.2022
1697 Clouds 15 1002 60 10000 3.66 331 15:54 07.06.2022
1698 Clouds 20 996 41 10000 1.17 159 15:26 07.06.2022
1699 Clouds 20 996 41 10000 1.17 159 14:50 07.06.2022
1700 Clouds 20 996 41 10000 1.17 159 14:32 07.06.2022
1701 Clouds 23 992 26 10000 2.07 189 13:31 07.06.2022
1702 Clouds 24 992 24 10000 2.19 190 12:49 07.06.2022
1703 Clouds 24 992 25 10000 2.25 177 11:47 07.06.2022
1704 Clouds 23 995 30 10000 2.38 185 10:26 07.06.2022
1705 Clouds 21 999 35 10000 1.83 187 08:50 07.06.2022
1706 Clouds 20 1000 39 10000 2.39 205 07:34 07.06.2022
1707 Clouds 19 1002 43 10000 3.14 180 06:18 07.06.2022
1708 Clouds 17 1003 51 10000 2.73 183 03:32 07.06.2022
1709 Clouds 14 1004 62 10000 1.46 187 00:45 07.06.2022
1710 Clouds 15 1004 59 10000 0.92 173 23:41 06.06.2022
1711 Clouds 15 1004 58 10000 0.67 183 22:53 06.06.2022
1712 Clouds 15 1004 57 10000 0.85 239 21:57 06.06.2022
1713 Rain 15 1004 56 10000 1.24 243 20:42 06.06.2022
1714 Rain 14 1007 64 10000 1.96 266 19:24 06.06.2022
1715 Clouds 14 1007 64 10000 1.96 266 18:48 06.06.2022
1716 Clouds 14 1008 63 10000 2.62 281 17:57 06.06.2022
1717 Rain 15 1006 59 10000 2.56 275 16:57 06.06.2022
1718 Clouds 15 1005 58 10000 1.93 229 15:52 06.06.2022
1719 Rain 15 1004 61 10000 2.86 204 14:59 06.06.2022
1720 Rain 15 1004 61 10000 2.86 204 14:59 06.06.2022
1721 Rain 17 1001 55 10000 4.52 179 14:18 06.06.2022
1722 Clouds 19 997 47 10000 3.72 168 13:20 06.06.2022
1723 Clouds 19 997 47 10000 3.72 168 12:35 06.06.2022
1724 Clouds 23 993 29 10000 2.65 223 11:49 06.06.2022
1725 Clouds 25 993 25 10000 3 184 09:53 06.06.2022
1726 Clouds 24 996 28 10000 2.94 193 09:18 06.06.2022
1727 Clouds 24 996 28 10000 2.94 193 08:31 06.06.2022
1728 Clouds 22 1000 35 10000 2.25 189 07:20 06.06.2022
1729 Clouds 19 1003 46 10000 1.5 182 04:42 06.06.2022
1730 Clouds 14 1006 64 10000 1.24 220 02:19 06.06.2022
1731 Clouds 13 1006 67 10000 1.68 199 00:57 06.06.2022
1732 Clouds 13 1006 67 10000 1.68 199 00:35 06.06.2022
1733 Clouds 14 1005 64 10000 1.64 207 23:25 05.06.2022
1734 Clouds 14 1005 64 10000 1.64 207 22:33 05.06.2022
1735 Clouds 15 1005 61 10000 2.49 195 20:34 05.06.2022
1736 Clouds 15 1005 63 10000 2.12 201 19:26 05.06.2022
1737 Clouds 16 1004 60 10000 3.72 202 18:26 05.06.2022
1738 Clouds 16 1004 60 10000 3.72 202 17:46 05.06.2022
1739 Clouds 17 1004 53 10000 3.54 239 17:22 05.06.2022
1740 Clouds 17 1004 53 10000 3.54 239 16:48 05.06.2022
1741 Clouds 18 1002 49 10000 3.25 267 15:47 05.06.2022
1742 Clouds 22 995 30 10000 2.25 302 14:21 05.06.2022
1743 Clouds 25 991 21 10000 2.9 194 12:34 05.06.2022
1744 Clouds 25 992 21 10000 2.07 191 11:35 05.06.2022
1745 Clouds 25 994 22 10000 2.05 206 10:25 05.06.2022
1746 Clouds 25 994 22 10000 2.05 206 09:58 05.06.2022
1747 Clouds 23 998 28 10000 2.28 198 08:26 05.06.2022
1748 Clouds 22 1000 31 10000 2.58 196 06:54 05.06.2022
1749 Clouds 19 1003 39 10000 2.5 175 05:20 05.06.2022
1750 Clouds 18 1004 43 10000 2.3 170 03:38 05.06.2022
1751 Clouds 15 1005 53 10000 2.32 160 01:32 05.06.2022
1752 Clouds 15 1004 56 10000 2.51 162 23:58 04.06.2022
1753 Clouds 16 1002 54 10000 2.89 162 21:49 04.06.2022
1754 Clouds 17 1001 51 10000 3.16 174 20:21 04.06.2022
1755 Clouds 18 1001 47 10000 2.97 187 18:18 04.06.2022
1756 Clouds 18 1000 45 10000 3.22 187 16:43 04.06.2022
1757 Clouds 19 998 42 10000 4.41 185 16:18 04.06.2022
1758 Clouds 21 995 32 10000 4.73 184 14:47 04.06.2022
1759 Clouds 25 991 18 10000 1.93 215 12:27 04.06.2022
1760 Clouds 25 992 19 10000 1.87 212 10:58 04.06.2022
1761 Clouds 24 994 21 10000 2.26 206 10:26 04.06.2022
1762 Clouds 24 994 21 10000 2.26 206 09:42 04.06.2022
1763 Clouds 24 995 24 10000 2.58 201 08:40 04.06.2022
1764 Clouds 23 997 28 10000 2.92 202 07:40 04.06.2022
1765 Clouds 19 1002 39 10000 2.49 187 04:57 04.06.2022
1766 Clear 13 1004 59 10000 2.3 170 01:25 04.06.2022
1767 Clear 14 1003 58 10000 2.64 172 23:53 03.06.2022
1768 Clear 14 1003 56 10000 2.9 172 22:40 03.06.2022
1769 Clear 15 1001 52 10000 3.57 172 21:24 03.06.2022
1770 Clear 15 1001 52 10000 3.57 172 20:33 03.06.2022
1771 Clouds 19 998 39 10000 3.85 177 18:23 03.06.2022
1772 Clouds 20 996 34 10000 4.08 180 16:47 03.06.2022
1773 Clouds 22 992 26 10000 3.2 201 15:18 03.06.2022
1774 Clouds 25 989 17 10000 1.76 193 13:22 03.06.2022
1775 Clouds 25 990 18 10000 1.74 205 11:40 03.06.2022
1776 Clouds 24 993 21 10000 2.17 222 09:38 03.06.2022
1777 Clouds 23 995 24 10000 2.55 207 08:58 03.06.2022
1778 Clouds 21 998 32 10000 3.03 195 07:26 03.06.2022
1779 Clouds 21 998 32 10000 3.03 195 07:26 03.06.2022
1780 Clouds 21 998 32 10000 3.03 195 06:34 03.06.2022
1781 Clouds 20 1000 36 10000 2.84 190 05:52 03.06.2022
1782 Clear 13 1004 58 10000 2.62 170 00:30 03.06.2022
1783 Clear 14 1003 55 10000 3.04 167 22:45 02.06.2022
1784 Clear 14 1002 53 10000 3.16 168 21:40 02.06.2022
1785 Clouds 16 1000 47 10000 3.64 173 20:22 02.06.2022
1786 Clouds 16 1000 47 10000 3.64 173 20:22 02.06.2022
1787 Clouds 16 1000 46 10000 3.62 170 19:50 02.06.2022
1788 Clouds 16 1000 46 10000 3.62 170 19:31 02.06.2022
1789 Clouds 19 997 37 10000 3.34 178 17:32 02.06.2022
1790 Clouds 20 994 31 10000 3.32 197 16:27 02.06.2022
1791 Clouds 24 991 20 10000 3.2 208 14:20 02.06.2022
1792 Clouds 25 990 18 10000 2.7 214 13:29 02.06.2022
1793 Clouds 25 990 18 10000 2.24 202 11:36 02.06.2022
1794 Clouds 24 993 21 10000 2.81 187 10:20 02.06.2022
1795 Clouds 23 995 25 10000 3.06 190 09:28 02.06.2022
1796 Clouds 22 997 29 10000 3.17 191 08:27 02.06.2022
1797 Clouds 22 997 28 10000 3.27 192 07:33 02.06.2022
1798 Clouds 18 1002 40 10000 2.58 177 04:54 02.06.2022
1799 Clouds 16 1005 49 10000 2.44 172 02:48 02.06.2022
1800 Clouds 13 1004 63 10000 2.42 179 23:50 01.06.2022
1801 Clouds 14 1004 62 10000 2.54 181 22:51 01.06.2022
1802 Clouds 14 1004 61 10000 2.57 181 21:37 01.06.2022
1803 Clouds 14 1003 59 10000 2.44 186 20:59 01.06.2022
1804 Clouds 14 1003 59 10000 2.44 186 20:37 01.06.2022
1805 Clouds 16 1002 51 10000 2.15 180 19:28 01.06.2022
1806 Clouds 17 1002 48 10000 2.05 198 17:46 01.06.2022
1807 Clouds 17 1000 45 10000 2.41 200 16:40 01.06.2022
1808 Clouds 19 998 39 10000 2.04 228 14:59 01.06.2022
1809 Clouds 20 996 33 10000 3.86 222 13:54 01.06.2022
1810 Clouds 24 992 21 10000 2.9 231 12:28 01.06.2022
1811 Clouds 23 994 24 10000 2.12 206 10:25 01.06.2022
1812 Clouds 22 997 27 10000 2.43 214 09:24 01.06.2022
1813 Clouds 20 1001 35 10000 2.56 194 07:25 01.06.2022
1814 Clouds 20 1001 35 10000 2.56 194 06:30 01.06.2022
1815 Clouds 13 1006 66 10000 1.27 159 00:48 01.06.2022
1816 Clouds 13 1005 67 10000 1.1 166 23:41 31.05.2022
1817 Clouds 13 1005 66 10000 1.08 163 22:37 31.05.2022
1818 Clouds 13 1005 65 10000 1.39 156 21:46 31.05.2022
1819 Clouds 14 1005 65 10000 1.53 162 20:46 31.05.2022
1820 Clouds 14 1005 64 10000 1.35 165 20:23 31.05.2022
1821 Clouds 15 1005 59 10000 1.63 187 18:53 31.05.2022
1822 Clouds 15 1005 58 10000 2.25 176 17:51 31.05.2022
1823 Clouds 15 1005 58 10000 2.39 199 17:20 31.05.2022
1824 Clouds 15 1003 57 10000 3.27 207 15:41 31.05.2022
1825 Clouds 15 1001 56 10000 3.28 172 14:33 31.05.2022
1826 Clouds 23 991 21 10000 3.05 226 12:22 31.05.2022
1827 Clouds 23 992 22 10000 2.05 205 11:23 31.05.2022
1828 Clouds 23 994 25 10000 2.54 218 09:31 31.05.2022
1829 Clouds 21 998 31 10000 2.76 197 07:36 31.05.2022
1830 Clouds 17 1004 43 10000 2.63 182 05:24 31.05.2022
1831 Clouds 13 1006 59 10000 2.21 165 01:42 31.05.2022
1832 Clouds 13 1004 65 10000 2.15 156 23:29 30.05.2022
1833 Clouds 13 1004 65 10000 2.15 156 22:59 30.05.2022
1834 Clouds 13 1004 66 10000 1.97 146 22:24 30.05.2022
1835 Clouds 13 1004 66 10000 1.97 146 21:35 30.05.2022
1836 Clouds 14 1004 65 10000 1.62 145 20:22 30.05.2022
1837 Clouds 14 1004 61 10000 1.28 141 18:58 30.05.2022
1838 Clouds 15 1004 60 10000 1.34 73 17:41 30.05.2022
1839 Clouds 15 1002 55 10000 0.71 89 16:45 30.05.2022
1840 Clouds 15 1001 58 10000 0.98 154 15:22 30.05.2022
1841 Clouds 22 992 25 10000 3.7 205 12:37 30.05.2022
1842 Clouds 23 993 24 10000 2.49 215 10:57 30.05.2022
1843 Clouds 22 995 27 10000 2.01 214 09:39 30.05.2022
1844 Clouds 19 1001 37 10000 2.75 199 07:24 30.05.2022
1845 Clouds 18 1003 41 10000 2.71 189 05:50 30.05.2022
1846 Clouds 13 1006 59 10000 1.84 159 02:33 30.05.2022
1847 Clouds 13 1003 65 10000 1.8 132 23:28 29.05.2022
1848 Clouds 13 1003 65 10000 1.8 132 22:39 29.05.2022
1849 Clouds 13 1004 68 10000 1 111 21:31 29.05.2022
1850 Clouds 13 1004 70 10000 0.57 49 19:48 29.05.2022
1851 Clouds 13 1005 70 10000 0.92 72 19:27 29.05.2022
1852 Clouds 13 1005 70 10000 0.96 18 17:41 29.05.2022
1853 Clouds 12 1005 75 8967 0.52 254 15:49 29.05.2022
1854 Clouds 16 1000 54 10000 2.91 240 15:28 29.05.2022
1855 Clouds 16 1000 54 10000 2.91 240 14:31 29.05.2022
1856 Clouds 22 992 24 10000 1.24 114 11:55 29.05.2022
1857 Clouds 22 992 24 10000 1.65 145 10:44 29.05.2022
1858 Clouds 22 993 24 10000 1.7 151 09:52 29.05.2022
1859 Clouds 19 1000 36 10000 1.55 196 07:28 29.05.2022
1860 Clouds 16 1003 47 10000 1.35 164 04:50 29.05.2022
1861 Clouds 16 1003 47 10000 1.35 164 04:31 29.05.2022
1862 Clouds 11 1005 75 10000 1.14 127 00:48 29.05.2022
1863 Clouds 11 1005 74 10000 1.37 127 23:42 28.05.2022
1864 Clouds 11 1004 74 10000 1.34 131 22:56 28.05.2022
1865 Clouds 11 1004 73 10000 1.53 155 21:45 28.05.2022
1866 Clouds 12 1004 71 10000 1.35 171 20:30 28.05.2022
1867 Clouds 12 1004 68 10000 1.19 186 19:19 28.05.2022
1868 Clouds 13 1004 66 10000 1.16 180 18:19 28.05.2022
1869 Clouds 13 1003 63 10000 0.43 140 16:57 28.05.2022
1870 Clouds 13 1002 61 10000 1.48 16 15:45 28.05.2022
1871 Clouds 13 1001 62 10000 1.89 8 15:19 28.05.2022
1872 Clouds 15 999 55 10000 3.92 22 13:27 28.05.2022
1873 Clouds 15 999 55 10000 3.92 22 12:42 28.05.2022
1874 Clouds 19 995 33 10000 1.62 355 11:28 28.05.2022
1875 Clouds 19 995 33 10000 1.62 355 10:32 28.05.2022
1876 Clouds 20 995 30 10000 0.7 200 09:39 28.05.2022
1877 Clouds 18 999 33 10000 1.57 223 07:56 28.05.2022
1878 Clouds 17 1000 36 10000 1.74 221 06:32 28.05.2022
1879 Clouds 15 1003 43 10000 2.31 194 04:39 28.05.2022
1880 Clouds 11 1005 57 10000 2.17 203 01:30 28.05.2022
1881 Clouds 11 1003 56 10000 2.51 199 23:55 27.05.2022
1882 Clouds 12 1001 52 10000 2.49 194 22:32 27.05.2022
1883 Clouds 13 1000 48 10000 2.72 173 21:22 27.05.2022
1884 Clouds 13 1000 48 10000 2.72 173 20:42 27.05.2022
1885 Clouds 14 1000 46 10000 2.5 172 20:18 27.05.2022
1886 Clouds 14 1000 49 10000 1.75 182 19:36 27.05.2022
1887 Clouds 14 1000 46 10000 1.52 195 19:18 27.05.2022
1888 Clouds 16 998 40 10000 0.74 193 16:43 27.05.2022
1889 Clouds 16 996 33 10000 0.44 235 15:47 27.05.2022
1890 Clouds 18 994 25 10000 1.23 296 14:46 27.05.2022
1891 Clouds 19 992 17 10000 1.31 281 13:40 27.05.2022
1892 Clouds 20 994 16 10000 1.36 205 11:53 27.05.2022
1893 Clouds 19 995 17 10000 1.86 203 11:27 27.05.2022
1894 Clouds 19 995 17 10000 1.86 203 10:37 27.05.2022
1895 Clouds 19 996 19 10000 2.82 188 09:58 27.05.2022
1896 Clouds 18 998 22 10000 3.1 190 09:28 27.05.2022
1897 Clouds 16 1002 32 10000 1.98 208 06:58 27.05.2022
1898 Clouds 12 1006 46 10000 1.09 185 03:38 27.05.2022
1899 Clouds 9 1007 66 10000 0.42 326 01:19 27.05.2022
1900 Clouds 10 1006 66 10000 0.46 286 23:23 26.05.2022
1901 Clouds 10 1005 65 10000 0.52 295 21:53 26.05.2022
1902 Clouds 11 1005 64 10000 0.74 285 21:27 26.05.2022
1903 Clouds 11 1005 59 10000 1.67 255 19:34 26.05.2022
1904 Clouds 12 1004 56 10000 2.28 231 18:31 26.05.2022
1905 Clouds 13 1004 53 10000 2.82 225 17:36 26.05.2022
1906 Clouds 15 1000 40 10000 2.64 242 16:18 26.05.2022
1907 Clouds 17 997 33 10000 2.89 214 15:19 26.05.2022
1908 Clouds 16 997 41 10000 2.18 257 13:56 26.05.2022
1909 Clouds 18 995 36 10000 3.79 259 11:59 26.05.2022
1910 Clouds 20 994 29 10000 3.69 232 10:39 26.05.2022
1911 Clouds 20 995 28 10000 3.61 201 09:38 26.05.2022
1912 Clouds 18 997 35 10000 2.47 198 08:39 26.05.2022
1913 Clouds 16 1002 40 10000 3.51 191 05:30 26.05.2022
1914 Clouds 12 1006 66 10000 2.61 170 02:19 26.05.2022
1915 Clouds 11 1006 69 10000 1.83 162 23:50 25.05.2022
1916 Rain 11 1006 70 10000 1.79 158 22:51 25.05.2022
1917 Clouds 11 1006 69 10000 1.8 160 21:41 25.05.2022
1918 Clouds 11 1006 72 10000 1.34 171 20:47 25.05.2022
1919 Clouds 12 1006 67 10000 1.89 171 19:32 25.05.2022
1920 Clouds 12 1006 67 10000 1.2 187 18:36 25.05.2022
1921 Clouds 13 1006 67 10000 2.18 265 16:58 25.05.2022
1922 Clouds 14 1004 59 10000 3.15 252 16:27 25.05.2022
1923 Clouds 14 1004 59 10000 3.15 252 15:36 25.05.2022
1924 Clouds 16 1001 48 10000 2.97 211 14:50 25.05.2022
1925 Clouds 16 1001 48 10000 2.97 211 14:31 25.05.2022
1926 Clouds 18 998 37 10000 4.69 151 13:23 25.05.2022
1927 Clouds 19 998 32 10000 4.98 154 11:49 25.05.2022
1928 Clouds 20 998 29 10000 4.02 156 10:41 25.05.2022
1929 Clouds 20 999 28 10000 3.5 157 09:38 25.05.2022
1930 Clouds 19 1003 27 10000 3.21 176 07:36 25.05.2022
1931 Clouds 17 1006 32 10000 2.84 179 05:41 25.05.2022
1932 Clear 13 1009 45 10000 2.12 163 02:41 25.05.2022
1933 Clouds 11 1009 55 10000 2.62 161 23:48 24.05.2022
1934 Clouds 12 1009 54 10000 3.06 163 22:59 24.05.2022
1935 Clouds 12 1009 54 10000 3.06 163 22:59 24.05.2022
1936 Clouds 12 1008 52 10000 3.46 164 21:57 24.05.2022
1937 Clouds 12 1008 52 10000 3.46 164 21:37 24.05.2022
1938 Clouds 13 1007 50 10000 3.62 165 21:18 24.05.2022
1939 Clouds 14 1005 43 10000 3.51 172 19:27 24.05.2022
1940 Clouds 15 1004 39 10000 3.64 174 18:29 24.05.2022
1941 Clouds 16 1002 35 10000 3.72 174 16:39 24.05.2022
1942 Clouds 17 1000 30 10000 3.19 175 15:52 24.05.2022
1943 Clouds 18 997 28 10000 1.66 191 14:41 24.05.2022
1944 Clouds 20 996 20 10000 1.44 218 13:47 24.05.2022
1945 Clouds 20 996 20 10000 1.47 248 12:31 24.05.2022
1946 Clouds 19 1000 22 10000 1.85 207 09:52 24.05.2022
1947 Clouds 18 1002 24 10000 2.53 193 08:57 24.05.2022
1948 Clouds 18 1002 24 10000 2.53 193 08:39 24.05.2022
1949 Clouds 16 1006 27 10000 3.36 183 06:42 24.05.2022
1950 Clouds 12 1009 38 10000 2.53 170 03:48 24.05.2022
1951 Clouds 10 1009 50 10000 2.42 165 01:47 24.05.2022
1952 Clouds 9 1009 54 10000 2.41 171 00:53 24.05.2022
1953 Clouds 11 1006 50 10000 3.1 173 22:25 23.05.2022
1954 Clouds 11 1006 50 10000 3.1 173 21:53 23.05.2022
1955 Clouds 11 1005 49 10000 3.53 166 20:55 23.05.2022
1956 Clouds 12 1004 47 10000 3.8 168 20:21 23.05.2022
1957 Clouds 12 1004 49 10000 3.74 166 19:30 23.05.2022
1958 Clouds 13 1003 46 10000 3.79 167 18:42 23.05.2022
1959 Clouds 14 1001 42 10000 3.79 170 18:22 23.05.2022
1960 Clouds 15 999 37 10000 3.94 171 16:46 23.05.2022
1961 Clouds 16 995 29 10000 3.99 166 14:49 23.05.2022
1962 Clouds 19 992 20 10000 3.31 198 12:30 23.05.2022
1963 Clouds 19 993 23 10000 3.09 215 11:25 23.05.2022
1964 Clouds 18 994 23 10000 3.08 201 09:49 23.05.2022
1965 Clouds 18 996 25 10000 3.14 199 08:51 23.05.2022
1966 Clouds 17 997 27 10000 2.92 188 07:46 23.05.2022
1967 Clouds 16 999 32 10000 3.27 179 06:43 23.05.2022
1968 Clouds 13 1002 40 10000 3.45 175 04:43 23.05.2022
1969 Clouds 10 1003 59 10000 2.54 155 02:19 23.05.2022
1970 Clouds 10 1003 59 10000 1.87 154 01:35 23.05.2022
1971 Clouds 9 1002 65 10000 1.95 180 23:42 22.05.2022
1972 Clouds 10 1002 63 10000 2.32 187 22:35 22.05.2022
1973 Clouds 10 1001 59 10000 3.08 174 21:55 22.05.2022
1974 Clouds 11 1000 58 10000 3.6 166 20:53 22.05.2022
1975 Clouds 11 999 56 10000 3.6 169 20:27 22.05.2022
1976 Clouds 11 999 57 10000 3.8 174 19:56 22.05.2022
1977 Clouds 12 998 54 10000 3.39 173 18:55 22.05.2022
1978 Clouds 13 997 51 10000 2.81 171 18:25 22.05.2022
1979 Clouds 13 997 51 10000 2.81 171 17:33 22.05.2022
1980 Clouds 14 995 49 10000 2.24 175 16:31 22.05.2022
1981 Clouds 15 993 43 10000 2.11 201 14:48 22.05.2022
1982 Clouds 16 991 35 10000 1.76 206 13:48 22.05.2022
1983 Clouds 17 991 34 10000 1.5 188 12:52 22.05.2022
1984 Rain 17 991 35 10000 2.5 217 11:44 22.05.2022
1985 Clouds 18 992 29 10000 3.15 181 09:45 22.05.2022
1986 Clouds 17 994 32 10000 3.12 180 08:54 22.05.2022
1987 Clouds 14 999 50 10000 2.92 167 07:22 22.05.2022
1988 Clouds 12 1001 56 10000 2.55 169 06:23 22.05.2022
1989 Clouds 8 1005 82 10000 1.78 154 02:33 22.05.2022
1990 Clouds 7 1005 86 10000 1.53 161 00:44 22.05.2022
1991 Clouds 7 1004 86 10000 1.58 161 23:55 21.05.2022
1992 Clouds 8 1004 89 6078 1.75 161 23:21 21.05.2022
1993 Clouds 8 1004 91 1965 1.9 163 21:45 21.05.2022
1994 Clouds 8 1005 92 1689 1.96 159 21:26 21.05.2022
1995 Clouds 8 1005 92 1831 2.11 156 20:25 21.05.2022
1996 Clouds 9 1003 79 8773 2.33 159 19:37 21.05.2022
1997 Clouds 10 1003 78 10000 2.23 156 17:57 21.05.2022
1998 Clouds 10 1003 77 10000 2.37 163 16:53 21.05.2022
1999 Clouds 10 1001 74 10000 3.15 171 14:38 21.05.2022
2000 Clouds 12 999 67 10000 3.85 181 13:53 21.05.2022
2001 Rain 12 998 63 10000 3.81 170 12:57 21.05.2022
2002 Clouds 12 998 63 10000 3.81 170 12:37 21.05.2022
2003 Clouds 15 996 50 10000 1 171 10:45 21.05.2022
2004 Clouds 14 998 52 10000 0.76 91 09:49 21.05.2022
2005 Clouds 13 1001 56 10000 0.79 112 08:58 21.05.2022
2006 Clouds 13 1001 56 10000 0.79 112 08:34 21.05.2022
2007 Clouds 9 1008 73 10000 1.55 187 05:28 21.05.2022
2008 Clouds 7 1009 82 10000 1.95 202 00:58 21.05.2022
2009 Clouds 8 1008 81 10000 1.59 145 23:22 20.05.2022
2010 Clouds 8 1008 83 10000 1.66 115 22:24 20.05.2022
2011 Clouds 8 1008 83 10000 1.66 115 21:49 20.05.2022
2012 Clouds 8 1009 83 10000 1.48 87 20:58 20.05.2022
2013 Clouds 8 1009 84 10000 0.47 43 20:29 20.05.2022
2014 Clouds 8 1010 84 10000 0.87 278 19:29 20.05.2022
2015 Clouds 8 1010 84 10000 0.87 278 18:47 20.05.2022
2016 Rain 8 1009 84 7248 1.99 280 17:43 20.05.2022
2017 Clouds 11 1004 70 10000 2.46 353 16:21 20.05.2022
2018 Clouds 11 1004 70 10000 2.46 353 15:53 20.05.2022
2019 Rain 15 999 51 10000 1.63 21 14:31 20.05.2022
2020 Clouds 16 998 42 10000 1.84 25 13:56 20.05.2022
2021 Clouds 16 997 40 10000 1.44 43 11:49 20.05.2022
2022 Clouds 15 1001 48 10000 0.77 45 10:24 20.05.2022
2023 Clouds 12 1005 60 10000 1.15 114 08:50 20.05.2022
2024 Clouds 12 1006 63 10000 1.44 194 07:40 20.05.2022
2025 Clouds 11 1008 69 10000 1.26 225 06:38 20.05.2022
2026 Clouds 9 1011 82 10000 0.67 152 05:28 20.05.2022
2027 Clouds 10 1006 75 10000 0.85 121 00:54 20.05.2022
2028 Clouds 10 1006 75 10000 1.1 110 23:25 19.05.2022
2029 Clouds 10 1006 75 10000 1.1 110 22:33 19.05.2022
2030 Clouds 10 1006 75 10000 1.65 106 21:49 19.05.2022
2031 Clouds 10 1006 77 10000 2.1 107 21:23 19.05.2022
2032 Clouds 10 1006 77 10000 2.1 107 20:40 19.05.2022
2033 Clouds 12 1005 62 10000 1.4 101 19:54 19.05.2022
2034 Clouds 12 1005 63 10000 2.11 96 18:45 19.05.2022
2035 Clouds 12 1005 60 10000 2.49 94 17:31 19.05.2022
2036 Clouds 15 1000 42 10000 2.56 327 15:33 19.05.2022
2037 Clouds 16 997 38 10000 2.65 318 14:30 19.05.2022
2038 Clouds 17 996 35 10000 3.08 312 13:53 19.05.2022
2039 Clouds 20 993 21 10000 1.74 235 11:46 19.05.2022
2040 Clouds 19 996 24 10000 2.42 186 10:25 19.05.2022
2041 Clouds 18 999 29 10000 2.63 195 08:31 19.05.2022
2042 Clouds 16 1003 37 10000 2.78 199 06:39 19.05.2022
2043 Clouds 12 1007 51 10000 3 184 02:59 19.05.2022
2044 Clouds 11 1006 58 10000 2.82 172 00:56 19.05.2022
2045 Clouds 11 1005 57 10000 3.33 168 23:00 18.05.2022
2046 Clouds 11 1005 57 10000 3.33 168 22:40 18.05.2022
2047 Clouds 12 1003 54 10000 3.49 168 21:32 18.05.2022
2048 Clouds 13 1003 52 10000 3.74 172 20:55 18.05.2022
2049 Clouds 14 1002 48 10000 3.8 176 20:19 18.05.2022
2050 Clouds 15 1001 44 10000 3.73 179 18:47 18.05.2022
2051 Clouds 16 999 38 10000 3.45 182 17:41 18.05.2022
2052 Clouds 17 998 34 10000 3.39 181 17:23 18.05.2022
2053 Clouds 17 998 34 10000 3.39 181 16:36 18.05.2022
2054 Clouds 18 996 30 10000 3.03 182 15:43 18.05.2022
2055 Clouds 19 994 27 10000 2.69 198 15:19 18.05.2022
2056 Clouds 20 994 22 10000 2.97 222 13:53 18.05.2022
2057 Clouds 20 993 19 10000 3.01 229 12:53 18.05.2022
2058 Clouds 21 993 18 10000 2.97 223 11:47 18.05.2022
2059 Clouds 21 994 19 10000 2.93 199 11:29 18.05.2022
2060 Clouds 21 994 19 10000 2.93 199 10:36 18.05.2022
2061 Clouds 18 1000 28 10000 2.97 190 07:56 18.05.2022
2062 Clouds 17 1001 34 10000 3.13 191 06:52 18.05.2022
2063 Clouds 13 1006 48 10000 2.71 180 03:34 18.05.2022
2064 Clouds 11 1004 64 10000 2.65 163 00:41 18.05.2022
2065 Clouds 12 1003 62 10000 2.53 155 23:21 17.05.2022
2066 Clouds 13 1001 60 10000 2.54 149 21:21 17.05.2022
2067 Clouds 13 1001 60 10000 2.54 149 20:38 17.05.2022
2068 Clouds 14 1001 58 10000 2.43 153 19:30 17.05.2022
2069 Clouds 14 1001 58 10000 2.07 137 18:43 17.05.2022
2070 Clouds 14 1001 58 10000 2 136 17:31 17.05.2022
2071 Clouds 15 1000 56 10000 1.93 142 16:55 17.05.2022
2072 Clouds 15 999 58 10000 2.02 148 15:49 17.05.2022
2073 Clouds 15 998 58 10000 0.84 157 14:52 17.05.2022
2074 Clouds 17 995 50 10000 1.11 177 14:28 17.05.2022
2075 Clouds 18 993 41 10000 3.42 209 12:37 17.05.2022
2076 Clouds 19 995 35 10000 2.45 204 10:23 17.05.2022
2077 Clouds 19 997 37 10000 1.63 227 08:51 17.05.2022
2078 Clouds 17 1000 46 10000 0.82 200 07:46 17.05.2022
2079 Clouds 14 1004 61 10000 0.49 358 06:21 17.05.2022
2080 Clouds 10 1005 76 10000 1.23 83 00:47 17.05.2022
2081 Clouds 11 1004 75 10000 1.52 139 23:35 16.05.2022
2082 Clouds 11 1004 75 10000 1.98 144 22:33 16.05.2022
2083 Clouds 12 1004 74 10000 2.2 151 21:18 16.05.2022
2084 Clouds 12 1004 74 10000 2.2 151 20:37 16.05.2022
2085 Clouds 12 1004 79 7866 1.37 124 18:46 16.05.2022
2086 Clouds 12 1004 78 10000 1.12 130 16:42 16.05.2022
2087 Clouds 11 1003 81 8364 1.92 103 15:29 16.05.2022
2088 Clouds 18 994 43 10000 2.18 263 13:45 16.05.2022
2089 Clouds 20 993 38 10000 0.83 243 12:37 16.05.2022
2090 Clouds 19 995 42 10000 1.93 4 10:36 16.05.2022
2091 Clouds 14 1005 63 10000 1.89 20 07:59 16.05.2022
2092 Clouds 12 1009 75 10000 1.83 353 05:46 16.05.2022
2093 Clouds 11 1008 82 10000 0.9 47 00:49 16.05.2022
2094 Rain 12 1005 70 10000 1.37 324 22:44 15.05.2022
2095 Rain 13 1004 65 10000 1.41 228 22:20 15.05.2022
2096 Clouds 13 1004 65 10000 1.41 228 21:37 15.05.2022
2097 Clouds 9 1010 87 8387 0.61 37 20:47 15.05.2022
2098 Clouds 15 1004 51 10000 0.66 128 18:46 15.05.2022
2099 Clouds 16 1004 47 10000 1.03 39 16:54 15.05.2022
2100 Clouds 17 1003 40 10000 1.35 45 14:58 15.05.2022
2101 Clouds 19 1001 33 10000 2.06 331 13:46 15.05.2022
2102 Clouds 20 999 27 10000 1.74 157 12:19 15.05.2022
2103 Clouds 20 1000 27 10000 1.38 142 11:27 15.05.2022
2104 Clouds 20 1002 27 10000 1.28 133 09:57 15.05.2022
2105 Clouds 17 1007 29 10000 0.95 21 07:24 15.05.2022
2106 Clouds 17 1007 29 10000 0.95 21 06:56 15.05.2022
2107 Clouds 14 1011 42 10000 1.34 0 03:40 15.05.2022
2108 Clouds 11 1010 74 10000 0.9 232 00:42 15.05.2022
2109 Clouds 11 1009 75 10000 0.91 234 23:37 14.05.2022
2110 Clouds 11 1009 75 10000 0.59 274 22:39 14.05.2022
2111 Clouds 11 1009 79 10000 1.01 46 21:26 14.05.2022
2112 Clouds 11 1009 80 10000 1.2 62 20:28 14.05.2022
2113 Clouds 11 1009 80 10000 0.4 68 19:21 14.05.2022
2114 Clouds 11 1009 80 10000 0.4 68 18:59 14.05.2022
2115 Clouds 12 1007 76 10000 2.63 344 17:53 14.05.2022
2116 Clouds 16 1001 57 10000 1.95 28 16:23 14.05.2022
2117 Clouds 18 997 47 10000 0.68 139 14:50 14.05.2022
2118 Clouds 19 996 42 10000 1.58 180 14:26 14.05.2022
2119 Clouds 18 997 45 10000 1.06 162 11:51 14.05.2022
2120 Clouds 17 998 48 10000 0.81 145 10:45 14.05.2022
2121 Clouds 16 1000 53 10000 0.99 148 10:19 14.05.2022
2122 Clouds 16 1000 53 10000 0.99 148 09:46 14.05.2022
2123 Clouds 13 1004 66 10000 0.89 93 07:59 14.05.2022
2124 Clouds 10 1008 80 7778 0.07 196 05:21 14.05.2022
2125 Clouds 8 1008 90 1641 1.05 26 01:57 14.05.2022
2126 Clouds 9 1005 92 1835 1.46 359 23:28 13.05.2022
2127 Clouds 9 1005 92 1835 1.46 359 22:56 13.05.2022
2128 Clouds 9 1004 89 4115 1.03 320 22:22 13.05.2022
2129 Clouds 10 1003 86 3744 1.71 318 21:24 13.05.2022
2130 Clouds 10 1003 86 3744 1.71 318 20:43 13.05.2022
2131 Clouds 13 1001 70 10000 0.57 230 20:23 13.05.2022
2132 Clouds 14 1000 60 10000 1.42 97 19:21 13.05.2022
2133 Clouds 15 999 56 10000 1.7 68 17:50 13.05.2022
2134 Clouds 16 997 47 10000 1.56 34 17:24 13.05.2022
2135 Clouds 18 993 40 10000 0.86 97 15:53 13.05.2022
2136 Clouds 19 991 35 10000 2.06 155 14:50 13.05.2022
2137 Clouds 22 986 22 10000 4.28 195 12:58 13.05.2022
2138 Clouds 23 986 20 10000 4.68 194 12:25 13.05.2022
2139 Clouds 23 987 22 10000 4.52 186 10:35 13.05.2022
2140 Clouds 22 991 24 10000 2.76 197 09:29 13.05.2022
2141 Clouds 20 994 30 10000 2.75 196 08:20 13.05.2022
2142 Clouds 19 996 36 10000 1.73 183 07:31 13.05.2022
2143 Clouds 16 1001 49 10000 1.25 181 05:58 13.05.2022
2144 Clouds 10 1006 80 10000 1.01 73 01:49 13.05.2022
2145 Clouds 9 1006 85 6344 0.32 154 23:43 12.05.2022
2146 Clouds 9 1005 82 10000 0.4 44 22:42 12.05.2022
2147 Clouds 9 1006 83 10000 1.08 65 21:36 12.05.2022
2148 Clouds 10 1005 76 7832 1.99 340 20:23 12.05.2022
2149 Clouds 11 1005 76 10000 1.72 60 18:31 12.05.2022
2150 Clouds 13 1004 61 10000 0.76 15 16:52 12.05.2022
2151 Clouds 15 1001 50 10000 2.47 267 15:49 12.05.2022
2152 Clouds 19 995 25 10000 2.05 258 13:59 12.05.2022
2153 Clouds 19 995 26 10000 2.87 288 13:21 12.05.2022
2154 Clouds 21 995 18 10000 1.88 247 10:35 12.05.2022
2155 Clouds 21 998 19 10000 1.35 200 08:58 12.05.2022
2156 Clouds 21 998 19 10000 1.35 200 08:39 12.05.2022
2157 Clouds 20 1000 26 10000 2.12 193 07:37 12.05.2022
2158 Clouds 17 1005 35 10000 1.73 189 05:30 12.05.2022
2159 Clouds 11 1010 63 10000 0.94 184 02:21 12.05.2022
2160 Clouds 10 1009 68 10000 1.61 192 23:56 11.05.2022
2161 Clouds 10 1008 67 10000 1.34 195 22:31 11.05.2022
2162 Clouds 10 1008 66 10000 1.51 189 21:32 11.05.2022
2163 Clouds 11 1009 65 10000 1.53 197 20:52 11.05.2022
2164 Clouds 12 1008 59 10000 2.51 196 18:24 11.05.2022
2165 Clouds 13 1007 54 10000 2.87 203 16:50 11.05.2022
2166 Clouds 15 1004 43 10000 2.59 213 14:50 11.05.2022
2167 Clouds 15 1003 40 10000 1.3 207 14:26 11.05.2022
2168 Clouds 16 1003 37 10000 1.03 244 13:44 11.05.2022
2169 Clouds 16 1003 36 10000 2.49 247 11:51 11.05.2022
2170 Clouds 16 1004 38 10000 1.89 263 09:54 11.05.2022
2171 Clouds 16 1005 38 10000 1.94 312 08:33 11.05.2022
2172 Clouds 12 1011 64 10000 0.96 169 04:44 11.05.2022
2173 Clouds 9 1011 79 10000 0.5 357 00:41 11.05.2022
2174 Clouds 10 1009 73 10000 0.37 122 22:30 10.05.2022
2175 Clouds 10 1009 71 10000 0.81 113 21:47 10.05.2022
2176 Clouds 10 1009 71 10000 1.15 37 20:52 10.05.2022
2177 Clouds 13 1006 56 10000 2.9 17 19:25 10.05.2022
2178 Clouds 14 1005 51 10000 3.36 21 17:49 10.05.2022
2179 Clouds 15 1003 45 10000 2.57 1 16:49 10.05.2022
2180 Clouds 19 995 24 10000 1.05 250 14:33 10.05.2022
2181 Clouds 22 993 14 10000 4.68 234 12:37 10.05.2022
2182 Clouds 22 994 17 10000 3.36 225 11:49 10.05.2022
2183 Clouds 21 996 20 10000 1.62 201 11:18 10.05.2022
2184 Clouds 20 998 23 10000 1.57 202 09:59 10.05.2022
2185 Clouds 19 1000 25 10000 2.76 213 09:25 10.05.2022
2186 Clouds 16 1005 38 10000 2.77 210 06:46 10.05.2022
2187 Clouds 11 1009 53 10000 2.84 181 03:29 10.05.2022
2188 Clouds 9 1009 62 10000 2.95 179 00:34 10.05.2022
2189 Clouds 10 1008 60 10000 3.22 180 22:44 09.05.2022
2190 Clouds 10 1007 58 10000 3.02 185 21:50 09.05.2022
2191 Clouds 11 1006 55 10000 3.21 182 20:30 09.05.2022
2192 Clouds 13 1005 53 10000 1.64 160 18:43 09.05.2022
2193 Clouds 14 1005 52 10000 0.96 147 17:40 09.05.2022
2194 Clouds 13 1005 54 10000 0.25 254 16:30 09.05.2022
2195 Clouds 13 1005 54 10000 0.25 254 16:30 09.05.2022
2196 Clouds 13 1004 55 10000 0.38 343 15:51 09.05.2022
2197 Clouds 13 1003 56 10000 0.29 87 14:54 09.05.2022
2198 Clouds 14 1002 52 10000 1.52 164 14:22 09.05.2022
2199 Clouds 14 1002 52 10000 1.52 164 13:40 09.05.2022
2200 Clouds 16 1001 44 10000 1.98 338 12:18 09.05.2022
2201 Clouds 16 1002 44 10000 1.87 354 11:18 09.05.2022
2202 Clouds 16 1002 44 10000 1.87 354 10:42 09.05.2022
2203 Clouds 14 1007 58 10000 1.44 340 08:36 09.05.2022
2204 Clouds 13 1009 61 10000 1.26 325 07:53 09.05.2022
2205 Clouds 8 1015 83 9465 0.83 84 03:21 09.05.2022
2206 Clouds 7 1013 90 7338 0.56 98 23:34 08.05.2022
2207 Clouds 7 1013 92 4307 0.09 175 22:55 08.05.2022
2208 Clouds 7 1013 93 716 0.37 156 21:55 08.05.2022
2209 Clouds 7 1013 93 716 0.37 156 21:55 08.05.2022
2210 Clouds 7 1013 95 100 0.34 106 20:35 08.05.2022
2211 Clouds 8 1012 87 7972 1.18 34 19:44 08.05.2022
2212 Clouds 8 1012 89 6209 1.31 44 18:54 08.05.2022
2213 Clouds 9 1011 84 6225 2.08 46 17:59 08.05.2022
2214 Clouds 12 1009 66 10000 2.22 28 16:43 08.05.2022
2215 Clouds 13 1006 54 10000 1.92 23 15:39 08.05.2022
2216 Clouds 15 1002 42 10000 1.18 21 14:45 08.05.2022
2217 Clouds 21 995 19 10000 4.35 183 12:27 08.05.2022
2218 Clouds 21 996 19 10000 3.22 177 10:32 08.05.2022
2219 Clouds 20 998 21 10000 2.9 184 09:57 08.05.2022
2220 Clouds 19 1000 24 10000 2.73 189 08:57 08.05.2022
2221 Clouds 16 1005 32 10000 2.77 190 07:25 08.05.2022
2222 Clouds 13 1009 45 10000 2.47 181 03:40 08.05.2022
2223 Clouds 12 1010 50 10000 2.17 173 02:47 08.05.2022
2224 Clouds 11 1008 52 10000 2.26 162 00:28 08.05.2022
2225 Clouds 11 1008 52 10000 2.26 162 23:50 07.05.2022
2226 Clouds 11 1008 49 10000 2.49 158 22:46 07.05.2022
2227 Clouds 12 1007 48 10000 2.73 156 21:59 07.05.2022
2228 Clouds 12 1007 48 10000 2.73 156 21:34 07.05.2022
2229 Clouds 13 1007 45 10000 2.73 158 20:34 07.05.2022
2230 Clouds 13 1007 45 10000 2.91 166 19:57 07.05.2022
2231 Clouds 14 1006 43 10000 2.8 154 17:43 07.05.2022
2232 Clouds 15 1003 36 10000 3.39 174 15:47 07.05.2022
2233 Clouds 17 999 27 10000 5.12 199 13:58 07.05.2022
2234 Clouds 20 997 19 10000 2.74 191 10:56 07.05.2022
2235 Clouds 18 1002 24 10000 2.7 204 09:20 07.05.2022
2236 Clouds 17 1004 27 10000 2.75 198 07:51 07.05.2022
2237 Clouds 16 1007 31 10000 2.8 193 06:43 07.05.2022
2238 Clouds 13 1010 40 10000 2.55 191 04:59 07.05.2022
2239 Clouds 9 1012 65 10000 0.8 177 01:46 07.05.2022
2240 Clouds 9 1011 69 10000 0.79 215 23:38 06.05.2022
2241 Clouds 9 1011 72 10000 1.09 243 22:28 06.05.2022
2242 Clouds 9 1011 72 10000 1.09 243 21:43 06.05.2022
2243 Clouds 9 1011 72 10000 1.17 211 20:34 06.05.2022
2244 Clouds 11 1010 61 10000 1.69 195 19:30 06.05.2022
2245 Clouds 12 1009 52 10000 1.77 225 18:59 06.05.2022
2246 Clouds 13 1007 47 10000 1.88 209 18:18 06.05.2022
2247 Clouds 13 1006 48 10000 2.12 151 16:44 06.05.2022
2248 Clouds 13 1005 48 10000 3.48 150 15:41 06.05.2022
2249 Clouds 15 1002 40 10000 3.6 198 14:50 06.05.2022
2250 Clouds 19 996 18 10000 2.08 198 12:55 06.05.2022
2251 Clouds 19 996 18 10000 2.08 198 12:36 06.05.2022
2252 Clouds 20 996 17 10000 2.45 176 11:42 06.05.2022
2253 Clouds 19 999 19 10000 3.42 177 10:29 06.05.2022
2254 Clouds 19 999 19 10000 3.42 177 09:45 06.05.2022
2255 Clear 18 1003 23 10000 2.61 184 08:27 06.05.2022
2256 Clouds 17 1005 26 10000 2.45 184 06:46 06.05.2022
2257 Clouds 14 1009 35 10000 2.14 176 05:23 06.05.2022
2258 Clouds 11 1010 46 10000 2.38 167 02:47 06.05.2022
2259 Clouds 9 1009 53 10000 2.14 162 00:19 06.05.2022
2260 Clouds 10 1008 45 10000 2.77 167 22:28 05.05.2022
2261 Clouds 11 1008 39 10000 2.96 160 21:22 05.05.2022
2262 Clouds 12 1007 31 10000 2.88 156 19:54 05.05.2022
2263 Clouds 13 1006 24 10000 2.34 142 18:34 05.05.2022
2264 Clouds 14 1004 20 10000 2.01 120 16:33 05.05.2022
2265 Clouds 16 1001 15 10000 1.93 118 14:50 05.05.2022
2266 Clouds 18 999 9 10000 1.89 124 13:22 05.05.2022
2267 Clouds 18 999 9 10000 1.89 124 12:49 05.05.2022
2268 Clouds 18 1000 9 10000 1.4 126 10:48 05.05.2022
2269 Clouds 18 1002 9 10000 1.18 128 09:40 05.05.2022
2270 Clear 17 1005 9 10000 0.58 117 07:35 05.05.2022
2271 Clear 14 1009 15 10000 0.69 194 05:19 05.05.2022
2272 Clouds 9 1011 20 10000 0.49 60 01:56 05.05.2022
2273 Clouds 7 1010 17 10000 0.7 54 01:27 05.05.2022
2274 Clouds 8 1010 16 10000 1.11 41 23:50 04.05.2022
2275 Clouds 8 1009 16 10000 1.2 35 22:42 04.05.2022
2276 Clouds 8 1009 16 10000 1.2 35 22:42 04.05.2022
2277 Clouds 9 1009 16 10000 1.31 24 21:50 04.05.2022
2278 Clouds 9 1009 16 10000 1.1 357 21:29 04.05.2022
2279 Clouds 10 1009 16 10000 0.25 354 20:25 04.05.2022
2280 Clouds 10 1009 16 10000 1.24 338 19:53 04.05.2022
2281 Clouds 11 1009 15 10000 1.53 340 19:18 04.05.2022
2282 Clouds 11 1009 15 10000 1.63 345 18:22 04.05.2022
2283 Clouds 11 1009 15 10000 1.63 345 17:51 04.05.2022
2284 Clouds 13 1007 14 10000 1.55 1 15:42 04.05.2022
2285 Clouds 14 1006 11 10000 1.92 8 15:23 04.05.2022
2286 Clouds 15 1005 9 10000 3.22 11 14:21 04.05.2022
2287 Clouds 15 1003 10 10000 1.3 15 13:35 04.05.2022
2288 Clouds 16 1003 11 10000 1.23 354 12:33 04.05.2022
2289 Clouds 16 1004 12 10000 2.13 287 10:41 04.05.2022
2290 Clouds 16 1006 12 10000 1.74 287 09:44 04.05.2022
2291 Clouds 15 1007 12 10000 1.37 294 08:47 04.05.2022
2292 Clouds 15 1007 12 10000 1.37 294 08:47 04.05.2022
2293 Clouds 14 1010 16 10000 1.43 9 06:49 04.05.2022
2294 Clouds 9 1015 33 10000 1.09 339 02:59 04.05.2022
2295 Clouds 7 1014 39 10000 1.21 14 00:48 04.05.2022
2296 Clouds 8 1013 36 10000 1.68 2 22:40 03.05.2022
2297 Clouds 8 1013 34 10000 1.71 1 21:46 03.05.2022
2298 Clouds 9 1012 33 10000 1.42 358 20:56 03.05.2022
2299 Clouds 9 1012 33 10000 1.42 358 20:30 03.05.2022
2300 Clouds 10 1012 29 10000 2.11 351 18:54 03.05.2022
2301 Clouds 10 1012 29 10000 2.11 351 18:34 03.05.2022
2302 Clouds 11 1010 24 10000 2.45 341 17:19 03.05.2022
2303 Clouds 12 1009 20 10000 2.46 345 15:43 03.05.2022
2304 Clouds 12 1009 20 10000 2.46 345 15:43 03.05.2022
2305 Clouds 14 1005 16 10000 2.72 344 13:32 03.05.2022
2306 Clouds 15 1004 14 10000 3.71 356 12:30 03.05.2022
2307 Clouds 16 1003 13 10000 3.11 4 10:58 03.05.2022
2308 Clouds 16 1004 14 10000 4.6 355 09:58 03.05.2022
2309 Clouds 12 1010 23 10000 2.08 270 07:59 03.05.2022
2310 Clouds 11 1011 25 10000 2.59 273 06:45 03.05.2022
2311 Clouds 4 1016 70 10000 1.29 296 01:53 03.05.2022
2312 Clouds 4 1012 81 10000 0.67 279 22:45 02.05.2022
2313 Clouds 5 1012 82 10000 0.73 215 22:25 02.05.2022
2314 Clouds 6 1012 85 10000 1.14 179 21:24 02.05.2022
2315 Clouds 6 1012 89 10000 1.98 197 18:57 02.05.2022
2316 Clouds 6 1012 90 10000 1.81 192 18:25 02.05.2022
2317 Clouds 6 1012 90 10000 1.81 192 17:38 02.05.2022
2318 Clouds 7 1010 84 9361 2.33 200 16:25 02.05.2022
2319 Clouds 7 1010 84 9361 2.33 200 15:40 02.05.2022
2320 Clouds 11 1003 54 10000 2.6 258 14:20 02.05.2022
2321 Clouds 13 999 37 10000 0.08 359 12:52 02.05.2022
2322 Clouds 13 1000 39 10000 0.88 153 11:24 02.05.2022
2323 Clouds 13 1001 39 10000 2.36 197 09:32 02.05.2022
2324 Clouds 15 1002 25 10000 2.89 191 07:57 02.05.2022
2325 Clouds 14 1005 24 10000 2.71 182 05:59 02.05.2022
2326 Clouds 6 1008 19 10000 1.06 126 00:40 02.05.2022
2327 Clouds 7 1007 16 10000 0.71 115 00:21 02.05.2022
2328 Clouds 8 1007 15 10000 1.27 36 22:49 01.05.2022
2329 Clouds 8 1008 14 10000 1.46 38 21:41 01.05.2022
2330 Clouds 9 1008 13 10000 2.14 7 20:29 01.05.2022
2331 Clouds 10 1007 12 10000 1.99 4 19:20 01.05.2022
2332 Clouds 10 1007 12 10000 1.99 4 18:52 01.05.2022
2333 Clouds 11 1007 12 10000 1.72 12 17:47 01.05.2022
2334 Clouds 12 1005 11 10000 2.22 30 16:26 01.05.2022
2335 Clouds 12 1005 11 10000 2.22 30 15:45 01.05.2022
2336 Clouds 13 1004 9 10000 3.63 28 14:45 01.05.2022
2337 Clouds 16 1000 7 10000 1.96 45 12:23 01.05.2022
2338 Clouds 16 1003 8 10000 0.92 102 09:34 01.05.2022
2339 Clouds 15 1005 9 10000 0.66 71 08:49 01.05.2022
2340 Clouds 13 1009 10 10000 0.74 13 06:31 01.05.2022
2341 Clouds 7 1013 17 10000 1.72 360 01:56 01.05.2022
2342 Clouds 7 1011 17 10000 0.13 36 22:18 30.04.2022
2343 Clouds 7 1011 17 10000 0.13 36 21:32 30.04.2022
2344 Clouds 9 1011 16 10000 0.37 342 19:53 30.04.2022
2345 Clouds 9 1012 15 10000 0.7 53 18:53 30.04.2022
2346 Clouds 9 1012 15 10000 1.55 45 17:26 30.04.2022
2347 Clouds 10 1011 14 10000 1.9 51 15:51 30.04.2022
2348 Clouds 10 1011 14 10000 1.9 51 15:51 30.04.2022
2349 Clouds 11 1010 12 10000 3.43 37 15:18 30.04.2022
2350 Clouds 12 1008 11 10000 5.1 16 13:52 30.04.2022
2351 Clouds 14 1006 12 10000 4.34 15 11:48 30.04.2022
2352 Clouds 14 1006 12 10000 3.86 15 11:26 30.04.2022
2353 Clouds 14 1006 12 10000 3.51 11 09:57 30.04.2022
2354 Clouds 13 1010 12 10000 3.87 3 07:47 30.04.2022
2355 Clouds 10 1013 17 10000 3.33 1 04:25 30.04.2022
2356 Clouds 8 1011 53 10000 2.22 351 23:57 29.04.2022
2357 Clouds 8 1011 56 10000 1.74 345 22:51 29.04.2022
2358 Clouds 8 1011 58 10000 0.95 268 21:56 29.04.2022
2359 Clouds 8 1011 57 10000 1.75 207 21:25 29.04.2022
2360 Clouds 9 1011 54 10000 2.12 196 20:18 29.04.2022
2361 Clouds 9 1012 51 10000 2.23 212 19:27 29.04.2022
2362 Clouds 9 1012 49 10000 2.64 216 17:35 29.04.2022
2363 Clouds 10 1012 46 10000 2.63 225 16:38 29.04.2022
2364 Clouds 11 1010 41 10000 2.8 214 14:36 29.04.2022
2365 Clouds 12 1008 31 10000 1.21 266 13:42 29.04.2022
2366 Clouds 13 1007 31 10000 0.23 351 12:37 29.04.2022
2367 Clouds 13 1009 30 10000 0.79 252 10:32 29.04.2022
2368 Clouds 12 1011 31 10000 2.9 54 07:57 29.04.2022
2369 Clouds 12 1012 29 10000 3.49 29 07:26 29.04.2022
2370 Clouds 12 1012 29 10000 3.49 29 06:32 29.04.2022
2371 Clouds 9 1013 47 10000 1.22 180 02:23 29.04.2022
2372 Clouds 8 1011 48 10000 2.23 170 23:58 28.04.2022
2373 Clouds 9 1011 45 10000 2.38 170 23:26 28.04.2022
2374 Clouds 9 1011 45 10000 2.38 170 22:33 28.04.2022
2375 Clouds 10 1010 42 10000 2.75 171 21:43 28.04.2022
2376 Clouds 10 1010 40 10000 2.21 182 20:48 28.04.2022
2377 Clouds 12 1009 36 10000 3.23 168 19:57 28.04.2022
2378 Clouds 12 1009 36 10000 3.23 168 19:38 28.04.2022
2379 Clouds 12 1009 33 10000 3.78 163 19:19 28.04.2022
2380 Clouds 13 1007 28 10000 3.32 175 17:55 28.04.2022
2381 Clouds 14 1006 22 10000 3.02 173 16:58 28.04.2022
2382 Clouds 14 1004 15 10000 2.14 167 16:21 28.04.2022
2383 Clouds 14 1004 15 10000 2.14 167 15:52 28.04.2022
2384 Clouds 15 1002 10 10000 2.16 151 15:18 28.04.2022
2385 Clouds 16 1001 9 10000 3.26 188 13:42 28.04.2022
2386 Clouds 17 1001 8 10000 4.56 190 12:32 28.04.2022
2387 Clouds 17 1002 7 10000 3.88 179 11:38 28.04.2022
2388 Clouds 17 1005 8 10000 3.57 176 10:27 28.04.2022
2389 Clouds 17 1005 8 10000 3.57 176 09:50 28.04.2022
2390 Clear 15 1009 11 10000 2.63 196 07:44 28.04.2022
2391 Clear 14 1011 13 10000 2.49 205 06:53 28.04.2022
2392 Clear 13 1013 15 10000 2.31 197 05:53 28.04.2022
2393 Clear 12 1014 20 10000 1.86 196 04:43 28.04.2022
2394 Clear 9 1016 27 10000 0.76 223 03:28 28.04.2022
2395 Clouds 6 1015 48 10000 0.82 236 23:43 27.04.2022
2396 Clouds 7 1014 51 10000 0.69 227 22:25 27.04.2022
2397 Clouds 7 1014 51 10000 0.69 227 21:47 27.04.2022
2398 Clouds 7 1014 51 10000 0.97 217 20:47 27.04.2022
2399 Clouds 7 1014 51 10000 0.97 217 20:47 27.04.2022
2400 Clouds 8 1015 51 10000 1.34 212 20:29 27.04.2022
2401 Clouds 8 1013 42 10000 1.4 207 19:36 27.04.2022
2402 Clouds 9 1013 42 10000 1.3 210 18:45 27.04.2022
2403 Clouds 9 1013 39 10000 1.22 210 18:21 27.04.2022
2404 Clouds 11 1011 32 10000 1.64 232 16:21 27.04.2022
2405 Clouds 13 1006 17 10000 1.93 326 13:29 27.04.2022
2406 Clouds 12 1007 23 10000 2.39 312 11:39 27.04.2022
2407 Clouds 11 1008 29 10000 2.4 293 11:18 27.04.2022
2408 Clouds 12 1010 37 10000 2.39 345 08:53 27.04.2022
2409 Clouds 13 1008 28 10000 1.37 29 06:45 27.04.2022
2410 Clouds 9 1012 42 10000 0.35 23 03:30 27.04.2022
2411 Clouds 7 1010 57 10000 1.37 182 01:27 27.04.2022
2412 Clouds 7 1010 57 10000 1.37 182 00:35 27.04.2022
2413 Clouds 7 1009 58 10000 1.88 177 23:24 26.04.2022
2414 Clouds 7 1009 58 10000 1.88 177 22:52 26.04.2022
2415 Clouds 7 1009 58 10000 1.88 177 22:34 26.04.2022
2416 Clouds 8 1009 56 10000 2.68 174 21:26 26.04.2022
2417 Clouds 8 1009 56 10000 2.68 174 20:40 26.04.2022
2418 Clouds 8 1009 56 10000 2.68 174 20:40 26.04.2022
2419 Clouds 8 1009 54 10000 2.8 195 19:48 26.04.2022
2420 Clouds 10 1007 48 10000 3.5 173 19:26 26.04.2022
2421 Clouds 10 1007 48 10000 3.5 173 18:42 26.04.2022
2422 Clouds 11 1006 41 10000 4.02 174 17:50 26.04.2022
2423 Clouds 13 1002 27 10000 3.95 173 16:19 26.04.2022
2424 Clouds 16 998 12 10000 2.66 174 13:58 26.04.2022
2425 Clouds 17 997 11 10000 2.79 199 13:29 26.04.2022
2426 Clouds 17 997 12 10000 2.27 192 11:32 26.04.2022
2427 Clouds 17 998 13 10000 2.63 176 10:31 26.04.2022
2428 Clouds 15 1002 19 10000 1.32 164 08:47 26.04.2022
2429 Clouds 15 1005 21 10000 2.68 183 06:57 26.04.2022
2430 Clouds 11 1010 35 10000 1.1 177 04:23 26.04.2022
2431 Clouds 6 1010 61 10000 0.81 79 00:57 26.04.2022
2432 Clouds 6 1010 58 10000 0.72 33 00:20 26.04.2022
2433 Clouds 8 1009 49 10000 0.93 82 22:19 25.04.2022
2434 Clouds 8 1009 49 10000 0.93 82 21:33 25.04.2022
2435 Clouds 9 1009 45 10000 0.61 23 20:34 25.04.2022
2436 Clouds 10 1007 36 10000 1.63 44 18:54 25.04.2022
2437 Clouds 10 1007 35 10000 1.64 36 17:43 25.04.2022
2438 Clouds 11 1006 31 10000 2.63 38 16:51 25.04.2022
2439 Clouds 12 1003 23 10000 3.52 21 15:23 25.04.2022
2440 Clouds 12 1003 23 10000 3.52 21 14:34 25.04.2022
2441 Clouds 15 999 13 10000 3.31 317 13:30 25.04.2022
2442 Clouds 16 998 9 10000 3.91 266 11:37 25.04.2022
2443 Clouds 16 1000 12 10000 3.37 267 10:20 25.04.2022
2444 Clouds 15 1002 14 10000 1.99 255 08:33 25.04.2022
2445 Clouds 13 1007 20 10000 1.89 193 06:27 25.04.2022
2446 Clouds 7 1010 59 10000 0.9 140 02:20 25.04.2022
2447 Clouds 6 1009 64 10000 0.79 142 00:33 25.04.2022
2448 Clouds 7 1008 61 10000 0.99 136 23:51 24.04.2022
2449 Clouds 8 1007 57 10000 1.18 141 22:41 24.04.2022
2450 Clouds 9 1006 54 10000 0.84 143 21:58 24.04.2022
2451 Clouds 9 1006 51 10000 1.82 165 21:24 24.04.2022
2452 Clouds 9 1006 51 10000 1.82 165 20:48 24.04.2022
2453 Clouds 10 1005 45 10000 2.5 187 20:21 24.04.2022
2454 Clouds 11 1005 41 10000 2.95 177 19:19 24.04.2022
2455 Clouds 12 1004 35 10000 3.27 162 18:20 24.04.2022
2456 Clouds 13 1002 27 10000 2.77 189 17:27 24.04.2022
2457 Clouds 13 1002 27 10000 2.77 189 16:58 24.04.2022
2458 Clouds 13 1002 27 10000 2.77 189 16:30 24.04.2022
2459 Clouds 13 1002 27 10000 2.77 189 16:30 24.04.2022
2460 Clouds 14 1000 20 10000 2.12 244 15:53 24.04.2022
2461 Clouds 14 999 17 10000 2.67 260 14:55 24.04.2022
2462 Clouds 15 997 15 10000 2.09 251 13:45 24.04.2022
2463 Clouds 15 997 15 10000 2.09 251 13:45 24.04.2022
2464 Clouds 16 995 11 10000 1.02 234 13:23 24.04.2022
2465 Clouds 16 995 12 10000 0.96 229 11:55 24.04.2022
2466 Clouds 16 996 13 10000 0.55 212 11:22 24.04.2022
2467 Clouds 16 998 14 10000 0.73 201 09:51 24.04.2022
2468 Clouds 16 1000 16 10000 1.29 190 08:31 24.04.2022
2469 Clear 14 1005 13 10000 1.34 202 05:46 24.04.2022
2470 Clear 10 1008 32 10000 0.53 280 02:59 24.04.2022
2471 Clouds 8 1008 53 10000 1.13 178 00:55 24.04.2022
2472 Clouds 8 1007 52 10000 1.05 186 23:55 23.04.2022
2473 Clouds 9 1006 50 10000 1.55 163 23:25 23.04.2022
2474 Clouds 9 1006 50 10000 1.55 163 22:42 23.04.2022
2475 Clouds 10 1005 48 10000 1.71 165 21:49 23.04.2022
2476 Clouds 10 1005 48 10000 1.71 165 21:30 23.04.2022
2477 Clouds 11 1006 44 10000 2.46 170 20:27 23.04.2022
2478 Clouds 11 1005 43 10000 1.27 177 19:21 23.04.2022
2479 Clouds 11 1005 43 10000 1.27 177 18:55 23.04.2022
2480 Clouds 11 1005 43 10000 1.27 177 18:32 23.04.2022
2481 Clouds 12 1004 37 10000 2.5 169 17:48 23.04.2022
2482 Clouds 13 1003 30 10000 2.87 182 16:47 23.04.2022
2483 Clouds 14 1001 23 10000 2.94 196 15:54 23.04.2022
2484 Clouds 16 997 15 10000 2.17 203 13:33 23.04.2022
2485 Clouds 18 996 10 10000 4.55 267 11:59 23.04.2022
2486 Clouds 18 997 10 10000 4.37 248 10:40 23.04.2022
2487 Clouds 17 1001 13 10000 3.11 234 08:30 23.04.2022
2488 Clear 12 1009 41 10000 1.97 183 05:27 23.04.2022
2489 Clear 10 1010 52 10000 1.7 182 03:32 23.04.2022
2490 Clouds 6 1010 77 10000 0.84 178 00:18 23.04.2022
2491 Clouds 7 1010 75 10000 1.25 158 23:25 22.04.2022
2492 Clouds 7 1010 76 10000 0.36 176 21:59 22.04.2022
2493 Clouds 7 1010 76 10000 0.36 176 21:40 22.04.2022
2494 Clouds 7 1010 76 10000 0.91 182 20:44 22.04.2022
2495 Clouds 6 1011 85 10000 1.34 169 20:25 22.04.2022
2496 Clouds 9 1009 62 10000 2.92 259 19:18 22.04.2022
2497 Clouds 9 1009 62 10000 2.92 259 18:34 22.04.2022
2498 Clouds 10 1007 53 10000 2.15 177 17:34 22.04.2022
2499 Clouds 13 1003 39 10000 2.41 149 16:29 22.04.2022
2500 Clouds 13 1003 39 10000 2.41 149 15:32 22.04.2022
2501 Clouds 14 1001 32 10000 2.52 163 14:41 22.04.2022
2502 Clouds 14 1001 34 10000 0.62 104 13:42 22.04.2022
2503 Clouds 15 1000 28 10000 1.37 147 12:55 22.04.2022
2504 Clouds 15 1000 28 10000 1.37 147 12:55 22.04.2022
2505 Clouds 15 999 27 10000 1.57 124 11:41 22.04.2022
2506 Clouds 14 1002 35 10000 2.42 102 11:18 22.04.2022
2507 Clouds 14 1002 35 10000 2.42 102 10:47 22.04.2022
2508 Clouds 14 1004 35 10000 1.53 225 10:25 22.04.2022
2509 Clouds 14 1004 35 10000 1.53 225 09:42 22.04.2022
2510 Clouds 14 1003 30 10000 2.06 324 08:49 22.04.2022
2511 Clouds 16 1005 24 10000 1.91 177 06:54 22.04.2022
2512 Clouds 8 1010 56 10000 1.24 176 01:41 22.04.2022
2513 Clouds 9 1009 50 10000 1.89 192 23:39 21.04.2022
2514 Clouds 9 1008 48 10000 2.13 210 22:48 21.04.2022
2515 Clouds 10 1007 44 10000 1.4 193 21:49 21.04.2022
2516 Clouds 10 1007 41 10000 1.18 178 20:34 21.04.2022
2517 Clouds 11 1008 41 10000 0.61 179 19:36 21.04.2022
2518 Clouds 11 1007 39 10000 0.54 317 18:32 21.04.2022
2519 Clouds 11 1006 35 10000 1.17 48 17:47 21.04.2022
2520 Clouds 13 1004 27 10000 2.32 35 16:24 21.04.2022
2521 Clouds 14 1002 22 10000 0.85 29 15:19 21.04.2022
2522 Clouds 14 1002 22 10000 0.85 29 14:31 21.04.2022
2523 Clouds 16 1000 20 10000 1 196 13:22 21.04.2022
2524 Clouds 16 1001 20 10000 1.08 234 12:29 21.04.2022
2525 Clouds 16 1002 21 10000 1.16 218 10:19 21.04.2022
2526 Clouds 16 1003 22 10000 2.7 209 08:50 21.04.2022
2527 Clouds 14 1009 32 10000 2.56 189 06:55 21.04.2022
2528 Clouds 9 1014 52 10000 2.54 193 04:34 21.04.2022
2529 Clouds 8 1014 54 10000 2.31 202 03:23 21.04.2022
2530 Clouds 8 1014 54 10000 2.31 202 02:45 21.04.2022
2531 Clouds 8 1011 48 10000 2.63 194 00:35 21.04.2022
2532 Clouds 7 1011 41 10000 2.3 200 23:48 20.04.2022
2533 Clouds 7 1010 33 10000 1.97 190 23:21 20.04.2022
2534 Clouds 7 1010 33 10000 1.97 190 22:45 20.04.2022
2535 Clouds 8 1010 25 10000 2.17 165 22:18 20.04.2022
2536 Clouds 8 1009 16 10000 2.37 154 21:23 20.04.2022
2537 Clouds 9 1009 15 10000 2.37 153 20:22 20.04.2022
2538 Clouds 9 1009 15 10000 2.37 153 19:51 20.04.2022
2539 Clouds 10 1008 12 10000 2.51 155 18:52 20.04.2022
2540 Clouds 11 1008 12 10000 2.07 148 17:53 20.04.2022
2541 Clouds 12 1007 11 10000 1.68 113 16:40 20.04.2022
2542 Clouds 12 1006 10 10000 1.88 89 15:50 20.04.2022
2543 Clouds 14 1004 9 10000 1.61 123 13:41 20.04.2022
2544 Clouds 15 1004 8 10000 1.84 134 11:43 20.04.2022
2545 Clouds 15 1005 8 10000 1.58 128 10:53 20.04.2022
2546 Clouds 15 1007 8 10000 1.08 138 09:46 20.04.2022
2547 Clouds 14 1009 9 10000 0.64 140 08:59 20.04.2022
2548 Clouds 13 1011 9 10000 0.39 125 08:20 20.04.2022
2549 Clouds 13 1012 11 10000 0.29 115 06:49 20.04.2022
2550 Clouds 8 1017 17 10000 1.25 51 03:33 20.04.2022
2551 Clouds 4 1017 23 10000 2.01 39 00:22 20.04.2022
2552 Clouds 4 1017 23 10000 2.01 39 23:35 19.04.2022
2553 Clouds 6 1016 20 10000 2.3 37 22:24 19.04.2022
2554 Clouds 6 1016 20 10000 2.3 37 21:55 19.04.2022
2555 Clouds 6 1016 18 10000 2.25 47 21:19 19.04.2022
2556 Clouds 6 1016 18 10000 2.25 47 20:41 19.04.2022
2557 Clouds 7 1015 15 10000 1.4 36 19:43 19.04.2022
2558 Clouds 8 1015 17 10000 0.7 352 18:46 19.04.2022
2559 Clouds 9 1014 16 10000 1.67 14 17:28 19.04.2022
2560 Clouds 9 1014 16 10000 1.67 14 16:43 19.04.2022
2561 Clouds 10 1013 15 10000 2.37 33 16:21 19.04.2022
2562 Clouds 11 1011 14 10000 3.96 38 14:48 19.04.2022
2563 Clouds 12 1010 16 10000 4.99 14 13:35 19.04.2022
2564 Clouds 13 1008 13 10000 7.39 7 12:50 19.04.2022
2565 Clouds 14 1006 11 10000 5.36 5 11:55 19.04.2022
2566 Clouds 15 1006 9 10000 1.73 339 10:23 19.04.2022
2567 Clouds 15 1008 9 10000 0.77 348 09:18 19.04.2022
2568 Clouds 11 1014 13 10000 0.17 19 04:56 19.04.2022
2569 Clouds 8 1015 15 10000 0.64 331 03:25 19.04.2022
2570 Clouds 6 1013 19 10000 0.43 193 00:54 19.04.2022
2571 Clouds 6 1013 19 10000 0.42 49 23:30 18.04.2022
2572 Clouds 7 1013 18 10000 0.45 15 21:30 18.04.2022
2573 Clouds 7 1013 18 10000 0.45 15 21:30 18.04.2022
2574 Clouds 8 1013 17 10000 0.19 149 20:55 18.04.2022
2575 Clouds 8 1013 17 10000 0.19 149 20:32 18.04.2022
2576 Clouds 8 1014 17 10000 0.27 144 19:49 18.04.2022
2577 Clouds 8 1014 16 10000 0.46 160 18:56 18.04.2022
2578 Clouds 9 1015 16 10000 0.4 95 17:57 18.04.2022
2579 Clouds 9 1015 16 10000 0.4 95 17:33 18.04.2022
2580 Clouds 9 1015 15 10000 1.54 34 16:55 18.04.2022
2581 Clouds 9 1015 15 10000 1.54 34 16:31 18.04.2022
2582 Clouds 11 1012 11 10000 3.3 19 14:51 18.04.2022
2583 Clouds 12 1009 8 10000 3.13 1 13:36 18.04.2022
2584 Clouds 13 1008 7 10000 2.46 355 12:30 18.04.2022
2585 Clouds 13 1008 7 10000 2.44 350 11:34 18.04.2022
2586 Clouds 13 1008 7 10000 2.62 338 10:31 18.04.2022
2587 Clouds 13 1010 7 10000 2.57 319 09:31 18.04.2022
2588 Clouds 12 1014 11 10000 2.42 311 07:42 18.04.2022
2589 Clear 9 1017 16 10000 1.68 323 05:41 18.04.2022
2590 Clouds 4 1016 53 10000 1.43 315 00:47 18.04.2022
2591 Clouds 5 1014 54 10000 1.13 333 22:41 17.04.2022
2592 Clouds 6 1013 53 10000 0.6 336 21:46 17.04.2022
2593 Clouds 6 1013 53 10000 0.78 313 21:24 17.04.2022
2594 Clouds 6 1013 53 10000 0.78 313 20:36 17.04.2022
2595 Clouds 6 1012 51 10000 1.35 276 19:38 17.04.2022
2596 Clouds 8 1012 47 10000 0.57 315 17:48 17.04.2022
2597 Clouds 7 1010 50 10000 0.76 290 15:40 17.04.2022
2598 Clouds 8 1009 48 10000 1.42 55 14:55 17.04.2022
2599 Clouds 8 1008 49 10000 2.83 353 14:19 17.04.2022
2600 Clouds 8 1007 48 10000 4 5 12:59 17.04.2022
2601 Clouds 8 1006 49 10000 2.77 11 12:27 17.04.2022
2602 Clouds 8 1006 49 10000 2.77 11 12:27 17.04.2022
2603 Clouds 8 1007 55 10000 2.73 5 10:46 17.04.2022
2604 Clouds 8 1006 50 10000 4.21 341 10:28 17.04.2022
2605 Clouds 8 1006 50 10000 4.21 341 09:37 17.04.2022
2606 Clouds 9 1006 44 10000 3.33 316 08:53 17.04.2022
2607 Clouds 12 1004 27 10000 1.29 253 07:37 17.04.2022
2608 Clouds 8 1010 35 10000 0.83 353 04:30 17.04.2022
2609 Clouds 4 1010 57 10000 2.57 344 01:27 17.04.2022
2610 Clouds 5 1009 55 10000 2.02 344 23:54 16.04.2022
2611 Clouds 5 1007 51 10000 1.31 337 22:39 16.04.2022
2612 Clouds 6 1006 45 10000 0.49 280 21:39 16.04.2022
2613 Clouds 7 1005 38 10000 1.7 214 20:32 16.04.2022
2614 Clouds 8 1005 28 10000 2.99 226 19:18 16.04.2022
2615 Clouds 9 1004 25 10000 3.29 212 18:28 16.04.2022
2616 Clouds 10 1003 21 10000 3.4 209 16:40 16.04.2022
2617 Clouds 11 1001 18 10000 3.37 211 15:46 16.04.2022
2618 Clouds 11 1001 18 10000 3.37 211 15:45 16.04.2022
2619 Clouds 11 1000 16 10000 3.79 220 14:57 16.04.2022
2620 Clouds 13 998 14 10000 6.02 227 13:58 16.04.2022
2621 Clouds 12 999 19 10000 5.73 218 13:37 16.04.2022
2622 Clouds 14 997 12 10000 6.41 241 12:27 16.04.2022
2623 Clouds 14 997 11 10000 7.08 245 11:18 16.04.2022
2624 Clouds 14 998 10 10000 7.87 240 09:56 16.04.2022
2625 Clouds 14 999 11 10000 6.49 230 08:59 16.04.2022
2626 Clouds 13 1001 13 10000 4.59 213 07:57 16.04.2022
2627 Clouds 13 1002 16 10000 3.71 219 06:58 16.04.2022
2628 Clouds 8 1005 41 10000 2.61 189 02:52 16.04.2022
2629 Clouds 7 1004 47 10000 2.22 183 00:31 16.04.2022
2630 Clouds 8 1003 41 10000 1.61 189 23:23 15.04.2022
2631 Clouds 8 1003 41 10000 1.61 189 22:36 15.04.2022
2632 Clouds 8 1003 41 10000 1.66 191 21:55 15.04.2022
2633 Clouds 9 1002 39 10000 1.8 176 21:18 15.04.2022
2634 Clouds 9 1002 39 10000 1.26 190 20:24 15.04.2022
2635 Clouds 10 1002 34 10000 1.32 210 19:40 15.04.2022
2636 Clouds 10 1002 32 10000 2.05 215 18:54 15.04.2022
2637 Clouds 10 1001 31 10000 1.7 207 18:25 15.04.2022
2638 Clouds 10 1001 31 10000 1.7 207 17:35 15.04.2022
2639 Clouds 11 1001 28 10000 0.93 263 16:53 15.04.2022
2640 Clouds 12 999 23 10000 0.83 272 16:19 15.04.2022
2641 Clouds 13 997 17 10000 1.17 224 15:24 15.04.2022
2642 Clouds 14 996 12 10000 3.75 240 13:41 15.04.2022
2643 Clouds 15 995 14 10000 4.19 245 12:42 15.04.2022
2644 Clouds 15 995 13 10000 3.99 262 11:57 15.04.2022
2645 Clouds 15 995 13 10000 3.99 262 11:57 15.04.2022
2646 Clouds 15 995 13 10000 3.99 262 11:35 15.04.2022
2647 Clouds 15 995 13 10000 5.33 259 10:45 15.04.2022
2648 Clouds 15 996 14 10000 4.57 255 09:47 15.04.2022
2649 Clouds 14 998 19 10000 2.88 232 09:21 15.04.2022
2650 Clouds 13 1001 25 10000 2.41 244 07:44 15.04.2022
2651 Clouds 13 1002 25 10000 3.27 227 06:36 15.04.2022
2652 Clouds 9 1004 43 10000 2.66 214 03:21 15.04.2022
2653 Clouds 9 1002 45 10000 3.13 220 23:32 14.04.2022
2654 Clouds 9 1002 43 10000 2.78 214 22:49 14.04.2022
2655 Clouds 9 1002 43 10000 2.78 214 22:31 14.04.2022
2656 Clouds 9 1002 41 10000 2.33 217 21:59 14.04.2022
2657 Clouds 8 1001 41 10000 1.69 227 21:30 14.04.2022
2658 Clouds 11 1000 33 10000 2.91 233 19:23 14.04.2022
2659 Clouds 11 1000 33 10000 2.91 233 18:30 14.04.2022
2660 Clouds 12 999 30 10000 2.73 222 17:44 14.04.2022
2661 Clouds 13 998 28 10000 2.52 196 16:46 14.04.2022
2662 Clouds 14 995 22 10000 3.45 189 15:28 14.04.2022
2663 Clouds 16 994 18 10000 3.08 227 13:47 14.04.2022
2664 Clouds 16 993 16 10000 4.62 255 12:58 14.04.2022
2665 Clouds 16 993 16 10000 4.62 255 12:31 14.04.2022
2666 Clouds 17 992 14 10000 4.37 251 11:36 14.04.2022
2667 Clouds 18 992 12 10000 4.55 244 10:56 14.04.2022
2668 Clouds 18 993 10 10000 5.99 242 10:27 14.04.2022
2669 Clouds 17 995 11 10000 5.84 239 09:26 14.04.2022
2670 Clouds 17 996 13 10000 4.7 228 07:36 14.04.2022
2671 Clear 13 1004 37 10000 1.75 196 05:23 14.04.2022
2672 Clouds 8 1006 63 10000 1.21 184 23:50 13.04.2022
2673 Clouds 8 1007 61 10000 1.73 191 22:29 13.04.2022
2674 Clouds 8 1007 61 10000 1.73 191 21:42 13.04.2022
2675 Clouds 9 1007 56 10000 1.55 194 20:27 13.04.2022
2676 Clouds 10 1006 53 10000 0.74 217 19:46 13.04.2022
2677 Clouds 10 1006 52 10000 0.79 167 18:36 13.04.2022
2678 Clouds 11 1005 43 10000 1.03 42 17:24 13.04.2022
2679 Clouds 11 1005 43 10000 1.03 42 16:49 13.04.2022
2680 Clouds 13 1003 35 10000 1.34 54 15:44 13.04.2022
2681 Clouds 14 1000 27 10000 1.15 330 15:21 13.04.2022
2682 Clouds 14 1000 27 10000 1.15 330 14:34 13.04.2022
2683 Clouds 16 996 19 10000 3.04 237 13:37 13.04.2022
2684 Clouds 18 994 13 10000 4.26 241 12:45 13.04.2022
2685 Clouds 19 994 10 10000 4.06 247 11:25 13.04.2022
2686 Clouds 19 996 12 10000 3.34 228 09:53 13.04.2022
2687 Clouds 18 998 14 10000 2.43 195 08:44 13.04.2022
2688 Clouds 17 1000 16 10000 3.62 198 07:44 13.04.2022
2689 Clouds 17 1002 19 10000 3.34 193 06:47 13.04.2022
2690 Clouds 15 1004 26 10000 2.48 185 06:23 13.04.2022
2691 Clouds 8 1008 50 10000 2.46 158 00:52 13.04.2022
2692 Clouds 9 1007 46 10000 2.37 173 00:19 13.04.2022
2693 Clouds 10 1006 44 10000 2.18 164 22:33 12.04.2022
2694 Clouds 11 1006 37 10000 2.81 155 21:47 12.04.2022
2695 Clouds 11 1006 34 10000 1.93 174 20:44 12.04.2022
2696 Clouds 12 1005 29 10000 1.39 151 20:19 12.04.2022
2697 Clouds 13 1004 26 10000 1.91 158 19:40 12.04.2022
2698 Clouds 13 1004 23 10000 1.89 151 18:53 12.04.2022
2699 Clouds 14 1004 20 10000 1.16 154 17:38 12.04.2022
2700 Clouds 14 1004 18 10000 0.98 146 16:38 12.04.2022
2701 Clouds 15 1002 14 10000 1.05 181 15:34 12.04.2022
2702 Clouds 16 1001 10 10000 2.69 214 14:48 12.04.2022
2703 Clouds 17 999 9 10000 2.5 210 13:45 12.04.2022
2704 Clouds 17 999 6 10000 1.75 210 13:24 12.04.2022
2705 Clouds 17 999 6 10000 1.82 186 11:57 12.04.2022
2706 Clouds 17 999 6 10000 1.82 186 11:32 12.04.2022
2707 Clouds 17 1003 7 10000 2.53 169 09:47 12.04.2022
2708 Clouds 16 1006 7 10000 2.14 168 08:49 12.04.2022
2709 Clear 15 1009 8 10000 1.49 190 06:47 12.04.2022
2710 Clouds 13 1011 9 10000 1.43 203 05:40 12.04.2022
2711 Clouds 8 1015 12 10000 0.43 243 02:37 12.04.2022
2712 Clear 5 1013 17 10000 0.44 306 23:24 11.04.2022
2713 Clear 5 1013 17 10000 0.44 306 22:32 11.04.2022
2714 Clear 7 1014 17 10000 0.92 328 21:22 11.04.2022
2715 Clear 7 1014 17 10000 0.92 328 20:35 11.04.2022
2716 Clear 8 1014 16 10000 1.01 311 19:59 11.04.2022
2717 Clear 8 1014 15 10000 1.37 335 19:27 11.04.2022
2718 Clear 8 1014 15 10000 1.37 335 18:54 11.04.2022
2719 Clear 9 1014 15 10000 1.62 340 17:58 11.04.2022
2720 Clear 9 1014 15 10000 1.62 340 17:38 11.04.2022
2721 Clouds 10 1014 15 10000 1.74 353 16:33 11.04.2022
2722 Clouds 11 1011 11 10000 3.02 9 14:49 11.04.2022
2723 Clouds 13 1009 8 10000 4.75 353 13:36 11.04.2022
2724 Clouds 13 1008 8 10000 5.31 354 12:39 11.04.2022
2725 Clouds 14 1008 7 10000 4.98 1 12:20 11.04.2022
2726 Clouds 14 1008 7 10000 5.36 358 10:37 11.04.2022
2727 Clouds 14 1009 8 10000 5.57 355 09:57 11.04.2022
2728 Clouds 13 1012 11 10000 4.35 351 07:59 11.04.2022
2729 Clouds 9 1017 20 10000 2.93 349 04:36 11.04.2022
2730 Clouds 6 1015 41 10000 2.64 339 23:55 10.04.2022
2731 Clouds 7 1013 39 10000 2.87 333 22:27 10.04.2022
2732 Clouds 7 1013 39 10000 2.87 333 21:52 10.04.2022
2733 Clouds 8 1013 40 10000 3.14 327 20:52 10.04.2022
2734 Clouds 8 1011 45 10000 3 331 19:58 10.04.2022
2735 Clouds 8 1011 45 10000 3 331 19:34 10.04.2022
2736 Clouds 8 1011 53 10000 1.69 358 18:50 10.04.2022
2737 Clouds 8 1011 56 10000 0.09 325 18:25 10.04.2022
2738 Rain 8 1011 56 10000 0.09 325 17:43 10.04.2022
2739 Clouds 9 1010 55 10000 0.86 271 16:57 10.04.2022
2740 Clouds 8 1009 60 10000 0.77 234 15:38 10.04.2022
2741 Clouds 8 1007 59 10000 2.04 175 14:41 10.04.2022
2742 Clouds 8 1007 63 10000 1.8 135 13:22 10.04.2022
2743 Clouds 10 1004 46 10000 0.99 279 12:27 10.04.2022
2744 Clouds 10 1004 46 10000 0.99 279 11:36 10.04.2022
2745 Clouds 12 1003 42 10000 2.07 346 10:59 10.04.2022
2746 Clouds 13 1002 36 10000 1.42 5 10:27 10.04.2022
2747 Clouds 13 1002 36 10000 1.42 5 09:41 10.04.2022
2748 Clouds 13 1005 32 10000 0.84 183 08:26 10.04.2022
2749 Clouds 13 1005 32 10000 0.84 183 07:53 10.04.2022
2750 Clouds 11 1008 38 10000 1.78 176 06:59 10.04.2022
2751 Clouds 6 1013 72 10000 0.92 116 03:36 10.04.2022
2752 Clouds 6 1013 72 10000 0.92 116 03:36 10.04.2022
2753 Clouds 6 1013 72 10000 0.92 116 03:36 10.04.2022
2754 Clouds 6 1011 70 5549 0.77 242 01:30 10.04.2022
2755 Clouds 7 1009 64 10000 0.44 239 23:53 09.04.2022
2756 Clouds 8 1008 54 10000 2.11 211 22:52 09.04.2022
2757 Clouds 9 1007 47 10000 3.02 179 21:51 09.04.2022
2758 Clouds 9 1008 46 10000 3.06 175 20:58 09.04.2022
2759 Clouds 9 1008 44 10000 2.99 179 20:26 09.04.2022
2760 Clouds 9 1008 44 10000 2.99 179 19:49 09.04.2022
2761 Clouds 10 1007 41 10000 3.02 182 19:30 09.04.2022
2762 Clouds 12 1006 23 10000 3.08 170 18:22 09.04.2022
2763 Clouds 12 1006 23 10000 3.08 170 17:43 09.04.2022
2764 Clouds 13 1005 15 10000 0.98 197 16:55 09.04.2022
2765 Clouds 14 1004 11 10000 0.49 351 16:28 09.04.2022
2766 Clouds 14 1004 11 10000 0.49 351 15:48 09.04.2022
2767 Clouds 14 1004 11 10000 0.49 351 15:48 09.04.2022
2768 Clouds 14 1002 10 10000 0.71 13 15:25 09.04.2022
2769 Clouds 15 1002 8 10000 0.44 62 14:25 09.04.2022
2770 Clouds 16 1000 7 10000 1.15 87 13:24 09.04.2022
2771 Clouds 16 1000 7 10000 1.15 87 12:53 09.04.2022
2772 Clouds 16 1000 7 10000 1.25 86 11:44 09.04.2022
2773 Clouds 16 1002 7 10000 0.83 94 10:22 09.04.2022
2774 Clouds 16 1002 7 10000 0.83 94 09:53 09.04.2022
2775 Clouds 16 1004 7 10000 1.05 87 09:21 09.04.2022
2776 Clouds 15 1006 7 10000 0.87 104 07:49 09.04.2022
2777 Clouds 8 1013 15 10000 1.07 14 03:22 09.04.2022
2778 Clouds 6 1010 47 10000 0.32 140 00:32 09.04.2022
2779 Clouds 7 1009 44 10000 1.1 193 22:58 08.04.2022
2780 Clouds 8 1009 42 10000 1.39 213 21:42 08.04.2022
2781 Clouds 8 1009 40 10000 1.84 226 20:41 08.04.2022
2782 Clouds 8 1009 32 10000 1.14 242 19:41 08.04.2022
2783 Clouds 9 1010 32 10000 0.58 247 18:38 08.04.2022
2784 Clouds 10 1009 30 10000 0.43 255 17:59 08.04.2022
2785 Clouds 11 1009 27 10000 0.35 270 17:27 08.04.2022
2786 Clouds 11 1009 27 10000 0.35 270 16:52 08.04.2022
2787 Clouds 12 1008 26 10000 1.48 299 16:22 08.04.2022
2788 Clouds 11 1007 29 10000 0.95 331 15:28 08.04.2022
2789 Clouds 11 1007 29 10000 0.95 331 14:44 08.04.2022
2790 Clouds 12 1005 24 10000 1.34 312 13:55 08.04.2022
2791 Clouds 12 1005 24 10000 1.34 312 13:30 08.04.2022
2792 Clouds 13 1004 23 10000 1.62 295 12:42 08.04.2022
2793 Clouds 16 1001 15 10000 1.05 196 10:56 08.04.2022
2794 Clouds 15 1002 18 10000 0.92 130 09:41 08.04.2022
2795 Clouds 14 1005 24 10000 0.92 184 08:59 08.04.2022
2796 Clouds 12 1008 30 10000 0.31 218 07:42 08.04.2022
2797 Clouds 14 1007 22 10000 1.09 219 06:44 08.04.2022
2798 Clouds 8 1012 55 10000 1.1 192 02:37 08.04.2022
2799 Clouds 7 1011 62 10000 1.92 184 00:28 08.04.2022
2800 Clouds 7 1011 62 10000 1.92 184 23:42 07.04.2022
2801 Clouds 7 1010 61 10000 2.13 197 22:41 07.04.2022
2802 Clouds 8 1010 57 10000 3.21 166 22:23 07.04.2022
2803 Clouds 8 1010 57 10000 3.21 166 21:58 07.04.2022
2804 Clouds 9 1010 49 10000 2.99 164 21:28 07.04.2022
2805 Clouds 9 1010 49 10000 2.99 164 20:42 07.04.2022
2806 Clouds 10 1010 40 10000 2.46 183 19:51 07.04.2022
2807 Clouds 13 1006 19 10000 1.71 47 17:28 07.04.2022
2808 Clouds 13 1006 19 10000 1.71 47 16:59 07.04.2022
2809 Clouds 13 1006 19 10000 1.71 47 16:33 07.04.2022
2810 Clouds 15 1004 15 10000 1.59 36 15:40 07.04.2022
2811 Clouds 16 1001 14 10000 0.59 227 13:52 07.04.2022
2812 Clouds 16 1001 13 10000 0.76 96 13:23 07.04.2022
2813 Clouds 17 1001 13 10000 0.17 251 11:52 07.04.2022
2814 Clouds 17 1002 16 10000 1.1 125 10:46 07.04.2022
2815 Clouds 16 1006 25 10000 1.67 142 08:43 07.04.2022
2816 Clear 15 1009 25 10000 2.49 187 06:59 07.04.2022
2817 Clear 12 1013 39 10000 2.63 183 05:21 07.04.2022
2818 Clear 8 1015 51 10000 2.65 174 02:34 07.04.2022
2819 Clouds 6 1014 48 10000 2.45 180 00:43 07.04.2022
2820 Clouds 7 1013 38 10000 2.29 174 23:36 06.04.2022
2821 Clouds 9 1012 26 10000 2.08 156 22:44 06.04.2022
2822 Clouds 10 1011 21 10000 0.44 315 22:20 06.04.2022
2823 Clouds 10 1011 14 10000 0.65 42 20:47 06.04.2022
2824 Clouds 11 1011 12 10000 1.19 45 20:26 06.04.2022
2825 Clouds 11 1011 12 10000 1.19 45 19:44 06.04.2022
2826 Clouds 12 1010 11 10000 1.31 50 18:48 06.04.2022
2827 Clouds 11 1010 12 10000 1.9 43 17:36 06.04.2022
2828 Clouds 13 1010 10 10000 2.58 39 16:58 06.04.2022
2829 Clouds 13 1010 10 10000 2.58 39 16:34 06.04.2022
2830 Clouds 14 1009 9 10000 2.78 31 15:44 06.04.2022
2831 Clouds 15 1007 8 10000 3.92 43 13:53 06.04.2022
2832 Clouds 16 1006 7 10000 3.4 59 12:30 06.04.2022
2833 Clouds 16 1006 7 10000 2.76 75 11:44 06.04.2022
2834 Clouds 17 1007 6 10000 2.39 75 10:37 06.04.2022
2835 Clouds 16 1009 7 10000 2.28 70 10:18 06.04.2022
2836 Clear 16 1011 7 10000 2.09 62 09:25 06.04.2022
2837 Clear 15 1013 8 10000 2.01 46 08:18 06.04.2022
2838 Clear 15 1014 7 10000 1.34 39 06:45 06.04.2022
2839 Clear 5 1018 17 10000 1.87 358 01:44 06.04.2022
2840 Clouds 6 1016 16 10000 2.02 359 23:50 05.04.2022
2841 Clouds 7 1015 15 10000 2.05 359 21:59 05.04.2022
2842 Clouds 8 1014 15 10000 2.19 1 21:18 05.04.2022
2843 Clouds 9 1014 14 10000 2.09 8 20:24 05.04.2022
2844 Clouds 10 1013 13 10000 2.54 16 18:45 05.04.2022
2845 Clouds 12 1011 10 10000 3.58 14 17:22 05.04.2022
2846 Clouds 12 1011 10 10000 3.58 14 16:44 05.04.2022
2847 Clouds 14 1008 9 10000 3.73 5 15:52 05.04.2022
2848 Clouds 14 1008 9 10000 3.73 5 15:31 05.04.2022
2849 Clouds 17 1002 7 10000 4.82 319 13:59 05.04.2022
2850 Clouds 18 1000 6 10000 5.55 295 12:41 05.04.2022
2851 Clouds 18 1000 8 10000 5.19 286 11:43 05.04.2022
2852 Clouds 19 1000 7 10000 3.51 283 11:25 05.04.2022
2853 Clouds 18 1002 7 10000 2.23 288 09:41 05.04.2022
2854 Clouds 18 1004 7 10000 2.16 277 08:51 05.04.2022
2855 Clear 11 1014 32 10000 1.59 214 04:25 05.04.2022
2856 Clouds 7 1012 39 10000 0.81 213 23:51 04.04.2022
2857 Clouds 8 1011 33 10000 1.04 226 22:41 04.04.2022
2858 Clouds 8 1010 26 10000 0.65 232 21:52 04.04.2022
2859 Clouds 9 1010 20 10000 0.74 302 21:21 04.04.2022
2860 Clouds 9 1010 20 10000 0.74 302 20:48 04.04.2022
2861 Clouds 9 1011 14 10000 1.97 1 19:39 04.04.2022
2862 Clouds 10 1011 12 10000 2.61 14 18:59 04.04.2022
2863 Clouds 11 1010 12 10000 2.94 22 17:54 04.04.2022
2864 Clouds 12 1008 10 10000 3.3 28 16:36 04.04.2022
2865 Clouds 12 1008 10 10000 3.3 28 16:36 04.04.2022
2866 Clouds 14 1005 9 10000 3.01 20 15:34 04.04.2022
2867 Clouds 15 1003 8 10000 1.58 337 14:58 04.04.2022
2868 Clouds 15 1003 8 10000 1.58 337 14:40 04.04.2022
2869 Clouds 17 999 5 10000 5.92 286 13:21 04.04.2022
2870 Clouds 18 999 5 10000 5.95 277 11:48 04.04.2022
2871 Clouds 18 999 5 10000 4.98 269 11:27 04.04.2022
2872 Clear 16 1006 6 10000 4.39 291 07:46 04.04.2022
2873 Clear 11 1010 15 10000 3.06 271 03:52 04.04.2022
2874 Clouds 7 1008 45 10000 2.02 227 00:26 04.04.2022
2875 Clouds 8 1008 51 10000 2.27 207 22:33 03.04.2022
2876 Clouds 8 1007 52 10000 2.32 200 21:38 03.04.2022
2877 Clouds 9 1006 53 10000 2.37 189 20:53 03.04.2022
2878 Clouds 9 1006 52 10000 3.09 185 19:45 03.04.2022
2879 Clouds 10 1005 49 10000 3.3 187 18:31 03.04.2022
2880 Clouds 11 1004 43 10000 3.55 182 17:46 03.04.2022
2881 Clouds 12 1003 38 10000 3.58 188 16:50 03.04.2022
2882 Clouds 12 1003 38 10000 3.58 188 16:31 03.04.2022
2883 Clouds 15 997 21 10000 3.57 203 14:39 03.04.2022
2884 Clouds 16 997 27 10000 5.09 191 13:51 03.04.2022
2885 Clouds 18 994 15 10000 4.37 234 12:41 03.04.2022
2886 Clouds 19 994 12 10000 7.45 284 10:58 03.04.2022
2887 Clouds 19 996 11 10000 5.39 259 09:38 03.04.2022
2888 Clouds 18 999 14 10000 3.94 224 08:33 03.04.2022
2889 Clear 12 1010 39 10000 2.31 191 04:42 03.04.2022
2890 Clear 6 1013 62 10000 2.43 177 01:53 03.04.2022
2891 Clear 8 1011 57 10000 3.34 173 23:21 02.04.2022
2892 Clear 8 1010 54 10000 3.42 173 22:18 02.04.2022
2893 Clear 8 1010 54 10000 3.42 173 21:46 02.04.2022
2894 Clear 9 1010 50 10000 3.5 175 21:18 02.04.2022
2895 Clouds 10 1009 45 10000 3.72 179 19:54 02.04.2022
2896 Clouds 12 1006 29 10000 4.25 184 18:23 02.04.2022
2897 Clouds 12 1006 29 10000 4.25 184 17:53 02.04.2022
2898 Clouds 14 1003 10 10000 3.5 173 16:27 02.04.2022
2899 Clouds 16 1002 7 10000 2.72 197 15:22 02.04.2022
2900 Clouds 16 1002 7 10000 2.72 197 14:51 02.04.2022
2901 Clouds 17 1000 6 10000 2.84 201 13:51 02.04.2022
2902 Clouds 18 1000 5 10000 2.45 190 13:19 02.04.2022
2903 Clouds 18 1001 5 10000 2.44 172 11:33 02.04.2022
2904 Clear 17 1005 7 10000 2.25 172 09:30 02.04.2022
2905 Clear 14 1014 9 10000 1.34 194 06:56 02.04.2022
2906 Clear 9 1019 13 10000 0.71 33 03:55 02.04.2022
2907 Clear 5 1018 19 10000 1.95 3 00:25 02.04.2022
2908 Clear 5 1018 19 10000 1.95 3 23:45 01.04.2022
2909 Clear 6 1017 18 10000 2.34 12 21:55 01.04.2022
2910 Clear 7 1017 17 10000 2.65 11 20:54 01.04.2022
2911 Clear 7 1017 17 10000 2.65 11 20:31 01.04.2022
2912 Clear 8 1017 16 10000 2.96 6 19:38 01.04.2022
2913 Clear 9 1015 16 10000 2.99 15 18:54 01.04.2022
2914 Clear 10 1015 15 10000 3.1 12 18:23 01.04.2022
2915 Clear 10 1015 15 10000 3.1 12 17:35 01.04.2022
2916 Clear 12 1011 12 10000 3.41 14 15:44 01.04.2022
2917 Clear 13 1008 10 10000 3.67 3 14:39 01.04.2022
2918 Clouds 15 1004 7 10000 6.16 343 13:36 01.04.2022
2919 Clouds 17 1001 5 10000 7.73 330 12:33 01.04.2022
2920 Clouds 19 1000 5 10000 7.46 325 11:45 01.04.2022
2921 Clouds 19 1000 5 10000 7.67 320 10:34 01.04.2022
2922 Clouds 19 1000 6 10000 5.86 319 09:30 01.04.2022
2923 Clouds 15 1007 17 10000 0.85 226 06:55 01.04.2022
2924 Clouds 12 1012 36 10000 0.66 214 04:56 01.04.2022
2925 Clouds 12 1012 36 10000 0.66 214 04:37 01.04.2022
2926 Clear 6 1013 53 10000 0.34 138 02:19 01.04.2022
2927 Clear 6 1011 51 10000 1.26 159 00:46 01.04.2022
2928 Clear 7 1009 38 10000 1.01 145 22:20 31.03.2022
2929 Clear 7 1009 38 10000 1.01 145 21:37 31.03.2022
2930 Clear 8 1008 31 10000 0.69 98 20:43 31.03.2022
2931 Clear 9 1008 24 10000 0.7 44 20:25 31.03.2022
2932 Clear 9 1009 16 10000 2.01 13 19:18 31.03.2022
2933 Clear 9 1009 16 10000 2.01 13 18:31 31.03.2022
2934 Clear 12 1005 10 10000 3.17 360 16:46 31.03.2022
2935 Clear 13 1004 9 10000 2.79 348 15:54 31.03.2022
2936 Clear 14 1001 8 10000 3.71 333 15:23 31.03.2022
2937 Clear 14 1001 8 10000 3.71 333 14:44 31.03.2022
2938 Clouds 20 994 5 10000 8.33 297 13:28 31.03.2022
2939 Clouds 21 993 4 10000 8.1 283 11:30 31.03.2022
2940 Clouds 21 995 5 10000 6.55 258 10:19 31.03.2022
2941 Clouds 20 997 5 10000 5.94 272 09:19 31.03.2022
2942 Clouds 18 1001 12 10000 3.17 209 07:31 31.03.2022
2943 Clear 6 1011 58 10000 2.36 175 01:37 31.03.2022
2944 Clear 8 1008 49 10000 3.25 178 23:23 30.03.2022
2945 Clear 9 1007 45 10000 3.75 180 21:54 30.03.2022
2946 Clear 10 1006 40 10000 3.63 179 21:27 30.03.2022
2947 Clear 10 1006 40 10000 3.63 179 20:32 30.03.2022
2948 Clouds 11 1005 35 10000 3.87 183 19:47 30.03.2022
2949 Clouds 12 1003 25 10000 2.62 184 18:41 30.03.2022
2950 Clouds 14 1002 18 10000 2.22 205 17:51 30.03.2022
2951 Clouds 15 1000 13 10000 0.8 224 16:59 30.03.2022
2952 Clouds 15 1000 13 10000 0.8 224 16:39 30.03.2022
2953 Clouds 16 998 11 10000 1.51 344 15:47 30.03.2022
2954 Clouds 17 996 8 10000 2.41 308 14:35 30.03.2022
2955 Clouds 22 991 5 10000 6.71 245 13:21 30.03.2022
2956 Clouds 23 991 4 10000 6.54 242 12:19 30.03.2022
2957 Clouds 23 991 4 10000 5.92 255 10:48 30.03.2022
2958 Clouds 23 993 5 10000 4.9 232 09:43 30.03.2022
2959 Clear 20 998 8 10000 3.68 189 08:20 30.03.2022
2960 Clear 18 1001 13 10000 2.2 185 06:32 30.03.2022
2961 Clear 16 1004 20 10000 1.42 191 05:38 30.03.2022
2962 Clear 6 1009 39 10000 1.43 189 01:48 30.03.2022
2963 Clear 9 1005 23 10000 1.75 187 22:39 29.03.2022
2964 Clear 10 1003 15 10000 1.78 205 21:48 29.03.2022
2965 Clear 11 1002 12 10000 1.7 234 21:20 29.03.2022
2966 Clear 11 1001 12 10000 1.04 273 20:25 29.03.2022
2967 Clear 11 1001 12 10000 1.04 273 19:31 29.03.2022
2968 Clear 12 1001 12 10000 0.65 302 18:53 29.03.2022
2969 Clear 13 1001 11 10000 0.99 23 17:48 29.03.2022
2970 Clear 14 1001 11 10000 1.45 36 17:18 29.03.2022
2971 Clear 14 1001 11 10000 1.45 36 16:52 29.03.2022
2972 Clear 16 998 8 10000 2.23 17 15:20 29.03.2022
2973 Clear 16 998 8 10000 2.23 17 14:43 29.03.2022
2974 Clear 18 995 8 10000 2.11 332 13:33 29.03.2022
2975 Clear 22 993 4 10000 6.03 309 12:21 29.03.2022
2976 Clear 22 993 4 10000 6.58 307 10:59 29.03.2022
2977 Clear 22 994 4 10000 6.09 304 09:51 29.03.2022
2978 Clear 22 996 5 10000 4.81 300 08:43 29.03.2022
2979 Clear 16 1004 13 10000 1.22 244 06:21 29.03.2022
2980 Clear 6 1007 29 10000 1.12 214 02:19 29.03.2022
2981 Clear 8 1003 21 10000 0.23 235 23:26 28.03.2022
2982 Clear 8 1003 21 10000 0.23 235 23:26 28.03.2022
2983 Clear 8 1003 21 10000 0.23 235 22:56 28.03.2022
2984 Clear 8 1003 21 10000 0.23 235 22:31 28.03.2022
2985 Clear 9 1003 18 10000 0.67 208 21:38 28.03.2022
2986 Clear 10 1002 14 10000 1.43 253 20:32 28.03.2022
2987 Clear 10 1002 14 10000 1.43 253 20:32 28.03.2022
2988 Clear 11 1001 13 10000 1.17 276 19:48 28.03.2022
2989 Clear 11 1001 13 10000 1.17 276 19:30 28.03.2022
2990 Clear 11 1001 12 10000 1.13 306 18:44 28.03.2022
2991 Clear 12 1001 11 10000 0.46 15 17:41 28.03.2022
2992 Clear 13 1000 12 10000 1.47 37 16:47 28.03.2022
2993 Clear 15 998 10 10000 2.97 39 14:56 28.03.2022
2994 Clear 18 994 7 10000 4.49 346 14:23 28.03.2022
2995 Clear 21 991 5 10000 6.2 323 13:18 28.03.2022
2996 Clear 22 991 4 10000 6.38 317 11:43 28.03.2022
2997 Clear 21 993 6 10000 3.17 308 09:55 28.03.2022
2998 Clear 19 996 9 10000 1.18 206 09:21 28.03.2022
2999 Clear 17 999 14 10000 1.91 181 08:23 28.03.2022
3000 Clear 17 999 14 10000 1.91 181 07:59 28.03.2022
3001 Clear 15 1003 21 10000 2.07 171 06:30 28.03.2022
3002 Clear 4 1010 45 10000 2.22 165 00:19 28.03.2022
3003 Clear 5 1009 37 10000 2.5 168 22:35 27.03.2022
3004 Clear 6 1009 29 10000 2.48 170 21:43 27.03.2022
3005 Clear 6 1008 20 10000 2.41 171 21:18 27.03.2022
3006 Clear 7 1008 16 10000 1.96 169 20:21 27.03.2022
3007 Clear 7 1008 16 10000 1.96 169 19:36 27.03.2022
3008 Clear 7 1008 15 10000 1.4 150 18:42 27.03.2022
3009 Clear 8 1007 15 10000 1.64 121 18:23 27.03.2022
3010 Clear 8 1007 15 10000 1.64 121 17:35 27.03.2022
3011 Clear 10 1007 13 10000 1.33 75 15:47 27.03.2022
3012 Clear 12 1003 11 10000 1.89 120 13:57 27.03.2022
3013 Clear 13 1003 9 10000 2.65 149 13:20 27.03.2022
3014 Clear 13 1005 9 10000 1.71 137 11:33 27.03.2022
3015 Clear 12 1008 9 10000 1.34 128 09:37 27.03.2022
3016 Clear 9 1016 10 10000 0.51 82 06:58 27.03.2022
3017 Clear 5 1021 11 10000 1.12 22 03:45 27.03.2022
3018 Clear 0 1020 18 10000 1.93 7 00:26 27.03.2022
3019 Clear 1 1020 18 10000 2.06 1 22:49 26.03.2022
3020 Clouds 1 1019 17 10000 2.21 358 21:54 26.03.2022
3021 Clouds 2 1019 16 10000 2.31 355 21:29 26.03.2022
3022 Clouds 3 1019 16 10000 1.9 348 19:32 26.03.2022
3023 Clouds 4 1018 16 10000 1.91 351 18:40 26.03.2022
3024 Clouds 4 1018 16 10000 2.08 357 17:34 26.03.2022
3025 Clouds 5 1018 17 10000 2.34 4 16:33 26.03.2022
3026 Clouds 6 1017 16 10000 2.79 11 15:37 26.03.2022
3027 Clouds 8 1014 14 10000 4.26 19 13:56 26.03.2022
3028 Clouds 9 1011 14 10000 5.63 14 13:20 26.03.2022
3029 Clouds 10 1009 15 10000 5.85 8 11:48 26.03.2022
3030 Clouds 11 1008 17 10000 5.36 4 10:44 26.03.2022
3031 Clouds 10 1009 20 10000 4.39 8 08:48 26.03.2022
3032 Clouds 10 1010 25 10000 4.97 3 06:38 26.03.2022
3033 Clouds 9 1010 29 10000 3.68 349 05:29 26.03.2022
3034 Clouds 4 1009 55 10000 1.29 152 00:54 26.03.2022
3035 Clear 5 1005 51 10000 2.74 173 21:58 25.03.2022
3036 Clear 6 1004 50 10000 2.99 173 20:57 25.03.2022
3037 Clear 6 1003 47 10000 3.27 174 20:24 25.03.2022
3038 Clear 7 1003 45 10000 3.9 179 18:59 25.03.2022
3039 Clear 8 1002 41 10000 4.09 182 18:22 25.03.2022
3040 Clear 9 1000 37 10000 4.28 184 17:28 25.03.2022
3041 Clear 11 998 33 10000 4.54 182 16:27 25.03.2022
3042 Clear 12 995 29 10000 4.63 180 15:26 25.03.2022
3043 Clouds 16 989 19 10000 3.54 203 13:28 25.03.2022
3044 Clouds 17 989 13 10000 3.2 191 10:49 25.03.2022
3045 Clouds 16 993 18 10000 3.25 184 09:28 25.03.2022
3046 Clouds 16 993 18 10000 3.25 184 08:43 25.03.2022
3047 Clouds 15 996 20 10000 3.29 187 07:32 25.03.2022
3048 Clear 12 1001 28 10000 2.3 184 06:29 25.03.2022
3049 Clear 5 1006 49 10000 2.38 176 02:28 25.03.2022
3050 Clouds 5 1004 52 10000 2.45 172 22:56 24.03.2022
3051 Clouds 5 1004 50 10000 2.41 169 21:56 24.03.2022
3052 Clouds 6 1003 49 10000 2.39 166 20:45 24.03.2022
3053 Clouds 7 1003 49 10000 2.35 160 19:49 24.03.2022
3054 Clouds 7 1003 49 10000 2.35 160 19:49 24.03.2022
3055 Clouds 8 1002 45 10000 1.4 136 18:22 24.03.2022
3056 Clouds 8 1002 45 10000 1.4 136 17:32 24.03.2022
3057 Clouds 10 1000 37 10000 1.75 161 15:56 24.03.2022
3058 Clouds 11 998 30 10000 2.31 178 14:51 24.03.2022
3059 Clouds 12 995 26 10000 3.92 185 14:21 24.03.2022
3060 Clouds 12 995 25 10000 2.75 191 13:31 24.03.2022
3061 Clouds 15 991 21 10000 4.82 203 12:23 24.03.2022
3062 Clouds 15 992 26 10000 3.71 194 10:32 24.03.2022
3063 Clouds 14 994 30 10000 3.02 200 09:23 24.03.2022
3064 Clouds 13 996 32 10000 2.53 204 07:42 24.03.2022
3065 Clouds 10 1003 41 10000 3.15 178 04:43 24.03.2022
3066 Clear 5 1006 60 10000 2.69 169 23:38 23.03.2022
3067 Clear 6 1005 56 10000 3.35 171 22:18 23.03.2022
3068 Clear 7 1005 53 10000 3.47 170 21:20 23.03.2022
3069 Clear 7 1005 50 10000 3.51 170 19:50 23.03.2022
3070 Clouds 9 1004 46 10000 3.52 169 19:25 23.03.2022
3071 Clouds 10 1004 43 10000 3.52 173 17:39 23.03.2022
3072 Clouds 11 1002 41 10000 3.7 176 16:55 23.03.2022
3073 Clouds 13 999 35 10000 3.52 169 14:57 23.03.2022
3074 Clouds 13 999 35 10000 3.52 169 14:38 23.03.2022
3075 Clouds 13 997 31 10000 3.16 164 13:30 23.03.2022
3076 Clouds 16 996 22 10000 2.19 203 10:37 23.03.2022
3077 Clouds 15 1002 25 10000 2.96 206 07:56 23.03.2022
3078 Clouds 12 1007 33 10000 2.96 179 05:40 23.03.2022
3079 Clouds 8 1012 51 10000 1.61 167 01:41 23.03.2022
3080 Clouds 7 1010 62 10000 1.06 177 00:24 23.03.2022
3081 Clouds 8 1010 59 10000 1.1 153 21:33 22.03.2022
3082 Clouds 8 1011 57 10000 1.46 141 20:55 22.03.2022
3083 Clouds 9 1011 51 10000 1.88 115 19:56 22.03.2022
3084 Clouds 9 1011 52 10000 1.53 72 19:25 22.03.2022
3085 Clouds 9 1011 52 10000 1.53 72 18:45 22.03.2022
3086 Clouds 11 1009 41 10000 1.28 46 17:42 22.03.2022
3087 Clouds 11 1007 37 10000 1.19 100 16:35 22.03.2022
3088 Clouds 12 1006 36 10000 1.3 110 15:37 22.03.2022
3089 Clouds 12 1005 34 10000 1.52 92 15:18 22.03.2022
3090 Clouds 12 1005 34 10000 1.52 92 14:41 22.03.2022
3091 Clouds 13 1004 31 10000 1.01 49 13:37 22.03.2022
3092 Clouds 14 1002 27 10000 0.45 33 11:52 22.03.2022
3093 Clouds 14 1002 26 10000 0.49 147 10:53 22.03.2022
3094 Clouds 14 1003 25 10000 1.38 210 08:43 22.03.2022
3095 Clouds 13 1007 24 10000 1.7 184 07:21 22.03.2022
3096 Clouds 10 1012 28 10000 0.69 205 03:55 22.03.2022
3097 Clouds 6 1012 43 10000 0.71 344 00:46 22.03.2022
3098 Clouds 7 1009 50 10000 0.66 152 22:46 21.03.2022
3099 Clouds 8 1008 47 10000 1.9 168 21:25 21.03.2022
3100 Clouds 8 1008 47 10000 1.9 168 20:43 21.03.2022
3101 Clouds 8 1008 45 10000 2.2 160 20:21 21.03.2022
3102 Clouds 8 1008 45 10000 2.2 160 19:35 21.03.2022
3103 Clear 8 1008 44 10000 2.54 179 18:47 21.03.2022
3104 Clear 9 1007 39 10000 2.87 183 17:35 21.03.2022
3105 Clear 10 1006 35 10000 3.35 188 16:58 21.03.2022
3106 Clouds 11 1005 31 10000 3.92 189 16:24 21.03.2022
3107 Clouds 11 1005 31 10000 3.92 189 15:37 21.03.2022
3108 Clouds 13 1000 24 10000 3.78 198 14:29 21.03.2022
3109 Clouds 15 998 21 10000 3.24 205 12:58 21.03.2022
3110 Clouds 16 996 18 10000 3.84 198 11:57 21.03.2022
3111 Clouds 16 996 17 10000 3.75 192 10:59 21.03.2022
3112 Clouds 16 997 19 10000 3.55 189 09:42 21.03.2022
3113 Clouds 13 1004 29 10000 3.33 183 07:22 21.03.2022
3114 Clear 12 1006 33 10000 2.96 185 05:42 21.03.2022
3115 Clear 6 1010 56 10000 2.45 170 01:39 21.03.2022
3116 Clear 6 1008 59 10000 2.89 173 22:57 20.03.2022
3117 Clear 6 1007 56 10000 3.05 176 22:23 20.03.2022
3118 Clear 6 1007 56 10000 3.05 176 21:37 20.03.2022
3119 Clear 7 1006 53 10000 3.08 179 20:54 20.03.2022
3120 Clear 8 1006 49 10000 3.32 177 20:29 20.03.2022
3121 Clear 8 1006 49 10000 3.32 177 19:48 20.03.2022
3122 Clear 9 1005 46 10000 3.47 177 19:19 20.03.2022
3123 Clear 10 1004 42 10000 3.74 175 17:44 20.03.2022
3124 Clear 11 1003 38 10000 3.87 176 17:24 20.03.2022
3125 Clear 12 1001 32 10000 3.97 177 15:58 20.03.2022
3126 Clear 13 999 26 10000 4.11 184 14:38 20.03.2022
3127 Clear 15 996 18 10000 3.19 211 13:38 20.03.2022
3128 Clear 19 992 9 10000 5.09 237 12:19 20.03.2022
3129 Clear 19 993 10 10000 3.47 191 09:59 20.03.2022
3130 Clear 17 998 16 10000 3.78 194 08:20 20.03.2022
3131 Clear 14 1004 25 10000 2.68 189 05:49 20.03.2022
3132 Clear 10 1009 42 10000 2.01 181 03:18 20.03.2022
3133 Clear 6 1009 58 10000 2.14 179 00:53 20.03.2022
3134 Clear 6 1008 55 10000 2.21 181 00:28 20.03.2022
3135 Clear 7 1007 49 10000 2.43 182 22:25 19.03.2022
3136 Clear 8 1007 44 10000 2.65 185 21:26 19.03.2022
3137 Clouds 10 1006 35 10000 3.03 187 19:22 19.03.2022
3138 Clouds 10 1006 36 10000 3.01 186 18:38 19.03.2022
3139 Clouds 11 1005 30 10000 3.22 184 17:48 19.03.2022
3140 Clouds 12 1005 26 10000 3.39 191 16:46 19.03.2022
3141 Clouds 14 1001 17 10000 3.04 207 15:26 19.03.2022
3142 Clouds 15 999 14 10000 3.13 203 13:49 19.03.2022
3143 Clouds 17 997 14 10000 2.95 202 12:43 19.03.2022
3144 Clouds 19 996 10 10000 3.09 199 12:20 19.03.2022
3145 Clouds 19 996 10 10000 3.09 199 11:45 19.03.2022
3146 Clouds 18 1001 15 10000 2.27 191 09:22 19.03.2022
3147 Clouds 13 1011 31 10000 2.09 197 04:53 19.03.2022
3148 Clouds 9 1014 37 10000 1.71 188 02:33 19.03.2022
3149 Clouds 6 1014 40 10000 2.12 185 23:52 18.03.2022
3150 Clouds 6 1013 35 10000 2.1 182 22:58 18.03.2022
3151 Clouds 7 1013 31 10000 2.24 185 22:21 18.03.2022
3152 Clouds 8 1013 24 10000 2.31 187 20:26 18.03.2022
3153 Clouds 9 1012 20 10000 2.39 181 19:25 18.03.2022
3154 Clouds 9 1012 19 10000 2.38 181 18:58 18.03.2022
3155 Clear 10 1011 17 10000 1.81 160 16:56 18.03.2022
3156 Clear 11 1010 17 10000 1.34 141 16:24 18.03.2022
3157 Clear 12 1008 16 10000 1.22 122 14:29 18.03.2022
3158 Clear 12 1008 16 10000 1.22 122 13:40 18.03.2022
3159 Clouds 15 1007 9 10000 1.64 142 11:43 18.03.2022
3160 Clear 16 1008 9 10000 1.31 162 10:27 18.03.2022
3161 Clouds 15 1010 9 10000 1.06 179 08:50 18.03.2022
3162 Clouds 14 1014 10 10000 1.08 196 07:26 18.03.2022
3163 Clouds 11 1019 13 10000 0.84 189 05:20 18.03.2022
3164 Clouds 6 1022 19 10000 0.87 347 01:51 18.03.2022
3165 Clear 3 1020 24 10000 1.03 12 00:20 18.03.2022
3166 Clear 4 1020 24 10000 1.23 5 22:54 17.03.2022
3167 Clear 4 1019 23 10000 1.24 12 22:20 17.03.2022
3168 Clear 4 1019 23 10000 1.24 12 21:46 17.03.2022
3169 Clear 5 1019 22 10000 1.49 7 20:58 17.03.2022
3170 Clear 6 1019 20 10000 1.49 14 20:29 17.03.2022
3171 Clear 6 1019 20 10000 1.49 14 19:39 17.03.2022
3172 Clear 6 1020 18 10000 1.28 30 18:55 17.03.2022
3173 Clear 7 1019 18 10000 1.14 44 17:47 17.03.2022
3174 Clear 8 1019 18 10000 1.12 14 16:29 17.03.2022
3175 Clear 8 1019 18 10000 1.12 14 15:43 17.03.2022
3176 Clear 9 1018 17 10000 1.93 2 15:21 17.03.2022
3177 Clouds 10 1016 15 10000 2.54 354 13:48 17.03.2022
3178 Clouds 11 1015 12 10000 3.25 4 12:47 17.03.2022
3179 Clouds 12 1013 10 10000 4.4 10 11:40 17.03.2022
3180 Clouds 13 1012 9 10000 4.5 11 10:58 17.03.2022
3181 Clouds 14 1012 9 10000 4.29 15 09:41 17.03.2022
3182 Clouds 13 1014 10 10000 2.57 43 08:21 17.03.2022
3183 Clouds 11 1017 13 10000 1.26 38 06:18 17.03.2022
3184 Clouds 10 1018 16 10000 1.19 32 05:25 17.03.2022
3185 Clouds 3 1019 34 10000 1.72 12 00:33 17.03.2022
3186 Clouds 4 1016 34 10000 1.25 4 22:58 16.03.2022
3187 Clouds 4 1016 34 10000 1.25 4 22:37 16.03.2022
3188 Clouds 5 1015 34 10000 1.48 7 21:58 16.03.2022
3189 Clouds 5 1015 33 10000 1.42 5 21:18 16.03.2022
3190 Clouds 6 1014 31 10000 1.29 356 19:25 16.03.2022
3191 Clouds 6 1014 35 10000 0.79 329 18:43 16.03.2022
3192 Clouds 7 1014 33 10000 0.82 324 18:20 16.03.2022
3193 Clouds 7 1014 33 10000 0.82 324 17:37 16.03.2022
3194 Clouds 8 1014 31 10000 1.06 313 16:49 16.03.2022
3195 Clouds 8 1013 29 10000 1.09 316 15:35 16.03.2022
3196 Clouds 10 1010 24 10000 1.76 314 13:41 16.03.2022
3197 Clouds 10 1008 24 10000 1.19 334 12:57 16.03.2022
3198 Clouds 11 1007 21 10000 0.85 294 11:44 16.03.2022
3199 Clouds 11 1007 21 10000 1.68 327 11:18 16.03.2022
3200 Clouds 12 1007 23 10000 2.59 338 09:58 16.03.2022
3201 Clouds 11 1008 24 10000 1.84 350 08:37 16.03.2022
3202 Clouds 9 1013 29 10000 1.09 195 03:30 16.03.2022
3203 Clouds 5 1012 45 10000 0.75 160 23:37 15.03.2022
3204 Clouds 5 1011 43 10000 1.15 175 22:37 15.03.2022
3205 Clouds 6 1011 41 10000 2.06 173 21:33 15.03.2022
3206 Clouds 6 1011 36 10000 2.08 178 19:47 15.03.2022
3207 Clouds 7 1011 38 10000 2.51 171 18:38 15.03.2022
3208 Clouds 9 1010 29 10000 2.12 208 16:47 15.03.2022
3209 Clouds 9 1009 24 10000 2.04 200 16:18 15.03.2022
3210 Clouds 10 1009 21 10000 1.68 193 14:55 15.03.2022
3211 Clouds 10 1009 21 10000 1.68 193 14:30 15.03.2022
3212 Clouds 11 1006 14 10000 0.68 221 13:24 15.03.2022
3213 Clouds 11 1006 13 10000 1.25 273 11:56 15.03.2022
3214 Clouds 12 1006 11 10000 1.47 301 11:19 15.03.2022
3215 Clouds 12 1006 11 10000 0.97 312 09:31 15.03.2022
3216 Clouds 12 1007 11 10000 0.62 48 08:32 15.03.2022
3217 Clouds 12 1009 12 10000 0.36 115 07:44 15.03.2022
3218 Clear 11 1012 13 10000 0.71 209 06:32 15.03.2022
3219 Clear 6 1019 20 10000 1 55 02:36 15.03.2022
3220 Clear 2 1019 27 10000 1.44 30 23:36 14.03.2022
3221 Clear 3 1018 26 10000 1.66 34 23:18 14.03.2022
3222 Clear 3 1018 26 10000 1.58 37 21:57 14.03.2022
3223 Clear 4 1018 26 10000 1.58 37 21:20 14.03.2022
3224 Clear 4 1018 26 10000 1.58 37 20:34 14.03.2022
3225 Clear 4 1018 26 10000 1.75 40 19:47 14.03.2022
3226 Clouds 6 1018 24 10000 2.11 46 18:23 14.03.2022
3227 Clouds 6 1018 24 10000 2.11 46 17:43 14.03.2022
3228 Clouds 6 1018 23 10000 2.04 52 16:54 14.03.2022
3229 Clouds 8 1016 21 10000 2.14 47 15:20 14.03.2022
3230 Clouds 9 1014 17 10000 2.22 44 14:24 14.03.2022
3231 Clouds 11 1012 9 10000 1.82 9 11:36 14.03.2022
3232 Clouds 12 1013 8 10000 1.93 53 10:23 14.03.2022
3233 Clouds 12 1013 8 10000 1.93 53 09:38 14.03.2022
3234 Clouds 12 1014 8 10000 1.86 60 09:18 14.03.2022
3235 Clouds 12 1014 8 10000 1.86 60 08:46 14.03.2022
3236 Clear 11 1018 10 10000 1.25 37 07:21 14.03.2022
3237 Clear 7 1023 18 10000 1.02 32 04:22 14.03.2022
3238 Clear 3 1025 25 10000 1.58 30 01:46 14.03.2022
3239 Clear 0 1024 28 10000 1.72 29 00:38 14.03.2022
3240 Clear 2 1022 24 10000 1.95 33 21:56 13.03.2022
3241 Clear 2 1022 22 10000 1.95 35 21:27 13.03.2022
3242 Clear 2 1022 22 10000 1.95 35 20:49 13.03.2022
3243 Clear 3 1022 20 10000 2.26 42 20:26 13.03.2022
3244 Clear 3 1022 20 10000 2.26 42 19:42 13.03.2022
3245 Clear 4 1021 18 10000 1.99 57 19:23 13.03.2022
3246 Clear 4 1021 18 10000 1.99 57 19:23 13.03.2022
3247 Clear 4 1021 18 10000 1.99 57 19:23 13.03.2022
3248 Clear 4 1021 18 10000 1.99 57 19:23 13.03.2022
3249 Clear 4 1021 18 10000 1.99 57 18:45 13.03.2022
3250 Clouds 4 1022 19 10000 2.26 46 18:26 13.03.2022
3251 Clouds 4 1022 19 10000 2.26 46 17:39 13.03.2022
3252 Clouds 5 1021 19 10000 2.18 55 16:48 13.03.2022
3253 Clouds 5 1020 19 10000 2.1 64 16:27 13.03.2022
3254 Clouds 5 1020 19 10000 2.1 64 15:43 13.03.2022
3255 Clouds 6 1019 18 10000 2.25 66 14:49 13.03.2022
3256 Clouds 8 1016 18 10000 3.01 71 13:29 13.03.2022
3257 Clouds 9 1014 17 10000 3.66 60 12:26 13.03.2022
3258 Clouds 9 1014 17 10000 3.66 60 11:45 13.03.2022
3259 Clouds 10 1013 16 10000 2.85 40 10:51 13.03.2022
3260 Clouds 10 1013 16 10000 2.85 40 10:30 13.03.2022
3261 Clouds 10 1013 15 10000 1.94 39 09:43 13.03.2022
3262 Clouds 10 1014 15 10000 1.37 60 08:51 13.03.2022
3263 Clouds 10 1014 15 10000 1.37 60 08:31 13.03.2022
3264 Clouds 10 1015 16 10000 1.66 63 07:34 13.03.2022
3265 Clouds 8 1018 21 10000 1.05 53 05:39 13.03.2022
3266 Clouds 3 1021 57 10000 1.34 31 01:48 13.03.2022
3267 Clouds 3 1018 55 10000 1.24 47 23:28 12.03.2022
3268 Clouds 3 1017 53 10000 1.63 54 21:43 12.03.2022
3269 Clouds 4 1017 48 10000 1.71 31 20:27 12.03.2022
3270 Clouds 4 1017 48 10000 1.71 31 19:46 12.03.2022
3271 Clouds 5 1017 44 10000 2.75 354 18:44 12.03.2022
3272 Clouds 6 1016 44 10000 2.52 0 18:19 12.03.2022
3273 Clouds 6 1015 41 10000 2.23 8 16:32 12.03.2022
3274 Clouds 7 1014 36 10000 2.03 6 15:55 12.03.2022
3275 Clouds 8 1011 28 10000 2.22 6 15:22 12.03.2022
3276 Clouds 9 1009 21 10000 2.2 357 13:54 12.03.2022
3277 Clouds 9 1007 19 10000 1.99 356 12:33 12.03.2022
3278 Clouds 10 1006 14 10000 1.29 358 11:55 12.03.2022
3279 Clouds 10 1006 14 10000 1.29 358 11:34 12.03.2022
3280 Clouds 11 1007 13 10000 0.38 316 10:32 12.03.2022
3281 Clouds 11 1008 14 10000 0.78 215 09:44 12.03.2022
3282 Clouds 10 1010 17 10000 2.45 209 08:24 12.03.2022
3283 Clouds 9 1012 21 10000 2.37 192 06:44 12.03.2022
3284 Clear 1 1017 56 10000 1.58 186 00:55 12.03.2022
3285 Clear 2 1016 54 10000 1.7 178 23:43 11.03.2022
3286 Clear 2 1015 52 10000 1.81 182 22:36 11.03.2022
3287 Clear 3 1014 47 10000 2.33 177 21:24 11.03.2022
3288 Clear 3 1014 47 10000 2.33 177 20:48 11.03.2022
3289 Clear 4 1014 44 10000 2.58 180 20:26 11.03.2022
3290 Clear 4 1014 44 10000 2.58 180 19:35 11.03.2022
3291 Clouds 4 1014 38 10000 2.75 180 18:33 11.03.2022
3292 Clouds 6 1012 30 10000 2.97 189 17:26 11.03.2022
3293 Clouds 7 1011 26 10000 2.86 195 16:25 11.03.2022
3294 Clouds 7 1011 26 10000 2.86 195 15:50 11.03.2022
3295 Clouds 9 1007 18 10000 3.66 216 13:45 11.03.2022
3296 Clouds 10 1005 14 10000 4.07 230 12:41 11.03.2022
3297 Clouds 11 1004 11 10000 3.9 234 12:19 11.03.2022
3298 Clouds 12 1004 12 10000 3.06 224 10:53 11.03.2022
3299 Clouds 11 1005 13 10000 2.49 196 09:36 11.03.2022
3300 Clear 10 1009 16 10000 3.17 195 08:28 11.03.2022
3301 Clear 10 1009 16 10000 3.17 195 07:48 11.03.2022
3302 Clear 9 1011 19 10000 2.96 184 06:44 11.03.2022
3303 Clear 7 1015 28 10000 2.17 186 04:40 11.03.2022
3304 Clear 2 1018 52 10000 1.73 180 01:48 11.03.2022
3305 Clear 2 1016 56 10000 2.6 181 22:33 10.03.2022
3306 Clear 2 1015 54 10000 2.69 181 21:58 10.03.2022
3307 Clear 3 1015 51 10000 2.91 184 21:25 10.03.2022
3308 Clear 3 1015 51 10000 2.91 184 20:37 10.03.2022
3309 Clouds 4 1014 45 10000 3.22 184 19:22 10.03.2022
3310 Clouds 5 1014 41 10000 3.39 181 17:55 10.03.2022
3311 Clouds 6 1013 36 10000 3.57 181 16:53 10.03.2022
3312 Clouds 7 1012 32 10000 3.66 187 15:34 10.03.2022
3313 Clouds 9 1007 21 10000 4.98 199 13:51 10.03.2022
3314 Clouds 10 1005 17 10000 5.75 202 12:43 10.03.2022
3315 Clouds 12 1004 13 10000 3.23 164 11:29 10.03.2022
3316 Clouds 12 1005 14 10000 3.49 174 09:54 10.03.2022
3317 Clouds 12 1007 17 10000 3.2 178 08:39 10.03.2022
3318 Clear 9 1014 30 10000 1.46 183 05:33 10.03.2022
3319 Clear 4 1018 46 10000 1.07 165 02:39 10.03.2022
3320 Clear 1 1017 60 10000 1.39 158 00:22 10.03.2022
3321 Clear 2 1016 59 10000 1.46 151 22:32 09.03.2022
3322 Clear 2 1016 58 10000 1.55 151 21:47 09.03.2022
3323 Clear 3 1016 56 10000 1.78 152 20:50 09.03.2022
3324 Clouds 4 1015 49 10000 2.22 155 19:23 09.03.2022
3325 Clouds 6 1014 42 10000 1.46 151 17:28 09.03.2022
3326 Clouds 6 1014 42 10000 1.46 151 16:48 09.03.2022
3327 Clouds 6 1013 39 10000 1.79 170 15:41 09.03.2022
3328 Clouds 8 1010 30 10000 2.48 172 14:24 09.03.2022
3329 Clouds 8 1010 30 10000 2.48 172 13:38 09.03.2022
3330 Clouds 10 1007 21 10000 2.61 185 12:20 09.03.2022
3331 Clouds 10 1007 21 10000 2.61 185 11:46 09.03.2022
3332 Clouds 10 1007 19 10000 3.07 193 10:55 09.03.2022
3333 Clouds 10 1008 18 10000 2.39 199 09:28 09.03.2022
3334 Clouds 10 1008 18 10000 2.39 199 08:44 09.03.2022
3335 Clouds 8 1014 25 10000 1.49 188 05:56 09.03.2022
3336 Clouds 1 1017 44 10000 1.19 110 00:58 09.03.2022
3337 Clouds 1 1016 42 10000 1.13 101 23:48 08.03.2022
3338 Clouds 2 1015 40 10000 1.25 105 22:46 08.03.2022
3339 Clouds 2 1015 39 10000 1.17 124 21:47 08.03.2022
3340 Clouds 3 1015 38 10000 1.29 157 21:19 08.03.2022
3341 Clouds 3 1015 37 10000 1.85 165 20:19 08.03.2022
3342 Clouds 4 1015 33 10000 2.54 177 18:57 08.03.2022
3343 Clouds 4 1015 32 10000 2.79 177 18:21 08.03.2022
3344 Clouds 5 1014 27 10000 2.41 179 16:40 08.03.2022
3345 Clouds 7 1012 22 10000 1.76 221 14:36 08.03.2022
3346 Clouds 9 1008 16 10000 2.35 231 13:23 08.03.2022
3347 Clouds 10 1007 13 10000 3.9 215 12:20 08.03.2022
3348 Clouds 10 1007 13 10000 3.9 215 11:42 08.03.2022
3349 Clouds 11 1007 13 10000 3.99 191 10:28 08.03.2022
3350 Clouds 10 1009 16 10000 3.83 191 08:55 08.03.2022
3351 Clear 7 1016 24 10000 2.06 183 05:51 08.03.2022
3352 Clear 2 1020 39 10000 1.47 161 01:53 08.03.2022
3353 Clear 1 1018 42 10000 1.98 167 22:41 07.03.2022
3354 Clear 2 1018 41 10000 2.14 172 21:36 07.03.2022
3355 Clear 2 1018 39 10000 2.48 170 20:56 07.03.2022
3356 Clear 3 1019 38 10000 2.63 171 20:29 07.03.2022
3357 Clear 3 1019 38 10000 2.63 171 19:48 07.03.2022
3358 Clouds 3 1018 36 10000 2.86 172 18:50 07.03.2022
3359 Clouds 4 1018 33 10000 3.12 173 18:29 07.03.2022
3360 Clouds 5 1017 30 10000 3.38 176 17:24 07.03.2022
3361 Clouds 5 1017 30 10000 3.38 176 16:41 07.03.2022
3362 Clouds 7 1014 23 10000 3.32 174 14:49 07.03.2022
3363 Clouds 8 1010 19 10000 2.33 167 12:34 07.03.2022
3364 Clear 11 1010 13 10000 2.43 174 11:26 07.03.2022
3365 Clear 11 1010 13 10000 2.43 174 10:30 07.03.2022
3366 Clear 10 1015 15 10000 1.64 191 08:19 07.03.2022
3367 Clear -1 1024 27 10000 1.07 84 01:23 07.03.2022
3368 Clear -1 1023 29 10000 1.13 81 00:20 07.03.2022
3369 Clear 0 1023 29 10000 1.21 89 23:22 06.03.2022
3370 Clear 0 1023 28 10000 1.19 81 22:26 06.03.2022
3371 Clear 1 1023 27 10000 1.26 72 21:24 06.03.2022
3372 Clear 1 1023 26 10000 1.3 78 20:29 06.03.2022
3373 Clear 1 1023 26 10000 1.3 78 19:39 06.03.2022
3374 Clear 2 1022 24 10000 1.41 78 18:49 06.03.2022
3375 Clear 2 1023 23 10000 1.39 81 17:46 06.03.2022
3376 Clear 3 1022 21 10000 1.6 78 17:19 06.03.2022
3377 Clear 3 1021 20 10000 1.58 81 16:28 06.03.2022
3378 Clear 4 1020 19 10000 1.65 69 15:25 06.03.2022
3379 Clear 4 1020 19 10000 1.65 69 14:42 06.03.2022
3380 Clear 4 1019 18 10000 1.64 59 13:48 06.03.2022
3381 Clear 5 1018 15 10000 1.43 72 12:40 06.03.2022
3382 Clear 7 1017 11 10000 1.28 112 11:45 06.03.2022
3383 Clear 8 1017 10 10000 1.23 107 10:39 06.03.2022
3384 Clear 7 1018 10 10000 1.05 96 09:18 06.03.2022
3385 Clear 7 1020 10 10000 1.1 92 08:27 06.03.2022
3386 Clear 6 1023 10 10000 1.11 81 07:23 06.03.2022
3387 Clear -2 1027 22 10000 1.85 25 01:54 06.03.2022
3388 Clear -3 1026 24 10000 2.36 20 00:34 06.03.2022
3389 Clear -2 1025 23 10000 2.07 13 23:59 05.03.2022
3390 Clear -2 1024 21 10000 2.47 4 23:19 05.03.2022
3391 Clear -2 1024 21 10000 2.47 4 22:32 05.03.2022
3392 Clear -1 1023 20 10000 2.21 328 21:29 05.03.2022
3393 Clear 0 1022 19 10000 2.1 321 20:27 05.03.2022
3394 Clear 0 1021 18 10000 2.06 317 19:19 05.03.2022
3395 Clear 0 1021 18 10000 1.9 320 18:37 05.03.2022
3396 Clear 0 1021 18 10000 1.27 319 17:34 05.03.2022
3397 Clear 1 1020 20 10000 0.95 39 16:18 05.03.2022
3398 Clear 1 1020 21 10000 1.97 23 15:20 05.03.2022
3399 Clear 1 1020 21 10000 1.97 23 14:36 05.03.2022
3400 Clear 2 1018 19 10000 3.64 7 13:39 05.03.2022
3401 Clouds 4 1014 14 10000 6.22 343 12:40 05.03.2022
3402 Clouds 6 1011 18 10000 5.26 322 11:20 05.03.2022
3403 Clouds 6 1011 18 10000 5.26 322 10:52 05.03.2022
3404 Clouds 7 1009 17 10000 5.64 327 09:31 05.03.2022
3405 Clouds 7 1010 14 10000 4.48 317 08:24 05.03.2022
3406 Clouds 7 1011 15 10000 3.37 316 07:21 05.03.2022
3407 Clouds 4 1013 29 10000 0.85 353 05:25 05.03.2022
3408 Snow 0 1012 67 8076 0.7 129 00:32 05.03.2022
3409 Clouds 2 1009 51 10000 1.61 149 22:45 04.03.2022
3410 Clouds 2 1009 50 10000 1.72 158 22:25 04.03.2022
3411 Clouds 2 1009 50 10000 1.72 158 21:43 04.03.2022
3412 Clouds 2 1009 50 10000 2.09 171 20:42 04.03.2022
3413 Clouds 2 1008 47 10000 2.43 173 19:37 04.03.2022
3414 Clouds 3 1007 45 10000 2.74 180 18:56 04.03.2022
3415 Clouds 3 1007 45 10000 2.74 180 18:33 04.03.2022
3416 Clouds 4 1006 36 10000 2.51 182 17:29 04.03.2022
3417 Clouds 5 1005 32 10000 2.29 194 15:54 04.03.2022
3418 Clouds 6 1004 29 10000 1.48 196 15:24 04.03.2022
3419 Clouds 7 1002 26 10000 1.28 205 13:36 04.03.2022
3420 Clouds 8 1000 24 10000 1.02 192 12:38 04.03.2022
3421 Clouds 9 999 18 10000 1.58 226 11:37 04.03.2022
3422 Clouds 10 1001 20 10000 3.01 202 10:25 04.03.2022
3423 Clouds 9 1002 23 10000 3.48 192 09:27 04.03.2022
3424 Clouds 9 1004 26 10000 3.41 190 07:48 04.03.2022
3425 Clouds 6 1010 38 10000 1.93 194 06:21 04.03.2022
3426 Clouds 0 1013 59 10000 1.14 136 01:46 04.03.2022
3427 Clear 0 1012 62 10000 1.83 149 23:35 03.03.2022
3428 Clear 1 1011 58 10000 2.21 156 22:18 03.03.2022
3429 Clear 1 1011 58 10000 2.21 156 21:36 03.03.2022
3430 Clear 1 1011 56 10000 2.31 153 20:48 03.03.2022
3431 Clear 2 1011 50 10000 2.58 161 19:29 03.03.2022
3432 Clear 3 1010 46 10000 3.11 173 18:26 03.03.2022
3433 Clear 3 1010 46 10000 3.11 173 17:31 03.03.2022
3434 Clear 4 1010 41 10000 3.13 174 16:41 03.03.2022
3435 Clear 5 1008 35 10000 3.45 183 15:44 03.03.2022
3436 Clear 6 1006 30 10000 3.03 180 14:44 03.03.2022
3437 Clear 6 1004 27 10000 2.46 178 14:26 03.03.2022
3438 Clouds 7 1004 26 10000 1.77 170 12:35 03.03.2022
3439 Clouds 8 1003 20 10000 2.26 177 11:31 03.03.2022
3440 Clouds 8 1003 20 10000 2.05 175 10:38 03.03.2022
3441 Clouds 8 1005 22 10000 2.05 187 08:43 03.03.2022
3442 Clear 6 1010 25 10000 1.61 178 06:58 03.03.2022
3443 Clear 5 1012 28 10000 1.39 159 05:44 03.03.2022
3444 Clear -1 1016 48 10000 0.94 107 00:40 03.03.2022
3445 Clear 0 1014 46 10000 0.75 98 23:28 02.03.2022
3446 Clear 0 1014 46 10000 0.75 98 22:44 02.03.2022
3447 Clear 0 1014 44 10000 0.96 131 21:23 02.03.2022
3448 Clear 0 1014 44 10000 0.96 131 21:23 02.03.2022
3449 Clear 0 1014 44 10000 0.96 131 20:30 02.03.2022
3450 Clear 1 1014 43 10000 1.11 156 19:45 02.03.2022
3451 Clouds 1 1014 42 10000 1.71 167 19:26 02.03.2022
3452 Clouds 1 1013 42 10000 1.73 165 18:39 02.03.2022
3453 Clouds 1 1013 42 10000 1.73 165 18:39 02.03.2022
3454 Clouds 1 1013 42 10000 1.73 165 18:39 02.03.2022
3455 Clouds 2 1013 41 10000 2.15 169 17:45 02.03.2022
3456 Clouds 2 1013 38 10000 2.62 165 16:56 02.03.2022
3457 Clouds 2 1013 38 10000 2.62 165 16:36 02.03.2022
3458 Clouds 3 1011 33 10000 1.83 176 14:42 02.03.2022
3459 Clouds 5 1007 25 10000 1.21 209 13:24 02.03.2022
3460 Clouds 5 1007 30 10000 1.25 160 12:41 02.03.2022
3461 Clouds 6 1006 22 10000 1.85 186 11:39 02.03.2022
3462 Clouds 7 1006 22 10000 1.69 181 11:18 02.03.2022
3463 Clouds 6 1006 24 10000 1.73 167 09:41 02.03.2022
3464 Clouds 6 1008 25 10000 1.51 172 08:51 02.03.2022
3465 Clouds 4 1012 28 10000 2.2 182 07:28 02.03.2022
3466 Clouds 4 1013 30 10000 1.76 171 05:44 02.03.2022
3467 Clouds -2 1016 49 10000 0.92 152 00:58 02.03.2022
3468 Clouds -2 1016 49 10000 0.86 157 00:58 02.03.2022
3469 Clouds -2 1015 48 10000 1.03 155 23:47 01.03.2022
3470 Clouds -1 1014 47 10000 1.14 159 22:45 01.03.2022
3471 Clouds -1 1014 46 10000 1.58 161 21:57 01.03.2022
3472 Clouds -1 1015 45 10000 1.94 172 21:23 01.03.2022
3473 Clear -1 1015 44 10000 1.99 174 20:30 01.03.2022
3474 Clouds 0 1014 43 10000 2.39 167 19:28 01.03.2022
3475 Clouds 0 1014 43 10000 2.39 167 18:49 01.03.2022
3476 Clouds 0 1014 41 10000 2.45 168 18:19 01.03.2022
3477 Clouds 1 1013 36 10000 2.52 165 17:19 01.03.2022
3478 Clouds 1 1013 36 10000 2.52 165 16:31 01.03.2022
3479 Clouds 3 1012 30 10000 2.51 163 15:38 01.03.2022
3480 Clouds 3 1011 27 10000 2.37 167 14:34 01.03.2022
3481 Clouds 3 1009 23 10000 2.32 138 13:52 01.03.2022
3482 Clouds 4 1008 20 10000 2.68 126 13:24 01.03.2022
3483 Clouds 4 1008 20 10000 2.84 134 12:30 01.03.2022
3484 Clouds 5 1007 11 10000 2.26 147 10:34 01.03.2022
3485 Clear 5 1010 12 10000 1.2 173 08:41 01.03.2022
3486 Clear 4 1013 13 10000 1.26 196 07:44 01.03.2022
3487 Clear 2 1019 14 10000 0.89 146 05:54 01.03.2022
3488 Clear -3 1025 21 10000 0.99 55 02:33 01.03.2022
3489 Clear -6 1025 28 10000 1.5 30 00:34 01.03.2022
3490 Clear -5 1024 28 10000 1.57 31 23:29 28.02.2022
3491 Clear -4 1024 28 10000 1.82 23 22:18 28.02.2022
3492 Clear -4 1023 27 10000 2.09 16 21:25 28.02.2022
3493 Clear -3 1023 26 10000 1.9 13 19:55 28.02.2022
3494 Clear -3 1023 26 10000 1.9 13 19:36 28.02.2022
3495 Clear -3 1023 26 10000 1.71 15 18:43 28.02.2022
3496 Clear -2 1022 26 10000 1.69 18 17:30 28.02.2022
3497 Clouds -2 1022 26 10000 1.59 19 16:33 28.02.2022
3498 Clouds -1 1020 23 10000 2.5 348 15:24 28.02.2022
3499 Clouds -1 1020 23 10000 2.5 348 14:32 28.02.2022
3500 Clouds 0 1018 20 10000 3.13 340 13:47 28.02.2022
3501 Clouds 1 1013 17 10000 4.12 342 12:47 28.02.2022
3502 Clouds 3 1011 13 10000 5.64 329 11:57 28.02.2022
3503 Clouds 4 1010 12 10000 5.72 320 10:49 28.02.2022
3504 Clouds 4 1010 13 10000 4.4 317 10:21 28.02.2022
3505 Clouds 4 1010 13 10000 4.4 317 09:33 28.02.2022
3506 Clouds 4 1011 14 10000 4.91 320 08:32 28.02.2022
3507 Clouds 4 1012 14 10000 5.24 315 07:35 28.02.2022
3508 Clouds 2 1016 15 10000 4.45 309 05:21 28.02.2022
3509 Clouds 1 1016 17 10000 4.06 315 04:27 28.02.2022
3510 Clouds -2 1012 34 10000 2.51 303 23:44 27.02.2022
3511 Clouds -2 1011 34 10000 2.28 290 22:35 27.02.2022
3512 Clouds -1 1010 34 10000 3.07 276 21:52 27.02.2022
3513 Clouds 0 1010 37 10000 2.69 252 21:21 27.02.2022
3514 Clouds 0 1010 37 10000 2.69 252 20:32 27.02.2022
3515 Clear 0 1010 38 10000 3.09 243 19:58 27.02.2022
3516 Clouds 1 1009 38 10000 3.42 237 19:27 27.02.2022
3517 Clouds 1 1009 38 10000 3.42 237 18:47 27.02.2022
3518 Clouds 1 1009 38 10000 3.69 239 17:56 27.02.2022
3519 Clouds 1 1008 38 10000 3.36 234 17:18 27.02.2022
3520 Clouds 2 1007 40 10000 3.19 222 16:21 27.02.2022
3521 Clouds 4 1004 28 10000 5.28 240 13:40 27.02.2022
3522 Clouds 4 1002 28 10000 4.02 249 12:33 27.02.2022
3523 Clouds 7 998 16 8301 5.9 239 11:27 27.02.2022
3524 Clouds 7 999 15 9613 4.32 238 10:20 27.02.2022
3525 Clouds 7 999 15 9613 4.32 238 09:50 27.02.2022
3526 Clouds 6 1001 16 10000 3.27 219 09:20 27.02.2022
3527 Clouds 6 1004 18 10000 3.23 194 08:20 27.02.2022
3528 Clear 4 1009 26 10000 2.91 192 05:39 27.02.2022
3529 Clear -1 1014 42 10000 2.32 177 02:45 27.02.2022
3530 Clouds -3 1013 53 10000 2 171 23:34 26.02.2022
3531 Clouds -3 1013 51 10000 1.98 177 22:31 26.02.2022
3532 Clouds -2 1013 46 10000 2.22 172 21:19 26.02.2022
3533 Clouds -2 1013 46 10000 2.22 172 20:33 26.02.2022
3534 Clouds -1 1013 43 10000 1.95 172 19:52 26.02.2022
3535 Clouds -1 1013 43 10000 1.95 172 19:31 26.02.2022
3536 Clouds 0 1014 47 10000 1.65 210 17:55 26.02.2022
3537 Clouds 0 1014 47 10000 1.65 210 17:30 26.02.2022
3538 Clouds 0 1013 45 10000 1.79 181 16:33 26.02.2022
3539 Clouds 0 1012 43 10000 1.82 171 15:26 26.02.2022
3540 Clouds 0 1012 43 10000 1.82 171 14:57 26.02.2022
3541 Clouds 0 1012 43 10000 1.82 171 14:38 26.02.2022
3542 Clouds 1 1010 40 10000 2.55 149 13:40 26.02.2022
3543 Clouds 2 1009 36 10000 2.39 155 12:52 26.02.2022
3544 Clouds 3 1007 23 10000 1.21 253 11:38 26.02.2022
3545 Clouds 4 1007 20 10000 1.63 221 10:59 26.02.2022
3546 Clouds 3 1008 23 10000 2.54 197 09:22 26.02.2022
3547 Clouds 3 1010 25 10000 3.31 195 07:57 26.02.2022
3548 Clouds -2 1018 54 10000 1.93 183 04:21 26.02.2022
3549 Clouds -5 1018 67 10000 1.31 198 23:35 25.02.2022
3550 Clouds -5 1017 66 10000 1.19 201 22:18 25.02.2022
3551 Clouds -5 1017 66 10000 1.24 197 21:29 25.02.2022
3552 Clouds -5 1017 66 10000 1.24 197 20:34 25.02.2022
3553 Clouds -5 1017 65 10000 1.33 201 19:56 25.02.2022
3554 Clouds -3 1015 61 10000 1.3 191 17:54 25.02.2022
3555 Clouds -3 1016 59 10000 1.37 204 16:47 25.02.2022
3556 Clouds -3 1015 60 10000 1.23 225 15:49 25.02.2022
3557 Clouds -2 1013 61 10000 1.08 230 15:23 25.02.2022
3558 Clouds -2 1013 61 10000 1.08 230 14:50 25.02.2022
3559 Snow -1 1011 59 10000 1.12 216 14:19 25.02.2022
3560 Snow 0 1009 54 10000 1.57 227 13:23 25.02.2022
3561 Clouds 2 1006 40 7172 1.75 225 11:56 25.02.2022
3562 Clouds 3 1006 40 9266 1.33 227 11:20 25.02.2022
3563 Clouds 3 1006 42 6359 1.72 201 10:23 25.02.2022
3564 Clouds 3 1006 42 6359 1.72 201 09:42 25.02.2022
3565 Clouds 3 1006 42 6359 1.72 201 09:42 25.02.2022
3566 Clouds 3 1008 40 8625 2.37 172 07:53 25.02.2022
3567 Clouds 3 1010 41 6860 2.58 190 06:54 25.02.2022
3568 Clouds 2 1012 45 10000 2.04 188 05:40 25.02.2022
3569 Clouds -2 1016 57 10000 1.42 182 02:43 25.02.2022
3570 Clouds -4 1015 65 10000 0.7 218 22:37 24.02.2022
3571 Clouds -4 1016 66 10000 0.82 230 21:50 24.02.2022
3572 Clouds -4 1016 66 10000 0.82 230 21:30 24.02.2022
3573 Clouds -4 1015 65 10000 0.68 249 20:44 24.02.2022
3574 Clouds -4 1015 62 10000 0.74 239 19:31 24.02.2022
3575 Clouds -3 1015 54 10000 0.79 263 18:20 24.02.2022
3576 Clouds -3 1015 54 10000 0.79 263 17:58 24.02.2022
3577 Clouds -3 1014 52 10000 0.72 265 17:20 24.02.2022
3578 Clouds -3 1014 53 10000 0.79 269 16:28 24.02.2022
3579 Clouds -3 1014 53 10000 0.79 269 15:44 24.02.2022
3580 Clouds -2 1013 56 10000 0.39 319 14:48 24.02.2022
3581 Clouds -2 1013 58 10000 1.03 326 13:59 24.02.2022
3582 Clouds -2 1013 58 10000 1.03 326 13:38 24.02.2022
3583 Clouds 2 1009 48 10000 0.86 29 11:41 24.02.2022
3584 Clouds 2 1008 43 10000 1.36 329 10:34 24.02.2022
3585 Clouds 3 1009 39 10000 1.57 291 08:44 24.02.2022
3586 Clouds 2 1012 38 10000 1.79 245 07:26 24.02.2022
3587 Clouds 2 1013 40 10000 1.82 287 05:43 24.02.2022
3588 Clouds -5 1016 63 10000 1.26 319 00:32 24.02.2022
3589 Clouds -4 1014 59 10000 1.21 331 22:29 23.02.2022
3590 Clouds -4 1014 57 10000 1.27 316 20:52 23.02.2022
3591 Clouds -4 1014 57 10000 1.27 316 20:30 23.02.2022
3592 Clouds -2 1013 51 10000 0.48 315 19:36 23.02.2022
3593 Clouds -1 1013 60 10000 0.57 347 18:31 23.02.2022
3594 Clouds -2 1014 60 10000 0.64 313 16:43 23.02.2022
3595 Clouds 0 1012 57 10000 1.29 12 14:34 23.02.2022
3596 Clouds 0 1010 57 10000 1.57 339 12:37 23.02.2022
3597 Clouds 4 1006 36 10000 1.23 355 11:23 23.02.2022
3598 Clouds 4 1006 36 10000 1.23 355 10:30 23.02.2022
3599 Clouds 4 1008 37 10000 0.85 24 08:57 23.02.2022
3600 Clouds 3 1010 38 10000 0.36 5 07:57 23.02.2022
3601 Clouds -2 1019 50 10000 0.59 318 03:48 23.02.2022
3602 Clouds -7 1021 71 10000 0.95 309 00:26 23.02.2022
3603 Clouds -7 1021 71 10000 0.95 309 23:35 22.02.2022
3604 Clouds -6 1018 68 10000 0.41 348 22:31 22.02.2022
3605 Clouds -5 1017 68 10000 0.7 347 21:49 22.02.2022
3606 Snow -5 1017 66 10000 0.31 304 21:28 22.02.2022
3607 Snow -5 1017 66 10000 0.31 304 20:51 22.02.2022
3608 Snow -5 1018 61 10000 1.11 252 20:29 22.02.2022
3609 Snow -5 1018 61 10000 1.11 252 20:29 22.02.2022
3610 Snow -5 1018 61 10000 1.11 252 19:36 22.02.2022
3611 Clouds -4 1017 52 10000 0.74 271 19:18 22.02.2022
3612 Clouds -4 1016 52 10000 1.28 297 17:46 22.02.2022
3613 Clouds -4 1016 52 10000 0.66 255 17:20 22.02.2022
3614 Clouds -4 1016 52 10000 0.66 255 16:36 22.02.2022
3615 Clouds -4 1016 54 10000 0.32 342 15:39 22.02.2022
3616 Clouds -4 1015 54 10000 1.07 355 14:44 22.02.2022
3617 Clouds -2 1011 48 10000 1.91 9 12:21 22.02.2022
3618 Clouds -1 1010 41 10000 1.56 4 10:39 22.02.2022
3619 Clear -3 1015 32 10000 0.98 29 07:52 22.02.2022
3620 Clear -4 1018 32 10000 1.17 30 07:26 22.02.2022
3621 Clear -6 1022 43 10000 1.42 13 04:30 22.02.2022
3622 Clear -14 1033 66 10000 2.13 319 01:44 22.02.2022
3623 Clouds -12 1026 65 10000 2.34 315 22:44 21.02.2022
3624 Clouds -11 1025 63 10000 2.63 308 21:31 21.02.2022
3625 Clouds -10 1021 59 10000 2.66 306 20:34 21.02.2022
3626 Clouds -9 1019 54 10000 3.02 316 18:46 21.02.2022
3627 Clouds -7 1016 54 10000 3.05 330 16:56 21.02.2022
3628 Clouds -8 1015 55 10000 2.9 330 14:52 21.02.2022
3629 Clouds -6 1010 57 10000 2.31 335 14:21 21.02.2022
3630 Clouds -6 1009 60 10000 2.21 343 12:59 21.02.2022
3631 Clouds -4 1006 55 10000 2.29 11 12:23 21.02.2022
3632 Clouds -3 1004 47 10000 2.8 3 10:51 21.02.2022
3633 Clouds -2 1004 40 10000 2.6 352 09:34 21.02.2022
3634 Snow -5 1008 52 10000 2.38 334 04:52 21.02.2022
3635 Snow -7 1005 89 1043 0.67 57 23:32 20.02.2022
3636 Snow -7 1004 88 826 0.88 38 22:20 20.02.2022
3637 Snow -7 1004 88 826 0.88 38 21:42 20.02.2022
3638 Snow -6 1004 87 566 0.9 34 20:53 20.02.2022
3639 Snow -6 1004 87 418 0.75 42 20:23 20.02.2022
3640 Snow -6 1004 87 418 0.75 42 19:31 20.02.2022
3641 Snow -6 1004 87 418 0.75 42 19:31 20.02.2022
3642 Snow -6 1003 87 371 0.71 58 18:50 20.02.2022
3643 Snow -5 1003 80 2185 0.89 133 18:31 20.02.2022
3644 Snow -5 1002 81 2056 1.05 124 17:47 20.02.2022
3645 Snow -4 1001 74 2927 0.7 133 15:32 20.02.2022
3646 Snow -3 999 66 5355 1.05 148 14:41 20.02.2022
3647 Clouds -2 996 60 10000 0.46 175 13:23 20.02.2022
3648 Snow -2 996 61 8541 1.21 151 12:22 20.02.2022
3649 Snow 0 994 37 10000 2.96 147 10:21 20.02.2022
3650 Snow 0 994 37 10000 2.96 147 09:53 20.02.2022
3651 Clouds 0 996 29 10000 1.12 115 07:45 20.02.2022
3652 Clouds -6 1006 61 10000 2.21 23 00:54 20.02.2022
3653 Clouds -5 1004 56 10000 1.6 5 00:29 20.02.2022
3654 Clouds -4 1004 52 10000 1.46 335 22:44 19.02.2022
3655 Clouds -3 1003 45 10000 0.79 316 22:21 19.02.2022
3656 Snow -2 1003 46 10000 1.25 275 20:51 19.02.2022
3657 Snow -2 1003 50 10000 1.06 287 19:48 19.02.2022
3658 Snow -1 1002 51 10000 0.55 262 19:25 19.02.2022
3659 Snow -1 1001 47 10000 0.89 236 18:32 19.02.2022
3660 Snow 0 1001 48 10000 2 197 17:33 19.02.2022
3661 Clouds 1 999 38 10000 2.89 173 16:22 19.02.2022
3662 Snow 2 998 31 10000 3.04 186 14:56 19.02.2022
3663 Snow 2 998 31 10000 3.04 186 14:37 19.02.2022
3664 Clouds 3 995 19 10000 2.48 235 12:50 19.02.2022
3665 Clouds 4 994 17 10000 2.7 235 11:36 19.02.2022
3666 Clouds 5 995 17 10000 4.3 208 09:36 19.02.2022
3667 Clouds 3 1002 27 10000 4.17 186 06:53 19.02.2022
3668 Clouds -2 1008 58 10000 2.28 155 02:38 19.02.2022
3669 Clear -3 1003 66 10000 2.6 176 23:28 18.02.2022
3670 Clear -2 1003 64 10000 2.82 171 21:49 18.02.2022
3671 Clear -2 1004 61 10000 2.45 180 20:39 18.02.2022
3672 Clear -1 1003 58 10000 2.72 172 19:51 18.02.2022
3673 Clear 0 1003 55 10000 2.75 176 18:50 18.02.2022
3674 Clear 0 1003 52 10000 3.1 177 18:20 18.02.2022
3675 Clear 0 1003 52 10000 3.1 177 18:20 18.02.2022
3676 Clear 0 1003 52 10000 3.1 177 17:38 18.02.2022
3677 Clear 2 1000 36 10000 2.66 187 14:50 18.02.2022
3678 Clear 3 998 33 10000 1.99 171 13:55 18.02.2022
3679 Clear 4 996 26 10000 3.01 155 12:53 18.02.2022
3680 Clear 7 994 20 10000 3.1 152 11:58 18.02.2022
3681 Clear 7 994 20 10000 3.1 152 11:58 18.02.2022
3682 Clear 8 994 17 10000 3.01 158 11:21 18.02.2022
3683 Clear 8 996 17 10000 2.82 157 09:52 18.02.2022
3684 Clear 5 1003 27 10000 1.21 181 06:54 18.02.2022
3685 Clear 3 1006 32 10000 1.05 181 05:39 18.02.2022
3686 Clear -6 1008 61 10000 0.89 101 22:57 17.02.2022
3687 Clear -5 1008 59 10000 0.73 136 21:44 17.02.2022
3688 Clear -4 1007 56 10000 0.93 133 20:59 17.02.2022
3689 Clear -4 1007 56 10000 0.93 133 20:34 17.02.2022
3690 Clear -4 1007 54 10000 1.47 166 19:48 17.02.2022
3691 Clear -3 1006 53 10000 2 171 18:38 17.02.2022
3692 Clear -2 1006 50 10000 2.27 177 17:50 17.02.2022
3693 Clear -1 1004 41 10000 3.05 172 16:20 17.02.2022
3694 Clear -1 1004 41 10000 3.05 172 16:20 17.02.2022
3695 Clear 0 1002 37 10000 3 174 15:26 17.02.2022
3696 Clear 1 1000 33 10000 2.65 170 14:21 17.02.2022
3697 Clouds 1 999 36 10000 2.71 163 12:35 17.02.2022
3698 Clouds 4 997 25 10000 2.9 180 11:21 17.02.2022
3699 Clouds 4 999 27 10000 3.34 182 08:43 17.02.2022
3700 Clear -5 1006 56 10000 1.75 161 00:29 17.02.2022
3701 Clear -5 1005 54 10000 2.15 169 22:59 16.02.2022
3702 Clear -4 1005 50 10000 2.41 172 21:25 16.02.2022
3703 Clear -4 1005 48 10000 2.53 172 19:43 16.02.2022
3704 Clear -3 1005 46 10000 2.88 177 18:36 16.02.2022
3705 Clear -3 1005 44 10000 3.13 175 17:46 16.02.2022
3706 Clear -1 1003 40 10000 3.46 180 15:36 16.02.2022
3707 Clear -1 1002 37 10000 3.41 183 14:57 16.02.2022
3708 Clouds 1 998 29 10000 2.78 182 12:35 16.02.2022
3709 Clouds 3 997 23 10000 2.64 187 11:53 16.02.2022
3710 Clouds 3 997 22 10000 2.56 189 11:24 16.02.2022
3711 Clouds 3 997 22 10000 2.56 189 10:30 16.02.2022
3712 Clouds 2 1004 29 10000 2.79 175 06:57 16.02.2022
3713 Clouds 0 1008 41 10000 1.61 173 04:43 16.02.2022
3714 Clouds -4 1007 64 10000 2.17 169 23:44 15.02.2022
3715 Clear -4 1006 62 10000 2.68 177 22:19 15.02.2022
3716 Clear -4 1006 62 10000 2.68 177 21:45 15.02.2022
3717 Clear -3 1006 60 10000 2.79 173 21:27 15.02.2022
3718 Clear -3 1006 60 10000 2.79 173 20:55 15.02.2022
3719 Clear -3 1006 58 10000 2.94 178 19:57 15.02.2022
3720 Clouds -2 1006 56 10000 2.94 176 18:52 15.02.2022
3721 Clouds -2 1006 53 10000 3.33 175 18:20 15.02.2022
3722 Clouds -2 1006 53 10000 3.33 175 17:48 15.02.2022
3723 Clouds -1 1005 50 10000 3.36 177 16:32 15.02.2022
3724 Clouds 1 1003 41 10000 3.38 183 15:26 15.02.2022
3725 Clouds 2 999 33 10000 2.92 173 13:27 15.02.2022
3726 Clouds 4 998 27 10000 3.16 175 11:58 15.02.2022
3727 Clouds 5 998 25 10000 2.88 170 10:59 15.02.2022
3728 Clouds 5 1001 26 10000 2.71 191 09:28 15.02.2022
3729 Clear 3 1006 32 10000 2.24 185 06:52 15.02.2022
3730 Clear -1 1012 44 10000 1.41 153 03:55 15.02.2022
3731 Clear -4 1012 55 10000 1.24 151 22:36 14.02.2022
3732 Clear -4 1012 53 10000 1.38 149 21:36 14.02.2022
3733 Clear -3 1012 51 10000 1.14 151 20:37 14.02.2022
3734 Clear -3 1011 49 10000 1.13 149 19:34 14.02.2022
3735 Clear -2 1011 47 10000 1.25 159 18:42 14.02.2022
3736 Clear -2 1010 43 10000 1.8 165 18:22 14.02.2022
3737 Clear -1 1010 39 10000 2.1 169 17:25 14.02.2022
3738 Clear 0 1009 35 10000 1.89 182 16:24 14.02.2022
3739 Clear 0 1006 29 10000 0.87 202 14:29 14.02.2022
3740 Clear 0 1006 29 10000 0.87 202 13:31 14.02.2022
3741 Clouds 1 1004 22 10000 0.63 162 12:48 14.02.2022
3742 Clouds 5 1002 16 10000 0.93 185 11:54 14.02.2022
3743 Clouds 5 1002 15 10000 1.43 180 10:44 14.02.2022
3744 Clouds 5 1005 16 10000 1.31 163 08:45 14.02.2022
3745 Clear 4 1007 19 10000 0.52 162 07:32 14.02.2022
3746 Clear -8 1019 41 10000 1.37 360 02:27 14.02.2022
3747 Clouds -8 1015 43 10000 1.69 4 22:42 13.02.2022
3748 Clouds -7 1014 42 10000 1.7 5 22:24 13.02.2022
3749 Clouds -7 1014 42 10000 1.7 5 21:32 13.02.2022
3750 Clouds -6 1014 41 10000 1.79 6 20:36 13.02.2022
3751 Clouds -6 1013 40 10000 1.47 9 19:45 13.02.2022
3752 Clouds -5 1012 39 10000 1.08 7 18:54 13.02.2022
3753 Clouds -5 1012 39 10000 1.11 13 18:35 13.02.2022
3754 Clear -3 1010 32 10000 0.58 124 16:34 13.02.2022
3755 Clear -1 1007 20 10000 1.04 209 15:25 13.02.2022
3756 Clear -1 1007 20 10000 1.04 209 14:36 13.02.2022
3757 Clear -1 1005 25 10000 2.46 182 12:51 13.02.2022
3758 Clear 3 1003 18 10000 2.82 181 11:59 13.02.2022
3759 Clear 4 1003 16 10000 2.96 183 10:35 13.02.2022
3760 Clear 3 1004 16 10000 2.31 175 09:47 13.02.2022
3761 Clear 2 1009 18 10000 1.09 173 07:51 13.02.2022
3762 Clouds -9 1023 35 10000 1.04 81 00:36 13.02.2022
3763 Clouds -9 1022 34 10000 1.17 73 23:53 12.02.2022
3764 Clouds -8 1021 34 10000 1.22 81 22:33 12.02.2022
3765 Clouds -8 1021 33 10000 1.29 93 21:36 12.02.2022
3766 Clouds -7 1021 32 10000 1.13 90 20:52 12.02.2022
3767 Clouds -7 1020 30 10000 1.2 84 19:47 12.02.2022
3768 Clouds -6 1020 29 10000 1.14 88 18:53 12.02.2022
3769 Clouds -6 1019 29 10000 1.33 64 18:35 12.02.2022
3770 Clouds -6 1019 28 10000 1.44 67 17:37 12.02.2022
3771 Clouds -5 1019 28 10000 1.65 66 16:43 12.02.2022
3772 Clouds -5 1018 27 10000 1.86 69 15:52 12.02.2022
3773 Clouds -5 1017 27 10000 1.77 89 14:55 12.02.2022
3774 Clouds -5 1016 26 10000 2.1 90 14:25 12.02.2022
3775 Clouds -2 1013 12 10000 1.59 4 11:20 12.02.2022
3776 Clouds -1 1014 12 10000 1.83 316 10:29 12.02.2022
3777 Clouds -1 1014 12 10000 1.83 316 09:36 12.02.2022
3778 Clear -2 1016 12 10000 2.4 290 08:46 12.02.2022
3779 Clouds -4 1020 15 10000 1.98 302 06:46 12.02.2022
3780 Clear -6 1024 20 10000 2.1 327 04:38 12.02.2022
3781 Clear -11 1031 43 10000 1.78 339 02:19 12.02.2022
3782 Clouds -10 1027 39 10000 2.65 346 23:20 11.02.2022
3783 Clouds -9 1025 38 10000 2.71 353 22:20 11.02.2022
3784 Clouds -8 1023 39 10000 2.69 354 21:18 11.02.2022
3785 Clouds -8 1022 41 10000 3.5 353 20:26 11.02.2022
3786 Clouds -8 1021 46 10000 3.72 355 19:28 11.02.2022
3787 Clouds -7 1021 47 10000 4.35 357 18:29 11.02.2022
3788 Clouds -7 1019 51 10000 5.03 2 17:26 11.02.2022
3789 Clouds -7 1019 51 10000 5.03 2 16:39 11.02.2022
3790 Snow -5 1014 66 6656 4.99 11 15:19 11.02.2022
3791 Snow -5 1014 66 6656 4.99 11 14:37 11.02.2022
3792 Snow -3 1008 53 10000 4.34 4 14:19 11.02.2022
3793 Snow -3 1008 53 10000 4.34 4 13:40 11.02.2022
3794 Clouds -2 1004 43 10000 0.57 175 12:45 11.02.2022
3795 Clouds 1 1000 28 10000 3.2 197 10:49 11.02.2022
3796 Clouds 1 1000 26 10000 3.13 196 09:31 11.02.2022
3797 Clouds 1 1001 26 10000 3.55 195 08:31 11.02.2022
3798 Clouds 1 1002 28 10000 3.81 193 07:40 11.02.2022
3799 Clouds 0 1006 35 10000 3 185 05:34 11.02.2022
3800 Clear -7 1011 65 10000 2.25 174 02:20 11.02.2022
3801 Clouds -6 1009 68 10000 2.04 172 23:41 10.02.2022
3802 Clouds -5 1008 67 10000 2.04 163 21:55 10.02.2022
3803 Clouds -5 1008 67 10000 2.04 163 21:35 10.02.2022
3804 Clouds -5 1008 67 10000 2.15 163 20:48 10.02.2022
3805 Clouds -4 1008 68 10000 2.17 161 19:49 10.02.2022
3806 Clouds -3 1008 66 10000 2.19 160 19:21 10.02.2022
3807 Clouds -3 1008 64 10000 2.49 149 17:53 10.02.2022
3808 Clouds -2 1007 57 10000 2.59 170 17:21 10.02.2022
3809 Clouds -2 1007 57 10000 2.59 170 16:31 10.02.2022
3810 Clouds -2 1008 54 10000 2.6 178 15:39 10.02.2022
3811 Clouds -2 1007 48 10000 2.4 177 15:20 10.02.2022
3812 Clouds -2 1007 48 10000 2.4 177 14:34 10.02.2022
3813 Clouds -1 1005 40 10000 2.18 185 13:37 10.02.2022
3814 Clouds 0 1004 31 10000 2.5 226 13:18 10.02.2022
3815 Clouds 2 1001 20 10000 3.6 249 11:50 10.02.2022
3816 Clouds 3 1000 17 10000 4.08 250 11:28 10.02.2022
3817 Clouds 3 1000 18 10000 3.28 230 10:21 10.02.2022
3818 Clouds 3 1000 18 10000 3.28 230 09:37 10.02.2022
3819 Clouds 2 1003 23 10000 2.92 205 08:21 10.02.2022
3820 Clouds -1 1009 44 10000 1.64 165 06:19 10.02.2022
3821 Clouds -6 1014 66 10000 0.79 141 02:43 10.02.2022
3822 Clouds -9 1014 79 10000 0.81 142 00:52 10.02.2022
3823 Clouds -9 1014 79 10000 0.81 142 00:30 10.02.2022
3824 Clouds -9 1014 79 10000 0.81 142 00:30 10.02.2022
3825 Clouds -9 1013 78 10000 1.15 153 23:53 09.02.2022
3826 Clouds -8 1012 77 10000 1.64 168 22:51 09.02.2022
3827 Clouds -8 1012 77 10000 1.64 168 22:30 09.02.2022
3828 Clear -8 1012 76 10000 1.85 176 21:45 09.02.2022
3829 Clear -7 1011 74 10000 2.05 169 21:24 09.02.2022
3830 Clear -7 1011 74 10000 2.05 169 20:41 09.02.2022
3831 Clear -7 1010 71 10000 2.59 183 20:21 09.02.2022
3832 Clear -7 1010 71 10000 2.59 183 20:21 09.02.2022
3833 Clear -7 1010 71 10000 2.59 183 19:39 09.02.2022
3834 Clouds -6 1009 62 10000 3.1 180 17:50 09.02.2022
3835 Clouds -5 1008 59 10000 3.3 179 16:54 09.02.2022
3836 Clouds -4 1006 55 10000 3.53 175 15:56 09.02.2022
3837 Clouds -3 1005 51 10000 3.66 178 15:22 09.02.2022
3838 Clouds 0 1000 46 10000 2.44 182 12:42 09.02.2022
3839 Clear 4 997 35 10000 2.03 189 11:20 09.02.2022
3840 Clear 4 997 35 10000 2.03 189 10:33 09.02.2022
3841 Clear 4 998 33 10000 1.57 194 09:45 09.02.2022
3842 Clear 3 999 35 10000 0.84 161 09:20 09.02.2022
3843 Clear 3 999 35 10000 0.84 161 08:43 09.02.2022
3844 Clear -1 1008 44 10000 0.11 30 05:37 09.02.2022
3845 Clear -5 1013 53 10000 1.06 33 03:51 09.02.2022
3846 Clear -10 1019 66 10000 1.13 13 01:33 09.02.2022
3847 Clear -9 1017 67 10000 1.34 11 23:40 08.02.2022
3848 Clear -9 1016 65 10000 1.37 19 22:53 08.02.2022
3849 Clear -8 1016 64 10000 1.07 5 22:22 08.02.2022
3850 Clear -8 1016 64 10000 1.07 5 21:58 08.02.2022
3851 Clear -8 1016 62 10000 1.2 6 21:22 08.02.2022
3852 Clear -8 1016 62 10000 1.2 6 20:56 08.02.2022
3853 Clear -8 1016 62 10000 1.2 6 20:31 08.02.2022
3854 Clear -7 1014 62 10000 1.5 7 18:55 08.02.2022
3855 Clear -6 1014 59 10000 1.72 11 17:50 08.02.2022
3856 Clear -6 1013 57 10000 2.06 18 16:42 08.02.2022
3857 Clear -5 1012 54 10000 2.57 12 15:45 08.02.2022
3858 Clear -4 1009 46 10000 2.9 353 14:57 08.02.2022
3859 Clouds -3 1006 33 10000 2.17 344 13:30 08.02.2022
3860 Clouds 1 1000 28 10000 0.25 283 12:21 08.02.2022
3861 Clouds 3 999 28 10000 0.75 313 10:47 08.02.2022
3862 Clouds 3 1000 26 10000 0.48 27 09:46 08.02.2022
3863 Clouds 2 1001 29 10000 1.16 87 08:34 08.02.2022
3864 Clear -1 1008 41 10000 1.93 41 05:46 08.02.2022
3865 Clear -3 1011 47 10000 1.87 34 04:40 08.02.2022
3866 Clear -5 1013 54 10000 1.83 31 04:22 08.02.2022
3867 Clear -5 1013 54 10000 1.83 31 03:36 08.02.2022
3868 Clouds -8 1016 59 10000 1.67 23 03:18 08.02.2022
3869 Clouds -8 1016 59 10000 1.67 23 02:59 08.02.2022
3870 Clouds -8 1016 59 10000 1.67 23 02:36 08.02.2022
3871 Clear -10 1018 61 10000 1.57 19 02:18 08.02.2022
3872 Clear -10 1018 61 10000 1.57 19 01:44 08.02.2022
3873 Clear -10 1015 58 10000 1.71 11 01:24 08.02.2022
3874 Clear -10 1015 58 10000 1.71 11 00:55 08.02.2022
3875 Clear -9 1013 56 10000 1.47 7 00:19 08.02.2022
3876 Clear -9 1013 56 10000 1.47 7 23:43 07.02.2022
3877 Clear -9 1013 54 10000 1.26 9 23:18 07.02.2022
3878 Clear -9 1013 54 10000 1.26 9 22:59 07.02.2022
3879 Clear -8 1012 52 10000 1.55 2 22:18 07.02.2022
3880 Clear -8 1012 52 10000 1.55 2 21:49 07.02.2022
3881 Clear -8 1011 48 10000 1.78 358 21:27 07.02.2022
3882 Clear -8 1011 48 10000 1.78 358 20:41 07.02.2022
3883 Clear -7 1009 43 10000 1.86 347 20:18 07.02.2022
3884 Clear -7 1009 43 10000 1.86 347 19:46 07.02.2022
3885 Clouds -6 1008 43 10000 1.99 320 18:24 07.02.2022
3886 Clouds -5 1007 39 10000 2.69 304 16:53 07.02.2022
3887 Clouds -4 1005 35 10000 2.79 299 16:21 07.02.2022
3888 Clouds -4 1005 35 10000 2.79 299 15:48 07.02.2022
3889 Clouds -1 1001 33 10000 1.49 244 13:39 07.02.2022
3890 Clouds 0 999 33 10000 1.04 245 13:21 07.02.2022
3891 Clouds 3 998 32 10000 1.07 279 11:58 07.02.2022
3892 Clouds 3 998 32 10000 1.07 279 11:38 07.02.2022
3893 Clouds 5 997 29 10000 2.04 269 10:53 07.02.2022
3894 Clouds 5 997 29 10000 2.04 269 10:33 07.02.2022
3895 Clouds 5 998 28 10000 1.26 238 09:53 07.02.2022
3896 Clouds 4 1000 28 10000 0.3 247 09:18 07.02.2022
3897 Clouds 4 1000 28 10000 0.3 247 08:44 07.02.2022
3898 Clouds 3 1002 31 10000 0.51 119 07:34 07.02.2022
3899 Clear 5 1002 19 10000 1.16 190 06:34 07.02.2022
3900 Clear -1 1010 30 10000 0.16 77 04:18 07.02.2022
3901 Clouds -7 1010 42 10000 0.78 71 00:54 07.02.2022
3902 Clouds -6 1009 40 10000 0.81 90 23:50 06.02.2022
3903 Clouds -6 1009 40 10000 0.81 90 23:50 06.02.2022
3904 Clouds -6 1010 37 10000 0.88 89 23:19 06.02.2022
3905 Clouds -6 1010 37 10000 0.88 89 22:37 06.02.2022
3906 Clouds -5 1010 36 10000 0.64 96 21:37 06.02.2022
3907 Clouds -5 1010 35 10000 0.68 111 20:58 06.02.2022
3908 Clouds -5 1010 35 10000 0.68 111 20:36 06.02.2022
3909 Clouds -3 1010 30 10000 1.21 79 19:46 06.02.2022
3910 Clouds -2 1010 29 10000 1.02 34 18:50 06.02.2022
3911 Clouds -2 1009 33 10000 1.07 95 18:26 06.02.2022
3912 Clouds -3 1010 34 10000 1.18 53 17:29 06.02.2022
3913 Clouds -3 1010 34 10000 1.18 53 16:50 06.02.2022
3914 Clouds -1 1008 28 10000 1.42 50 15:50 06.02.2022
3915 Clouds 0 1005 25 10000 0.52 166 15:28 06.02.2022
3916 Clouds 0 1005 25 10000 0.52 166 14:52 06.02.2022
3917 Clouds 0 1005 24 10000 1.64 226 13:53 06.02.2022
3918 Clouds -1 1004 23 10000 2.07 205 13:20 06.02.2022
3919 Clouds 1 1003 16 10000 2.1 179 11:44 06.02.2022
3920 Clouds 2 1003 13 10000 2.71 185 10:31 06.02.2022
3921 Clouds 2 1006 16 10000 2.68 171 09:29 06.02.2022
3922 Clouds 2 1006 16 10000 2.68 171 08:41 06.02.2022
3923 Clear -6 1018 44 10000 1.1 189 06:27 06.02.2022
3924 Clear -8 1022 50 10000 0.31 323 04:51 06.02.2022
3925 Clear -16 1035 75 10000 1.32 335 02:25 06.02.2022
3926 Clouds -16 1034 77 10000 1.42 338 00:30 06.02.2022
3927 Clouds -14 1030 83 10000 1.65 337 23:27 05.02.2022
3928 Clouds -13 1028 85 10000 2.22 338 21:43 05.02.2022
3929 Clouds -9 1019 84 10000 2.38 342 20:26 05.02.2022
3930 Clouds -9 1019 84 10000 2.38 342 19:51 05.02.2022
3931 Clouds -9 1019 84 10000 2.38 342 19:33 05.02.2022
3932 Snow -7 1015 83 3464 3.05 354 18:26 05.02.2022
3933 Snow -7 1015 83 3464 3.05 354 17:33 05.02.2022
3934 Clouds -9 1014 69 10000 0.51 306 15:43 05.02.2022
3935 Clouds -9 1012 68 10000 0.87 237 15:25 05.02.2022
3936 Clouds -6 1004 64 10000 1.57 207 13:24 05.02.2022
3937 Snow -5 1004 62 10000 1.4 226 12:42 05.02.2022
3938 Snow -2 1000 39 8787 2.54 230 11:18 05.02.2022
3939 Snow -2 1000 39 8787 2.54 230 10:43 05.02.2022
3940 Snow -2 1000 44 7107 2.03 211 09:49 05.02.2022
3941 Snow -3 1002 60 3606 2.42 226 08:21 05.02.2022
3942 Snow -3 1002 60 3606 2.42 226 08:21 05.02.2022
3943 Snow -3 1003 54 4863 2.87 216 06:58 05.02.2022
3944 Snow -3 1005 49 5847 3.54 190 05:38 05.02.2022
3945 Snow -7 1004 90 10000 2.85 149 01:40 05.02.2022
3946 Snow -5 1002 86 6704 2.7 144 01:18 05.02.2022
3947 Snow -5 1002 90 508 2.22 147 23:59 04.02.2022
3948 Snow -5 1002 90 508 2.22 147 23:33 04.02.2022
3949 Snow -5 1003 83 2169 1.64 146 22:28 04.02.2022
3950 Snow -5 1003 83 2169 1.64 146 21:36 04.02.2022
3951 Clouds -4 1003 76 4138 1.49 150 21:18 04.02.2022
3952 Clouds -4 1004 72 10000 1.19 157 20:21 04.02.2022
3953 Clouds -3 1005 68 10000 1.33 163 18:27 04.02.2022
3954 Clouds -3 1005 63 10000 1.38 174 15:55 04.02.2022
3955 Clouds -3 1004 63 10000 1.81 186 14:56 04.02.2022
3956 Snow -3 1003 63 10000 1.63 189 14:24 04.02.2022
3957 Snow -2 1004 71 7947 2.03 189 12:43 04.02.2022
3958 Snow -2 1003 70 7796 2.15 182 11:43 04.02.2022
3959 Snow -2 1003 61 10000 2.11 179 10:48 04.02.2022
3960 Clouds -1 1004 41 10000 1.96 183 08:50 04.02.2022
3961 Clouds -1 1009 36 10000 2.78 179 06:58 04.02.2022
3962 Clouds -6 1014 58 10000 1.52 142 02:51 04.02.2022
3963 Clouds -8 1016 72 10000 2.11 168 01:56 04.02.2022
3964 Clouds -7 1013 71 10000 2.54 170 23:32 03.02.2022
3965 Clouds -7 1012 69 10000 2.65 168 22:48 03.02.2022
3966 Clouds -6 1011 65 10000 2.68 169 21:50 03.02.2022
3967 Clouds -6 1010 62 10000 2.75 165 20:43 03.02.2022
3968 Clouds -5 1009 58 10000 2.56 168 20:20 03.02.2022
3969 Clouds -5 1009 58 10000 2.56 168 19:34 03.02.2022
3970 Clouds -3 1008 50 10000 2.54 172 18:44 03.02.2022
3971 Clouds -2 1006 44 10000 1.99 171 17:42 03.02.2022
3972 Clouds -1 1005 43 10000 1.46 188 16:39 03.02.2022
3973 Clouds 0 1002 37 10000 2.65 169 14:54 03.02.2022
3974 Clouds 2 998 29 10000 3.32 172 13:18 03.02.2022
3975 Clouds 3 996 23 10000 3.61 175 11:43 03.02.2022
3976 Clouds 4 997 20 10000 2.46 180 08:40 03.02.2022
3977 Clouds 2 1003 29 10000 1.56 177 07:20 03.02.2022
3978 Clouds -8 1009 58 10000 1.34 130 00:33 03.02.2022
3979 Clouds -7 1008 54 10000 1.22 125 23:45 02.02.2022
3980 Clouds -7 1008 51 10000 1.23 99 22:35 02.02.2022
3981 Clouds -6 1007 48 10000 1.04 96 21:37 02.02.2022
3982 Clouds -6 1007 48 10000 1.04 96 21:37 02.02.2022
3983 Clouds -5 1007 43 10000 1.25 86 20:56 02.02.2022
3984 Clouds -4 1007 37 10000 1.2 91 20:00 02.02.2022
3985 Clouds -4 1007 37 10000 1.2 91 19:41 02.02.2022
3986 Clouds -3 1006 32 10000 1.09 72 18:53 02.02.2022
3987 Clouds -3 1007 32 10000 0.82 57 18:22 02.02.2022
3988 Clouds -2 1007 30 10000 1.91 36 17:20 02.02.2022
3989 Clouds -2 1007 30 10000 1.91 36 17:20 02.02.2022
3990 Clouds -2 1007 30 10000 1.91 36 16:46 02.02.2022
3991 Clouds -1 1004 24 10000 3.51 31 14:18 02.02.2022
3992 Clouds 2 999 13 10000 2.78 45 12:26 02.02.2022
3993 Clouds 2 999 13 10000 2.78 45 11:40 02.02.2022
3994 Clouds 3 999 10 10000 1.83 82 10:38 02.02.2022
3995 Clouds 2 1003 11 10000 0.42 52 07:42 02.02.2022
3996 Clouds -10 1018 64 10000 2.38 7 00:34 02.02.2022
3997 Clouds -9 1012 65 10000 2.38 345 21:59 01.02.2022
3998 Clouds -8 1010 67 10000 1.97 351 20:49 01.02.2022
3999 Clouds -6 1007 68 10000 2.59 346 18:35 01.02.2022
4000 Clouds -3 1003 60 10000 3.08 3 16:43 01.02.2022
4001 Clouds -2 1001 56 10000 2.82 9 15:30 01.02.2022
4002 Clouds -1 994 41 10000 1.47 19 12:49 01.02.2022
4003 Clouds 0 994 37 10000 1.91 9 11:48 01.02.2022
4004 Clouds 2 992 27 10000 0.24 202 08:34 01.02.2022
4005 Clouds -9 1004 77 10000 1.28 102 23:54 31.01.2022
4006 Clouds -9 1004 77 10000 1.28 102 23:54 31.01.2022
4007 Clouds -9 1004 77 10000 1.28 102 23:36 31.01.2022
4008 Clouds -9 1004 77 10000 1.28 102 23:36 31.01.2022
4009 Clouds -8 1003 72 10000 1.17 94 22:27 31.01.2022
4010 Clouds -8 1003 72 10000 1.17 94 21:34 31.01.2022
4011 Clouds -7 1002 63 10000 1.36 81 20:34 31.01.2022
4012 Clouds -7 1002 63 10000 1.36 81 19:46 31.01.2022
4013 Clouds -5 1001 54 10000 1.16 70 18:31 31.01.2022
4014 Clouds -5 1001 54 10000 1.16 70 18:31 31.01.2022
4015 Clouds -5 1001 54 10000 1.16 70 18:31 31.01.2022
4016 Clouds -4 1001 51 10000 0.92 75 17:53 31.01.2022
4017 Clouds -2 1000 41 10000 1.26 63 16:58 31.01.2022
4018 Clouds -3 999 41 10000 1.02 62 15:46 31.01.2022
4019 Clouds 0 995 22 10000 1.5 87 14:27 31.01.2022
4020 Clouds 1 993 15 10000 0.61 216 12:55 31.01.2022
4021 Clouds 4 992 11 10000 2.57 251 11:59 31.01.2022
4022 Clouds 5 991 10 10000 1.27 221 10:58 31.01.2022
4023 Clouds 5 991 10 10000 1.27 221 10:37 31.01.2022
4024 Clouds 5 993 10 10000 1.08 179 09:34 31.01.2022
4025 Clouds 4 995 12 10000 1.03 145 08:53 31.01.2022
4026 Clouds 3 998 14 10000 0.72 126 08:20 31.01.2022
4027 Clouds 2 1002 17 10000 0.88 112 06:53 31.01.2022
4028 Clouds -2 1009 25 10000 0.78 84 05:24 31.01.2022
4029 Clouds -9 1012 51 10000 1.53 35 23:30 30.01.2022
4030 Clouds -9 1012 48 10000 1.57 32 22:30 30.01.2022
4031 Clouds -8 1012 47 10000 1.58 30 21:44 30.01.2022
4032 Clouds -8 1012 47 10000 1.58 30 21:44 30.01.2022
4033 Clouds -8 1012 47 10000 1.58 30 21:44 30.01.2022
4034 Clouds -8 1012 46 10000 1.94 22 21:22 30.01.2022
4035 Clouds -8 1012 48 10000 1.85 30 20:50 30.01.2022
4036 Clouds -8 1012 48 10000 1.85 30 20:30 30.01.2022
4037 Clouds -7 1012 47 10000 2.13 34 19:54 30.01.2022
4038 Clouds -7 1012 47 10000 2.47 27 18:51 30.01.2022
4039 Clouds -6 1011 46 10000 2.55 21 18:21 30.01.2022
4040 Clouds -6 1011 46 10000 2.55 21 17:30 30.01.2022
4041 Clouds -6 1011 44 10000 2.86 19 16:42 30.01.2022
4042 Clouds -5 1010 42 10000 3.03 22 16:22 30.01.2022
4043 Clouds -5 1010 42 10000 3.03 22 16:22 30.01.2022
4044 Clouds -5 1010 42 10000 3.03 22 15:54 30.01.2022
4045 Clouds -5 1010 42 10000 3.03 22 15:54 30.01.2022
4046 Clouds -5 1010 42 10000 3.03 22 15:32 30.01.2022
4047 Clouds -4 1009 38 10000 3.59 27 14:47 30.01.2022
4048 Clouds -3 1007 31 10000 4.18 25 13:44 30.01.2022
4049 Clouds -2 1004 41 10000 4.1 36 12:44 30.01.2022
4050 Clouds 3 998 17 10000 3.77 39 10:39 30.01.2022
4051 Clouds 4 998 13 10000 2.38 44 09:58 30.01.2022
4052 Clouds 4 999 13 10000 1.62 65 09:21 30.01.2022
4053 Clouds 3 1001 14 10000 1.39 61 07:58 30.01.2022
4054 Clouds -5 1011 32 10000 1.62 30 02:44 30.01.2022
4055 Clouds -7 1011 39 10000 1.77 26 01:52 30.01.2022
4056 Clouds -6 1009 39 10000 2.25 23 23:46 29.01.2022
4057 Clouds -6 1009 39 10000 1.76 34 22:50 29.01.2022
4058 Clouds -5 1008 37 10000 2.45 21 21:29 29.01.2022
4059 Clouds -5 1008 37 10000 2.45 21 20:53 29.01.2022
4060 Clouds -4 1008 36 10000 1.95 27 19:51 29.01.2022
4061 Clouds -4 1008 36 10000 1.95 27 19:30 29.01.2022
4062 Clouds -6 1009 40 10000 1.88 35 18:43 29.01.2022
4063 Clouds -6 1009 40 10000 2.07 19 17:54 29.01.2022
4064 Clear -6 1009 38 10000 2.21 23 16:44 29.01.2022
4065 Clear -4 1007 28 10000 3.38 15 15:25 29.01.2022
4066 Clear -3 1004 22 10000 2.88 28 13:48 29.01.2022
4067 Clouds -2 1002 16 10000 2.73 47 13:27 29.01.2022
4068 Clouds -2 1002 16 10000 2.73 47 12:52 29.01.2022
4069 Clouds 2 1000 11 10000 2.22 51 11:39 29.01.2022
4070 Clouds 4 999 8 10000 1.51 104 10:32 29.01.2022
4071 Clear 2 1007 12 10000 0.94 145 07:57 29.01.2022
4072 Clear -13 1029 53 10000 1.51 9 01:39 29.01.2022
4073 Clear -13 1028 54 10000 1.72 9 00:31 29.01.2022
4074 Clear -12 1026 57 10000 1.81 6 23:29 28.01.2022
4075 Clear -12 1026 57 10000 1.81 6 22:46 28.01.2022
4076 Clear -11 1026 58 10000 1.87 8 22:19 28.01.2022
4077 Clear -11 1025 59 10000 1.9 12 20:41 28.01.2022
4078 Clear -10 1024 60 10000 2.03 14 19:56 28.01.2022
4079 Clouds -10 1023 60 10000 2 17 18:52 28.01.2022
4080 Clouds -9 1022 60 10000 2.07 9 17:52 28.01.2022
4081 Clouds -8 1020 64 10000 2.12 353 15:50 28.01.2022
4082 Clouds -7 1018 62 10000 2.01 7 14:46 28.01.2022
4083 Clouds -4 1012 47 10000 3 47 12:41 28.01.2022
4084 Clouds -3 1010 33 10000 3.78 22 11:43 28.01.2022
4085 Clouds -2 1008 29 10000 1.94 28 10:26 28.01.2022
4086 Clouds -2 1008 29 10000 1.94 28 09:46 28.01.2022
4087 Clouds -2 1009 25 10000 0.44 315 07:41 28.01.2022
4088 Clouds -4 1013 39 10000 0.94 353 05:31 28.01.2022
4089 Clouds -7 1017 61 10000 1.07 3 03:50 28.01.2022
4090 Clouds -11 1018 77 10000 1.43 353 02:24 28.01.2022
4091 Clouds -11 1018 77 10000 1.43 353 01:36 28.01.2022
4092 Clouds -11 1017 74 10000 1.5 352 00:39 28.01.2022
4093 Clouds -10 1014 65 10000 0.91 18 22:18 27.01.2022
4094 Clouds -10 1014 65 10000 0.91 18 21:34 27.01.2022
4095 Clouds -10 1013 59 10000 0.61 64 20:58 27.01.2022
4096 Clouds -9 1012 53 10000 0.56 99 19:37 27.01.2022
4097 Clouds -8 1010 43 10000 1.36 169 18:18 27.01.2022
4098 Clouds -7 1009 38 10000 1.9 179 16:45 27.01.2022
4099 Clouds -4 1005 22 10000 2.87 190 13:48 27.01.2022
4100 Clouds -3 1002 18 10000 2.83 198 12:48 27.01.2022
4101 Clouds 0 1000 12 10000 3.2 201 11:24 27.01.2022
4102 Clouds 0 1000 14 10000 3.61 201 09:47 27.01.2022
4103 Clouds 0 1001 16 10000 3.44 201 08:39 27.01.2022
4104 Clouds -2 1005 22 10000 3.22 199 07:23 27.01.2022
4105 Clouds -7 1011 54 10000 2.31 178 02:59 27.01.2022
4106 Clouds -7 1008 67 10000 2.38 178 00:23 27.01.2022
4107 Clouds -6 1007 61 10000 2.6 176 22:27 26.01.2022
4108 Clouds -6 1007 61 10000 2.6 176 21:42 26.01.2022
4109 Clouds -6 1007 55 10000 2.91 173 20:42 26.01.2022
4110 Clouds -6 1006 52 10000 2.95 170 20:24 26.01.2022
4111 Clouds -6 1006 52 10000 2.95 170 19:30 26.01.2022
4112 Clouds -6 1007 52 10000 2.86 170 18:46 26.01.2022
4113 Clouds -6 1006 51 10000 3.08 171 17:53 26.01.2022
4114 Clouds -6 1006 51 10000 3.08 171 17:32 26.01.2022
4115 Clouds -5 1005 46 10000 3.51 168 16:46 26.01.2022
4116 Clouds -4 1004 39 10000 3.69 171 15:50 26.01.2022
4117 Clouds -3 1002 34 10000 3.17 180 14:30 26.01.2022
4118 Clouds 0 997 32 10000 2.1 160 11:59 26.01.2022
4119 Clouds 0 997 28 10000 2.35 175 10:49 26.01.2022
4120 Clouds 1 997 25 10000 2.69 189 09:50 26.01.2022
4121 Clouds 1 998 24 10000 2.98 188 08:46 26.01.2022
4122 Clouds -2 1005 33 10000 2.68 187 06:27 26.01.2022
4123 Clouds -2 1005 33 10000 2.68 187 06:27 26.01.2022
4124 Clouds -2 1005 33 10000 2.68 187 06:27 26.01.2022
4125 Clouds -2 1005 33 10000 2.68 187 06:27 26.01.2022
4126 Clouds -8 1010 73 10000 2.36 174 00:21 26.01.2022
4127 Clouds -8 1010 73 10000 2.36 174 23:34 25.01.2022
4128 Clouds -8 1009 71 10000 2.65 175 22:48 25.01.2022
4129 Clouds -8 1009 69 10000 2.71 177 22:18 25.01.2022
4130 Clouds -7 1008 66 10000 3.06 177 21:23 25.01.2022
4131 Clouds -7 1008 66 10000 3.06 177 20:45 25.01.2022
4132 Clouds -6 1008 63 10000 3.29 176 19:54 25.01.2022
4133 Clouds -6 1007 59 10000 3.21 176 18:50 25.01.2022
4134 Clouds -5 1006 55 10000 3.26 173 17:47 25.01.2022
4135 Clouds -4 1005 50 10000 3.1 167 17:18 25.01.2022
4136 Clouds -4 1005 50 10000 3.1 167 16:34 25.01.2022
4137 Clouds -2 1004 44 10000 3.32 169 15:39 25.01.2022
4138 Clouds -2 1003 41 10000 3.3 163 14:58 25.01.2022
4139 Clouds -2 1003 41 10000 3.3 163 14:38 25.01.2022
4140 Clouds 2 997 25 10000 2.45 179 11:52 25.01.2022
4141 Clouds 2 999 24 10000 2.57 194 09:21 25.01.2022
4142 Clouds 1 1001 26 10000 2.43 194 07:46 25.01.2022
4143 Clouds 0 1004 31 10000 2.14 193 06:54 25.01.2022
4144 Clouds -3 1009 46 10000 1.38 179 05:23 25.01.2022
4145 Clouds -8 1011 71 10000 2.02 184 00:28 25.01.2022
4146 Clouds -8 1011 71 10000 2.02 184 23:36 24.01.2022
4147 Clouds -8 1010 69 10000 2.19 184 23:18 24.01.2022
4148 Clouds -8 1010 69 10000 2.19 184 23:18 24.01.2022
4149 Clouds -8 1010 69 10000 2.19 184 22:42 24.01.2022
4150 Clouds -7 1009 66 10000 2.45 179 21:57 24.01.2022
4151 Clouds -7 1009 66 10000 2.45 179 21:32 24.01.2022
4152 Clouds -7 1009 62 10000 2.68 184 20:38 24.01.2022
4153 Clouds -6 1008 58 10000 2.91 181 20:20 24.01.2022
4154 Clouds -6 1008 58 10000 2.91 181 19:38 24.01.2022
4155 Clouds -6 1008 53 10000 2.81 177 18:37 24.01.2022
4156 Clouds -4 1006 41 10000 3.04 176 17:24 24.01.2022
4157 Clouds -4 1006 41 10000 3.04 176 16:58 24.01.2022
4158 Clouds -4 1006 41 10000 3.04 176 16:58 24.01.2022
4159 Clouds -4 1006 41 10000 3.04 176 16:58 24.01.2022
4160 Clouds -4 1006 41 10000 3.04 176 16:30 24.01.2022
4161 Clouds -3 1004 32 10000 2.62 182 14:54 24.01.2022
4162 Clouds -2 1002 30 10000 2.33 183 13:38 24.01.2022
4163 Clouds -3 1001 27 10000 1.92 174 12:32 24.01.2022
4164 Clouds 2 999 19 10000 2.64 195 11:21 24.01.2022
4165 Clouds 2 1000 19 10000 3.07 201 09:50 24.01.2022
4166 Clouds 2 1001 20 10000 3.26 201 09:25 24.01.2022
4167 Clouds 1 1002 23 10000 2.94 199 07:40 24.01.2022
4168 Clouds -9 1013 74 10000 1.61 198 01:38 24.01.2022
4169 Clouds -9 1012 73 10000 1.58 188 00:47 24.01.2022
4170 Clouds -8 1010 71 10000 1.88 184 00:29 24.01.2022
4171 Clouds -8 1010 69 10000 2.29 186 22:46 23.01.2022
4172 Clouds -7 1009 68 10000 2.19 180 21:52 23.01.2022
4173 Clouds -7 1009 65 10000 2.58 177 21:27 23.01.2022
4174 Clouds -7 1009 65 10000 2.58 177 20:55 23.01.2022
4175 Clouds -6 1008 62 10000 2.88 176 20:21 23.01.2022
4176 Clouds -5 1008 59 10000 3.01 174 18:53 23.01.2022
4177 Clouds -5 1007 57 10000 2.96 175 17:56 23.01.2022
4178 Clouds -4 1006 53 10000 2.78 176 16:55 23.01.2022
4179 Clouds -2 1005 48 10000 2.49 178 15:46 23.01.2022
4180 Clouds -2 1004 42 10000 2.62 178 14:48 23.01.2022
4181 Clouds -1 1002 39 10000 2.56 162 14:18 23.01.2022
4182 Clouds -1 1000 36 10000 1.85 151 12:44 23.01.2022
4183 Clouds 1 998 29 10000 1.12 187 12:19 23.01.2022
4184 Clouds 3 997 24 10000 1.5 191 11:25 23.01.2022
4185 Clouds 3 997 24 10000 1.5 191 10:57 23.01.2022
4186 Clouds 3 997 24 10000 1.86 201 10:25 23.01.2022
4187 Clouds 3 997 24 10000 1.86 201 09:31 23.01.2022
4188 Clouds 2 999 26 10000 1.87 200 08:33 23.01.2022
4189 Clouds -4 1009 51 10000 0.86 175 03:34 23.01.2022
4190 Clouds -9 1010 77 10000 0.95 128 01:37 23.01.2022
4191 Clouds -9 1008 76 10000 1.22 126 00:47 23.01.2022
4192 Clouds -8 1007 73 10000 1.32 132 23:59 22.01.2022
4193 Clouds -8 1007 74 10000 0.93 132 22:53 22.01.2022
4194 Clear -8 1006 73 10000 0.95 100 22:19 22.01.2022
4195 Clear -8 1006 70 10000 0.86 104 20:33 22.01.2022
4196 Clear -7 1006 66 10000 1.12 103 19:46 22.01.2022
4197 Clouds -6 1006 62 10000 1.01 102 18:38 22.01.2022
4198 Clouds -5 1005 57 10000 1.14 97 17:49 22.01.2022
4199 Clouds -5 1005 51 10000 1.3 111 17:29 22.01.2022
4200 Clouds -5 1005 51 10000 1.3 111 16:54 22.01.2022
4201 Clouds -4 1003 43 10000 1.6 125 15:45 22.01.2022
4202 Clouds -3 1001 37 10000 1.42 131 14:55 22.01.2022
4203 Clouds -1 999 30 10000 1.19 144 13:31 22.01.2022
4204 Clouds -1 998 27 10000 0.82 160 12:40 22.01.2022
4205 Clouds 1 997 28 10000 1.19 181 12:20 22.01.2022
4206 Clouds 2 997 25 10000 1.81 187 10:55 22.01.2022
4207 Clouds 2 997 25 10000 1.86 186 10:26 22.01.2022
4208 Clouds 2 998 26 10000 1.9 192 09:25 22.01.2022
4209 Clouds 2 998 26 10000 1.9 192 08:50 22.01.2022
4210 Clouds 0 1003 36 10000 1.16 197 06:56 22.01.2022
4211 Clouds -7 1009 61 10000 0.79 148 03:26 22.01.2022
4212 Clouds -9 1009 77 10000 1.07 168 00:31 22.01.2022
4213 Clouds -8 1007 73 10000 1.97 173 23:21 21.01.2022
4214 Clouds -8 1007 70 10000 2.32 175 22:19 21.01.2022
4215 Clouds -7 1006 63 10000 2.43 172 19:52 21.01.2022
4216 Clouds -6 1006 56 10000 2.63 168 18:23 21.01.2022
4217 Clouds -5 1005 53 10000 2.46 175 16:58 21.01.2022
4218 Clouds -4 1003 46 10000 2.71 172 15:26 21.01.2022
4219 Clouds -3 1000 37 10000 1.6 188 12:53 21.01.2022
4220 Clouds 0 999 31 10000 1.14 201 12:26 21.01.2022
4221 Clouds 2 998 25 10000 2.07 204 11:26 21.01.2022
4222 Clouds 2 999 25 10000 2.47 199 09:34 21.01.2022
4223 Clouds 1 1002 30 10000 2.59 196 08:21 21.01.2022
4224 Clouds -3 1009 49 10000 1.89 195 04:37 21.01.2022
4225 Clouds -8 1010 80 10000 1.73 198 23:19 20.01.2022
4226 Clouds -7 1009 79 10000 1.9 186 21:50 20.01.2022
4227 Clouds -7 1009 79 10000 1.9 186 21:31 20.01.2022
4228 Snow -5 1007 76 10000 2.13 170 20:21 20.01.2022
4229 Snow -4 1006 77 10000 2.06 169 19:19 20.01.2022
4230 Snow -3 1006 70 10000 2.27 180 17:46 20.01.2022
4231 Snow -3 1005 73 9431 2.45 177 16:40 20.01.2022
4232 Snow -3 1004 77 5783 2.33 185 15:40 20.01.2022
4233 Snow -2 1004 72 8015 2.43 196 14:40 20.01.2022
4234 Clouds -2 1002 64 10000 2.53 193 13:32 20.01.2022
4235 Clouds 0 1000 42 10000 2.11 188 12:31 20.01.2022
4236 Clouds 1 998 32 10000 1.68 199 11:36 20.01.2022
4237 Clouds 2 997 25 10000 1.92 201 10:37 20.01.2022
4238 Clouds 3 998 23 10000 2.22 198 09:29 20.01.2022
4239 Clouds 1 1003 30 10000 1.64 198 07:24 20.01.2022
4240 Clouds -9 1012 52 10000 1.15 31 00:43 20.01.2022
4241 Clouds -7 1009 76 10000 0.49 74 22:52 19.01.2022
4242 Clouds -7 1009 78 10000 0.65 11 21:45 19.01.2022
4243 Clouds -5 1009 68 10000 0.71 97 21:22 19.01.2022
4244 Clouds -5 1009 68 10000 0.71 97 20:46 19.01.2022
4245 Clouds -5 1010 68 10000 1.08 168 19:42 19.01.2022
4246 Clouds -5 1011 68 10000 1.12 130 17:55 19.01.2022
4247 Clouds -5 1011 68 10000 1.12 130 17:35 19.01.2022
4248 Clouds -3 1010 59 10000 0.69 63 16:27 19.01.2022
4249 Clouds -2 1009 54 10000 0.68 39 14:42 19.01.2022
4250 Clouds -2 1006 50 10000 0.19 359 12:41 19.01.2022
4251 Clouds 0 1006 41 10000 1.28 238 11:39 19.01.2022
4252 Clouds 1 1006 42 10000 1.63 206 10:20 19.01.2022
4253 Clouds 1 1006 42 10000 1.63 206 09:33 19.01.2022
4254 Clouds 1 1010 34 10000 2.6 205 06:35 19.01.2022
4255 Clouds -5 1017 52 10000 1.54 178 02:38 19.01.2022
4256 Clouds -6 1014 60 10000 2.52 165 23:19 18.01.2022
4257 Clouds -6 1013 61 10000 2.47 163 22:18 18.01.2022
4258 Clouds -6 1013 61 10000 2.64 165 20:55 18.01.2022
4259 Clouds -5 1012 58 10000 2.71 169 19:54 18.01.2022
4260 Clouds -5 1012 58 10000 2.71 169 19:36 18.01.2022
4261 Clouds -3 1012 51 10000 2.21 172 18:38 18.01.2022
4262 Clouds -2 1012 44 10000 1.84 176 17:57 18.01.2022
4263 Clouds -2 1011 38 10000 1.9 169 16:38 18.01.2022
4264 Clouds -2 1010 30 10000 1.67 152 15:40 18.01.2022
4265 Clouds -1 1009 21 10000 1.33 143 15:20 18.01.2022
4266 Clouds -1 1007 24 10000 1.1 168 12:30 18.01.2022
4267 Clouds 2 1006 16 10000 0.39 110 10:46 18.01.2022
4268 Clouds 3 1007 15 10000 0.56 137 08:49 18.01.2022
4269 Clear 2 1009 16 10000 0.47 130 07:46 18.01.2022
4270 Clouds -5 1021 36 10000 1.1 36 02:32 18.01.2022
4271 Clear -7 1020 35 10000 1.11 32 23:22 17.01.2022
4272 Clear -6 1020 33 10000 1.2 37 22:23 17.01.2022
4273 Clear -6 1020 33 10000 1.2 37 21:33 17.01.2022
4274 Clear -5 1020 27 10000 1.16 34 19:57 17.01.2022
4275 Clouds -4 1021 22 10000 0.99 25 18:29 17.01.2022
4276 Clouds -3 1020 19 10000 0.92 32 17:25 17.01.2022
4277 Clouds -3 1020 19 10000 0.92 32 16:35 17.01.2022
4278 Clouds -2 1019 15 10000 1.15 30 15:18 17.01.2022
4279 Clouds -2 1019 15 10000 1.15 30 14:33 17.01.2022
4280 Clouds -3 1017 14 10000 0.71 105 13:20 17.01.2022
4281 Clouds -3 1017 14 10000 0.71 105 12:55 17.01.2022
4282 Clouds -2 1016 12 10000 0.91 92 11:48 17.01.2022
4283 Clouds 1 1016 9 10000 0.75 139 10:21 17.01.2022
4284 Clouds 1 1016 9 10000 0.75 139 09:33 17.01.2022
4285 Clear -2 1024 12 10000 0.21 85 07:23 17.01.2022
4286 Clear -11 1038 28 10000 1.42 29 02:55 17.01.2022
4287 Clear -14 1038 40 10000 1.92 30 00:55 17.01.2022
4288 Clear -12 1035 39 10000 2.05 30 22:18 16.01.2022
4289 Clear -11 1034 39 10000 2 30 20:34 16.01.2022
4290 Clear -11 1032 36 10000 1.94 24 18:51 16.01.2022
4291 Clear -10 1032 36 10000 1.92 24 17:59 16.01.2022
4292 Clear -10 1031 34 10000 2.18 28 16:59 16.01.2022
4293 Clear -9 1030 33 10000 2.19 25 16:29 16.01.2022
4294 Clear -8 1029 31 10000 2.22 31 14:31 16.01.2022
4295 Clear -7 1027 29 10000 2.62 36 13:45 16.01.2022
4296 Clouds -6 1024 23 10000 2.75 45 12:44 16.01.2022
4297 Clouds -3 1022 16 10000 2.27 42 11:40 16.01.2022
4298 Clouds -1 1021 12 10000 1.62 40 10:46 16.01.2022
4299 Clouds -1 1021 12 10000 0.99 52 09:59 16.01.2022
4300 Clouds -1 1021 12 10000 0.99 52 09:40 16.01.2022
4301 Clouds -2 1021 14 10000 0.93 62 09:22 16.01.2022
4302 Clear -3 1025 18 10000 1.22 32 07:25 16.01.2022
4303 Clouds -12 1035 61 10000 2.64 2 00:38 16.01.2022
4304 Clouds -12 1033 62 10000 2.79 1 23:34 15.01.2022
4305 Clouds -9 1028 57 10000 3.2 0 21:23 15.01.2022
4306 Clouds -9 1028 57 10000 3.2 0 20:56 15.01.2022
4307 Clouds -9 1028 57 10000 3.2 0 20:38 15.01.2022
4308 Clouds -7 1024 55 10000 3.37 355 19:28 15.01.2022
4309 Clouds -6 1024 54 10000 3.07 356 18:31 15.01.2022
4310 Clouds -5 1022 58 10000 3.75 9 16:52 15.01.2022
4311 Snow -5 1020 63 10000 4.19 8 15:39 15.01.2022
4312 Clouds -4 1016 57 10000 3.69 20 13:39 15.01.2022
4313 Clouds 0 1009 31 10000 1.09 357 11:46 15.01.2022
4314 Clouds 2 1007 24 10000 1.46 289 10:24 15.01.2022
4315 Clouds -2 1016 44 10000 1.34 190 05:27 15.01.2022
4316 Clouds -9 1015 71 10000 1.29 146 23:49 14.01.2022
4317 Clear -8 1014 65 10000 1.65 184 21:37 14.01.2022
4318 Clear -7 1014 59 10000 1.96 188 20:37 14.01.2022
4319 Clear -7 1014 51 10000 2.34 185 19:57 14.01.2022
4320 Clear -6 1013 46 10000 2.35 187 18:46 14.01.2022
4321 Clear -5 1013 41 10000 2.53 190 17:54 14.01.2022
4322 Clear -5 1012 36 10000 2.52 183 16:47 14.01.2022
4323 Clear -4 1011 32 10000 2.09 196 15:33 14.01.2022
4324 Clouds -4 1010 27 10000 1.85 201 14:30 14.01.2022
4325 Clear -2 1005 17 10000 2.59 244 13:27 14.01.2022
4326 Clear 1 1003 21 10000 2.1 211 12:20 14.01.2022
4327 Clear 4 1003 16 10000 2.79 200 10:47 14.01.2022
4328 Clear 3 1005 19 10000 3.33 184 08:54 14.01.2022
4329 Clear 3 1007 21 10000 3.44 196 07:56 14.01.2022
4330 Clear -2 1015 44 10000 1.58 183 03:50 14.01.2022
4331 Clear -6 1015 53 10000 1.59 169 00:44 14.01.2022
4332 Clear -5 1014 42 10000 1.67 174 21:57 13.01.2022
4333 Clear -5 1014 42 10000 1.67 174 21:30 13.01.2022
4334 Clear -5 1013 37 10000 1.78 172 20:54 13.01.2022
4335 Clear -5 1013 34 10000 1.96 174 19:32 13.01.2022
4336 Clouds -4 1012 31 10000 2.09 182 18:51 13.01.2022
4337 Clouds -3 1011 24 10000 2.13 184 17:23 13.01.2022
4338 Clouds -3 1011 23 10000 1.95 187 16:18 13.01.2022
4339 Clouds -3 1011 23 10000 1.95 187 15:31 13.01.2022
4340 Clouds -3 1009 24 10000 1.76 212 13:47 13.01.2022
4341 Clouds 0 1005 16 10000 2.4 198 12:20 13.01.2022
4342 Clouds 2 1005 12 10000 2.58 217 09:38 13.01.2022
4343 Clouds 2 1006 14 10000 2.64 225 08:54 13.01.2022
4344 Clouds 1 1008 17 10000 2.9 230 08:24 13.01.2022
4345 Clouds 0 1010 19 10000 3 223 07:21 13.01.2022
4346 Clouds 0 1012 24 10000 2.8 208 05:57 13.01.2022
4347 Clouds -1 1014 30 10000 2.37 210 05:18 13.01.2022
4348 Clouds -6 1014 57 10000 1.49 209 01:49 13.01.2022
4349 Clouds -5 1012 50 10000 1.46 221 00:40 13.01.2022
4350 Clouds -5 1011 50 10000 1.71 212 23:45 12.01.2022
4351 Clouds -5 1011 53 10000 1.7 209 22:57 12.01.2022
4352 Clouds -5 1011 52 10000 1.61 208 21:56 12.01.2022
4353 Clouds -5 1011 52 10000 1.81 210 21:21 12.01.2022
4354 Clouds -5 1011 52 10000 1.81 210 20:56 12.01.2022
4355 Clouds -5 1011 51 10000 2.06 205 19:35 12.01.2022
4356 Clouds -3 1011 40 10000 2.1 195 18:29 12.01.2022
4357 Clouds -3 1011 34 10000 2.25 229 16:59 12.01.2022
4358 Clouds -3 1010 32 10000 1.95 235 16:26 12.01.2022
4359 Clouds -3 1009 27 10000 2.17 233 14:48 12.01.2022
4360 Clouds -1 1006 36 10000 1.89 155 12:58 12.01.2022
4361 Clouds 2 1004 29 10000 3.32 157 10:38 12.01.2022
4362 Clouds 4 1003 17 9915 5.15 201 08:37 12.01.2022
4363 Clouds 3 1005 18 10000 4.25 192 07:49 12.01.2022
4364 Clouds 3 1005 18 10000 4.25 192 07:31 12.01.2022
4365 Clouds -3 1011 54 10000 2.38 186 23:40 11.01.2022
4366 Clouds -3 1011 53 10000 2.32 178 22:49 11.01.2022
4367 Clouds -3 1012 51 10000 2.66 180 22:22 11.01.2022
4368 Clouds -3 1012 49 10000 2.54 186 20:54 11.01.2022
4369 Clouds -3 1012 45 10000 2.64 185 19:50 11.01.2022
4370 Clouds -2 1012 38 10000 2.79 182 18:31 11.01.2022
4371 Clouds -1 1011 28 10000 2.55 187 17:24 11.01.2022
4372 Clouds -1 1011 28 10000 2.55 187 16:37 11.01.2022
4373 Clouds 0 1011 24 10000 2.61 200 15:39 11.01.2022
4374 Clouds 0 1010 20 10000 2.43 214 14:42 11.01.2022
4375 Clouds 0 1008 16 10000 2.81 216 13:55 11.01.2022
4376 Clouds 0 1008 16 10000 2.81 216 13:35 11.01.2022
4377 Clouds 0 1007 17 10000 2.25 208 12:48 11.01.2022
4378 Clear 2 1005 16 10000 1.76 206 11:45 11.01.2022
4379 Clear 5 1005 14 10000 2.71 189 09:39 11.01.2022
4380 Clouds 3 1011 26 10000 2.81 186 07:18 11.01.2022
4381 Clear -5 1016 68 10000 1.65 199 00:33 11.01.2022
4382 Clear -5 1015 66 10000 1.46 206 23:44 10.01.2022
4383 Clear -4 1014 64 10000 1.72 204 23:24 10.01.2022
4384 Clear -4 1014 60 10000 1.9 202 22:19 10.01.2022
4385 Clear -4 1014 60 10000 1.9 202 22:19 10.01.2022
4386 Clear -4 1014 60 10000 1.9 202 21:54 10.01.2022
4387 Clear -4 1014 57 10000 1.92 197 21:21 10.01.2022
4388 Clear -4 1014 57 10000 1.92 197 20:57 10.01.2022
4389 Clear -3 1014 51 10000 2.28 198 20:28 10.01.2022
4390 Clear -3 1014 51 10000 2.28 198 19:44 10.01.2022
4391 Clouds -3 1013 46 10000 2.21 199 19:21 10.01.2022
4392 Clouds -3 1013 46 10000 2.21 199 18:50 10.01.2022
4393 Clouds -2 1013 42 10000 2.28 200 17:56 10.01.2022
4394 Clouds -1 1013 38 10000 2.29 206 16:42 10.01.2022
4395 Clouds -1 1012 34 10000 2.17 215 15:49 10.01.2022
4396 Clouds 0 1010 31 10000 2.15 220 14:34 10.01.2022
4397 Clouds 4 1005 24 10000 2.51 234 12:18 10.01.2022
4398 Clouds 6 1003 21 10000 3.29 221 11:25 10.01.2022
4399 Clouds 6 1003 22 10000 2.7 204 09:53 10.01.2022
4400 Clouds 6 1006 31 10000 3.18 177 08:22 10.01.2022
4401 Clouds 3 1011 44 10000 1.5 182 05:50 10.01.2022
4402 Clouds -3 1015 69 10000 0.66 85 01:33 10.01.2022
4403 Clouds -3 1013 63 10000 1.03 64 00:29 10.01.2022
4404 Clouds -3 1013 63 10000 1.03 64 23:43 09.01.2022
4405 Clouds -3 1013 60 10000 1.18 53 22:42 09.01.2022
4406 Clouds -3 1013 60 10000 0.97 22 21:47 09.01.2022
4407 Clouds -2 1013 55 10000 1.34 63 21:24 09.01.2022
4408 Clouds -2 1013 55 10000 1.34 63 21:24 09.01.2022
4409 Clouds -2 1013 55 10000 1.34 63 20:54 09.01.2022
4410 Clouds -2 1013 55 10000 1.34 63 20:36 09.01.2022
4411 Clouds -2 1013 53 10000 1.21 43 20:18 09.01.2022
4412 Clouds -2 1013 53 10000 1.21 43 19:36 09.01.2022
4413 Clouds -2 1013 50 10000 1.2 66 19:18 09.01.2022
4414 Clouds -2 1013 50 10000 1.21 63 18:37 09.01.2022
4415 Clouds -1 1012 44 10000 0.92 60 17:48 09.01.2022
4416 Clouds -1 1012 39 10000 0.69 76 17:25 09.01.2022
4417 Clouds -1 1012 39 10000 0.69 76 16:34 09.01.2022
4418 Clouds 0 1011 30 10000 0.78 291 15:37 09.01.2022
4419 Clouds 0 1009 25 10000 0.98 226 14:41 09.01.2022
4420 Clear 0 1008 23 10000 1.26 264 14:21 09.01.2022
4421 Clear 0 1008 23 10000 1.26 264 13:41 09.01.2022
4422 Clouds 4 1005 22 10000 2.22 255 11:56 09.01.2022
4423 Clouds 6 1003 17 10000 2.7 250 11:24 09.01.2022
4424 Clouds 7 1003 18 10000 2.69 234 09:53 09.01.2022
4425 Clouds 7 1004 20 10000 2.83 214 08:56 09.01.2022
4426 Clouds 4 1011 39 10000 2.44 197 06:21 09.01.2022
4427 Clouds -4 1014 62 10000 1.17 177 01:28 09.01.2022
4428 Clouds -4 1014 64 10000 1.23 187 00:37 09.01.2022
4429 Clouds -4 1013 63 10000 1.26 179 23:30 08.01.2022
4430 Clouds -3 1013 60 10000 1.23 181 22:44 08.01.2022
4431 Clouds -2 1013 53 10000 1.01 164 21:27 08.01.2022
4432 Clouds -2 1013 53 10000 1.01 164 20:43 08.01.2022
4433 Clouds -2 1013 51 10000 0.68 166 20:21 08.01.2022
4434 Clouds -1 1013 43 10000 0.7 62 19:22 08.01.2022
4435 Clouds 1 1014 31 10000 1.48 51 17:25 08.01.2022
4436 Clouds 1 1014 31 10000 1.48 51 16:42 08.01.2022
4437 Clouds 1 1013 31 10000 2.2 40 15:28 08.01.2022
4438 Clouds 2 1012 27 10000 2.15 48 13:57 08.01.2022
4439 Clouds 4 1010 30 10000 2.39 55 11:31 08.01.2022
4440 Clouds 6 1008 24 10000 1.67 85 10:33 08.01.2022
4441 Clouds 6 1009 23 10000 1.13 114 09:57 08.01.2022
4442 Clouds 6 1009 23 10000 1.13 114 09:33 08.01.2022
4443 Clouds 4 1016 36 10000 0.31 97 05:51 08.01.2022
4444 Clouds -4 1020 69 10000 0.73 36 01:41 08.01.2022
4445 Clouds -3 1018 65 10000 1.04 24 23:31 07.01.2022
4446 Clouds -3 1018 60 10000 1.48 14 21:49 07.01.2022
4447 Clouds -3 1017 57 10000 1.32 17 20:32 07.01.2022
4448 Clouds -2 1015 45 10000 1.07 16 19:27 07.01.2022
4449 Clouds -2 1015 45 10000 1.07 16 19:27 07.01.2022
4450 Clouds -2 1015 45 10000 1.07 16 18:49 07.01.2022
4451 Clouds -2 1015 43 10000 1.08 350 18:21 07.01.2022
4452 Clouds 0 1015 38 10000 1.67 340 17:24 07.01.2022
4453 Clear 0 1012 34 10000 1.05 331 14:56 07.01.2022
4454 Clear 1 1011 32 10000 1.61 313 13:52 07.01.2022
4455 Clouds 1 1010 30 10000 1.4 290 12:51 07.01.2022
4456 Clouds 8 1005 18 10000 3.11 277 11:28 07.01.2022
4457 Clouds 3 1016 34 10000 0.57 144 04:54 07.01.2022
4458 Clouds 0 1017 45 10000 0.52 99 02:53 07.01.2022
4459 Clouds -3 1017 52 10000 0.34 59 01:49 07.01.2022
4460 Clouds -3 1016 52 10000 0.76 43 01:26 07.01.2022
4461 Clouds -3 1016 57 10000 0.67 75 00:31 07.01.2022
4462 Clouds -3 1015 55 10000 0.45 331 22:33 06.01.2022
4463 Clouds -3 1014 52 10000 0.74 68 20:51 06.01.2022
4464 Clear -3 1013 46 10000 1.06 76 20:18 06.01.2022
4465 Clear -3 1013 46 10000 1.06 76 19:38 06.01.2022
4466 Clouds -1 1012 37 10000 0.37 224 17:52 06.01.2022
4467 Clouds 0 1011 31 10000 0.34 212 17:28 06.01.2022
4468 Clouds 0 1011 31 10000 0.34 212 16:38 06.01.2022
4469 Clouds 1 1011 26 10000 1.64 254 15:44 06.01.2022
4470 Clouds 1 1009 25 10000 2.09 251 15:23 06.01.2022
4471 Clouds 1 1007 23 10000 2 256 14:20 06.01.2022
4472 Clouds 1 1007 23 10000 2 256 13:41 06.01.2022
4473 Clouds 2 1007 32 10000 1.79 194 12:32 06.01.2022
4474 Clouds 3 1005 29 10000 1.52 195 11:41 06.01.2022
4475 Clouds 7 1003 22 10000 2.34 219 11:19 06.01.2022
4476 Clouds 4 1009 23 10000 1.33 186 06:59 06.01.2022
4477 Clouds -4 1015 37 10000 0.9 21 00:39 06.01.2022
4478 Clouds -4 1014 36 10000 0.84 38 23:35 05.01.2022
4479 Clouds -4 1014 36 10000 0.84 38 23:35 05.01.2022
4480 Clouds -3 1014 36 10000 0.37 9 22:50 05.01.2022
4481 Clouds -3 1014 35 10000 0.91 29 22:29 05.01.2022
4482 Clouds -3 1014 35 10000 0.91 29 21:45 05.01.2022
4483 Clouds -2 1014 32 10000 0.32 24 20:45 05.01.2022
4484 Clouds -2 1013 32 10000 0.83 32 19:53 05.01.2022
4485 Clouds -1 1013 29 10000 0.84 96 18:27 05.01.2022
4486 Clouds -1 1014 29 10000 0.83 125 16:59 05.01.2022
4487 Clouds 0 1013 28 10000 1.41 140 16:24 05.01.2022
4488 Clouds 0 1012 29 10000 1.07 153 15:20 05.01.2022
4489 Clouds 0 1012 27 10000 1.04 152 13:38 05.01.2022
4490 Clouds 3 1008 22 10000 1.44 135 12:49 05.01.2022
4491 Clouds 8 1006 14 10000 1.36 182 08:58 05.01.2022
4492 Clouds 7 1008 15 10000 0.9 165 07:34 05.01.2022
4493 Clouds 0 1017 31 10000 1.14 206 03:32 05.01.2022
4494 Clouds -4 1016 41 10000 0.05 275 00:33 05.01.2022
4495 Clouds -3 1014 38 10000 1.39 174 23:26 04.01.2022
4496 Clouds -3 1015 37 10000 0.76 169 22:27 04.01.2022
4497 Clouds -2 1015 34 10000 0.47 126 20:50 04.01.2022
4498 Clouds -2 1016 31 10000 0.44 114 19:19 04.01.2022
4499 Clouds -2 1016 31 10000 0.7 58 17:38 04.01.2022
4500 Clouds -1 1016 29 10000 0.69 44 16:41 04.01.2022
4501 Clouds -1 1016 28 10000 0.92 102 16:22 04.01.2022
4502 Clear -1 1015 27 10000 0.95 53 14:52 04.01.2022
4503 Clear -1 1015 27 10000 0.95 53 14:34 04.01.2022
4504 Clouds 1 1012 24 10000 0.73 76 13:26 04.01.2022
4505 Clouds 2 1012 18 10000 0.64 170 10:40 04.01.2022
4506 Clouds 2 1013 18 10000 0.76 190 09:20 04.01.2022
4507 Clouds 1 1015 19 10000 0.93 208 08:25 04.01.2022
4508 Clear -10 1029 48 10000 0.62 360 01:51 04.01.2022
4509 Clouds -9 1028 49 10000 0.34 22 00:40 04.01.2022
4510 Clouds -9 1026 49 10000 0.55 325 22:51 03.01.2022
4511 Clouds -8 1026 50 10000 0.57 325 21:50 03.01.2022
4512 Clouds -8 1025 50 10000 0.68 313 21:24 03.01.2022
4513 Clouds -8 1024 50 10000 0.79 273 19:47 03.01.2022
4514 Clouds -7 1023 51 10000 0.56 306 18:34 03.01.2022
4515 Clouds -7 1023 51 10000 0.66 302 17:40 03.01.2022
4516 Clouds -6 1023 51 10000 0.71 289 16:58 03.01.2022
4517 Clouds -6 1021 45 10000 2.39 303 14:56 03.01.2022
4518 Clouds -6 1021 45 10000 2.39 303 14:30 03.01.2022
4519 Clouds -4 1015 32 10000 2.67 290 12:39 03.01.2022
4520 Clouds -3 1013 29 10000 2.67 312 11:34 03.01.2022
4521 Snow 1 1010 29 10000 4.44 301 10:26 03.01.2022
4522 Rain 2 1009 24 7338 3.43 275 08:47 03.01.2022
4523 Rain 1 1010 29 10000 2.33 226 07:34 03.01.2022
4524 Clouds -5 1014 49 10000 0.94 167 23:55 02.01.2022
4525 Clouds -6 1014 48 10000 1.03 189 23:20 02.01.2022
4526 Clouds -6 1014 48 10000 1.03 189 22:43 02.01.2022
4527 Clouds -6 1014 50 10000 0.83 169 21:39 02.01.2022
4528 Clouds -6 1015 46 10000 1.39 175 20:33 02.01.2022
4529 Clouds -6 1015 40 10000 1.66 179 19:54 02.01.2022
4530 Clouds -6 1016 35 10000 1.86 185 19:29 02.01.2022
4531 Clouds -6 1016 35 10000 1.86 185 18:44 02.01.2022
4532 Clear -5 1016 32 10000 2.02 190 17:43 02.01.2022
4533 Clear -4 1016 26 10000 1.78 193 17:22 02.01.2022
4534 Clear -4 1016 26 10000 1.78 193 16:59 02.01.2022
4535 Clear -4 1016 22 10000 1.45 207 16:24 02.01.2022
4536 Clear -3 1014 18 10000 2.24 237 14:22 02.01.2022
4537 Clouds -2 1013 17 10000 2.17 242 12:49 02.01.2022
4538 Clouds 0 1011 20 10000 1.95 227 11:57 02.01.2022
4539 Clouds 3 1009 13 10000 2.92 220 11:23 02.01.2022
4540 Clouds 3 1009 13 10000 2.92 220 10:45 02.01.2022
4541 Clouds 3 1011 15 10000 2.65 193 08:46 02.01.2022
4542 Clouds -3 1021 37 10000 0.68 216 03:49 02.01.2022
4543 Clouds -7 1023 53 10000 0.15 326 00:58 02.01.2022
4544 Clouds -7 1022 49 10000 0.25 357 23:39 01.01.2022
4545 Clouds -7 1022 49 10000 0.25 357 23:39 01.01.2022
4546 Clouds -7 1022 49 10000 0.23 50 22:55 01.01.2022
4547 Clouds -6 1022 48 10000 0.35 26 22:21 01.01.2022
4548 Clouds -6 1022 48 10000 0.35 26 21:43 01.01.2022
4549 Clouds -6 1022 47 10000 0.52 34 20:53 01.01.2022
4550 Clouds -5 1021 46 10000 0.53 18 19:57 01.01.2022
4551 Clouds -5 1021 44 10000 0.72 35 18:58 01.01.2022
4552 Clouds -5 1022 50 10000 1.28 35 17:58 01.01.2022
4553 Clouds -4 1021 48 10000 1.58 28 16:37 01.01.2022
4554 Clouds -4 1020 44 10000 1.85 20 16:19 01.01.2022
4555 Clouds -3 1019 39 10000 1.76 23 15:26 01.01.2022
4556 Clouds -3 1018 36 10000 1.61 31 13:46 01.01.2022
4557 Clouds -3 1018 36 10000 1.61 31 13:46 01.01.2022
4558 Clouds -2 1016 35 10000 1.76 22 12:49 01.01.2022
4559 Clouds -1 1015 32 10000 1.31 13 11:56 01.01.2022
4560 Clouds 1 1014 22 10000 0.9 8 11:22 01.01.2022
4561 Clouds 1 1014 20 10000 0.67 22 10:27 01.01.2022
4562 Clouds 1 1014 20 10000 0.67 22 09:45 01.01.2022
4563 Clouds 0 1016 25 10000 0.6 353 08:26 01.01.2022
4564 Clouds 0 1016 25 10000 0.6 353 07:44 01.01.2022
4565 Clouds 0 1018 30 10000 0.28 304 06:47 01.01.2022
4566 Clear -3 1023 36 10000 0.19 2 05:27 01.01.2022
4567 Clear -3 1023 36 10000 0.19 2 04:38 01.01.2022
4568 Clear -9 1029 58 10000 0.58 354 01:59 01.01.2022
4569 Clear -9 1027 56 10000 0.55 350 23:36 31.12.2021
4570 Clouds -8 1026 56 10000 1.06 357 21:53 31.12.2021
4571 Clouds -8 1025 55 10000 1.12 15 20:38 31.12.2021
4572 Clouds -7 1025 55 10000 1.16 12 19:30 31.12.2021
4573 Clear -7 1024 53 10000 1.34 13 18:41 31.12.2021
4574 Clear -6 1024 52 10000 1.18 10 17:43 31.12.2021
4575 Clear -6 1023 49 10000 1.4 19 17:19 31.12.2021
4576 Clear -6 1023 49 10000 1.4 19 16:38 31.12.2021
4577 Clear -5 1023 47 10000 1.18 6 15:57 31.12.2021
4578 Clear -5 1021 43 10000 0.88 8 15:29 31.12.2021
4579 Clear -5 1021 43 10000 0.88 8 15:29 31.12.2021
4580 Clear -5 1021 43 10000 0.88 8 14:57 31.12.2021
4581 Clear -5 1021 43 10000 0.88 8 14:30 31.12.2021
4582 Clear -4 1020 41 10000 0.48 288 13:37 31.12.2021
4583 Clouds -4 1018 40 10000 0.46 297 12:49 31.12.2021
4584 Clouds -3 1016 37 10000 0.2 311 11:52 31.12.2021
4585 Clouds -3 1016 37 10000 0.2 311 11:33 31.12.2021
4586 Clouds 1 1015 24 10000 0.34 229 10:38 31.12.2021
4587 Clouds 1 1015 24 10000 0.34 229 10:38 31.12.2021
4588 Clouds 1 1015 24 10000 0.34 229 10:38 31.12.2021
4589 Clouds 1 1015 24 10000 0.34 229 10:38 31.12.2021
4590 Clouds 1 1015 23 10000 0.63 248 10:20 31.12.2021
4591 Clouds 1 1015 23 10000 0.63 248 09:33 31.12.2021
4592 Clouds 1 1016 24 10000 0.69 248 08:47 31.12.2021
4593 Clear 0 1017 27 10000 0.94 241 07:32 31.12.2021
4594 Clouds -9 1025 69 10000 0.06 287 23:36 30.12.2021
4595 Clouds -8 1024 67 10000 0.15 297 22:38 30.12.2021
4596 Clouds -8 1024 67 10000 0.38 238 22:20 30.12.2021
4597 Clouds -8 1024 67 10000 0.38 238 21:37 30.12.2021
4598 Clear -8 1023 66 10000 0.77 221 20:48 30.12.2021
4599 Clear -7 1022 65 10000 1.03 206 20:28 30.12.2021
4600 Clear -7 1022 65 10000 1.03 206 19:48 30.12.2021
4601 Clouds -7 1022 64 10000 1.08 205 19:18 30.12.2021
4602 Clouds -6 1022 60 10000 1.18 207 18:21 30.12.2021
4603 Clouds -6 1021 56 10000 1.47 203 16:37 30.12.2021
4604 Clouds -5 1020 53 10000 1.73 215 15:53 30.12.2021
4605 Clouds -4 1018 51 10000 2.09 242 14:49 30.12.2021
4606 Clouds -4 1018 51 10000 2.09 242 14:30 30.12.2021
4607 Snow -1 1013 50 10000 1.75 244 13:24 30.12.2021
4608 Clouds 0 1010 38 10000 1.14 233 11:35 30.12.2021
4609 Clouds 2 1009 29 10000 1.52 185 10:27 30.12.2021
4610 Clouds 2 1010 37 10000 2.2 150 09:27 30.12.2021
4611 Clouds 0 1014 46 10000 2.31 193 06:56 30.12.2021
4612 Clouds -1 1018 49 10000 2.51 179 04:42 30.12.2021
4613 Clouds -2 1019 57 10000 2.17 184 03:40 30.12.2021
4614 Clouds -6 1020 79 10000 1.94 189 01:56 30.12.2021
4615 Clouds -6 1019 79 10000 2.3 173 23:37 29.12.2021
4616 Clouds -6 1018 78 10000 1.93 184 22:33 29.12.2021
4617 Clouds -6 1018 76 10000 2.09 184 21:55 29.12.2021
4618 Clouds -5 1017 74 10000 2.39 178 20:56 29.12.2021
4619 Clouds -5 1017 71 10000 2.6 175 20:26 29.12.2021
4620 Clouds -5 1017 71 10000 2.6 175 19:31 29.12.2021
4621 Clouds -4 1016 71 10000 2.45 174 18:35 29.12.2021
4622 Clouds -4 1016 71 10000 2.39 170 17:41 29.12.2021
4623 Clouds -3 1016 71 10000 2.27 170 17:20 29.12.2021
4624 Clouds -3 1015 75 10000 2.32 164 16:21 29.12.2021
4625 Clouds -3 1015 78 10000 1.4 148 15:21 29.12.2021
4626 Clouds -3 1013 80 10000 1.01 67 12:57 29.12.2021
4627 Clouds -2 1013 81 10000 0.76 117 12:33 29.12.2021
4628 Snow -1 1012 81 1857 1.29 222 11:23 29.12.2021
4629 Snow -1 1012 74 1712 2.48 245 09:30 29.12.2021
4630 Clouds 1 1010 40 10000 2.56 197 07:45 29.12.2021
4631 Clouds 1 1011 39 10000 2.51 179 06:33 29.12.2021
4632 Clouds 0 1014 44 10000 1.77 186 05:56 29.12.2021
4633 Clouds -1 1016 50 10000 1.36 183 04:58 29.12.2021
4634 Clouds -4 1016 55 10000 1.75 158 00:45 29.12.2021
4635 Clouds -4 1015 56 10000 1.74 167 23:58 28.12.2021
4636 Clouds -4 1015 56 10000 2.15 166 22:57 28.12.2021
4637 Clouds -4 1015 54 10000 2.5 171 22:25 28.12.2021
4638 Clouds -4 1015 54 10000 2.5 171 21:54 28.12.2021
4639 Clouds -4 1015 54 10000 2.5 171 21:35 28.12.2021
4640 Clouds -3 1015 46 10000 2.61 178 20:25 28.12.2021
4641 Clouds -2 1014 45 10000 2.7 173 18:54 28.12.2021
4642 Clouds -2 1014 42 10000 2.75 176 18:28 28.12.2021
4643 Clouds -2 1014 42 10000 2.75 176 17:39 28.12.2021
4644 Clouds -1 1013 37 10000 2.89 181 16:21 28.12.2021
4645 Clouds -1 1013 37 10000 2.89 181 15:41 28.12.2021
4646 Clouds -1 1012 35 10000 2.66 186 14:57 28.12.2021
4647 Clouds -1 1012 35 10000 2.66 186 14:38 28.12.2021
4648 Clear -1 1011 34 10000 2.57 186 14:20 28.12.2021
4649 Clear -1 1011 34 10000 2.57 186 13:38 28.12.2021
4650 Clouds -1 1009 31 10000 2.75 182 12:56 28.12.2021
4651 Clouds -1 1007 28 10000 2.42 178 12:29 28.12.2021
4652 Clouds 3 1006 20 10000 2.66 169 10:52 28.12.2021
4653 Clouds 3 1010 22 10000 2.64 181 07:39 28.12.2021
4654 Clouds 2 1013 30 10000 2.05 184 06:40 28.12.2021
4655 Clouds -7 1017 70 10000 2.04 182 23:42 27.12.2021
4656 Clouds -7 1017 68 10000 2.07 184 22:53 27.12.2021
4657 Clouds -6 1016 66 10000 2.12 185 21:33 27.12.2021
4658 Clouds -6 1015 64 10000 2.12 184 20:45 27.12.2021
4659 Clouds -6 1015 62 10000 2.18 173 19:57 27.12.2021
4660 Clouds -6 1015 62 10000 2.18 173 19:39 27.12.2021
4661 Clouds -5 1014 62 10000 1.95 195 17:55 27.12.2021
4662 Clouds -5 1014 62 10000 1.95 195 17:37 27.12.2021
4663 Clouds -4 1014 62 10000 2.41 180 16:36 27.12.2021
4664 Clouds -3 1013 61 10000 2.42 180 15:51 27.12.2021
4665 Clouds -4 1012 62 10000 2.3 182 14:30 27.12.2021
4666 Clouds -3 1011 58 10000 2.37 173 13:38 27.12.2021
4667 Clouds 0 1007 41 10000 3.6 171 11:53 27.12.2021
4668 Clouds 2 1005 29 10000 3.57 178 10:29 27.12.2021
4669 Clouds 2 1005 29 10000 3.57 178 09:39 27.12.2021
4670 Clouds 2 1007 31 10000 2.25 191 07:35 27.12.2021
4671 Clouds 1 1009 35 10000 2.93 192 06:38 27.12.2021
4672 Clouds -6 1016 70 10000 1.51 195 01:59 27.12.2021
4673 Clouds -7 1014 75 10000 1.11 177 23:57 26.12.2021
4674 Clouds -7 1014 75 10000 1.11 177 23:34 26.12.2021
4675 Clouds -5 1014 59 10000 0.8 182 21:59 26.12.2021
4676 Clouds -4 1014 55 10000 1.38 189 20:54 26.12.2021
4677 Clouds -5 1014 55 10000 1.22 190 19:46 26.12.2021
4678 Clouds -4 1014 50 10000 1.44 164 18:23 26.12.2021
4679 Clouds -4 1013 48 10000 1.17 125 16:20 26.12.2021
4680 Clouds -3 1011 39 10000 0.82 31 14:27 26.12.2021
4681 Clouds -3 1011 39 10000 0.82 31 13:40 26.12.2021
4682 Clouds -3 1010 36 10000 0.48 66 13:19 26.12.2021
4683 Clouds -3 1010 37 10000 0.5 138 12:32 26.12.2021
4684 Clouds 0 1008 28 10000 1.53 163 10:34 26.12.2021
4685 Clouds 0 1009 28 10000 2.09 205 09:21 26.12.2021
4686 Clouds 0 1009 28 10000 2.09 205 08:44 26.12.2021
4687 Clouds 0 1010 28 10000 2.77 202 07:49 26.12.2021
4688 Clouds -9 1019 87 10000 1.61 186 01:27 26.12.2021
4689 Clouds -9 1018 87 10000 1.7 185 23:54 25.12.2021
4690 Clouds -9 1017 86 10000 1.83 186 23:27 25.12.2021
4691 Clouds -8 1017 85 10000 1.97 184 22:26 25.12.2021
4692 Clouds -8 1016 83 10000 2.14 180 20:59 25.12.2021
4693 Clouds -6 1015 75 10000 2.25 178 19:26 25.12.2021
4694 Clouds -6 1015 75 10000 2.25 178 18:55 25.12.2021
4695 Clouds -5 1015 75 10000 2.53 186 17:38 25.12.2021
4696 Clouds -6 1015 77 10000 2.8 201 16:41 25.12.2021
4697 Clouds -4 1012 61 10000 2.69 195 15:24 25.12.2021
4698 Clouds -3 1011 51 10000 3 180 13:41 25.12.2021
4699 Clouds -1 1008 33 10000 2.81 202 11:53 25.12.2021
4700 Clouds 0 1007 28 10000 2.71 214 10:18 25.12.2021
4701 Clouds 0 1007 28 10000 2.71 214 09:42 25.12.2021
4702 Clouds -2 1013 39 10000 2.77 185 04:36 25.12.2021
4703 Clouds -6 1013 62 10000 2.25 172 01:27 25.12.2021
4704 Clouds -6 1012 61 10000 2.16 172 23:48 24.12.2021
4705 Clouds -4 1012 56 10000 2.23 171 20:53 24.12.2021
4706 Clouds -4 1011 53 10000 2.57 174 19:25 24.12.2021
4707 Clouds -4 1011 49 10000 2.82 176 18:23 24.12.2021
4708 Clouds -3 1011 44 10000 2.83 177 16:40 24.12.2021
4709 Clouds -2 1010 39 10000 2.84 182 15:49 24.12.2021
4710 Clouds -2 1009 33 10000 2.57 194 15:20 24.12.2021
4711 Clouds -2 1009 33 10000 2.57 194 14:31 24.12.2021
4712 Clouds 0 1008 28 10000 2.02 195 13:45 24.12.2021
4713 Clouds -1 1008 23 10000 2.15 189 12:55 24.12.2021
4714 Clouds -1 1008 23 10000 2.15 189 12:35 24.12.2021
4715 Clouds -2 1007 22 10000 1.89 192 11:42 24.12.2021
4716 Clouds 1 1006 17 10000 2.09 186 11:19 24.12.2021
4717 Clouds 1 1006 17 10000 2.09 186 10:33 24.12.2021
4718 Clouds 1 1007 14 10000 2.89 194 08:40 24.12.2021
4719 Clouds 1 1008 14 10000 2.87 200 07:58 24.12.2021
4720 Clouds 0 1010 15 10000 2.39 199 06:44 24.12.2021
4721 Clouds -7 1015 28 10000 0.87 166 00:21 24.12.2021
4722 Clouds -7 1015 28 10000 0.87 166 23:49 23.12.2021
4723 Clouds -7 1014 27 10000 0.93 104 22:51 23.12.2021
4724 Clouds -7 1015 25 10000 0.9 101 22:24 23.12.2021
4725 Clouds -7 1015 25 10000 0.9 101 21:39 23.12.2021
4726 Clouds -6 1015 23 10000 0.93 131 20:30 23.12.2021
4727 Clouds -5 1016 22 10000 0.89 152 19:28 23.12.2021
4728 Clouds -5 1016 21 10000 0.86 173 18:18 23.12.2021
4729 Clouds -5 1017 21 10000 1.2 133 17:29 23.12.2021
4730 Clouds -4 1016 21 10000 1.02 128 16:26 23.12.2021
4731 Clouds -4 1016 21 10000 1.02 128 15:33 23.12.2021
4732 Clouds -4 1016 20 10000 1.01 126 14:59 23.12.2021
4733 Clouds -4 1016 20 10000 1.01 126 14:39 23.12.2021
4734 Clouds -3 1015 19 10000 1.2 135 13:31 23.12.2021
4735 Clear -4 1013 15 10000 1.61 135 11:49 23.12.2021
4736 Clear -2 1014 20 10000 0.2 307 09:53 23.12.2021
4737 Clear -2 1014 20 10000 0.2 307 09:34 23.12.2021
4738 Clear -2 1016 23 10000 1.08 305 08:28 23.12.2021
4739 Clear -4 1021 33 10000 1.11 354 05:39 23.12.2021
4740 Clear -13 1032 74 10000 2 10 01:31 23.12.2021
4741 Clouds -11 1027 75 10000 2.22 7 22:53 22.12.2021
4742 Clouds -11 1026 76 10000 2.14 6 22:19 22.12.2021
4743 Clouds -11 1026 76 10000 2.14 6 21:36 22.12.2021
4744 Clouds -10 1025 77 10000 2.06 0 21:18 22.12.2021
4745 Clouds -10 1025 77 10000 2.06 0 20:40 22.12.2021
4746 Clouds -10 1024 77 10000 2.26 5 19:54 22.12.2021
4747 Clouds -9 1023 78 10000 2.38 360 18:55 22.12.2021
4748 Clouds -9 1023 79 10000 2.35 358 18:55 22.12.2021
4749 Clouds -8 1022 79 10000 2.57 349 17:38 22.12.2021
4750 Snow -5 1017 77 10000 2.44 2 16:25 22.12.2021
4751 Snow -4 1015 80 6167 2.42 7 14:33 22.12.2021
4752 Snow -3 1012 64 10000 2.02 350 12:55 22.12.2021
4753 Clouds -3 1009 53 10000 1.13 268 11:48 22.12.2021
4754 Clouds 0 1008 39 10000 2.02 233 09:52 22.12.2021
4755 Clouds 0 1008 39 10000 2.33 235 08:34 22.12.2021
4756 Clouds -1 1013 45 10000 2.67 203 05:56 22.12.2021
4757 Clouds -1 1013 45 10000 2.67 203 05:37 22.12.2021
4758 Clouds -2 1015 51 10000 2.53 190 05:19 22.12.2021
4759 Clouds -2 1015 51 10000 2.53 190 04:40 22.12.2021
4760 Snow -3 1016 55 10000 2.48 184 03:53 22.12.2021
4761 Snow -3 1016 55 10000 2.48 184 03:31 22.12.2021
4762 Clouds -4 1011 58 10000 2.38 180 23:49 21.12.2021
4763 Clouds -3 1011 53 10000 2.44 178 22:41 21.12.2021
4764 Clouds -3 1011 46 10000 2.46 173 21:58 21.12.2021
4765 Clouds -3 1011 46 10000 2.46 173 21:33 21.12.2021
4766 Clouds -2 1011 39 10000 2.54 170 20:44 21.12.2021
4767 Clouds -2 1011 33 10000 2.54 169 20:20 21.12.2021
4768 Clouds -2 1011 33 10000 2.54 169 20:20 21.12.2021
4769 Clouds -2 1011 33 10000 2.54 169 19:40 21.12.2021
4770 Clouds -3 1011 30 10000 2.51 166 18:33 21.12.2021
4771 Clouds -3 1011 24 10000 2.26 169 17:59 21.12.2021
4772 Clouds -3 1011 24 10000 2.26 169 17:40 21.12.2021
4773 Clouds -2 1011 17 10000 1.64 166 15:46 21.12.2021
4774 Clouds -2 1010 17 10000 0.59 125 14:29 21.12.2021
4775 Clouds -2 1010 17 10000 0.59 125 13:42 21.12.2021
4776 Clouds -2 1009 18 10000 0.38 352 12:39 21.12.2021
4777 Clouds 3 1008 12 10000 0.67 208 10:52 21.12.2021
4778 Clear 3 1008 11 10000 1.12 202 09:56 21.12.2021
4779 Clear 3 1009 12 10000 1.25 201 08:57 21.12.2021
4780 Clear 2 1011 13 10000 1.22 205 07:45 21.12.2021
4781 Clear 1 1014 14 10000 0.78 189 07:23 21.12.2021
4782 Clear -1 1020 18 10000 0.37 134 04:37 21.12.2021
4783 Clear -5 1023 30 10000 0.62 49 02:31 21.12.2021
4784 Clear -8 1021 39 10000 1.06 37 23:55 20.12.2021
4785 Clear -8 1021 36 10000 1.2 36 22:44 20.12.2021
4786 Clear -7 1021 34 10000 1.25 35 22:25 20.12.2021
4787 Clear -7 1021 30 10000 1.11 34 21:27 20.12.2021
4788 Clear -7 1021 30 10000 1.11 34 20:55 20.12.2021
4789 Clear -7 1021 27 10000 0.84 41 20:24 20.12.2021
4790 Clear -7 1021 27 10000 0.84 41 19:38 20.12.2021
4791 Clear -6 1021 25 10000 0.9 52 19:20 20.12.2021
4792 Clear -6 1021 25 10000 0.87 49 18:33 20.12.2021
4793 Clear -6 1021 24 10000 0.89 38 17:51 20.12.2021
4794 Clear -5 1022 23 10000 0.89 29 16:47 20.12.2021
4795 Clear -5 1021 22 10000 0.76 39 16:25 20.12.2021
4796 Clear -5 1021 22 10000 0.76 39 15:40 20.12.2021
4797 Clear -4 1021 22 10000 0.65 67 14:40 20.12.2021
4798 Clear -4 1019 23 10000 0.85 110 12:41 20.12.2021
4799 Clear 0 1017 15 10000 0.58 57 10:51 20.12.2021
4800 Clear 0 1017 16 10000 0.37 46 09:44 20.12.2021
4801 Clear 0 1018 17 10000 0.3 29 08:56 20.12.2021
4802 Clear 0 1018 17 10000 0.3 29 08:38 20.12.2021
4803 Clear 0 1020 19 10000 0.42 9 07:44 20.12.2021
4804 Clear -1 1022 24 10000 0.68 4 06:39 20.12.2021
4805 Clear -9 1031 56 10000 2.27 29 01:33 20.12.2021
4806 Clear -9 1028 56 10000 2.51 27 23:37 19.12.2021
4807 Clear -8 1027 55 10000 2.52 27 22:44 19.12.2021
4808 Clear -8 1027 55 10000 2.6 24 21:44 19.12.2021
4809 Clear -7 1026 55 10000 2.79 22 21:25 19.12.2021
4810 Clear -7 1025 55 10000 3.02 21 20:24 19.12.2021
4811 Clear -7 1025 55 10000 3.02 21 19:43 19.12.2021
4812 Clear -7 1024 56 10000 3.22 21 18:50 19.12.2021
4813 Clear -6 1024 55 10000 3.44 18 18:20 19.12.2021
4814 Clear -6 1024 55 10000 3.44 18 17:45 19.12.2021
4815 Clear -5 1023 53 10000 3.39 18 16:45 19.12.2021
4816 Clear -5 1023 53 10000 3.39 18 16:45 19.12.2021
4817 Clear -5 1021 47 10000 3.37 9 15:56 19.12.2021
4818 Clear -4 1019 36 10000 3.17 354 15:25 19.12.2021
4819 Clear -4 1019 36 10000 3.17 354 14:48 19.12.2021
4820 Clear -3 1016 24 10000 2.35 338 13:38 19.12.2021
4821 Clouds -2 1012 18 10000 1.25 290 12:59 19.12.2021
4822 Clouds -2 1012 18 10000 1.25 290 12:32 19.12.2021
4823 Clouds -1 1010 17 10000 1.09 212 11:39 19.12.2021
4824 Clouds 3 1010 12 10000 1.4 201 10:51 19.12.2021
4825 Clouds 3 1010 14 10000 2.08 199 10:23 19.12.2021
4826 Clouds 3 1011 16 10000 2.9 195 08:55 19.12.2021
4827 Clear 3 1013 19 10000 3 197 06:54 19.12.2021
4828 Clear -3 1018 32 10000 1.83 179 02:30 19.12.2021
4829 Clear -5 1016 43 10000 2.27 184 00:55 19.12.2021
4830 Clear -4 1013 43 10000 2.62 179 23:21 18.12.2021
4831 Clear -4 1013 43 10000 2.66 180 22:29 18.12.2021
4832 Clear -4 1013 43 10000 2.66 180 21:51 18.12.2021
4833 Clear -4 1013 43 10000 2.66 180 21:30 18.12.2021
4834 Clear -3 1012 43 10000 2.81 180 20:43 18.12.2021
4835 Clear -3 1012 43 10000 2.81 180 20:43 18.12.2021
4836 Clear -3 1012 41 10000 3.08 180 19:50 18.12.2021
4837 Clear -2 1011 34 10000 3.14 175 18:26 18.12.2021
4838 Clear -2 1011 34 10000 3.14 175 17:49 18.12.2021
4839 Clear -1 1010 31 10000 3.07 171 16:55 18.12.2021
4840 Clear -1 1009 26 10000 3.16 177 16:21 18.12.2021
4841 Clear 0 1008 22 10000 2.72 187 15:25 18.12.2021
4842 Clear 1 1007 19 10000 2.88 207 14:19 18.12.2021
4843 Clear 3 1003 15 10000 4.53 219 12:21 18.12.2021
4844 Clear 7 1001 11 10000 7.48 220 10:43 18.12.2021
4845 Clear 9 1000 8 10000 8.66 218 09:32 18.12.2021
4846 Clear 9 1000 8 10000 7.65 219 08:37 18.12.2021
4847 Clear 9 1002 9 10000 6.15 213 07:42 18.12.2021
4848 Clear -3 1014 50 10000 1.92 173 01:48 18.12.2021
4849 Clear -2 1013 52 10000 2.55 172 00:23 18.12.2021
4850 Clear -2 1013 52 10000 2.55 172 23:35 17.12.2021
4851 Clouds -2 1012 49 10000 2.92 174 21:54 17.12.2021
4852 Clouds -1 1012 45 10000 2.88 174 20:50 17.12.2021
4853 Clouds 0 1012 40 10000 2.92 171 20:21 17.12.2021
4854 Clear 0 1011 36 10000 2.71 185 18:50 17.12.2021
4855 Clear 1 1011 34 10000 2.7 184 18:19 17.12.2021
4856 Clear 1 1010 31 10000 2.82 183 17:20 17.12.2021
4857 Clear 2 1009 28 10000 2.86 184 16:29 17.12.2021
4858 Clear 2 1009 28 10000 2.86 184 15:51 17.12.2021
4859 Clear 3 1008 26 10000 2.67 188 14:43 17.12.2021
4860 Clear 4 1006 23 10000 2.49 206 13:56 17.12.2021
4861 Clear 4 1004 20 10000 2.21 205 12:38 17.12.2021
4862 Clear 10 1000 15 10000 2.3 202 10:49 17.12.2021
4863 Clear 11 1000 12 10000 2.98 207 09:51 17.12.2021
4864 Clear 11 1001 13 10000 3.73 215 08:58 17.12.2021
4865 Clear 10 1003 14 10000 3.13 212 08:19 17.12.2021
4866 Clear 4 1013 22 10000 2.35 192 05:21 17.12.2021
4867 Clouds 0 1017 36 10000 1.99 189 02:51 17.12.2021
4868 Clear -2 1015 40 10000 2.24 183 22:50 16.12.2021
4869 Clear -2 1015 37 10000 2.37 184 22:22 16.12.2021
4870 Clear -2 1015 37 10000 2.37 184 21:44 16.12.2021
4871 Clear -1 1015 34 10000 2.81 183 20:48 16.12.2021
4872 Clear -1 1014 30 10000 2.98 188 20:22 16.12.2021
4873 Clear -1 1014 30 10000 2.98 188 19:31 16.12.2021
4874 Clear 0 1014 29 10000 2.73 180 18:36 16.12.2021
4875 Clear 0 1014 26 10000 2.9 181 17:48 16.12.2021
4876 Clear 1 1013 22 10000 2.8 181 16:37 16.12.2021
4877 Clear 2 1012 19 10000 2.4 189 16:18 16.12.2021
4878 Clear 2 1009 15 10000 2.33 209 13:47 16.12.2021
4879 Clear 3 1007 15 10000 2.47 198 12:30 16.12.2021
4880 Clear 9 1004 12 10000 2.66 212 11:19 16.12.2021
4881 Clear 9 1004 12 10000 2.66 212 10:44 16.12.2021
4882 Clear 10 1004 9 10000 3.16 211 09:50 16.12.2021
4883 Clear 8 1009 12 10000 2.05 207 07:18 16.12.2021
4884 Clear 6 1012 17 10000 1.98 189 06:18 16.12.2021
4885 Clear -3 1014 36 10000 1.18 179 23:59 15.12.2021
4886 Clouds -3 1014 34 10000 1.32 188 23:18 15.12.2021
4887 Clouds -2 1013 31 10000 1.57 193 22:21 15.12.2021
4888 Clouds -2 1013 31 10000 1.57 193 22:21 15.12.2021
4889 Clouds -2 1013 31 10000 1.57 193 21:44 15.12.2021
4890 Clouds -2 1013 29 10000 1.75 200 21:24 15.12.2021
4891 Clear -1 1013 27 10000 1.97 195 19:54 15.12.2021
4892 Clouds -1 1012 25 10000 2.2 187 19:19 15.12.2021
4893 Clouds 0 1012 21 10000 1.91 188 18:24 15.12.2021
4894 Clouds 0 1012 21 10000 1.91 188 17:46 15.12.2021
4895 Clouds 1 1011 16 10000 2.23 211 17:21 15.12.2021
4896 Clouds 1 1010 14 10000 2.33 235 15:49 15.12.2021
4897 Clouds 1 1010 14 10000 2.33 235 15:31 15.12.2021
4898 Clouds 2 1010 13 10000 2.38 252 14:59 15.12.2021
4899 Clouds 2 1009 12 10000 2.36 249 13:45 15.12.2021
4900 Clouds 4 1004 11 10000 3.4 258 11:52 15.12.2021
4901 Clouds 9 1001 8 10000 4.52 232 10:22 15.12.2021
4902 Clouds 9 1003 11 10000 3.77 211 08:27 15.12.2021
4903 Clear 7 1009 21 10000 2.95 209 05:54 15.12.2021
4904 Clear -3 1014 62 10000 2.11 189 00:39 15.12.2021
4905 Clear -3 1013 59 10000 2.35 191 23:31 14.12.2021
4906 Clear -2 1013 55 10000 2.31 191 22:45 14.12.2021
4907 Clear -2 1012 49 10000 2.42 190 21:47 14.12.2021
4908 Clear -1 1012 39 10000 2.46 192 20:23 14.12.2021
4909 Clear -1 1012 39 10000 2.46 192 19:37 14.12.2021
4910 Clear -1 1011 30 10000 2.45 192 18:39 14.12.2021
4911 Clear 0 1011 24 10000 2.24 198 17:56 14.12.2021
4912 Clear 1 1011 19 10000 1.98 212 16:48 14.12.2021
4913 Clear 1 1011 19 10000 1.98 212 16:30 14.12.2021
4914 Clear 2 1009 19 10000 2.16 244 14:32 14.12.2021
4915 Clouds 3 1007 20 10000 2.72 264 12:58 14.12.2021
4916 Clouds 5 1005 18 10000 3.18 259 11:44 14.12.2021
4917 Clouds 9 1002 14 10000 5.32 256 11:20 14.12.2021
4918 Clouds 10 1002 12 10000 6.7 250 09:55 14.12.2021
4919 Clear 10 1002 12 10000 6.68 246 09:19 14.12.2021
4920 Clear 10 1003 13 10000 6 243 08:22 14.12.2021
4921 Clear 10 1003 13 10000 6 243 07:39 14.12.2021
4922 Clear -2 1013 48 10000 1.95 177 23:59 13.12.2021
4923 Clear -1 1012 40 10000 1.75 178 22:26 13.12.2021
4924 Clear -1 1012 40 10000 1.75 178 21:44 13.12.2021
4925 Clouds -1 1012 37 10000 1.96 177 20:58 13.12.2021
4926 Clear 0 1012 33 10000 1.92 179 20:26 13.12.2021
4927 Clear 0 1012 33 10000 1.92 179 19:49 13.12.2021
4928 Clouds 0 1012 29 10000 2.32 193 17:55 13.12.2021
4929 Clouds 1 1012 24 10000 2.36 188 17:19 13.12.2021
4930 Clouds 1 1011 21 10000 2.2 190 15:49 13.12.2021
4931 Clouds 2 1011 19 10000 2.12 201 14:55 13.12.2021
4932 Clear 2 1010 19 10000 2.26 203 13:37 13.12.2021
4933 Clouds 2 1009 20 10000 2.31 225 12:41 13.12.2021
4934 Clouds 3 1007 19 10000 2.48 215 11:54 13.12.2021
4935 Clouds 3 1007 19 10000 2.48 215 11:34 13.12.2021
4936 Clouds 7 1005 15 10000 2.9 235 10:41 13.12.2021
4937 Clouds 8 1006 14 10000 2.64 214 08:52 13.12.2021
4938 Clouds 7 1008 16 10000 1.87 187 07:37 13.12.2021
4939 Clear 3 1017 23 10000 1.33 179 05:23 13.12.2021
4940 Clouds -5 1018 18 10000 1.44 172 00:42 13.12.2021
4941 Clouds -4 1016 14 10000 0.75 170 21:59 12.12.2021
4942 Clouds -4 1016 14 10000 0.75 170 21:30 12.12.2021
4943 Clouds -3 1017 14 10000 0.39 188 19:38 12.12.2021
4944 Clouds -3 1017 14 10000 0.68 157 18:28 12.12.2021
4945 Clouds -2 1017 14 10000 0.31 151 16:54 12.12.2021
4946 Clouds -2 1017 14 10000 0.76 130 16:26 12.12.2021
4947 Clouds -2 1017 14 10000 0.76 130 15:41 12.12.2021
4948 Clouds -1 1016 15 10000 0.19 171 15:21 12.12.2021
4949 Clouds -1 1016 14 10000 0.33 69 14:28 12.12.2021
4950 Clouds -1 1015 15 10000 0.64 79 12:56 12.12.2021
4951 Clouds -1 1014 15 10000 0.81 82 12:26 12.12.2021
4952 Clouds -1 1014 15 10000 0.81 82 11:43 12.12.2021
4953 Clear 4 1013 9 10000 0.69 109 10:56 12.12.2021
4954 Clear 4 1014 9 10000 0.65 140 10:22 12.12.2021
4955 Clear 4 1015 10 10000 0.56 146 08:54 12.12.2021
4956 Clear 3 1017 11 10000 0.34 165 07:31 12.12.2021
4957 Clear 2 1022 13 10000 0.29 211 05:56 12.12.2021
4958 Clear 0 1024 16 10000 0.14 150 04:55 12.12.2021
4959 Clear -4 1026 27 10000 0.7 48 02:56 12.12.2021
4960 Clear -7 1025 36 10000 1.16 22 23:31 11.12.2021
4961 Clear -7 1025 32 10000 1.35 23 22:22 11.12.2021
4962 Clear -7 1025 32 10000 1.35 23 21:51 11.12.2021
4963 Clear -6 1025 26 10000 1.53 33 20:24 11.12.2021
4964 Clear -5 1025 24 10000 1.54 32 19:21 11.12.2021
4965 Clear -5 1025 24 10000 1.54 32 18:51 11.12.2021
4966 Clear -4 1025 25 10000 1.65 32 18:19 11.12.2021
4967 Clear -4 1024 23 10000 1.71 30 16:59 11.12.2021
4968 Clear -3 1023 22 10000 1.57 33 15:48 11.12.2021
4969 Clear -3 1022 22 10000 1.29 44 15:18 11.12.2021
4970 Clear -2 1019 20 10000 0.86 90 12:49 11.12.2021
4971 Clear 2 1017 14 10000 1.59 134 11:24 11.12.2021
4972 Clear 2 1017 13 10000 1.43 141 09:45 11.12.2021
4973 Clear 2 1020 16 10000 0.68 75 07:49 11.12.2021
4974 Clear -8 1030 58 10000 2.58 18 02:20 11.12.2021
4975 Clouds -7 1027 54 10000 2.91 16 23:50 10.12.2021
4976 Clouds -7 1026 56 10000 3.04 14 23:18 10.12.2021
4977 Clouds -6 1025 57 10000 3.12 13 21:56 10.12.2021
4978 Clouds -5 1024 55 10000 3.15 13 20:57 10.12.2021
4979 Clouds -4 1022 51 10000 3.09 12 19:21 10.12.2021
4980 Clouds -3 1022 49 10000 3.31 8 17:59 10.12.2021
4981 Clouds -2 1019 40 10000 2.8 6 16:56 10.12.2021
4982 Clouds -1 1017 29 10000 1.51 350 16:19 10.12.2021
4983 Clouds -1 1017 29 10000 1.51 350 15:39 10.12.2021
4984 Clear 0 1014 18 10000 0.97 272 15:20 10.12.2021
4985 Clear 0 1012 16 10000 1.96 247 13:51 10.12.2021
4986 Clear 1 1011 14 10000 2.49 254 13:26 10.12.2021
4987 Clear 1 1011 17 10000 2.49 254 12:35 10.12.2021
4988 Clear 6 1007 11 10000 3.11 238 11:28 10.12.2021
4989 Clear 7 1007 12 10000 2.89 221 10:26 10.12.2021
4990 Clear 6 1008 14 10000 2.84 200 08:52 10.12.2021
4991 Clear 4 1014 26 10000 2.77 195 06:22 10.12.2021
4992 Clear 0 1018 43 10000 2.4 181 02:48 10.12.2021
4993 Clear -3 1018 56 10000 2.38 176 00:32 10.12.2021
4994 Clear -2 1016 54 10000 2.44 173 23:20 09.12.2021
4995 Clear -2 1016 52 10000 2.39 181 22:26 09.12.2021
4996 Clear -2 1016 52 10000 2.39 181 21:59 09.12.2021
4997 Clear -1 1016 50 10000 2.52 174 20:44 09.12.2021
4998 Clear 0 1016 45 10000 2.75 178 20:22 09.12.2021
4999 Clear 0 1015 41 10000 2.64 177 19:21 09.12.2021
5000 Clear 0 1016 41 10000 2.69 178 18:46 09.12.2021
5001 Clear 1 1016 37 10000 2.42 182 17:52 09.12.2021
5002 Clear 1 1015 33 10000 2.69 179 17:26 09.12.2021
5003 Clear 1 1015 33 10000 2.69 179 16:54 09.12.2021
5004 Clear 2 1015 29 10000 2.93 178 15:46 09.12.2021
5005 Clear 2 1014 25 10000 2.4 191 14:48 09.12.2021
5006 Clear 4 1011 17 10000 2.86 224 13:23 09.12.2021
5007 Clear 4 1011 17 10000 2.86 224 12:40 09.12.2021
5008 Clouds 10 1006 11 10000 4.11 219 11:24 09.12.2021
5009 Clear 10 1007 13 10000 3.94 208 09:21 09.12.2021
5010 Clear 8 1012 21 10000 3.24 190 06:50 09.12.2021
5011 Clear 3 1018 37 10000 2.37 183 03:41 09.12.2021
5012 Clear -1 1018 54 10000 2.34 183 23:44 08.12.2021
5013 Clear -1 1018 51 10000 2.35 177 23:21 08.12.2021
5014 Clear -1 1018 51 10000 2.35 177 22:48 08.12.2021
5015 Clear -1 1018 47 10000 2.46 180 21:46 08.12.2021
5016 Clear 0 1018 45 10000 2.52 178 21:27 08.12.2021
5017 Clear 0 1017 42 10000 2.53 177 19:59 08.12.2021
5018 Clear 0 1017 42 10000 2.53 177 19:36 08.12.2021
5019 Clear 1 1017 42 10000 2.53 179 18:46 08.12.2021
5020 Clear 1 1017 41 10000 2.12 181 17:37 08.12.2021
5021 Clear 2 1016 37 10000 2.12 184 15:57 08.12.2021
5022 Clear 3 1015 36 10000 2.12 182 15:29 08.12.2021
5023 Clear 3 1015 36 10000 2.12 182 14:40 08.12.2021
5024 Clear 3 1012 34 10000 0.69 161 11:36 08.12.2021
5025 Clear 7 1011 24 10000 1.15 160 10:32 08.12.2021
5026 Clear 7 1013 23 10000 1.98 196 09:25 08.12.2021
5027 Clear 6 1017 25 10000 0.98 213 07:26 08.12.2021
5028 Clear 3 1020 35 10000 0.58 87 04:57 08.12.2021
5029 Clear -3 1022 62 10000 1.8 32 23:34 07.12.2021
5030 Clear -2 1021 60 10000 2.24 28 21:55 07.12.2021
5031 Clear -1 1021 56 10000 2.16 22 21:23 07.12.2021
5032 Clear -1 1020 52 10000 2.05 23 20:24 07.12.2021
5033 Clear 0 1018 51 10000 1.69 20 18:47 07.12.2021
5034 Clear 1 1017 46 10000 1.17 26 17:53 07.12.2021
5035 Clear 2 1016 40 10000 0.65 37 17:20 07.12.2021
5036 Clear 2 1016 40 10000 0.65 37 16:31 07.12.2021
5037 Clear 2 1014 36 10000 0.49 157 15:34 07.12.2021
5038 Clear 4 1011 32 10000 2.02 204 14:23 07.12.2021
5039 Clear 4 1009 34 10000 2.09 201 12:56 07.12.2021
5040 Clear 4 1009 34 10000 2.09 201 12:56 07.12.2021
5041 Clear 5 1008 31 10000 2.04 202 11:52 07.12.2021
5042 Clear 9 1006 23 10000 2.65 197 10:36 07.12.2021
5043 Clear 9 1006 23 10000 3.04 191 08:39 07.12.2021
5044 Clear 6 1013 34 10000 2.3 190 06:20 07.12.2021
5045 Clear 6 1013 34 10000 2.3 190 05:39 07.12.2021
5046 Clear -1 1014 65 10000 2.14 172 23:49 06.12.2021
5047 Clear -1 1013 64 10000 2.29 172 22:58 06.12.2021
5048 Clear -1 1013 64 10000 2.29 172 22:37 06.12.2021
5049 Clear 0 1013 62 10000 2.38 172 21:52 06.12.2021
5050 Clear 0 1012 60 10000 2.63 172 20:40 06.12.2021
5051 Clear 1 1012 57 10000 2.71 171 20:22 06.12.2021
5052 Clear 1 1012 52 10000 2.84 174 19:22 06.12.2021
5053 Clear 2 1011 46 10000 3.2 176 18:29 06.12.2021
5054 Clear 2 1011 46 10000 3.2 176 17:41 06.12.2021
5055 Clear 3 1010 40 10000 3.22 176 16:49 06.12.2021
5056 Clear 4 1009 33 10000 3.03 184 15:41 06.12.2021
5057 Clear 5 1006 22 10000 3.34 200 13:46 06.12.2021
5058 Clear 6 1004 18 10000 4.42 204 12:40 06.12.2021
5059 Clear 8 1002 15 10000 4.86 204 11:48 06.12.2021
5060 Clear 12 1001 15 10000 3.68 203 09:20 06.12.2021
5061 Clear 10 1007 27 10000 1.79 198 06:43 06.12.2021
5062 Clouds 1 1016 69 10000 2.21 173 23:52 05.12.2021
5063 Clouds 2 1015 58 10000 2.5 174 21:52 05.12.2021
5064 Clouds 3 1014 53 10000 2.2 169 21:24 05.12.2021
5065 Clouds 3 1014 49 10000 2.07 175 20:19 05.12.2021
5066 Clouds 3 1014 49 10000 2.07 175 19:36 05.12.2021
5067 Clouds 4 1014 45 10000 1.94 186 19:18 05.12.2021
5068 Clouds 4 1014 42 10000 1.87 190 18:20 05.12.2021
5069 Clouds 4 1014 42 10000 1.87 190 17:49 05.12.2021
5070 Clear 5 1013 39 10000 1.82 184 16:52 05.12.2021
5071 Clear 5 1012 38 10000 1.47 179 16:27 05.12.2021
5072 Clear 5 1012 38 10000 1.47 179 15:58 05.12.2021
5073 Clear 6 1012 37 10000 1.02 183 14:45 05.12.2021
5074 Clear 6 1011 36 10000 0.37 156 14:26 05.12.2021
5075 Clouds 6 1010 35 10000 0.14 240 13:27 05.12.2021
5076 Clouds 6 1010 35 10000 0.15 300 12:40 05.12.2021
5077 Clouds 7 1009 34 10000 0.46 236 12:21 05.12.2021
5078 Clouds 7 1009 34 10000 0.46 236 11:35 05.12.2021
5079 Clouds 12 1009 24 10000 1.44 202 10:19 05.12.2021
5080 Clouds 11 1010 26 10000 1.53 202 08:45 05.12.2021
5081 Clouds 7 1020 45 10000 0.55 176 04:56 05.12.2021
5082 Clear 0 1022 77 10000 1.12 39 01:23 05.12.2021
5083 Clear 2 1021 74 10000 1.66 35 22:24 04.12.2021
5084 Clear 2 1021 73 10000 2.04 28 21:20 04.12.2021
5085 Clear 2 1021 73 10000 2.04 28 20:32 04.12.2021
5086 Clear 2 1021 72 10000 2.09 24 19:33 04.12.2021
5087 Clouds 4 1020 69 10000 2.87 24 18:23 04.12.2021
5088 Clouds 4 1020 69 10000 2.87 24 17:45 04.12.2021
5089 Clouds 4 1019 63 10000 2.89 23 17:20 04.12.2021
5090 Clouds 4 1019 63 10000 2.89 23 16:42 04.12.2021
5091 Clouds 5 1018 55 10000 2.88 17 16:24 04.12.2021
5092 Clouds 9 1008 30 10000 2.1 192 11:56 04.12.2021
5093 Clouds 9 1008 30 10000 2.1 192 11:33 04.12.2021
5094 Clouds 13 1006 23 10000 1.99 195 10:57 04.12.2021
5095 Clouds 13 1007 25 10000 1.97 196 08:53 04.12.2021
5096 Clouds 13 1008 29 10000 1.71 210 08:28 04.12.2021
5097 Clouds 9 1015 47 10000 1.47 200 04:43 04.12.2021
5098 Clouds 3 1016 77 10000 1.5 191 00:49 04.12.2021
5099 Clouds 3 1015 74 10000 2.08 196 23:33 03.12.2021
5100 Clouds 4 1014 72 10000 1.62 199 22:51 03.12.2021
5101 Clouds 4 1014 69 10000 2.11 195 21:54 03.12.2021
5102 Clouds 4 1014 65 10000 1.97 194 21:20 03.12.2021
5103 Clouds 5 1014 59 10000 2.48 190 20:28 03.12.2021
5104 Clouds 6 1013 52 10000 2.61 196 19:21 03.12.2021
5105 Clouds 6 1013 46 10000 2.72 196 18:22 03.12.2021
5106 Clouds 6 1013 46 10000 2.72 196 17:30 03.12.2021
5107 Clouds 9 1008 34 10000 2.2 207 13:35 03.12.2021
5108 Clouds 10 1005 32 10000 1.71 219 12:21 03.12.2021
5109 Clouds 14 1004 24 10000 1.94 194 11:19 03.12.2021
5110 Clouds 15 1005 24 10000 2.61 192 09:21 03.12.2021
5111 Clouds 14 1006 26 10000 2.25 196 07:44 03.12.2021
5112 Clouds 13 1008 29 10000 2.08 196 06:41 03.12.2021
5113 Clouds 3 1015 56 10000 1.75 184 00:49 03.12.2021
5114 Clouds 3 1014 53 10000 1.76 185 23:54 02.12.2021
5115 Clouds 3 1014 53 10000 1.76 185 23:34 02.12.2021
5116 Clouds 4 1012 47 10000 1.68 185 21:41 02.12.2021
5117 Clouds 4 1012 43 10000 1.58 186 20:46 02.12.2021
5118 Clouds 5 1012 41 10000 1.68 198 20:23 02.12.2021
5119 Clouds 5 1012 40 10000 1.34 190 19:23 02.12.2021
5120 Clouds 6 1011 36 10000 1.53 202 17:21 02.12.2021
5121 Clouds 7 1011 35 10000 1.69 211 15:41 02.12.2021
5122 Clouds 7 1011 34 10000 1.59 215 14:57 02.12.2021
5123 Clouds 8 1009 32 10000 1.92 212 13:44 02.12.2021
5124 Clouds 8 1008 32 10000 1.66 216 12:50 02.12.2021
5125 Clouds 9 1006 30 10000 1.59 230 11:53 02.12.2021
5126 Clouds 14 1006 21 10000 2.4 198 09:28 02.12.2021
5127 Clouds 13 1008 21 10000 2.53 202 08:20 02.12.2021
5128 Clouds 2 1017 23 10000 1.18 181 01:58 02.12.2021
5129 Clouds 1 1016 24 10000 0.82 172 00:50 02.12.2021
5130 Clouds 2 1015 21 10000 0.72 148 22:34 01.12.2021
5131 Clouds 2 1015 20 10000 0.9 159 21:55 01.12.2021
5132 Clouds 3 1015 20 10000 0.98 190 20:35 01.12.2021
5133 Clouds 3 1015 20 10000 0.81 162 19:51 01.12.2021
5134 Clouds 3 1015 20 10000 0.31 113 18:57 01.12.2021
5135 Clouds 3 1016 20 10000 0.58 168 17:42 01.12.2021
5136 Clouds 4 1016 21 10000 0.09 95 16:38 01.12.2021
5137 Clouds 5 1015 20 10000 0.5 10 14:49 01.12.2021
5138 Clouds 5 1014 20 10000 0.22 358 13:44 01.12.2021
5139 Clouds 6 1012 19 10000 0.3 286 11:42 01.12.2021
5140 Clouds 11 1011 18 10000 0.26 125 10:42 01.12.2021
5141 Clouds 12 1011 11 10000 0.21 152 08:55 01.12.2021
5142 Clouds 11 1013 11 10000 0.2 176 08:26 01.12.2021
5143 Clouds 11 1013 11 10000 0.2 176 07:33 01.12.2021
5144 Clouds 6 1021 10 10000 0.45 171 04:20 01.12.2021
5145 Clouds 6 1021 10 10000 0.45 171 03:38 01.12.2021
5146 Clouds -1 1020 18 10000 0.19 31 00:51 01.12.2021
5147 Clouds -1 1019 18 10000 0.38 41 23:37 30.11.2021
5148 Clouds -1 1018 18 10000 0.05 17 22:48 30.11.2021
5149 Clouds 0 1017 18 10000 0.42 250 20:59 30.11.2021
5150 Clouds 0 1017 18 10000 0.42 250 20:34 30.11.2021
5151 Clouds 0 1017 18 10000 0.25 259 19:53 30.11.2021
5152 Clouds 1 1017 14 10000 0.43 269 19:27 30.11.2021
5153 Clouds 1 1016 14 10000 0.46 248 18:33 30.11.2021
5154 Clouds 2 1016 13 10000 0.82 213 16:34 30.11.2021
5155 Clouds 3 1015 12 10000 1.6 214 14:35 30.11.2021
5156 Clouds 4 1015 12 10000 1.75 207 13:52 30.11.2021
5157 Clouds 4 1014 12 10000 2.04 189 13:24 30.11.2021
5158 Clouds 4 1014 12 10000 2.04 189 13:24 30.11.2021
5159 Clouds 4 1013 12 10000 2.03 186 12:44 30.11.2021
5160 Clouds 10 1009 12 10000 1.9 172 11:27 30.11.2021
5161 Clouds 10 1009 12 10000 1.9 172 10:47 30.11.2021
5162 Clouds 11 1009 7 10000 2 190 10:29 30.11.2021
5163 Clouds 11 1009 7 10000 1.79 192 08:51 30.11.2021
5164 Clouds 11 1011 8 10000 1.76 198 08:20 30.11.2021
5165 Clouds 11 1011 8 10000 1.76 198 07:40 30.11.2021
5166 Clear -1 1019 16 10000 0.59 353 01:58 30.11.2021
5167 Clear -1 1019 16 10000 0.59 353 01:38 30.11.2021
5168 Clouds -2 1017 20 10000 0.67 356 23:57 29.11.2021
5169 Clouds -1 1016 19 10000 0.85 335 23:22 29.11.2021
5170 Clouds -1 1016 19 10000 0.85 335 22:47 29.11.2021
5171 Clouds -1 1016 19 10000 0.99 329 22:29 29.11.2021
5172 Clouds 0 1016 18 10000 1 337 21:22 29.11.2021
5173 Clouds 0 1016 18 10000 1 337 20:56 29.11.2021
5174 Clouds 0 1016 18 10000 1.43 328 20:23 29.11.2021
5175 Clouds 0 1016 18 10000 1.43 328 19:50 29.11.2021
5176 Clear 1 1015 17 10000 1.01 328 19:27 29.11.2021
5177 Clear 1 1015 17 10000 1.01 328 18:48 29.11.2021
5178 Clear 2 1014 15 10000 1.23 306 17:22 29.11.2021
5179 Clear 2 1014 15 10000 1.23 306 16:57 29.11.2021
5180 Clear 3 1014 14 10000 1.82 284 16:28 29.11.2021
5181 Clear 3 1014 14 10000 1.82 284 15:32 29.11.2021
5182 Clear 3 1013 14 10000 1.74 284 14:42 29.11.2021
5183 Clear 4 1012 14 10000 2 271 13:32 29.11.2021
5184 Clouds 6 1007 13 10000 2.34 215 12:28 29.11.2021
5185 Clouds 6 1007 13 10000 2.34 215 11:34 29.11.2021
5186 Clouds 11 1005 10 10000 2.71 223 10:32 29.11.2021
5187 Clouds 12 1006 10 10000 1.96 209 08:45 29.11.2021
5188 Clear 8 1012 16 10000 1.15 195 06:19 29.11.2021
5189 Clear -2 1016 25 10000 0.33 48 01:38 29.11.2021
5190 Clear -3 1015 32 10000 0.24 2 00:38 29.11.2021
5191 Clear -2 1014 27 10000 0.71 3 23:43 28.11.2021
5192 Clear -2 1014 26 10000 0.86 15 22:42 28.11.2021
5193 Clear -1 1013 24 10000 1.08 20 21:42 28.11.2021
5194 Clear -1 1013 21 10000 1.18 3 21:19 28.11.2021
5195 Clear 0 1013 19 10000 1.11 344 19:58 28.11.2021
5196 Clear 1 1012 19 10000 0.49 292 18:45 28.11.2021
5197 Clear 1 1013 17 10000 1.01 278 18:27 28.11.2021
5198 Clear 1 1013 17 10000 1.01 278 17:49 28.11.2021
5199 Clear 1 1013 17 10000 1.01 278 17:30 28.11.2021
5200 Clear 3 1012 15 10000 1.77 241 16:28 28.11.2021
5201 Clear 3 1012 15 10000 1.77 241 15:58 28.11.2021
5202 Clear 4 1011 15 10000 1.97 229 15:24 28.11.2021
5203 Clear 4 1011 15 10000 1.97 229 14:43 28.11.2021
5204 Clear 5 1009 17 10000 2.26 206 12:58 28.11.2021
5205 Clear 5 1007 17 10000 2.34 195 12:29 28.11.2021
5206 Clear 10 1006 13 10000 2.39 202 10:54 28.11.2021
5207 Clear 11 1006 11 10000 2.26 208 10:20 28.11.2021
5208 Clear 11 1006 11 10000 2.26 208 09:37 28.11.2021
5209 Clear 8 1010 19 10000 1.7 193 06:30 28.11.2021
5210 Clear -2 1017 37 10000 1.94 170 23:37 27.11.2021
5211 Clear -1 1015 27 10000 1.81 173 20:44 27.11.2021
5212 Clouds 0 1014 23 10000 1.33 173 18:57 27.11.2021
5213 Clouds 1 1013 26 10000 1.02 163 16:52 27.11.2021
5214 Clouds 1 1013 25 10000 0.86 159 15:56 27.11.2021
5215 Clouds 2 1011 24 10000 1.32 151 13:47 27.11.2021
5216 Clouds 3 1010 24 10000 1.53 155 12:31 27.11.2021
5217 Clouds 7 1008 17 10000 1.27 135 10:42 27.11.2021
5218 Clouds 7 1008 17 10000 1.13 159 09:51 27.11.2021
5219 Clouds 7 1009 18 10000 1.55 182 08:43 27.11.2021
5220 Clouds 4 1017 34 10000 0.88 172 05:18 27.11.2021
5221 Clouds -1 1018 46 10000 0.9 52 01:55 27.11.2021
5222 Clouds -1 1015 49 10000 1.45 49 23:35 26.11.2021
5223 Clouds -1 1014 45 10000 1.42 45 22:25 26.11.2021
5224 Clouds -1 1014 45 10000 1.42 45 21:36 26.11.2021
5225 Clouds -1 1014 42 10000 1.39 38 20:53 26.11.2021
5226 Clouds -1 1013 40 10000 1.32 45 20:19 26.11.2021
5227 Clouds -1 1013 40 10000 1.32 45 19:47 26.11.2021
5228 Clouds 0 1013 38 10000 1.29 24 18:39 26.11.2021
5229 Clouds 1 1012 32 10000 1.42 13 17:23 26.11.2021
5230 Clouds 1 1011 31 10000 1.18 3 15:57 26.11.2021
5231 Clouds 2 1009 29 10000 0.58 46 13:36 26.11.2021
5232 Clouds 3 1007 29 10000 0.59 127 12:40 26.11.2021
5233 Clouds 7 1006 21 10000 1.13 172 10:38 26.11.2021
5234 Clouds 7 1007 22 10000 1.71 192 08:59 26.11.2021
5235 Clear 7 1008 25 10000 1.47 200 08:21 26.11.2021
5236 Clear 7 1008 25 10000 1.47 200 07:33 26.11.2021
5237 Clear 5 1013 28 10000 1.01 193 06:28 26.11.2021
5238 Clear 5 1013 28 10000 1.01 193 06:28 26.11.2021
5239 Clear 4 1015 31 10000 0.53 157 04:52 26.11.2021
5240 Clear 0 1017 40 10000 0.56 53 03:26 26.11.2021
5241 Clear -3 1016 51 10000 1.73 35 23:27 25.11.2021
5242 Clear -2 1016 48 10000 1.95 31 21:51 25.11.2021
5243 Clear -2 1015 44 10000 2.27 25 20:40 25.11.2021
5244 Clear -1 1014 35 10000 2.77 23 18:49 25.11.2021
5245 Clear 0 1013 29 10000 2.65 18 17:59 25.11.2021
5246 Clear 0 1013 25 10000 2.87 15 17:26 25.11.2021
5247 Clear 0 1013 25 10000 2.87 15 16:38 25.11.2021
5248 Clear 1 1012 21 10000 3.08 12 15:58 25.11.2021
5249 Clouds 3 1008 20 10000 3.16 8 14:21 25.11.2021
5250 Clouds 4 1005 19 10000 2.41 21 12:48 25.11.2021
5251 Clouds 4 1003 21 10000 1.57 40 11:55 25.11.2021
5252 Clouds 9 1001 14 10000 1.06 153 10:25 25.11.2021
5253 Clear 7 1006 19 10000 1.18 191 06:36 25.11.2021
5254 Clear 1 1014 17 10000 0.85 136 02:54 25.11.2021
5255 Clear -3 1012 22 10000 1.11 105 23:39 24.11.2021
5256 Clouds -2 1012 20 10000 0.89 114 22:28 24.11.2021
5257 Clouds -2 1012 20 10000 0.89 114 21:45 24.11.2021
5258 Clouds -2 1013 19 10000 0.61 118 20:58 24.11.2021
5259 Clear -2 1013 19 10000 0.69 101 20:26 24.11.2021
5260 Clear -1 1013 18 10000 0.96 69 18:58 24.11.2021
5261 Clouds 0 1013 19 10000 0.99 100 18:18 24.11.2021
5262 Clouds 1 1012 18 10000 1.25 104 16:20 24.11.2021
5263 Clouds 2 1012 17 10000 1.11 90 14:56 24.11.2021
5264 Clouds 2 1011 17 10000 0.82 132 14:21 24.11.2021
5265 Clouds 4 1010 17 10000 1.32 157 12:51 24.11.2021
5266 Clouds 7 1008 12 10000 1.05 187 11:22 24.11.2021
5267 Clouds 7 1008 12 10000 1.05 187 10:50 24.11.2021
5268 Clouds 7 1008 12 10000 1.79 190 10:27 24.11.2021
5269 Clouds 7 1009 13 10000 2.16 179 08:35 24.11.2021
5270 Clouds 7 1011 14 10000 1.5 180 07:31 24.11.2021
5271 Clouds 2 1018 26 10000 0.46 181 03:59 24.11.2021
5272 Clouds -2 1019 43 10000 0.66 39 01:36 24.11.2021
5273 Clouds -3 1018 51 10000 0.97 42 23:30 23.11.2021
5274 Clouds -3 1018 51 10000 1.38 33 22:37 23.11.2021
5275 Clouds -3 1018 51 10000 1.62 28 21:45 23.11.2021
5276 Clouds -2 1018 51 10000 2.03 27 20:22 23.11.2021
5277 Clouds -2 1019 50 10000 2.18 27 19:22 23.11.2021
5278 Clear -2 1019 49 10000 2.35 26 18:33 23.11.2021
5279 Clear -1 1019 46 10000 2.51 26 17:30 23.11.2021
5280 Clouds -1 1018 40 10000 2.81 25 16:35 23.11.2021
5281 Clouds 1 1016 21 10000 3.06 22 15:26 23.11.2021
5282 Clouds 1 1016 25 10000 3.26 21 14:44 23.11.2021
5283 Clouds 3 1013 17 10000 3.04 26 12:53 23.11.2021
5284 Clouds 7 1008 10 10000 3.56 343 10:28 23.11.2021
5285 Clouds 7 1008 10 10000 3.56 343 09:45 23.11.2021
5286 Clouds 7 1009 11 10000 1.54 317 07:51 23.11.2021
5287 Clouds 5 1015 22 10000 1.17 348 04:38 23.11.2021
5288 Clouds 3 1016 25 10000 1.47 355 03:29 23.11.2021
5289 Clouds 0 1015 39 10000 2.09 3 23:35 22.11.2021
5290 Clouds 0 1014 36 10000 2.1 8 22:57 22.11.2021
5291 Clouds 0 1014 36 10000 2.1 8 22:30 22.11.2021
5292 Clouds 0 1013 34 10000 2.18 14 21:44 22.11.2021
5293 Clouds 1 1013 33 10000 2.3 16 21:18 22.11.2021
5294 Clouds 1 1013 32 10000 2.48 14 20:23 22.11.2021
5295 Clouds 2 1012 29 10000 2.94 10 19:20 22.11.2021
5296 Clouds 2 1012 32 10000 2.91 14 18:40 22.11.2021
5297 Clouds 3 1011 30 10000 3.17 6 17:46 22.11.2021
5298 Clouds 3 1010 28 10000 3.5 9 16:30 22.11.2021
5299 Clouds 6 1004 22 10000 3.18 359 14:28 22.11.2021
5300 Clouds 7 1001 20 10000 1.52 359 12:47 22.11.2021
5301 Clear 11 998 14 10000 1.28 167 11:27 22.11.2021
5302 Clear 12 998 14 10000 1.83 176 09:56 22.11.2021
5303 Clear 12 999 14 10000 2.02 175 08:41 22.11.2021
5304 Clear 11 1004 17 10000 1.31 167 07:24 22.11.2021
5305 Clear 1 1008 50 10000 1.02 103 00:21 22.11.2021
5306 Clear 2 1007 46 10000 0.84 90 22:54 21.11.2021
5307 Clear 2 1007 42 10000 0.49 68 22:26 21.11.2021
5308 Clear 3 1006 45 10000 0.33 123 20:42 21.11.2021
5309 Clear 4 1006 41 10000 0.23 127 20:22 21.11.2021
5310 Clear 4 1005 35 10000 0.6 234 18:49 21.11.2021
5311 Clear 5 1005 29 10000 1.38 258 17:41 21.11.2021
5312 Clear 6 1005 26 10000 2.17 266 17:19 21.11.2021
5313 Clear 8 1003 23 10000 2.24 253 14:48 21.11.2021
5314 Clear 9 1002 23 10000 2.11 245 13:57 21.11.2021
5315 Clouds 9 1001 21 10000 2.35 228 12:55 21.11.2021
5316 Clouds 11 999 22 10000 2.38 268 12:19 21.11.2021
5317 Clouds 11 999 22 10000 2.38 268 11:36 21.11.2021
5318 Clouds 15 996 15 10000 4.66 251 10:19 21.11.2021
5319 Clouds 15 996 15 10000 4.66 251 09:44 21.11.2021
5320 Clouds 15 997 20 10000 3.11 214 08:31 21.11.2021
5321 Clouds 14 999 25 10000 2.4 203 07:51 21.11.2021
5322 Clear 11 1005 41 10000 1.79 194 06:26 21.11.2021
5323 Clear 11 1005 41 10000 1.79 194 05:41 21.11.2021
5324 Clear 6 1010 61 10000 0.28 127 03:22 21.11.2021
5325 Clear 6 1010 61 10000 0.28 127 02:55 21.11.2021
5326 Clear 3 1009 78 10000 0.58 75 01:25 21.11.2021
5327 Clear 3 1009 78 10000 0.58 75 00:42 21.11.2021
5328 Clouds 3 1008 73 10000 0.75 72 22:30 20.11.2021
5329 Clouds 4 1007 70 10000 0.55 38 21:32 20.11.2021
5330 Clouds 6 1007 61 10000 0.44 34 19:56 20.11.2021
5331 Clouds 6 1007 59 10000 0.23 355 18:45 20.11.2021
5332 Clouds 7 1006 53 10000 0.14 121 18:23 20.11.2021
5333 Clouds 8 1005 48 10000 0.51 245 17:22 20.11.2021
5334 Clouds 9 1002 36 10000 1.34 236 14:57 20.11.2021
5335 Clouds 10 1001 33 10000 1.78 238 14:28 20.11.2021
5336 Clouds 10 1001 33 10000 1.78 238 13:53 20.11.2021
5337 Clouds 12 998 29 10000 1.96 230 11:46 20.11.2021
5338 Clouds 16 996 20 10000 2.91 228 09:57 20.11.2021
5339 Clouds 16 997 22 10000 3.09 216 08:40 20.11.2021
5340 Clear 14 1002 29 10000 2.27 198 06:50 20.11.2021
5341 Clear 11 1007 35 10000 1.32 183 05:18 20.11.2021
5342 Clear 11 1007 35 10000 1.32 183 04:49 20.11.2021
5343 Clear 3 1008 54 10000 0.62 169 00:43 20.11.2021
5344 Clear 4 1007 49 10000 0.51 170 00:18 20.11.2021
5345 Clouds 4 1007 46 10000 0.37 117 22:54 19.11.2021
5346 Clear 5 1007 39 10000 1.12 205 21:29 19.11.2021
5347 Clear 5 1007 39 10000 1.12 205 20:48 19.11.2021
5348 Clear 6 1007 36 10000 1.3 217 20:29 19.11.2021
5349 Clear 6 1007 36 10000 1.3 217 19:47 19.11.2021
5350 Clouds 6 1006 37 10000 1.43 225 18:49 19.11.2021
5351 Clouds 7 1006 35 10000 1.55 250 17:45 19.11.2021
5352 Clouds 7 1006 33 10000 1.75 264 16:47 19.11.2021
5353 Clouds 8 1005 32 10000 2.03 278 15:31 19.11.2021
5354 Clouds 10 1002 31 10000 1.05 284 12:43 19.11.2021
5355 Clouds 15 998 19 10000 2.61 262 10:26 19.11.2021
5356 Clouds 15 998 19 10000 2.53 242 08:39 19.11.2021
5357 Clouds 14 1002 21 10000 2.02 210 07:26 19.11.2021
5358 Clouds 10 1009 26 10000 1.29 180 04:24 19.11.2021
5359 Clouds 5 1009 28 10000 0.56 131 01:24 19.11.2021
5360 Clouds 5 1008 31 10000 0.76 141 23:44 18.11.2021
5361 Clouds 5 1008 26 10000 1.19 193 21:41 18.11.2021
5362 Clouds 5 1008 24 10000 1.09 186 20:47 18.11.2021
5363 Clouds 6 1008 23 10000 1.12 186 20:29 18.11.2021
5364 Clouds 6 1008 23 10000 1.12 186 19:43 18.11.2021
5365 Clouds 6 1009 22 10000 1.09 198 18:40 18.11.2021
5366 Clouds 7 1009 20 10000 1.57 205 17:58 18.11.2021
5367 Clouds 7 1009 20 10000 1.57 205 17:36 18.11.2021
5368 Clouds 7 1009 19 10000 1.46 219 16:43 18.11.2021
5369 Clouds 8 1008 17 10000 1.89 215 15:24 18.11.2021
5370 Clouds 8 1006 18 10000 1.27 211 13:25 18.11.2021
5371 Clouds 10 1004 17 10000 1.18 178 11:45 18.11.2021
5372 Clouds 13 1003 14 10000 1.43 180 11:26 18.11.2021
5373 Clouds 13 1003 14 10000 1.43 180 10:56 18.11.2021
5374 Clouds 14 1003 11 10000 1.44 185 09:33 18.11.2021
5375 Clouds 13 1005 11 10000 1.54 200 07:34 18.11.2021
5376 Clouds 12 1011 12 10000 1.12 202 05:47 18.11.2021
5377 Clouds 10 1013 11 10000 0.69 181 04:31 18.11.2021
5378 Clouds 1 1016 17 10000 0.55 61 01:22 18.11.2021
5379 Clouds 2 1015 16 10000 0.08 66 22:48 17.11.2021
5380 Clouds 2 1015 15 10000 1 31 22:20 17.11.2021
5381 Clouds 2 1015 15 10000 1 31 21:37 17.11.2021
5382 Clouds 3 1015 15 10000 1.03 42 20:50 17.11.2021
5383 Clouds 4 1016 15 10000 0.63 181 17:53 17.11.2021
5384 Clouds 4 1016 14 10000 0.9 196 17:25 17.11.2021
5385 Clear 5 1015 14 10000 1.36 187 14:51 17.11.2021
5386 Clear 7 1013 16 10000 2 182 12:41 17.11.2021
5387 Clear 8 1011 15 10000 2.25 176 11:44 17.11.2021
5388 Clear 12 1011 11 10000 2.29 181 10:29 17.11.2021
5389 Clear 12 1012 11 10000 2 177 09:24 17.11.2021
5390 Clear 11 1013 12 10000 1.56 176 07:44 17.11.2021
5391 Clear 6 1020 20 10000 0.46 161 03:51 17.11.2021
5392 Clear 6 1020 20 10000 0.46 161 03:51 17.11.2021
5393 Clear 0 1019 33 10000 1.06 47 01:21 17.11.2021
5394 Clear 0 1017 31 10000 1.62 29 23:26 16.11.2021
5395 Clear 1 1016 29 10000 2.04 21 21:27 16.11.2021
5396 Clear 2 1016 27 10000 1.99 18 20:18 16.11.2021
5397 Clear 3 1015 25 10000 1.93 7 18:54 16.11.2021
5398 Clear 3 1015 25 10000 1.93 7 18:35 16.11.2021
5399 Clear 3 1015 23 10000 2.19 355 17:43 16.11.2021
5400 Clear 4 1013 22 10000 2.22 343 16:49 16.11.2021
5401 Clear 4 1012 21 10000 1.87 324 15:56 16.11.2021
5402 Clear 5 1011 20 10000 1.8 297 15:29 16.11.2021
5403 Clouds 7 1007 20 10000 2.24 207 12:34 16.11.2021
5404 Clear 12 1003 15 10000 2.54 215 09:49 16.11.2021
5405 Clear 11 1003 19 10000 2.31 201 08:48 16.11.2021
5406 Clear 11 1005 24 10000 2.28 192 07:34 16.11.2021
5407 Clear 3 1014 51 10000 1.53 182 02:50 16.11.2021
5408 Clear 1 1011 61 10000 2.09 179 23:23 15.11.2021
5409 Clear 1 1011 61 10000 2.09 179 22:39 15.11.2021
5410 Clear 1 1010 58 10000 2.2 183 21:54 15.11.2021
5411 Clear 2 1010 54 10000 2.44 182 21:29 15.11.2021
5412 Clear 2 1009 51 10000 2.45 185 20:26 15.11.2021
5413 Clear 3 1009 47 10000 2.45 186 18:53 15.11.2021
5414 Clear 4 1007 37 10000 2.91 191 16:56 15.11.2021
5415 Clear 5 1006 32 10000 2.85 187 15:48 15.11.2021
5416 Clear 6 1005 26 10000 2.61 198 15:29 15.11.2021
5417 Clear 7 1003 21 10000 2.38 202 13:49 15.11.2021
5418 Clear 9 999 18 10000 2.6 232 12:18 15.11.2021
5419 Clear 13 997 14 10000 3.33 223 09:30 15.11.2021
5420 Clear 13 997 15 10000 3.73 205 08:37 15.11.2021
5421 Clear 10 1003 26 10000 3.38 197 06:21 15.11.2021
5422 Clear 1 1008 38 10000 2.11 183 00:33 15.11.2021
5423 Clear 2 1006 30 10000 1.66 167 22:39 14.11.2021
5424 Clear 3 1006 24 10000 1.45 190 21:18 14.11.2021
5425 Clouds 4 1006 18 10000 1.64 183 19:18 14.11.2021
5426 Clouds 4 1006 18 10000 1.64 183 18:54 14.11.2021
5427 Clouds 4 1006 18 10000 1.64 183 18:36 14.11.2021
5428 Clouds 5 1007 15 10000 1.54 221 18:18 14.11.2021
5429 Clouds 5 1007 15 10000 1.54 221 17:57 14.11.2021
5430 Clouds 5 1007 15 10000 1.54 221 17:39 14.11.2021
5431 Clouds 6 1007 15 10000 1.71 225 17:21 14.11.2021
5432 Clouds 6 1007 15 10000 1.71 225 16:52 14.11.2021
5433 Clouds 6 1006 15 10000 1.78 222 16:22 14.11.2021
5434 Clouds 6 1006 15 10000 1.78 222 15:52 14.11.2021
5435 Clouds 7 1006 15 10000 1.71 244 15:19 14.11.2021
5436 Clouds 7 1006 15 10000 1.71 244 14:34 14.11.2021
5437 Clouds 7 1005 15 10000 2.03 235 14:00 14.11.2021
5438 Clouds 7 1005 15 10000 2.03 235 13:40 14.11.2021
5439 Clouds 8 1004 14 10000 2.63 223 12:52 14.11.2021
5440 Clouds 9 1002 13 10000 2.72 221 12:21 14.11.2021
5441 Clouds 13 1000 9 10000 3.21 231 10:54 14.11.2021
5442 Clouds 13 1000 9 10000 3.21 231 10:30 14.11.2021
5443 Clear 13 1002 10 10000 1.88 195 09:22 14.11.2021
5444 Clear 13 1002 10 10000 1.88 195 08:46 14.11.2021
5445 Clear 9 1011 16 10000 0.65 156 04:46 14.11.2021
5446 Clear 2 1010 22 10000 0.82 6 22:28 13.11.2021
5447 Clear 2 1010 22 10000 0.82 6 21:59 13.11.2021
5448 Clear 2 1010 22 10000 0.82 6 21:30 13.11.2021
5449 Clear 3 1010 20 10000 1.28 13 20:26 13.11.2021
5450 Clear 4 1010 21 10000 1.61 4 18:54 13.11.2021
5451 Clear 4 1010 20 10000 1.83 6 18:28 13.11.2021
5452 Clear 4 1010 20 10000 1.83 6 17:32 13.11.2021
5453 Clear 6 1009 19 10000 2.67 340 15:45 13.11.2021
5454 Clear 7 1007 18 10000 2.64 335 14:41 13.11.2021
5455 Clear 8 1006 16 10000 2.73 311 13:46 13.11.2021
5456 Clouds 9 1004 15 10000 2.81 297 12:41 13.11.2021
5457 Clouds 11 1001 13 10000 3.44 281 11:46 13.11.2021
5458 Clouds 15 998 11 10000 5.7 267 10:57 13.11.2021
5459 Clouds 16 997 9 10000 5.66 258 10:29 13.11.2021
5460 Clouds 16 997 9 10000 5.66 258 09:43 13.11.2021
5461 Clear 16 998 12 10000 3.95 237 09:22 13.11.2021
5462 Clear 16 998 12 10000 3.95 237 08:42 13.11.2021
5463 Clear 13 1002 21 10000 2.17 190 07:26 13.11.2021
5464 Clear 10 1007 30 10000 1.75 189 04:40 13.11.2021
5465 Clear 7 1010 34 10000 1.34 187 02:41 13.11.2021
5466 Clouds 3 1008 38 10000 1.21 153 23:33 12.11.2021
5467 Clouds 5 1006 30 10000 0.59 148 21:54 12.11.2021
5468 Clouds 5 1006 29 10000 0.61 167 20:35 12.11.2021
5469 Clouds 5 1006 26 10000 0.68 190 19:31 12.11.2021
5470 Clouds 6 1006 24 10000 0.51 248 18:54 12.11.2021
5471 Clouds 7 1007 24 10000 1.23 224 18:18 12.11.2021
5472 Clouds 7 1007 24 10000 1.23 224 18:18 12.11.2021
5473 Clouds 8 1005 16 10000 1.89 233 15:54 12.11.2021
5474 Clear 11 1001 17 10000 2.45 217 13:27 12.11.2021
5475 Clouds 16 998 13 10000 2.43 208 11:24 12.11.2021
5476 Clouds 16 998 13 10000 2.43 208 11:24 12.11.2021
5477 Clouds 17 998 12 10000 2.65 207 09:55 12.11.2021
5478 Clouds 16 999 13 10000 2.25 195 08:55 12.11.2021
5479 Clear 14 1004 22 10000 2.15 186 06:37 12.11.2021
5480 Clouds 3 1010 43 10000 1.65 192 00:21 12.11.2021
5481 Clouds 4 1009 40 10000 1.78 189 23:27 11.11.2021
5482 Clouds 4 1008 37 10000 1.66 192 22:21 11.11.2021
5483 Clouds 5 1007 35 10000 1.71 186 21:26 11.11.2021
5484 Clouds 5 1007 32 10000 1.37 185 19:56 11.11.2021
5485 Clear 7 1006 29 10000 2.19 203 18:27 11.11.2021
5486 Clear 7 1006 29 10000 2.19 203 17:41 11.11.2021
5487 Clear 8 1005 24 10000 2.14 209 15:41 11.11.2021
5488 Clear 9 1003 22 10000 1.86 210 14:39 11.11.2021
5489 Clear 10 1002 20 10000 2.57 210 14:21 11.11.2021
5490 Clear 10 1002 20 10000 2.57 210 13:35 11.11.2021
5491 Clear 11 998 21 10000 2.12 187 12:27 11.11.2021
5492 Clear 16 997 15 10000 2.12 201 09:59 11.11.2021
5493 Clear 15 999 17 10000 2.06 193 09:23 11.11.2021
5494 Clear 14 1001 19 10000 1.82 190 07:33 11.11.2021
5495 Clouds 2 1012 45 10000 1.39 167 00:40 11.11.2021
5496 Clouds 3 1010 39 10000 1.36 169 22:46 10.11.2021
5497 Clouds 4 1009 36 10000 1.14 165 21:54 10.11.2021
5498 Clear 4 1008 33 10000 0.96 171 20:57 10.11.2021
5499 Clear 4 1008 33 10000 0.96 171 20:33 10.11.2021
5500 Clear 5 1008 31 10000 0.92 162 19:45 10.11.2021
5501 Clear 6 1008 33 10000 1.47 193 17:39 10.11.2021
5502 Clear 7 1008 33 10000 1.69 203 16:21 10.11.2021
5503 Clear 8 1006 32 10000 2.05 204 14:25 10.11.2021
5504 Clear 8 1006 32 10000 2.05 204 13:38 10.11.2021
5505 Clear 8 1004 33 10000 1.38 196 12:31 10.11.2021
5506 Clear 14 1003 22 10000 1.92 192 09:41 10.11.2021
5507 Clear 13 1004 22 10000 2.22 194 08:44 10.11.2021
5508 Clear 12 1008 25 10000 1.66 194 06:59 10.11.2021
5509 Clear 11 1010 30 10000 1.82 199 05:58 10.11.2021
5510 Clear 9 1012 32 10000 1.45 186 04:58 10.11.2021
5511 Clear 2 1013 40 10000 0.58 46 22:45 09.11.2021
5512 Clear 2 1013 38 10000 0.83 44 21:46 09.11.2021
5513 Clear 3 1014 36 10000 1.36 22 20:20 09.11.2021
5514 Clear 4 1012 37 10000 0.96 354 18:59 09.11.2021
5515 Clear 5 1011 33 10000 1.06 7 17:24 09.11.2021
5516 Clear 6 1010 29 10000 0.39 20 15:38 09.11.2021
5517 Clear 8 1008 28 10000 0.89 200 13:59 09.11.2021
5518 Clear 8 1007 31 10000 0.74 194 12:50 09.11.2021
5519 Clear 9 1005 29 10000 0.82 173 11:34 09.11.2021
5520 Clear 13 1005 21 10000 1.35 176 10:43 09.11.2021
5521 Clear 13 1006 20 10000 1.47 192 09:24 09.11.2021
5522 Clear 12 1008 21 10000 1.19 187 08:18 09.11.2021
5523 Clear 9 1014 26 10000 0.4 128 05:23 09.11.2021
5524 Clear 4 1017 35 10000 0.53 56 01:58 09.11.2021
5525 Clear 4 1017 35 10000 0.53 56 01:39 09.11.2021
5526 Clear 2 1014 38 10000 0.95 13 23:35 08.11.2021
5527 Clear 2 1013 37 10000 0.81 15 22:48 08.11.2021
5528 Clear 3 1013 35 10000 0.87 15 21:46 08.11.2021
5529 Clear 4 1012 39 10000 0.67 44 20:38 08.11.2021
5530 Clear 4 1012 38 10000 0.45 27 19:48 08.11.2021
5531 Clear 5 1011 32 10000 0.39 248 17:55 08.11.2021
5532 Clear 7 1009 20 10000 1.73 255 15:59 08.11.2021
5533 Clear 8 1008 18 10000 2 254 14:57 08.11.2021
5534 Clear 8 1008 18 10000 2 254 14:34 08.11.2021
5535 Clear 9 1005 17 10000 2.52 249 13:24 08.11.2021
5536 Clear 11 1002 17 10000 2.66 244 11:56 08.11.2021
5537 Clear 15 1000 12 10000 3.68 247 10:50 08.11.2021
5538 Clear 16 1000 12 10000 3.93 233 09:37 08.11.2021
5539 Clear 15 1000 15 10000 3.4 225 08:53 08.11.2021
5540 Clear 13 1006 29 10000 2.13 198 07:28 08.11.2021
5541 Clear 8 1012 39 10000 1.11 176 03:48 08.11.2021
5542 Clear 7 1013 41 10000 0.79 173 03:26 08.11.2021
5543 Clear 3 1011 49 10000 1.17 152 23:45 07.11.2021
5544 Clear 3 1009 43 10000 1.17 165 21:46 07.11.2021
5545 Clear 4 1009 39 10000 1.61 177 20:52 07.11.2021
5546 Clear 5 1009 35 10000 1.76 188 19:30 07.11.2021
5547 Clear 6 1008 31 10000 1.98 201 18:22 07.11.2021
5548 Clear 7 1008 28 10000 2.1 200 16:50 07.11.2021
5549 Clear 7 1007 24 10000 1.9 209 15:47 07.11.2021
5550 Clear 8 1004 21 10000 2.22 210 14:29 07.11.2021
5551 Clear 9 1003 21 10000 2.47 213 13:26 07.11.2021
5552 Clear 10 1000 20 10000 2.38 203 11:42 07.11.2021
5553 Clear 15 999 13 10000 2.65 201 09:49 07.11.2021
5554 Clear 13 1002 17 10000 2.64 185 07:53 07.11.2021
5555 Clouds 6 1012 30 10000 0.97 167 02:38 07.11.2021
5556 Clouds 1 1010 37 10000 0.76 99 23:37 06.11.2021
5557 Clouds 1 1010 33 10000 0.54 81 22:47 06.11.2021
5558 Clear 2 1009 30 10000 0.78 50 21:33 06.11.2021
5559 Clouds 2 1009 28 10000 0.53 359 20:50 06.11.2021
5560 Clouds 4 1008 26 10000 0.57 203 18:56 06.11.2021
5561 Clear 5 1008 18 10000 1.34 233 16:47 06.11.2021
5562 Clear 5 1008 18 10000 1.34 233 16:47 06.11.2021
5563 Clear 5 1008 18 10000 1.34 233 16:47 06.11.2021
5564 Clear 5 1008 18 10000 1.34 233 16:47 06.11.2021
5565 Clear 5 1008 18 10000 1.34 233 16:47 06.11.2021
5566 Clear 5 1008 18 10000 1.34 233 16:47 06.11.2021
5567 Clear 6 1006 17 10000 1.89 255 15:20 06.11.2021
5568 Clear 7 1005 17 10000 2.15 249 13:38 06.11.2021
5569 Clouds 9 1001 15 10000 2.16 235 11:53 06.11.2021
5570 Clouds 13 1001 11 10000 2.89 219 09:25 06.11.2021
5571 Clouds 8 1011 32 10000 1.67 189 04:59 06.11.2021
5572 Clouds 2 1014 46 10000 1.35 172 01:47 06.11.2021
5573 Clouds 1 1012 50 10000 1.75 181 23:35 05.11.2021
5574 Clouds 1 1011 47 10000 1.64 171 22:34 05.11.2021
5575 Clouds 2 1010 41 10000 1.75 191 21:26 05.11.2021
5576 Clear 3 1010 38 10000 2.04 194 20:20 05.11.2021
5577 Clouds 3 1011 35 10000 1.97 194 19:40 05.11.2021
5578 Clouds 3 1010 33 10000 2.1 189 18:39 05.11.2021
5579 Clouds 4 1010 28 10000 2.22 191 17:28 05.11.2021
5580 Clouds 5 1009 24 10000 1.98 206 15:38 05.11.2021
5581 Clear 6 1007 20 10000 1.9 232 13:37 05.11.2021
5582 Clouds 11 1003 12 10000 3.71 246 11:22 05.11.2021
5583 Clouds 12 1003 13 10000 3.14 208 08:40 05.11.2021
5584 Clear 11 1005 15 10000 3.18 199 07:39 05.11.2021
5585 Clear 9 1010 24 10000 2.29 192 05:32 05.11.2021
5586 Clear 1 1016 41 10000 1.22 171 02:26 05.11.2021
5587 Clear -1 1016 50 10000 1.46 154 00:51 05.11.2021
5588 Clear 0 1014 47 10000 1.54 159 23:23 04.11.2021
5589 Clear 1 1014 45 10000 1.85 178 22:19 04.11.2021
5590 Clear 1 1014 45 10000 1.85 178 21:35 04.11.2021
5591 Clear 1 1014 43 10000 1.95 176 20:41 04.11.2021
5592 Clear 2 1014 40 10000 2.22 182 20:21 04.11.2021
5593 Clear 2 1014 40 10000 2.22 182 19:44 04.11.2021
5594 Clear 2 1013 38 10000 2.32 181 18:44 04.11.2021
5595 Clear 3 1013 34 10000 2.56 179 17:54 04.11.2021
5596 Clear 3 1013 29 10000 3 180 16:47 04.11.2021
5597 Clouds 4 1012 22 10000 2.53 227 14:38 04.11.2021
5598 Clouds 6 1008 19 10000 2.41 268 12:32 04.11.2021
5599 Clouds 11 1003 12 10000 4.61 254 09:37 04.11.2021
5600 Clouds 11 1004 12 10000 5.29 239 08:30 04.11.2021
5601 Clouds 10 1005 14 10000 4.67 219 07:34 04.11.2021
5602 Clear 4 1015 46 10000 2.01 179 02:37 04.11.2021
5603 Clear 1 1014 59 10000 2.51 182 22:50 03.11.2021
5604 Clear 1 1013 57 10000 2.56 178 21:49 03.11.2021
5605 Clear 1 1013 57 10000 2.56 178 21:30 03.11.2021
5606 Clear 1 1012 56 10000 2.65 180 20:35 03.11.2021
5607 Clear 2 1012 52 10000 2.85 178 19:58 03.11.2021
5608 Clear 2 1012 46 10000 3.18 182 18:56 03.11.2021
5609 Clear 3 1011 40 10000 3.2 183 18:23 03.11.2021
5610 Clear 3 1011 40 10000 3.2 183 17:36 03.11.2021
5611 Clear 4 1010 30 10000 3.3 184 16:26 03.11.2021
5612 Clear 4 1010 30 10000 3.3 184 15:43 03.11.2021
5613 Clear 6 1008 21 10000 2.97 193 13:55 03.11.2021
5614 Clouds 8 1004 18 10000 3.42 236 11:59 03.11.2021
5615 Clouds 11 1003 12 10000 4.13 227 11:25 03.11.2021
5616 Clouds 11 1003 12 10000 4.13 227 10:46 03.11.2021
5617 Clear 12 1003 11 10000 4.74 223 09:30 03.11.2021
5618 Clear 11 1006 17 10000 3.54 192 08:23 03.11.2021
5619 Clear 11 1006 17 10000 3.54 192 07:39 03.11.2021
5620 Clear 9 1011 27 10000 3.54 193 05:35 03.11.2021
5621 Clear 2 1016 57 10000 2.14 169 02:28 03.11.2021
5622 Clear 1 1015 63 10000 2.21 167 23:51 02.11.2021
5623 Clear 1 1014 61 10000 2.21 170 22:46 02.11.2021
5624 Clear 2 1014 58 10000 2.45 170 21:39 02.11.2021
5625 Clear 2 1014 55 10000 2.45 174 20:33 02.11.2021
5626 Clear 3 1013 52 10000 2.59 178 19:53 02.11.2021
5627 Clear 3 1013 48 10000 2.77 177 19:18 02.11.2021
5628 Clear 4 1013 43 10000 2.69 186 18:26 02.11.2021
5629 Clear 4 1013 43 10000 2.69 186 17:42 02.11.2021
5630 Clear 4 1013 37 10000 2.99 195 16:31 02.11.2021
5631 Clouds 5 1012 31 10000 3.04 196 15:32 02.11.2021
5632 Clouds 6 1011 25 10000 2.81 195 14:30 02.11.2021
5633 Clear 7 1006 17 10000 1.3 213 13:28 02.11.2021
5634 Clear 7 1007 18 10000 1.14 231 12:41 02.11.2021
5635 Clear 8 1006 19 10000 1.3 260 11:34 02.11.2021
5636 Clear 12 1005 11 10000 4.32 253 10:53 02.11.2021
5637 Clear 12 1005 12 10000 4.59 243 10:28 02.11.2021
5638 Clear 12 1005 14 10000 3.65 220 08:44 02.11.2021
5639 Clear 10 1011 24 10000 3.15 187 06:57 02.11.2021
5640 Clear 6 1017 43 10000 2.04 183 03:49 02.11.2021
5641 Clear 2 1018 61 10000 1.89 176 02:24 02.11.2021
5642 Clear 1 1015 65 10000 2.62 175 22:55 01.11.2021
5643 Clear 2 1014 60 10000 3.03 174 21:23 01.11.2021
5644 Clear 2 1014 60 10000 3.03 174 20:38 01.11.2021
5645 Clear 3 1013 56 10000 3.33 173 19:57 01.11.2021
5646 Clear 3 1013 51 10000 3.44 172 19:29 01.11.2021
5647 Clear 4 1012 46 10000 3.35 176 18:22 01.11.2021
5648 Clear 4 1012 46 10000 3.35 176 17:35 01.11.2021
5649 Clear 5 1011 41 10000 3.65 176 16:50 01.11.2021
5650 Clear 6 1009 37 10000 3.58 177 15:47 01.11.2021
5651 Clear 7 1008 33 10000 3.32 182 15:26 01.11.2021
5652 Clear 7 1008 33 10000 3.32 182 14:43 01.11.2021
5653 Clear 8 1006 30 10000 3.08 191 14:22 01.11.2021
5654 Clear 8 1007 32 10000 3.07 187 13:49 01.11.2021
5655 Clear 10 1004 30 10000 2.42 185 12:27 01.11.2021
5656 Clear 12 1003 23 10000 2.9 190 10:33 01.11.2021
5657 Clear 12 1004 22 10000 3.03 183 09:35 01.11.2021
5658 Clear 11 1007 23 10000 2.56 174 07:49 01.11.2021
5659 Clear 10 1010 26 10000 1.9 178 06:31 01.11.2021
5660 Clear 6 1016 33 10000 1 135 03:44 01.11.2021
5661 Clouds 1 1017 49 10000 0.67 115 00:37 01.11.2021
5662 Clouds 3 1014 47 10000 0.91 112 22:24 31.10.2021
5663 Clouds 3 1013 47 10000 1.1 145 20:46 31.10.2021
5664 Clouds 4 1012 47 10000 2.27 171 18:57 31.10.2021
5665 Clouds 4 1012 47 10000 2.27 171 18:37 31.10.2021
5666 Clouds 6 1010 41 10000 2.85 179 17:23 31.10.2021
5667 Clouds 7 1008 36 10000 3.39 182 15:48 31.10.2021
5668 Clouds 8 1005 30 10000 3.45 180 13:58 31.10.2021
5669 Clouds 9 1004 29 10000 2.87 190 12:49 31.10.2021
5670 Clouds 10 1002 26 10000 2.71 204 11:40 31.10.2021
5671 Clouds 13 1001 19 10000 3.95 217 10:42 31.10.2021
5672 Clear 12 1003 24 10000 3.32 186 09:21 31.10.2021
5673 Clear 12 1003 24 10000 3.32 186 09:21 31.10.2021
5674 Clear 10 1008 32 10000 2.61 176 07:20 31.10.2021
5675 Clear 2 1014 54 10000 1.89 150 00:54 31.10.2021
5676 Clear 3 1011 46 10000 1.86 145 22:36 30.10.2021
5677 Clear 3 1011 43 10000 1.72 141 21:34 30.10.2021
5678 Clear 4 1010 41 10000 1.37 144 20:33 30.10.2021
5679 Clear 6 1010 38 10000 2.34 180 18:43 30.10.2021
5680 Clear 7 1009 29 10000 2.61 185 16:53 30.10.2021
5681 Clear 7 1009 29 10000 2.61 185 16:53 30.10.2021
5682 Clear 8 1007 22 10000 2.45 202 14:50 30.10.2021
5683 Clouds 9 1006 26 10000 2.32 216 13:39 30.10.2021
5684 Clouds 11 1004 23 10000 2.76 223 13:21 30.10.2021
5685 Clouds 14 1003 16 10000 3.7 224 11:58 30.10.2021
5686 Clouds 14 1003 16 10000 3.7 224 11:39 30.10.2021
5687 Clouds 14 1003 17 10000 3.37 210 10:32 30.10.2021
5688 Clear 13 1007 27 10000 3.08 186 08:52 30.10.2021
5689 Clear 9 1014 37 10000 2.19 185 06:26 30.10.2021
5690 Clear 9 1014 37 10000 2.19 185 05:39 30.10.2021
5691 Clear 2 1016 55 10000 2.37 169 00:45 30.10.2021
5692 Clear 3 1014 48 10000 2.35 173 22:39 29.10.2021
5693 Clear 4 1014 44 10000 2.44 174 22:20 29.10.2021
5694 Clear 5 1014 40 10000 2.38 180 20:45 29.10.2021
5695 Clear 5 1013 36 10000 2.4 182 19:50 29.10.2021
5696 Clear 6 1013 33 10000 2.42 183 18:32 29.10.2021
5697 Clear 7 1012 26 10000 2.22 185 16:51 29.10.2021
5698 Clear 8 1010 25 10000 2.11 187 14:36 29.10.2021
5699 Clear 13 1007 17 10000 1.88 204 11:44 29.10.2021
5700 Clear 13 1008 18 10000 2.07 189 10:35 29.10.2021
5701 Clear 13 1011 20 10000 2.46 197 08:35 29.10.2021
5702 Clear 2 1020 37 10000 1.2 40 00:37 29.10.2021
5703 Clear 3 1019 35 10000 1.49 37 23:19 28.10.2021
5704 Clear 3 1019 35 10000 1.38 45 21:56 28.10.2021
5705 Clear 3 1019 34 10000 1.51 34 20:54 28.10.2021
5706 Clouds 4 1018 31 10000 1.4 359 19:50 28.10.2021
5707 Clouds 6 1017 27 10000 0.9 330 18:23 28.10.2021
5708 Clouds 7 1016 25 10000 0.14 284 16:58 28.10.2021
5709 Clouds 7 1015 24 10000 0.49 146 15:48 28.10.2021
5710 Clouds 9 1012 21 10000 1.91 158 14:23 28.10.2021
5711 Clouds 10 1011 24 10000 1.9 166 13:24 28.10.2021
5712 Clouds 10 1011 24 10000 1.9 166 12:41 28.10.2021
5713 Clouds 12 1010 20 10000 2.79 193 10:57 28.10.2021
5714 Clouds 12 1010 22 10000 2.96 197 09:39 28.10.2021
5715 Clouds 12 1012 24 10000 3.09 194 09:20 28.10.2021
5716 Clouds 12 1012 24 10000 3.09 194 08:35 28.10.2021
5717 Clouds 11 1014 29 10000 2.8 191 07:40 28.10.2021
5718 Clear 2 1016 61 10000 2.41 172 00:20 28.10.2021
5719 Clear 3 1016 60 10000 2.49 174 22:31 27.10.2021
5720 Clear 3 1015 58 10000 2.63 175 21:34 27.10.2021
5721 Clear 4 1015 56 10000 2.75 177 20:53 27.10.2021
5722 Clear 4 1015 56 10000 2.75 177 20:34 27.10.2021
5723 Clear 4 1014 52 10000 3.03 181 19:42 27.10.2021
5724 Clear 5 1014 48 10000 3.11 182 18:53 27.10.2021
5725 Clear 7 1011 40 10000 3.1 185 16:38 27.10.2021
5726 Clear 8 1010 35 10000 3.07 186 16:18 27.10.2021
5727 Clear 8 1008 32 10000 2.55 172 15:21 27.10.2021
5728 Clear 10 1005 32 10000 1.55 160 12:51 27.10.2021
5729 Clear 12 1006 25 10000 1.67 173 10:58 27.10.2021
5730 Clouds 12 1007 26 10000 2.41 187 09:51 27.10.2021
5731 Clear 12 1008 28 10000 2.92 189 08:58 27.10.2021
5732 Clear 11 1011 32 10000 3.02 190 07:36 27.10.2021
5733 Clear 9 1015 40 10000 2.34 185 05:34 27.10.2021
5734 Clear 2 1016 67 10000 2.33 169 00:58 27.10.2021
5735 Clear 2 1016 67 10000 2.33 169 00:33 27.10.2021
5736 Clear 3 1015 66 10000 2.55 169 23:50 26.10.2021
5737 Clear 3 1015 64 10000 2.68 173 22:42 26.10.2021
5738 Clear 4 1015 61 10000 2.85 175 22:19 26.10.2021
5739 Clear 4 1014 57 10000 2.89 174 20:51 26.10.2021
5740 Clouds 5 1014 52 10000 3.01 179 19:33 26.10.2021
5741 Clouds 6 1013 47 10000 3.05 181 18:52 26.10.2021
5742 Clouds 7 1011 38 10000 3.2 190 16:58 26.10.2021
5743 Clouds 8 1009 35 10000 2.93 190 15:34 26.10.2021
5744 Clouds 13 1004 25 10000 2.23 191 11:49 26.10.2021
5745 Clouds 13 1004 26 10000 2.38 185 10:42 26.10.2021
5746 Clear 11 1009 32 10000 3.09 194 07:51 26.10.2021
5747 Clear 10 1011 35 10000 2.56 194 07:21 26.10.2021
5748 Clear 3 1014 62 10000 2.47 170 23:51 25.10.2021
5749 Clear 4 1014 59 10000 2.73 175 22:55 25.10.2021
5750 Clear 4 1013 56 10000 2.83 175 22:21 25.10.2021
5751 Clear 4 1013 56 10000 2.83 175 21:39 25.10.2021
5752 Clouds 6 1012 50 10000 2.95 179 20:19 25.10.2021
5753 Clouds 6 1012 50 10000 2.95 179 19:42 25.10.2021
5754 Clouds 6 1012 46 10000 3.12 179 19:20 25.10.2021
5755 Clouds 7 1011 41 10000 2.99 181 18:22 25.10.2021
5756 Clouds 9 1008 32 10000 2.31 183 16:27 25.10.2021
5757 Clouds 10 1007 29 10000 2.11 184 14:36 25.10.2021
5758 Clouds 12 1004 26 10000 2.22 194 12:31 25.10.2021
5759 Clouds 13 1004 23 10000 3.19 201 10:25 25.10.2021
5760 Clouds 13 1006 26 10000 3.77 193 08:54 25.10.2021
5761 Clear 10 1013 38 10000 2.79 189 06:26 25.10.2021
5762 Clear 4 1016 60 10000 2.37 174 02:44 25.10.2021
5763 Clear 3 1015 66 10000 2.67 171 00:48 25.10.2021
5764 Clear 4 1015 64 10000 2.75 174 23:47 24.10.2021
5765 Clear 4 1015 64 10000 2.75 174 23:47 24.10.2021
5766 Clear 4 1014 63 10000 2.69 176 23:19 24.10.2021
5767 Clear 4 1014 63 10000 2.69 176 22:37 24.10.2021
5768 Clear 5 1014 60 10000 3.04 175 22:18 24.10.2021
5769 Clear 6 1014 58 10000 3.19 179 20:46 24.10.2021
5770 Clear 7 1013 55 10000 3.31 178 20:27 24.10.2021
5771 Clear 7 1013 50 10000 3.42 179 19:22 24.10.2021
5772 Clear 8 1012 44 10000 3.59 183 18:27 24.10.2021
5773 Clear 9 1011 39 10000 3.36 186 17:29 24.10.2021
5774 Clear 10 1009 34 10000 3.18 192 15:49 24.10.2021
5775 Clear 12 1005 29 10000 2.25 181 13:58 24.10.2021
5776 Clouds 14 1003 29 10000 1.93 177 12:41 24.10.2021
5777 Clear 16 1003 20 10000 2.62 180 11:43 24.10.2021
5778 Clear 16 1003 21 10000 2.78 177 10:55 24.10.2021
5779 Clear 16 1004 22 10000 2.95 184 09:59 24.10.2021
5780 Clear 12 1013 42 10000 2.12 180 05:35 24.10.2021
5781 Clear 6 1015 69 10000 2.41 168 00:53 24.10.2021
5782 Clear 6 1014 66 10000 2.2 165 23:34 23.10.2021
5783 Clear 8 1013 56 10000 2.33 174 21:58 23.10.2021
5784 Clear 9 1012 44 10000 2.75 173 19:54 23.10.2021
5785 Clear 10 1012 43 10000 2.8 179 18:59 23.10.2021
5786 Clear 11 1011 39 10000 2.54 183 18:21 23.10.2021
5787 Clear 11 1011 39 10000 2.54 183 17:43 23.10.2021
5788 Clear 11 1011 39 10000 2.54 183 17:43 23.10.2021
5789 Clear 12 1008 29 10000 2.48 190 16:22 23.10.2021
5790 Clear 13 1004 26 10000 1.94 194 14:22 23.10.2021
5791 Clear 9 1017 65 10000 1.45 141 03:33 23.10.2021
5792 Clear 6 1013 72 10000 2 135 23:59 22.10.2021
5793 Clear 6 1013 66 10000 1.99 141 22:49 22.10.2021
5794 Clouds 8 1011 58 10000 1.03 158 19:51 22.10.2021
5795 Clouds 8 1011 57 10000 1.02 199 18:41 22.10.2021
5796 Clouds 9 1010 57 10000 1.09 70 17:40 22.10.2021
5797 Clouds 10 1008 56 10000 1.13 5 15:25 22.10.2021
5798 Clouds 11 1007 56 10000 1.13 45 13:35 22.10.2021
5799 Clouds 13 1007 47 10000 1.76 85 11:18 22.10.2021
5800 Clouds 13 1007 47 10000 1.76 85 10:38 22.10.2021
5801 Clouds 14 1007 42 10000 0.14 34 09:44 22.10.2021
5802 Clouds 14 1007 44 10000 1.25 132 08:31 22.10.2021
5803 Clouds 10 1014 67 10000 1.36 172 07:22 22.10.2021
5804 Clouds 5 1018 87 10000 0.49 58 02:57 22.10.2021
5805 Clouds 5 1017 89 10000 0.95 29 23:54 21.10.2021
5806 Clouds 5 1016 89 10000 1.4 57 23:29 21.10.2021
5807 Clouds 5 1016 89 10000 1.8 65 21:50 21.10.2021
5808 Clouds 5 1017 89 10000 2.33 39 20:28 21.10.2021
5809 Clouds 5 1017 89 10000 2.33 39 19:58 21.10.2021
5810 Clouds 6 1016 94 2279 2.62 35 19:28 21.10.2021
5811 Clouds 6 1016 94 2279 2.62 35 18:45 21.10.2021
5812 Clouds 6 1016 93 4029 3.35 27 17:56 21.10.2021
5813 Clouds 6 1016 93 4029 3.35 27 17:37 21.10.2021
5814 Clouds 9 1012 69 10000 3.31 29 15:35 21.10.2021
5815 Clouds 10 1010 69 10000 2.89 38 14:58 21.10.2021
5816 Clouds 10 1010 69 10000 2.89 38 14:37 21.10.2021
5817 Clouds 16 1001 43 10000 2.85 175 12:51 21.10.2021
5818 Clouds 18 1000 31 10000 1.95 201 10:39 21.10.2021
5819 -273 0 0 0 0 0 10:39 21.10.2021
5820 Clouds 18 1000 31 10000 1.95 201 10:39 21.10.2021
5821 -273 0 0 0 0 0 10:39 21.10.2021
5822 Clouds 17 1005 39 10000 2.94 210 08:21 21.10.2021
5823 Clouds 15 1008 49 10000 2.24 201 07:23 21.10.2021
5824 Clouds 10 1013 84 10000 1.62 158 03:24 21.10.2021
5825 Clouds 10 1011 86 10000 2.1 171 23:25 20.10.2021
5826 Clouds 10 1012 87 10000 2.01 178 21:51 20.10.2021
5827 Clouds 10 1012 87 10000 2.23 178 21:29 20.10.2021
5828 Clouds 10 1012 87 10000 2.23 178 20:49 20.10.2021
5829 Clouds 10 1012 87 10000 2.54 179 20:28 20.10.2021
5830 Clouds 10 1012 86 10000 2.66 175 19:40 20.10.2021
5831 Clouds 10 1012 84 10000 2.92 173 18:54 20.10.2021
5832 Clouds 11 1012 80 10000 2.88 180 17:41 20.10.2021
5833 Clouds 12 1009 73 10000 3.09 178 15:26 20.10.2021
5834 Clouds 17 1004 44 10000 2.58 197 10:25 20.10.2021
5835 Clouds 17 1006 45 10000 2.01 186 08:37 20.10.2021
5836 Clouds 10 1016 67 10000 1.55 168 03:21 20.10.2021
5837 Clouds 9 1015 73 10000 1.35 202 00:43 20.10.2021
5838 Clouds 9 1014 71 10000 2.08 183 23:59 19.10.2021
5839 Clouds 9 1014 72 10000 2.41 181 21:43 19.10.2021
5840 Clouds 10 1014 70 10000 2.68 181 20:54 19.10.2021
5841 Clouds 10 1014 70 10000 2.99 177 20:22 19.10.2021
5842 Clouds 10 1014 69 10000 2.85 179 19:41 19.10.2021
5843 Clouds 11 1014 66 10000 3.25 175 18:53 19.10.2021
5844 Clouds 11 1014 66 10000 3.25 175 18:53 19.10.2021
5845 Clouds 11 1014 65 10000 3.38 175 17:58 19.10.2021
5846 Clouds 13 1011 59 10000 3.74 170 15:39 19.10.2021
5847 Clouds 14 1009 56 10000 3.29 169 15:19 19.10.2021
5848 Clouds 14 1007 52 10000 2.53 173 14:26 19.10.2021
5849 Clouds 14 1008 54 10000 2.61 172 13:35 19.10.2021
5850 Clouds 16 1005 48 10000 3.05 170 11:36 19.10.2021
5851 Clouds 17 1005 45 10000 3.54 193 10:23 19.10.2021
5852 Rain 17 1005 43 10000 3.77 194 08:58 19.10.2021
5853 Clouds 16 1010 48 10000 3.6 190 06:50 19.10.2021
5854 Clouds 9 1014 71 10000 2.22 180 00:26 19.10.2021
5855 Clouds 9 1014 71 10000 2.22 180 23:50 18.10.2021
5856 Clouds 9 1014 70 10000 2.67 175 23:20 18.10.2021
5857 Clouds 9 1014 70 10000 2.67 175 22:53 18.10.2021
5858 Clouds 10 1014 69 10000 2.85 176 21:44 18.10.2021
5859 Clouds 10 1014 69 10000 2.95 175 20:42 18.10.2021
5860 Clouds 10 1014 67 10000 3.15 173 20:18 18.10.2021
5861 Clouds 10 1014 67 10000 3.15 173 19:30 18.10.2021
5862 Clouds 11 1014 65 10000 3.37 167 18:57 18.10.2021
5863 Clouds 13 1011 55 10000 3.51 168 15:45 18.10.2021
5864 Clouds 15 1007 44 10000 2.88 179 14:28 18.10.2021
5865 Clouds 19 1004 32 10000 3.55 176 10:55 18.10.2021
5866 Clouds 19 1004 33 10000 3.23 186 09:31 18.10.2021
5867 Clouds 15 1013 45 10000 2.72 186 05:32 18.10.2021
5868 Clouds 10 1015 70 10000 2.09 164 23:45 17.10.2021
5869 Clouds 11 1014 64 10000 2.2 167 21:58 17.10.2021
5870 Clouds 11 1014 64 10000 2.2 167 21:40 17.10.2021
5871 Clouds 11 1014 62 10000 2.37 171 20:40 17.10.2021
5872 Clouds 11 1013 59 10000 2.22 173 19:43 17.10.2021
5873 Clouds 12 1013 56 10000 2.26 176 19:24 17.10.2021
5874 Clouds 13 1012 52 10000 2.52 171 17:47 17.10.2021
5875 Clouds 14 1011 46 10000 2.41 164 15:54 17.10.2021
5876 Clouds 14 1010 42 10000 1.88 164 14:32 17.10.2021
5877 Clouds 14 1008 41 10000 1.19 189 13:56 17.10.2021
5878 Clouds 17 1007 38 10000 0.99 199 12:35 17.10.2021
5879 Clouds 18 1007 30 10000 1.98 194 10:45 17.10.2021
5880 Clouds 18 1007 30 10000 2.58 199 09:48 17.10.2021
5881 Clear 17 1011 35 10000 2.52 201 07:42 17.10.2021
5882 Clouds 8 1017 66 10000 2.03 164 00:56 17.10.2021
5883 Clouds 8 1016 60 10000 2.16 164 00:27 17.10.2021
5884 Clouds 9 1016 59 10000 2.48 167 22:35 16.10.2021
5885 Clouds 11 1014 48 10000 2.47 164 20:36 16.10.2021
5886 Clouds 11 1013 45 10000 2.37 161 19:56 16.10.2021
5887 Clouds 11 1013 45 10000 2.37 161 19:37 16.10.2021
5888 Clouds 12 1013 44 10000 2.17 164 19:18 16.10.2021
5889 Clouds 12 1013 44 10000 2.17 164 18:42 16.10.2021
5890 Clouds 13 1012 42 10000 1.97 170 18:20 16.10.2021
5891 Clouds 13 1011 41 10000 1.65 182 17:29 16.10.2021
5892 Clouds 13 1010 41 10000 1.26 180 15:40 16.10.2021
5893 Clouds 17 1007 37 10000 1.31 181 12:45 16.10.2021
5894 Clouds 19 1006 28 10000 2.35 194 10:57 16.10.2021
5895 Clouds 18 1008 31 10000 2.83 191 08:56 16.10.2021
5896 Clear 8 1016 55 10000 1.71 151 01:37 16.10.2021
5897 Clear 8 1013 47 10000 1.54 147 00:29 16.10.2021
5898 Clear 9 1013 44 10000 1.52 154 23:25 15.10.2021
5899 Clear 10 1012 42 10000 1.41 162 22:20 15.10.2021
5900 Clear 10 1012 42 10000 1.41 162 21:40 15.10.2021
5901 Clear 10 1012 40 10000 1.3 170 20:54 15.10.2021
5902 Clear 10 1011 39 10000 1.15 177 20:22 15.10.2021
5903 Clear 11 1011 38 10000 0.85 185 19:19 15.10.2021
5904 Clear 11 1011 38 10000 0.56 188 18:21 15.10.2021
5905 Clear 13 1010 37 10000 0.43 338 15:46 15.10.2021
5906 Clear 14 1008 35 10000 0.98 248 14:22 15.10.2021
5907 Clear 18 1006 25 10000 1.56 213 12:25 15.10.2021
5908 Clear 18 1006 25 10000 1.85 209 11:18 15.10.2021
5909 Clear 18 1007 26 10000 1.93 206 10:28 15.10.2021
5910 Clear 17 1010 32 10000 1.92 209 07:35 15.10.2021
5911 Clear 13 1016 48 10000 1.51 187 04:46 15.10.2021
5912 Clear 7 1016 61 10000 2.29 170 00:22 15.10.2021
5913 Clear 8 1015 56 10000 2.43 173 23:25 14.10.2021
5914 Clear 9 1014 49 10000 2.49 170 22:20 14.10.2021
5915 Clear 9 1014 49 10000 2.49 170 21:37 14.10.2021
5916 Clear 10 1013 37 10000 2.77 172 20:20 14.10.2021
5917 Clear 10 1013 37 10000 2.77 172 19:46 14.10.2021
5918 Clear 11 1012 33 10000 2.61 174 18:40 14.10.2021
5919 Clear 11 1012 33 10000 2.61 174 18:40 14.10.2021
5920 Clear 12 1010 28 10000 2.16 189 16:59 14.10.2021
5921 Clear 12 1010 28 10000 2.16 189 16:32 14.10.2021
5922 Clear 13 1007 30 10000 0.84 227 14:55 14.10.2021
5923 Clear 13 1006 30 10000 0.74 234 14:27 14.10.2021
5924 Clear 13 1006 30 10000 0.74 234 13:34 14.10.2021
5925 Clear 18 1005 20 10000 1.71 220 11:35 14.10.2021
5926 Clear 18 1008 21 10000 2.97 198 09:24 14.10.2021
5927 Clear 15 1014 33 10000 2.22 184 06:21 14.10.2021
5928 Clouds 7 1016 47 10000 2.11 168 00:43 14.10.2021
5929 Clouds 8 1014 40 10000 2.31 169 22:42 13.10.2021
5930 Clouds 9 1013 36 10000 2.51 167 21:37 13.10.2021
5931 Clear 10 1012 33 10000 2.61 167 20:45 13.10.2021
5932 Clear 11 1011 31 10000 2.42 167 19:39 13.10.2021
5933 Clear 11 1011 31 10000 2.21 167 18:47 13.10.2021
5934 Clear 13 1009 29 10000 1.99 181 17:22 13.10.2021
5935 Clear 14 1007 29 10000 1.1 209 14:55 13.10.2021
5936 Clear 14 1007 29 10000 1.1 209 14:34 13.10.2021
5937 Clear 17 1005 30 10000 1.18 220 12:48 13.10.2021
5938 Clear 19 1004 20 10000 1.98 210 11:37 13.10.2021
5939 Clear 19 1006 21 10000 2.9 200 10:21 13.10.2021
5940 Clear 18 1009 26 10000 2.74 194 07:54 13.10.2021
5941 Clear 13 1015 42 10000 2.08 177 04:50 13.10.2021
5942 Clear 7 1016 62 10000 1.98 165 02:22 13.10.2021
5943 Clear 8 1014 55 10000 2.23 167 23:51 12.10.2021
5944 Clear 9 1013 51 10000 2.24 170 23:27 12.10.2021
5945 Clear 9 1013 51 10000 2.24 170 22:41 12.10.2021
5946 Clear 10 1012 43 10000 2.45 169 20:55 12.10.2021
5947 Clear 10 1013 43 10000 2.49 170 20:31 12.10.2021
5948 Clear 11 1012 40 10000 2.4 166 19:45 12.10.2021
5949 Clear 12 1010 36 10000 2.32 173 18:26 12.10.2021
5950 Clear 12 1010 36 10000 2.32 173 17:35 12.10.2021
5951 Clear 13 1009 35 10000 1.84 180 16:35 12.10.2021
5952 Clear 13 1008 34 10000 1.4 184 15:35 12.10.2021
5953 Clear 14 1006 36 10000 0.79 227 14:20 12.10.2021
5954 Clear 14 1006 36 10000 0.79 227 13:41 12.10.2021
5955 Clear 18 1005 24 10000 1.77 210 11:36 12.10.2021
5956 Clear 19 1006 25 10000 2.71 204 09:41 12.10.2021
5957 Clear 18 1007 27 10000 2.66 199 08:35 12.10.2021
5958 Clear 16 1012 37 10000 2 192 06:46 12.10.2021
5959 Clear 13 1015 50 10000 1.82 171 04:52 12.10.2021
5960 Clear 11 1016 57 10000 1.88 169 04:28 12.10.2021
5961 Clear 8 1014 66 10000 2.34 166 23:59 11.10.2021
5962 Clear 8 1014 66 10000 2.34 166 23:37 11.10.2021
5963 Clear 9 1013 61 10000 2.5 167 22:55 11.10.2021
5964 Clear 9 1012 56 10000 2.6 171 21:32 11.10.2021
5965 Clear 10 1012 52 10000 2.63 169 20:32 11.10.2021
5966 Clear 11 1011 51 10000 2.7 171 19:36 11.10.2021
5967 Clear 12 1010 42 10000 2.41 174 18:24 11.10.2021
5968 Clear 13 1008 40 10000 2.07 178 16:48 11.10.2021
5969 Clear 13 1007 40 10000 1.22 200 16:28 11.10.2021
5970 Clear 13 1007 40 10000 1.22 200 15:45 11.10.2021
5971 Clear 14 1006 41 10000 0.76 250 14:54 11.10.2021
5972 Clear 14 1004 40 10000 0.76 243 14:22 11.10.2021
5973 Clear 14 1004 40 10000 0.76 243 13:36 11.10.2021
5974 Clouds 18 1004 30 10000 1.86 194 11:25 11.10.2021
5975 Clouds 18 1005 32 10000 2.57 193 09:47 11.10.2021
5976 Clouds 17 1007 34 10000 3.09 194 08:40 11.10.2021
5977 Clear 8 1015 73 10000 2.27 163 01:47 11.10.2021
5978 Clear 8 1013 69 10000 2.25 163 01:20 11.10.2021
5979 Clear 8 1013 69 10000 2.25 163 00:42 11.10.2021
5980 Clear 9 1012 66 10000 2.16 167 23:35 10.10.2021
5981 Clear 10 1011 59 10000 2.31 170 21:51 10.10.2021
5982 Clear 10 1010 56 10000 2.47 171 21:26 10.10.2021
5983 Clear 10 1010 56 10000 2.47 171 20:41 10.10.2021
5984 Clear 11 1010 55 10000 2.31 175 20:20 10.10.2021
5985 Clear 11 1010 55 10000 2.31 175 19:49 10.10.2021
5986 Clear 11 1010 55 10000 2.31 175 19:31 10.10.2021
5987 Clear 13 1009 46 10000 2.56 177 18:23 10.10.2021
5988 Clear 14 1007 43 10000 2 201 15:54 10.10.2021
5989 Clear 14 1007 43 10000 2 201 15:36 10.10.2021
5990 Clear 14 1004 42 10000 1.07 206 13:42 10.10.2021
5991 Clouds 17 1003 38 10000 0.94 193 12:44 10.10.2021
5992 Clouds 18 1003 31 10000 1.38 191 12:22 10.10.2021
5993 Clouds 18 1003 31 10000 1.83 194 10:33 10.10.2021
5994 Clouds 18 1006 34 10000 2.69 192 09:22 10.10.2021
5995 Clouds 18 1006 34 10000 2.69 192 08:51 10.10.2021
5996 Clear 16 1010 40 10000 2.8 186 06:36 10.10.2021
5997 Clear 7 1014 71 10000 2.28 164 02:23 10.10.2021
5998 Clear 8 1013 69 10000 2.28 163 00:54 10.10.2021
5999 Clear 8 1011 67 10000 2.3 164 23:52 09.10.2021
6000 Clear 8 1011 67 10000 2.3 164 23:52 09.10.2021
6001 Clear 9 1010 62 10000 2.21 170 22:21 09.10.2021
6002 Clear 9 1010 62 10000 2.21 170 21:30 09.10.2021
6003 Clear 9 1010 62 10000 2.21 170 21:30 09.10.2021
6004 Clear 11 1009 55 10000 2.71 172 20:19 09.10.2021
6005 Clear 11 1009 55 10000 2.71 172 19:41 09.10.2021
6006 Clear 11 1009 51 10000 2.6 173 18:45 09.10.2021
6007 Clear 12 1008 48 10000 2.67 178 17:51 09.10.2021
6008 Clear 14 1005 41 10000 2.85 195 16:20 09.10.2021
6009 Clouds 15 1002 39 10000 1.94 188 13:49 09.10.2021
6010 Clouds 15 1002 39 10000 1.94 188 13:31 09.10.2021
6011 Clouds 19 1001 30 10000 2.02 177 12:23 09.10.2021
6012 Clouds 19 1001 30 10000 2.15 193 10:44 09.10.2021
6013 Clouds 18 1002 32 10000 2.57 199 10:18 09.10.2021
6014 Clouds 18 1004 35 10000 3 197 08:33 09.10.2021
6015 Clouds 17 1006 38 10000 3.09 195 07:54 09.10.2021
6016 Clear 15 1011 46 10000 2.5 180 06:29 09.10.2021
6017 Clear 13 1012 51 10000 2.29 172 04:31 09.10.2021
6018 Clear 10 1013 66 10000 2.21 163 02:44 09.10.2021
6019 Clear 9 1010 68 10000 2.49 168 00:23 09.10.2021
6020 Clear 9 1010 68 10000 2.49 168 23:31 08.10.2021
6021 Clear 9 1009 66 10000 2.52 169 22:46 08.10.2021
6022 Clear 10 1009 64 10000 2.45 170 21:44 08.10.2021
6023 Clear 11 1008 58 10000 2.63 182 19:49 08.10.2021
6024 Clouds 12 1007 51 10000 2.82 183 18:23 08.10.2021
6025 Clouds 13 1006 47 10000 2.74 180 16:55 08.10.2021
6026 Clear 14 1004 44 10000 2.25 183 16:24 08.10.2021
6027 Clear 15 1002 40 10000 1.82 211 14:57 08.10.2021
6028 Clear 15 1001 40 10000 2.14 204 13:46 08.10.2021
6029 Clear 19 999 30 10000 2.59 182 11:42 08.10.2021
6030 Clear 19 1000 31 10000 2.57 180 10:42 08.10.2021
6031 Clear 19 1001 33 10000 3.02 189 09:47 08.10.2021
6032 Clear 13 1010 60 10000 2.19 169 04:20 08.10.2021
6033 Clear 10 1008 61 10000 2.17 165 23:25 07.10.2021
6034 Clear 10 1008 61 10000 2.17 165 22:35 07.10.2021
6035 Clear 11 1006 54 10000 2.06 155 21:29 07.10.2021
6036 Clear 11 1006 54 10000 2.06 155 20:39 07.10.2021
6037 Clear 12 1006 51 10000 1.76 158 19:32 07.10.2021
6038 Clear 13 1005 47 10000 1.91 173 18:41 07.10.2021
6039 Clear 14 1005 44 10000 1.85 183 17:32 07.10.2021
6040 Clouds 14 1004 43 10000 1.71 196 16:42 07.10.2021
6041 Clouds 15 1002 40 10000 1.46 178 14:55 07.10.2021
6042 Clouds 16 1002 43 10000 1.06 289 13:43 07.10.2021
6043 Clouds 18 1001 37 10000 1.45 245 12:54 07.10.2021
6044 Clouds 20 1000 28 10000 2.04 199 10:59 07.10.2021
6045 Clouds 20 1000 28 10000 2.04 199 10:40 07.10.2021
6046 Clouds 20 1001 29 10000 2.4 201 09:43 07.10.2021
6047 Clear 20 1003 31 10000 2.36 199 08:54 07.10.2021
6048 Clear 19 1005 36 10000 2.41 193 07:58 07.10.2021
6049 Clear 19 1005 36 10000 2.41 193 07:38 07.10.2021
6050 Clear 18 1007 42 10000 2.22 188 06:38 07.10.2021
6051 Clear 9 1011 63 10000 1.47 143 00:48 07.10.2021
6052 Clear 10 1010 56 10000 1.69 143 23:19 06.10.2021
6053 Clear 10 1010 56 10000 1.69 143 22:31 06.10.2021
6054 Clear 11 1009 50 10000 1.19 131 21:26 06.10.2021
6055 Clear 12 1008 49 10000 1.11 115 20:28 06.10.2021
6056 Clear 12 1008 47 10000 0.64 108 18:59 06.10.2021
6057 Clear 13 1007 44 10000 0.99 197 17:26 06.10.2021
6058 Clear 14 1006 44 10000 0.67 262 15:37 06.10.2021
6059 Clear 14 1005 42 10000 0.74 200 14:41 06.10.2021
6060 Clouds 18 1003 37 10000 0.91 211 13:24 06.10.2021
6061 Clouds 18 1003 37 10000 0.91 211 12:47 06.10.2021
6062 Clouds 19 1002 30 10000 1.25 200 12:25 06.10.2021
6063 Clouds 19 1002 30 10000 1.81 198 11:23 06.10.2021
6064 Clouds 19 1003 31 10000 2.12 196 09:40 06.10.2021
6065 Clouds 19 1005 34 10000 2.02 199 08:59 06.10.2021
6066 Clouds 19 1005 34 10000 2.02 199 08:30 06.10.2021
6067 Clear 15 1012 48 10000 1.67 189 05:56 06.10.2021
6068 Clear 8 1015 76 10000 1.69 159 02:19 06.10.2021
6069 Clear 8 1014 72 10000 2.04 166 00:22 06.10.2021
6070 Clear 8 1014 72 10000 2.04 166 23:51 05.10.2021
6071 Clear 9 1013 70 10000 2.21 169 23:29 05.10.2021
6072 Clear 9 1013 70 10000 2.21 169 22:31 05.10.2021
6073 Clear 9 1013 68 10000 2.27 170 21:57 05.10.2021
6074 Clear 10 1013 65 10000 2.33 171 21:20 05.10.2021
6075 Clouds 11 1013 63 10000 2.61 170 20:26 05.10.2021
6076 Clouds 11 1013 63 10000 2.61 170 19:50 05.10.2021
6077 Clouds 12 1012 58 10000 2.76 170 19:24 05.10.2021
6078 Clouds 12 1011 54 10000 2.84 171 18:21 05.10.2021
6079 Clouds 14 1008 44 10000 2.08 172 15:33 05.10.2021
6080 Clouds 15 1004 42 10000 0.07 161 13:49 05.10.2021
6081 Clouds 18 1003 37 10000 0.89 201 13:22 05.10.2021
6082 Clouds 18 1003 37 10000 0.89 201 12:34 05.10.2021
6083 Clouds 19 1003 31 10000 1.9 196 11:41 05.10.2021
6084 Clouds 19 1004 31 10000 2.27 199 10:34 05.10.2021
6085 Clouds 17 1009 37 10000 3.38 196 07:38 05.10.2021
6086 Clouds 8 1015 75 10000 2.49 173 01:46 05.10.2021
6087 Clouds 9 1013 71 10000 2.57 174 22:56 04.10.2021
6088 Clouds 10 1012 67 10000 2.99 173 21:27 04.10.2021
6089 Clouds 12 1010 64 10000 3.05 179 18:51 04.10.2021
6090 Clouds 13 1009 62 10000 2.9 185 17:29 04.10.2021
6091 Clouds 13 1008 62 10000 2.92 178 15:33 04.10.2021
6092 Clouds 13 1006 60 10000 3.22 175 14:46 04.10.2021
6093 Clouds 14 1004 56 10000 3.15 191 14:18 04.10.2021
6094 Clouds 14 1004 56 10000 3.15 191 13:31 04.10.2021
6095 Clouds 17 1002 48 10000 2.96 182 12:50 04.10.2021
6096 Clouds 18 1001 43 10000 3.26 185 11:33 04.10.2021
6097 Clouds 18 1001 43 10000 2.44 208 10:45 04.10.2021
6098 Clouds 17 1002 44 10000 2.7 214 09:44 04.10.2021
6099 Clouds 17 1004 43 10000 3.09 192 07:53 04.10.2021
6100 Clouds 17 1006 46 10000 3.18 188 06:50 04.10.2021
6101 Clouds 11 1010 78 10000 1.51 151 22:51 03.10.2021
6102 Clouds 11 1010 80 10000 1.76 173 21:56 03.10.2021
6103 Clouds 11 1010 80 10000 1.76 173 21:31 03.10.2021
6104 Clouds 11 1010 80 10000 2.15 195 20:45 03.10.2021
6105 Clouds 11 1010 82 10000 1.99 190 19:46 03.10.2021
6106 Clouds 11 1010 81 10000 2.12 178 18:29 03.10.2021
6107 Clouds 11 1010 81 10000 2.12 178 17:37 03.10.2021
6108 Clouds 12 1007 70 10000 2.77 173 15:29 03.10.2021
6109 Clouds 14 1003 49 10000 2.79 199 14:30 03.10.2021
6110 Clouds 15 1002 47 10000 2.35 217 13:35 03.10.2021
6111 Clouds 18 1000 42 10000 2.19 221 12:45 03.10.2021
6112 Clouds 19 1000 35 10000 2.43 212 11:37 03.10.2021
6113 Clouds 18 1001 39 10000 2.28 206 09:58 03.10.2021
6114 Clouds 16 1009 49 10000 2.92 188 05:38 03.10.2021
6115 Clouds 10 1010 71 10000 2.58 170 22:52 02.10.2021
6116 Clouds 10 1010 72 10000 2.56 177 21:51 02.10.2021
6117 Clouds 11 1010 72 10000 3.04 177 20:33 02.10.2021
6118 Clouds 12 1009 68 10000 2.86 169 18:56 02.10.2021
6119 Clouds 12 1009 67 10000 2.73 170 18:20 02.10.2021
6120 Clouds 12 1009 67 10000 2.73 170 17:37 02.10.2021
6121 Clouds 13 1008 63 10000 3.08 170 16:39 02.10.2021
6122 Clouds 18 1008 40 10000 3.38 193 07:30 02.10.2021
6123 Clear 13 1012 27 10000 0.54 350 15:37 30.09.2021
6124 Clouds 14 1010 29 10000 1 33 13:57 30.09.2021
6125 Clouds 19 1008 19 10000 1.58 27 11:54 30.09.2021
6126 Clouds 19 1008 19 10000 1.43 25 10:53 30.09.2021
6127 Clouds 19 1009 20 10000 1.03 26 10:25 30.09.2021
6128 Clouds 19 1011 21 10000 0.65 27 08:31 30.09.2021
6129 Clear 18 1013 25 10000 0.4 25 07:35 30.09.2021
6130 Clear 14 1019 39 10000 0.7 36 05:25 30.09.2021
6131 Clear 7 1021 58 10000 1.71 22 02:19 30.09.2021
6132 Clear 7 1020 56 10000 1.74 22 00:30 30.09.2021
6133 Clear 8 1018 53 10000 1.76 17 22:39 29.09.2021
6134 Clear 9 1018 49 10000 2.04 14 21:28 29.09.2021
6135 Clouds 10 1016 46 10000 1.95 15 20:30 29.09.2021
6136 Clouds 10 1016 46 10000 1.95 15 19:56 29.09.2021
6137 Clouds 11 1016 44 10000 1.89 15 18:54 29.09.2021
6138 Clouds 12 1015 43 10000 1.73 20 17:55 29.09.2021
6139 Clouds 12 1015 42 10000 1.58 16 16:55 29.09.2021
6140 Clear 13 1013 41 10000 1.79 6 16:21 29.09.2021
6141 Clear 13 1011 38 10000 1.86 2 14:39 29.09.2021
6142 Clouds 14 1009 38 10000 1.1 53 14:18 29.09.2021
6143 Clouds 18 1008 37 10000 1.08 43 13:27 29.09.2021
6144 Clouds 18 1008 37 10000 1.08 43 12:36 29.09.2021
6145 Clouds 19 1008 26 10000 1.97 45 10:50 29.09.2021
6146 Clouds 19 1009 27 10000 1.54 48 09:58 29.09.2021
6147 Clouds 19 1009 27 10000 1.54 48 09:35 29.09.2021
6148 Clouds 18 1013 31 10000 0.49 311 07:39 29.09.2021
6149 Clouds 14 1018 36 10000 0.2 151 04:39 29.09.2021
6150 Clouds 8 1017 45 10000 0.45 86 23:29 28.09.2021
6151 Clear 8 1016 45 10000 0.45 74 22:24 28.09.2021
6152 Clear 8 1016 45 10000 0.45 74 21:45 28.09.2021
6153 Clear 8 1016 45 10000 0.29 32 20:44 28.09.2021
6154 Clear 9 1016 43 10000 0.66 178 19:47 28.09.2021
6155 Clear 9 1015 43 10000 0.72 178 18:51 28.09.2021
6156 Clear 10 1015 42 10000 0.44 193 18:18 28.09.2021
6157 Clear 10 1014 42 10000 0.23 320 16:41 28.09.2021
6158 Clear 11 1012 41 10000 0.24 34 14:37 28.09.2021
6159 Clear 15 1010 34 10000 0.41 306 13:19 28.09.2021
6160 Clear 16 1010 26 10000 0.46 291 12:22 28.09.2021
6161 Clear 16 1010 26 10000 0.46 291 11:47 28.09.2021
6162 Clear 17 1010 25 10000 0.46 299 11:23 28.09.2021
6163 Clear 17 1012 25 10000 0.34 305 10:21 28.09.2021
6164 Clear 17 1012 25 10000 0.34 305 10:21 28.09.2021
6165 Clear 16 1014 25 10000 0.13 7 09:22 28.09.2021
6166 Clear 16 1014 25 10000 0.13 7 08:39 28.09.2021
6167 Clear 15 1016 28 10000 0.56 42 07:49 28.09.2021
6168 Clear 13 1020 37 10000 0.88 37 05:41 28.09.2021
6169 Clear 5 1024 67 10000 1.99 37 01:26 28.09.2021
6170 Clear 5 1023 66 10000 1.97 31 00:26 28.09.2021
6171 Clear 5 1023 66 10000 1.97 31 23:44 27.09.2021
6172 Clear 5 1023 65 10000 2.08 28 23:23 27.09.2021
6173 Clear 5 1023 65 10000 2.11 26 22:20 27.09.2021
6174 Clear 6 1023 65 10000 2.08 29 20:49 27.09.2021
6175 Clear 6 1023 67 10000 1.97 32 20:23 27.09.2021
6176 Clear 7 1021 70 10000 2.15 31 19:30 27.09.2021
6177 Clear 8 1021 70 10000 2.2 29 18:52 27.09.2021
6178 Clear 8 1021 70 10000 2.2 29 18:52 27.09.2021
6179 Clear 8 1021 72 10000 2 31 17:36 27.09.2021
6180 Clear 9 1020 72 10000 2.29 31 16:53 27.09.2021
6181 Clear 9 1019 72 10000 2.4 33 15:46 27.09.2021
6182 Clear 10 1017 74 10000 2.01 35 15:27 27.09.2021
6183 Clouds 10 1015 75 10000 1.8 34 13:35 27.09.2021
6184 Clouds 13 1014 62 10000 2.73 24 12:22 27.09.2021
6185 Clouds 12 1016 64 10000 2.9 13 10:48 27.09.2021
6186 Clouds 11 1018 72 10000 3.39 21 09:38 27.09.2021
6187 Clouds 10 1021 86 8968 2.09 26 06:37 27.09.2021
6188 Clouds 8 1021 92 5069 0.67 330 03:31 27.09.2021
6189 Clouds 9 1016 87 10000 1.28 6 23:42 26.09.2021
6190 Clouds 9 1016 90 10000 1.33 14 21:55 26.09.2021
6191 Clouds 10 1016 88 10000 1.36 11 21:27 26.09.2021
6192 Clouds 10 1015 86 10000 1.19 330 20:25 26.09.2021
6193 Rain 10 1015 86 10000 1.19 330 19:54 26.09.2021
6194 Rain 11 1015 84 10000 0.44 231 19:25 26.09.2021
6195 Rain 11 1015 84 10000 0.44 231 19:25 26.09.2021
6196 Rain 11 1015 84 10000 0.44 231 19:25 26.09.2021
6197 Rain 11 1015 84 10000 0.44 231 19:25 26.09.2021
6198 Rain 11 1015 84 10000 0.44 231 19:25 26.09.2021
6199 Rain 11 1015 84 10000 0.44 231 18:34 26.09.2021
6200 Clouds 10 1016 85 10000 0.47 222 17:38 26.09.2021
6201 Rain 10 1015 84 10000 0.19 217 17:18 26.09.2021
6202 Clouds 10 1015 83 10000 0.34 324 16:22 26.09.2021
6203 Clouds 11 1013 80 10000 0.43 33 15:27 26.09.2021
6204 Clouds 11 1013 79 10000 2.46 11 14:20 26.09.2021
6205 Clouds 11 1013 79 10000 2.46 11 13:42 26.09.2021
6206 Clouds 12 1011 73 10000 2.85 12 12:31 26.09.2021
6207 Clouds 13 1010 70 10000 2.83 11 11:56 26.09.2021
6208 Clouds 14 1010 68 10000 3.06 5 11:23 26.09.2021
6209 Clouds 15 1009 63 10000 2.03 2 09:50 26.09.2021
6210 Clouds 15 1010 61 10000 1.58 14 08:41 26.09.2021
6211 Clouds 11 1012 79 10000 0.8 136 00:29 26.09.2021
6212 Clouds 11 1012 79 10000 0.8 136 23:46 25.09.2021
6213 Clouds 11 1012 82 10000 0.86 135 22:39 25.09.2021
6214 Clouds 11 1012 83 10000 1.17 136 22:19 25.09.2021
6215 Clouds 11 1012 83 10000 1.17 136 21:45 25.09.2021
6216 Clouds 11 1013 83 10000 0.55 128 20:52 25.09.2021
6217 Clouds 11 1012 82 10000 0.88 57 19:40 25.09.2021
6218 Clouds 12 1011 77 10000 0.93 60 18:28 25.09.2021
6219 Rain 12 1010 74 10000 0.97 62 17:23 25.09.2021
6220 Rain 15 1005 53 10000 0.86 197 14:38 25.09.2021
6221 Clouds 16 1002 48 10000 1.13 180 13:55 25.09.2021
6222 Clouds 19 1001 41 10000 0.92 176 12:45 25.09.2021
6223 Clouds 20 1002 35 10000 1.23 202 11:27 25.09.2021
6224 Clouds 19 1003 37 10000 1.34 200 10:19 25.09.2021
6225 Clouds 19 1005 40 10000 2.1 189 09:21 25.09.2021
6226 Clouds 18 1007 42 10000 2.62 196 07:48 25.09.2021
6227 Clouds 10 1013 76 10000 2.03 165 00:52 25.09.2021
6228 Clouds 11 1011 72 10000 2.26 178 22:18 24.09.2021
6229 Clouds 11 1011 72 10000 2.26 178 21:34 24.09.2021
6230 Clouds 12 1011 69 10000 2.1 182 20:32 24.09.2021
6231 Clouds 13 1010 58 10000 2.62 175 19:32 24.09.2021
6232 Clouds 14 1008 54 10000 2.31 178 18:21 24.09.2021
6233 Clouds 14 1008 54 10000 2.31 178 17:53 24.09.2021
6234 Clouds 14 1008 54 10000 2.31 178 17:34 24.09.2021
6235 Clouds 15 1007 50 10000 2.12 187 15:50 24.09.2021
6236 Clouds 19 1002 40 10000 2.4 191 13:27 24.09.2021
6237 Clouds 19 1002 40 10000 2.4 191 12:43 24.09.2021
6238 Clouds 20 1003 36 10000 1.95 193 12:25 24.09.2021
6239 Clouds 19 1004 37 10000 1.97 191 10:56 24.09.2021
6240 Clouds 19 1005 40 10000 2.17 200 09:55 24.09.2021
6241 Clouds 19 1007 40 10000 2.7 199 08:21 24.09.2021
6242 Clouds 19 1007 40 10000 2.7 199 07:30 24.09.2021
6243 Clouds 17 1010 46 10000 2.37 189 05:57 24.09.2021
6244 Clouds 15 1012 52 10000 2.1 179 04:51 24.09.2021
6245 Clouds 12 1012 72 10000 1.86 172 22:38 23.09.2021
6246 Clouds 12 1011 71 10000 1.81 178 21:59 23.09.2021
6247 Clouds 12 1011 69 10000 1.95 184 21:20 23.09.2021
6248 Clouds 12 1011 69 10000 1.95 184 21:20 23.09.2021
6249 Clouds 12 1011 69 10000 1.95 184 20:32 23.09.2021
6250 Clouds 13 1010 62 10000 2.73 167 18:55 23.09.2021
6251 Clouds 14 1008 57 10000 2.42 161 16:47 23.09.2021
6252 Clouds 15 1005 52 10000 2.42 174 15:19 23.09.2021
6253 Clouds 15 1005 52 10000 2.42 174 14:52 23.09.2021
6254 Clouds 19 1003 41 10000 1.94 200 13:28 23.09.2021
6255 Clouds 19 1003 41 10000 1.94 200 12:57 23.09.2021
6256 Clouds 19 1003 41 10000 1.94 200 12:37 23.09.2021
6257 Clouds 19 1002 37 10000 1.96 203 12:18 23.09.2021
6258 Clouds 19 1003 37 10000 2.01 205 10:41 23.09.2021
6259 Clouds 19 1004 39 10000 2.32 201 09:57 23.09.2021
6260 Clouds 19 1004 39 10000 2.32 201 09:38 23.09.2021
6261 Clouds 16 1011 46 10000 2.36 186 06:24 23.09.2021
6262 Clouds 10 1012 71 10000 2.54 169 00:25 23.09.2021
6263 Clouds 10 1011 70 10000 2.77 163 22:54 22.09.2021
6264 Clouds 11 1010 68 10000 2.63 163 22:20 22.09.2021
6265 Clouds 11 1010 68 10000 2.63 163 21:44 22.09.2021
6266 Rain 12 1010 68 10000 2.38 167 20:58 22.09.2021
6267 Clouds 13 1009 65 10000 2.17 173 19:53 22.09.2021
6268 Clouds 13 1009 68 10000 1.37 179 19:27 22.09.2021
6269 Rain 13 1009 68 10000 1.37 179 18:34 22.09.2021
6270 Clouds 13 1009 67 10000 1.73 183 17:33 22.09.2021
6271 Clouds 15 1006 55 10000 2.56 151 15:51 22.09.2021
6272 Clouds 16 1001 48 10000 2.4 165 14:29 22.09.2021
6273 Clouds 18 1000 40 10000 1.72 185 13:19 22.09.2021
6274 Clouds 18 1000 40 10000 1.72 185 13:19 22.09.2021
6275 Clouds 19 1001 36 10000 2.41 204 11:20 22.09.2021
6276 Clouds 19 1002 37 10000 2.76 206 09:32 22.09.2021
6277 Clouds 19 1003 39 10000 2.66 200 08:45 22.09.2021
6278 Clouds 17 1006 43 10000 2.24 194 07:35 22.09.2021
6279 Clouds 16 1008 46 10000 1.74 194 06:51 22.09.2021
6280 Clouds 15 1010 50 10000 1.34 183 05:49 22.09.2021
6281 Clouds 13 1012 55 10000 1.28 172 04:54 22.09.2021
6282 Clouds 10 1014 70 10000 1.1 160 03:23 22.09.2021
6283 Clouds 8 1012 82 10000 1.96 153 23:54 21.09.2021
6284 Clouds 9 1011 78 10000 2.39 159 22:27 21.09.2021
6285 Clouds 10 1011 74 10000 2.73 158 20:58 21.09.2021
6286 Clouds 11 1010 72 10000 2.87 158 19:37 21.09.2021
6287 Clouds 11 1010 68 10000 2.85 160 19:18 21.09.2021
6288 Clouds 13 1008 58 10000 2.66 159 16:58 21.09.2021
6289 Clouds 13 1006 56 10000 1.98 155 15:57 21.09.2021
6290 Clouds 13 1004 53 10000 0.86 132 15:24 21.09.2021
6291 Clouds 13 1004 53 10000 0.86 132 14:43 21.09.2021
6292 Clouds 14 1002 45 10000 1.22 139 13:40 21.09.2021
6293 Clouds 19 1001 33 10000 0.98 172 12:45 21.09.2021
6294 Clouds 20 1001 25 10000 1.54 238 10:51 21.09.2021
6295 Clouds 20 1002 25 10000 1.8 211 09:53 21.09.2021
6296 Clear 19 1006 30 10000 2.18 200 07:44 21.09.2021
6297 Clear 17 1011 38 10000 1.56 189 05:42 21.09.2021
6298 Clear 8 1013 52 10000 0.57 121 23:52 20.09.2021
6299 Clear 9 1012 49 10000 0.45 77 21:52 20.09.2021
6300 Clear 9 1012 49 10000 0.45 77 21:32 20.09.2021
6301 Clouds 10 1012 46 10000 0.85 28 19:55 20.09.2021
6302 Clouds 11 1012 44 10000 1.15 6 19:20 20.09.2021
6303 Clouds 11 1012 43 10000 1.03 1 17:31 20.09.2021
6304 Clouds 12 1010 39 10000 0.8 355 16:26 20.09.2021
6305 Clouds 12 1010 39 10000 0.8 355 15:47 20.09.2021
6306 Clouds 13 1009 39 10000 0.37 36 14:50 20.09.2021
6307 Clouds 14 1008 40 10000 1.29 324 13:36 20.09.2021
6308 Clouds 18 1006 29 10000 1.35 338 12:34 20.09.2021
6309 Clouds 20 1006 19 10000 0.67 121 10:57 20.09.2021
6310 Clouds 20 1007 20 10000 0.61 103 09:52 20.09.2021
6311 Clouds 20 1007 20 10000 0.61 103 09:33 20.09.2021
6312 Clouds 19 1009 20 10000 0.13 100 08:56 20.09.2021
6313 Clear 18 1013 25 10000 1.08 217 06:36 20.09.2021
6314 Clear 7 1018 40 10000 1.01 12 23:30 19.09.2021
6315 Clear 8 1017 37 10000 1.63 27 21:53 19.09.2021
6316 Clear 8 1017 37 10000 1.63 27 21:33 19.09.2021
6317 Clear 8 1017 37 10000 1.51 33 20:32 19.09.2021
6318 Clouds 10 1017 37 10000 1.86 13 18:57 19.09.2021
6319 Clouds 11 1017 36 10000 1.91 5 17:57 19.09.2021
6320 Clouds 11 1016 35 10000 2.02 3 17:21 19.09.2021
6321 Clouds 12 1015 35 10000 1.72 8 15:45 19.09.2021
6322 Clouds 13 1013 37 10000 0.92 35 14:49 19.09.2021
6323 Clouds 14 1012 36 10000 1.29 104 14:25 19.09.2021
6324 Clouds 17 1010 32 10000 1.89 106 12:57 19.09.2021
6325 Clouds 17 1010 32 10000 1.89 106 12:35 19.09.2021
6326 Clear 19 1010 25 10000 1.72 95 11:25 19.09.2021
6327 Clear 18 1011 25 10000 1.29 92 09:58 19.09.2021
6328 Clear 18 1013 25 10000 1.07 83 09:26 19.09.2021
6329 Clear 17 1016 28 10000 0.37 45 07:18 19.09.2021
6330 Clear 6 1022 50 10000 1 8 01:39 19.09.2021
6331 Clear 6 1021 47 10000 0.69 342 23:26 18.09.2021
6332 Clear 7 1020 47 10000 0.69 335 21:58 18.09.2021
6333 Clear 7 1020 46 10000 0.78 341 20:48 18.09.2021
6334 Clear 8 1020 45 10000 0.86 350 20:26 18.09.2021
6335 Clouds 9 1018 60 10000 0.8 256 19:37 18.09.2021
6336 Clouds 9 1018 60 10000 0.69 249 19:19 18.09.2021
6337 Clouds 9 1018 60 10000 0.69 249 18:31 18.09.2021
6338 Clouds 10 1017 59 10000 1.03 279 17:23 18.09.2021
6339 Clouds 11 1016 57 10000 0.81 269 15:46 18.09.2021
6340 Clouds 13 1013 52 10000 0.86 210 13:46 18.09.2021
6341 Clouds 17 1010 36 10000 0.51 347 13:25 18.09.2021
6342 Clouds 17 1010 32 10000 0.44 261 12:24 18.09.2021
6343 Clouds 17 1010 32 10000 0.44 261 11:34 18.09.2021
6344 Clouds 17 1010 34 10000 1.08 211 10:31 18.09.2021
6345 Clouds 16 1013 39 10000 1.08 203 09:25 18.09.2021
6346 Clouds 16 1014 39 10000 0.85 249 08:29 18.09.2021
6347 Clouds 7 1020 89 10000 0.52 350 00:56 18.09.2021
6348 Clouds 7 1020 89 10000 0.52 350 00:35 18.09.2021
6349 Clouds 8 1019 90 10000 0.39 332 23:44 17.09.2021
6350 Clouds 8 1019 88 10000 0.25 325 22:32 17.09.2021
6351 Clouds 8 1019 88 10000 0.5 24 21:47 17.09.2021
6352 Clouds 8 1020 91 10000 0.36 282 19:53 17.09.2021
6353 Clouds 7 1020 93 5756 0.43 154 18:45 17.09.2021
6354 Clouds 8 1018 94 2802 3.04 14 16:47 17.09.2021
6355 Clouds 7 1017 95 747 2.78 5 15:32 17.09.2021
6356 Clouds 12 1007 80 4888 3.68 326 12:31 17.09.2021
6357 Rain 19 1000 47 10000 2.46 210 10:24 17.09.2021
6358 Clouds 18 1004 48 10000 2.57 209 07:49 17.09.2021
6359 Clouds 15 1009 56 10000 2.19 172 06:27 17.09.2021
6360 Clouds 11 1009 74 10000 2.24 172 00:34 17.09.2021
6361 Clouds 11 1009 75 10000 2.26 170 22:45 16.09.2021
6362 Clouds 11 1009 76 10000 2.41 175 22:24 16.09.2021
6363 Rain 11 1009 76 10000 2.41 175 21:36 16.09.2021
6364 Clouds 12 1009 75 10000 2.48 178 20:31 16.09.2021
6365 Clouds 12 1010 82 10000 2.43 169 18:52 16.09.2021
6366 Clouds 11 1010 81 10000 2.59 178 18:19 16.09.2021
6367 Clouds 11 1010 81 10000 2.59 178 18:19 16.09.2021
6368 Clouds 12 1009 74 10000 2.66 178 17:19 16.09.2021
6369 Clouds 15 1005 58 10000 2.52 182 14:51 16.09.2021
6370 Clouds 16 1002 51 10000 1.59 208 13:40 16.09.2021
6371 Clouds 19 1001 43 10000 1.91 219 12:46 16.09.2021
6372 Clouds 19 1001 38 10000 1.66 213 11:55 16.09.2021
6373 Clouds 19 1002 38 10000 2.01 212 10:56 16.09.2021
6374 Clouds 19 1004 39 10000 2.49 204 10:23 16.09.2021
6375 Clouds 19 1004 39 10000 2.49 204 09:31 16.09.2021
6376 Clouds 18 1008 44 10000 2.89 190 07:59 16.09.2021
6377 Clouds 17 1010 48 10000 2.71 191 06:58 16.09.2021
6378 Clouds 17 1010 48 10000 2.71 191 06:38 16.09.2021
6379 Clouds 13 1014 62 10000 2.06 168 03:54 16.09.2021
6380 Clouds 11 1013 78 10000 1.76 138 00:58 16.09.2021
6381 Clouds 11 1013 80 10000 1.53 125 23:31 15.09.2021
6382 Clouds 11 1013 78 10000 1.21 120 22:44 15.09.2021
6383 Clouds 12 1013 78 10000 1.1 116 21:31 15.09.2021
6384 Clouds 12 1013 76 10000 0.71 94 20:49 15.09.2021
6385 Clouds 12 1013 78 10000 0.14 48 19:33 15.09.2021
6386 Clouds 13 1013 73 10000 0.96 238 18:53 15.09.2021
6387 Clouds 13 1012 70 10000 0.35 171 17:45 15.09.2021
6388 Clouds 13 1011 65 10000 0.75 108 16:43 15.09.2021
6389 Clouds 13 1011 65 10000 0.75 108 16:43 15.09.2021
6390 Clouds 15 1009 59 10000 0.34 151 15:25 15.09.2021
6391 Clouds 15 1009 59 10000 0.34 151 14:43 15.09.2021
6392 Clouds 15 1007 57 10000 0.56 205 13:48 15.09.2021
6393 Clouds 19 1005 41 10000 1.05 204 13:28 15.09.2021
6394 Clouds 19 1005 41 10000 1.05 204 12:33 15.09.2021
6395 Clouds 19 1005 39 10000 1.18 225 11:51 15.09.2021
6396 Clouds 19 1005 40 10000 1.64 235 10:58 15.09.2021
6397 Clouds 19 1005 40 10000 1.64 235 10:35 15.09.2021
6398 Clouds 19 1008 39 10000 2.45 187 08:51 15.09.2021
6399 Clouds 18 1012 45 10000 2.43 192 07:27 15.09.2021
6400 Clouds 10 1017 73 10000 1.69 168 02:21 15.09.2021
6401 Clouds 12 1015 64 10000 2.56 163 22:26 14.09.2021
6402 Clouds 12 1014 63 10000 2.65 164 21:26 14.09.2021
6403 Clouds 13 1013 60 10000 2.6 161 20:25 14.09.2021
6404 Clouds 13 1013 61 10000 2.71 165 19:40 14.09.2021
6405 Clouds 14 1011 57 10000 2.79 163 17:33 14.09.2021
6406 Clouds 14 1011 55 10000 2.65 165 16:43 14.09.2021
6407 Clouds 15 1007 49 10000 2.54 165 15:24 14.09.2021
6408 Clouds 16 1006 47 10000 1.96 181 14:19 14.09.2021
6409 Clouds 20 1004 35 10000 1.85 201 11:48 14.09.2021
6410 Clouds 20 1005 35 10000 2.14 202 10:47 14.09.2021
6411 Clouds 20 1006 36 10000 2.68 199 09:49 14.09.2021
6412 Clouds 19 1010 40 10000 2.95 193 07:58 14.09.2021
6413 Clouds 11 1016 71 10000 1.9 173 02:55 14.09.2021
6414 Clouds 10 1014 79 10000 2.45 172 23:29 13.09.2021
6415 Clouds 10 1013 80 10000 2.48 175 22:28 13.09.2021
6416 Clouds 10 1013 80 10000 2.48 175 21:56 13.09.2021
6417 Clouds 10 1013 80 10000 2.48 175 21:56 13.09.2021
6418 Clouds 10 1013 80 10000 2.48 175 21:32 13.09.2021
6419 Clouds 12 1013 80 10000 2.12 190 19:38 13.09.2021
6420 Clouds 12 1012 80 10000 2.29 189 18:45 13.09.2021
6421 Clouds 12 1012 81 10000 2.04 212 17:38 13.09.2021
6422 Clouds 13 1012 80 10000 2.29 237 16:49 13.09.2021
6423 Clouds 13 1007 72 10000 3.58 200 14:45 13.09.2021
6424 Clouds 19 1002 44 10000 1.67 188 11:44 13.09.2021
6425 Clouds 19 1002 43 10000 2.27 194 10:42 13.09.2021
6426 Clouds 20 1003 42 10000 2.92 186 08:41 13.09.2021
6427 Clouds 10 1011 82 10000 1.2 190 00:38 13.09.2021
6428 Clouds 10 1010 82 10000 1.85 185 22:51 12.09.2021
6429 Clouds 10 1010 81 10000 1.91 188 22:22 12.09.2021
6430 Clouds 11 1010 80 10000 2.05 184 21:21 12.09.2021
6431 Clouds 11 1010 79 10000 2.2 184 20:19 12.09.2021
6432 Rain 11 1009 79 10000 2.18 187 19:37 12.09.2021
6433 Clouds 12 1009 79 10000 2.32 187 19:18 12.09.2021
6434 Clouds 12 1009 79 10000 2.69 182 18:18 12.09.2021
6435 Clouds 14 1006 65 10000 3.32 175 15:58 12.09.2021
6436 Clouds 15 1003 57 10000 3.23 180 14:47 12.09.2021
6437 Clouds 20 999 42 10000 2.99 193 12:43 12.09.2021
6438 Clouds 21 999 36 10000 2.05 197 10:32 12.09.2021
6439 Clouds 20 1002 40 10000 2.78 204 08:39 12.09.2021
6440 Clouds 19 1004 43 10000 2.81 195 07:30 12.09.2021
6441 Clouds 10 1011 82 10000 1.41 157 00:47 12.09.2021
6442 Clouds 11 1010 80 10000 0.82 132 22:58 11.09.2021
6443 Clouds 12 1009 76 10000 0.66 142 21:39 11.09.2021
6444 Clouds 13 1009 71 10000 1.62 164 19:41 11.09.2021
6445 Clouds 13 1010 71 10000 1.3 110 18:28 11.09.2021
6446 Clouds 13 1009 69 10000 1.88 150 17:29 11.09.2021
6447 Clouds 13 1008 68 10000 1.93 151 15:37 11.09.2021
6448 Clouds 17 1004 55 10000 2.03 172 13:25 11.09.2021
6449 Clouds 17 1004 53 10000 2.41 184 11:44 11.09.2021
6450 Clouds 17 1005 53 10000 1.8 187 10:35 11.09.2021
6451 Clouds 16 1008 57 10000 1.66 185 08:54 11.09.2021
6452 Clouds 16 1010 55 10000 1.71 181 07:44 11.09.2021
6453 Rain 12 1015 76 10000 1.59 150 04:23 11.09.2021
6454 Clouds 10 1014 87 10000 1.46 106 22:43 10.09.2021
6455 Clouds 11 1014 86 10000 1.77 106 22:18 10.09.2021
6456 Clouds 11 1014 86 10000 1.77 106 21:40 10.09.2021
6457 Rain 12 1013 75 10000 2.31 154 19:32 10.09.2021
6458 Rain 13 1012 71 10000 2.64 166 17:58 10.09.2021
6459 Rain 14 1010 65 10000 2 151 16:28 10.09.2021
6460 Rain 15 1007 61 10000 2.28 160 13:32 10.09.2021
6461 Clouds 17 1007 51 10000 2.43 177 10:54 10.09.2021
6462 Clouds 14 1013 60 10000 1.57 205 08:26 10.09.2021
6463 Clouds 14 1014 62 10000 1.44 202 07:43 10.09.2021
6464 Clouds 8 1017 83 10000 0.68 191 00:41 10.09.2021
6465 Clouds 8 1018 89 10000 1.71 204 21:56 09.09.2021
6466 Clouds 8 1018 90 10000 1.95 205 20:48 09.09.2021
6467 Clouds 9 1018 92 10000 2.08 207 20:28 09.09.2021
6468 Clouds 9 1019 93 10000 1.86 198 18:46 09.09.2021
6469 Rain 9 1018 90 10000 2.06 204 17:51 09.09.2021
6470 Rain 10 1018 87 10000 1.89 196 16:39 09.09.2021
6471 Clouds 10 1015 86 10000 2.06 238 15:26 09.09.2021
6472 Clouds 14 1010 68 10000 0.82 122 12:33 09.09.2021
6473 Clouds 15 1008 60 10000 0.69 4 11:33 09.09.2021
6474 Clouds 18 1007 46 10000 0.47 163 09:39 09.09.2021
6475 Clouds 16 1011 54 10000 1.1 210 07:56 09.09.2021
6476 Clouds 13 1015 66 10000 0.79 222 06:20 09.09.2021
6477 Clouds 9 1016 86 10000 1.21 281 00:43 09.09.2021
6478 Clouds 9 1016 90 10000 1.24 291 21:49 08.09.2021
6479 Clouds 9 1016 90 10000 1.16 265 20:57 08.09.2021
6480 Clouds 9 1017 92 10000 1.62 250 19:47 08.09.2021
6481 Clouds 9 1017 90 10000 1.7 206 18:49 08.09.2021
6482 Clouds 9 1017 89 10000 1.63 132 18:25 08.09.2021
6483 Rain 9 1017 89 10000 1.63 132 17:52 08.09.2021
6484 Clouds 9 1016 90 9516 1.69 4 16:24 08.09.2021
6485 Clouds 13 1008 75 10000 3.53 6 13:46 08.09.2021
6486 Clouds 15 1005 61 10000 3.11 32 12:42 08.09.2021
6487 Clouds 18 1003 48 10000 2.33 28 12:23 08.09.2021
6488 Clouds 18 1003 43 10000 0.45 323 11:26 08.09.2021
6489 Clouds 18 1003 43 10000 0.45 323 10:31 08.09.2021
6490 Clouds 18 1004 43 10000 1.62 229 09:57 08.09.2021
6491 Clouds 18 1007 46 10000 2.51 189 07:47 08.09.2021
6492 Clouds 18 1009 50 10000 2.23 187 07:19 08.09.2021
6493 Clouds 10 1013 78 10000 1.58 162 23:41 07.09.2021
6494 Clouds 10 1013 78 10000 1.58 162 23:41 07.09.2021
6495 Clouds 11 1012 74 10000 1.81 163 22:19 07.09.2021
6496 Clouds 11 1012 72 10000 1.86 164 20:50 07.09.2021
6497 Clear 12 1011 65 10000 2.07 159 19:40 07.09.2021
6498 Clear 13 1011 61 10000 1.76 169 18:37 07.09.2021
6499 Clear 13 1010 57 10000 1.71 153 17:38 07.09.2021
6500 Clouds 14 1009 56 10000 0.57 187 15:57 07.09.2021
6501 Clouds 15 1007 54 10000 0.59 162 14:54 07.09.2021
6502 Clouds 17 1005 52 10000 0.39 128 13:52 07.09.2021
6503 Clouds 20 1005 34 10000 0.68 192 12:23 07.09.2021
6504 Clouds 20 1006 35 10000 1.14 178 10:59 07.09.2021
6505 Clouds 20 1006 35 10000 1.14 178 10:37 07.09.2021
6506 Clouds 18 1011 46 10000 1.28 191 07:51 07.09.2021
6507 Clouds 17 1013 52 10000 1.26 189 06:42 07.09.2021
6508 Clouds 11 1019 83 10000 0.63 177 02:43 07.09.2021
6509 Clouds 9 1020 89 10000 0.53 154 02:23 07.09.2021
6510 Clouds 9 1018 89 10000 0.8 121 00:23 07.09.2021
6511 Clouds 9 1018 89 10000 0.8 121 23:31 06.09.2021
6512 Clouds 10 1017 86 10000 0.78 105 22:53 06.09.2021
6513 Clouds 11 1017 84 10000 1.3 123 22:25 06.09.2021
6514 Clouds 11 1016 83 10000 1.6 134 20:37 06.09.2021
6515 Clouds 13 1014 74 10000 0.58 162 19:22 06.09.2021
6516 Clouds 13 1014 74 10000 0.58 162 18:37 06.09.2021
6517 Clouds 13 1014 72 10000 1.07 189 17:58 06.09.2021
6518 Clouds 13 1013 70 10000 1.5 159 17:24 06.09.2021
6519 Clouds 14 1012 67 10000 1.68 184 15:34 06.09.2021
6520 Clouds 16 1008 63 10000 1.43 173 13:46 06.09.2021
6521 Clouds 18 1007 49 10000 0.64 153 12:45 06.09.2021
6522 Clouds 19 1008 49 10000 1.21 190 10:40 06.09.2021
6523 Clouds 17 1013 59 10000 1.88 193 07:54 06.09.2021
6524 Clouds 12 1018 81 10000 0.67 180 04:38 06.09.2021
6525 Clouds 10 1017 92 10000 0.21 175 23:26 05.09.2021
6526 Clouds 10 1017 92 10000 0.21 175 22:34 05.09.2021
6527 Clouds 10 1017 92 10000 0.18 203 21:57 05.09.2021
6528 Clouds 10 1018 92 10000 0.13 101 21:29 05.09.2021
6529 Clouds 10 1018 90 10000 0.85 206 19:48 05.09.2021
6530 Clouds 10 1019 90 10000 1.33 177 18:38 05.09.2021
6531 Clouds 10 1018 91 10000 0.61 15 17:22 05.09.2021
6532 Clouds 9 1016 94 2400 2.92 36 15:24 05.09.2021
6533 Clouds 11 1014 92 3385 3.72 18 13:40 05.09.2021
6534 Clouds 17 1004 66 10000 4.19 17 11:57 05.09.2021
6535 Clouds 20 1001 49 10000 2.07 329 10:47 05.09.2021
6536 Clouds 21 1001 43 10000 1.78 225 10:22 05.09.2021
6537 Clouds 21 1002 45 10000 2.22 212 09:21 05.09.2021
6538 Clouds 20 1004 49 10000 1.85 219 07:31 05.09.2021
6539 Clouds 11 1009 83 10000 1.5 165 00:46 05.09.2021
6540 Clouds 11 1008 83 10000 1.44 168 00:21 05.09.2021
6541 Clouds 12 1007 80 10000 1.83 176 23:29 04.09.2021
6542 Clouds 12 1007 80 10000 1.83 176 22:35 04.09.2021
6543 Clouds 13 1007 78 10000 1.45 179 21:44 04.09.2021
6544 Clouds 13 1006 74 10000 0.99 134 19:40 04.09.2021
6545 Clouds 15 1004 66 10000 0.68 148 18:19 04.09.2021
6546 Clouds 15 1003 64 10000 0.44 291 15:53 04.09.2021
6547 Clouds 22 998 39 10000 1.5 157 12:22 04.09.2021
6548 Clouds 21 999 40 10000 1.43 178 11:18 04.09.2021
6549 Clouds 21 1001 44 10000 2.65 186 08:58 04.09.2021
6550 Clouds 14 1009 73 10000 1.25 173 02:32 04.09.2021
6551 Clouds 13 1007 77 10000 0.41 159 00:23 04.09.2021
6552 Rain 13 1006 75 10000 0.5 160 23:23 03.09.2021
6553 Rain 14 1006 72 10000 0.48 195 21:53 03.09.2021
6554 Clouds 14 1006 72 10000 0.48 195 21:30 03.09.2021
6555 Clouds 14 1007 72 10000 0.72 215 20:35 03.09.2021
6556 Clouds 13 1007 74 10000 1.11 195 19:45 03.09.2021
6557 Clouds 14 1007 70 10000 1.53 194 18:52 03.09.2021
6558 Clouds 15 1007 67 10000 1.81 206 17:32 03.09.2021
6559 Clouds 16 1004 60 10000 1.88 223 16:22 03.09.2021
6560 Clouds 16 1002 59 10000 0.61 189 14:47 03.09.2021
6561 Clouds 16 1002 59 10000 0.61 189 14:47 03.09.2021
6562 Clouds 20 1000 43 10000 0.85 185 11:56 03.09.2021
6563 Clouds 19 1002 46 10000 1.69 213 10:22 03.09.2021
6564 Clouds 20 1003 46 10000 2.13 215 08:38 03.09.2021
6565 Clouds 20 1005 47 10000 2.09 199 07:37 03.09.2021
6566 Clouds 12 1009 79 10000 1.52 173 00:24 03.09.2021
6567 Clouds 12 1009 79 10000 1.52 173 00:24 03.09.2021
6568 Clouds 12 1009 79 10000 1.72 184 22:54 02.09.2021
6569 Clouds 12 1010 79 10000 1.31 204 21:19 02.09.2021
6570 Rain 14 1009 76 10000 1.3 186 19:24 02.09.2021
6571 Clouds 14 1010 76 10000 1.5 225 17:30 02.09.2021
6572 Clouds 14 1007 69 10000 1.34 253 15:48 02.09.2021
6573 Clouds 17 1003 62 10000 1.69 223 13:51 02.09.2021
6574 Clouds 19 1002 47 10000 1.97 192 12:36 02.09.2021
6575 Clouds 20 1002 47 10000 2.49 184 11:33 02.09.2021
6576 Clouds 19 1004 50 10000 2.57 194 09:38 02.09.2021
6577 Clouds 19 1006 50 10000 2.52 191 07:45 02.09.2021
6578 Clouds 19 1007 54 10000 2.34 186 06:57 02.09.2021
6579 Clouds 13 1012 78 10000 1.29 158 02:44 02.09.2021
6580 Clouds 12 1012 84 10000 0.64 125 01:54 02.09.2021
6581 Clouds 12 1012 85 10000 0.89 97 01:19 02.09.2021
6582 Clouds 12 1011 84 10000 0.95 77 23:35 01.09.2021
6583 Clouds 13 1011 82 10000 0.73 66 22:34 01.09.2021
6584 Clouds 13 1011 81 10000 0.23 189 21:34 01.09.2021
6585 Clouds 14 1009 77 10000 1.55 123 19:59 01.09.2021
6586 Clouds 14 1009 69 10000 0.92 82 17:58 01.09.2021
6587 Clouds 14 1009 69 10000 0.92 82 17:35 01.09.2021
6588 Clouds 14 1008 65 10000 1.15 61 16:46 01.09.2021
6589 Clouds 16 1004 59 10000 1.18 339 15:24 01.09.2021
6590 Clouds 20 1002 44 10000 1.13 258 11:49 01.09.2021
6591 Clouds 21 1002 43 10000 1.46 221 10:55 01.09.2021
6592 Clouds 20 1005 47 10000 1.82 197 08:46 01.09.2021
6593 Clouds 20 1007 48 10000 2.01 202 07:50 01.09.2021
6594 Clouds 11 1014 83 10000 0.99 19 00:50 01.09.2021
6595 Clouds 11 1013 83 10000 0.77 19 22:30 31.08.2021
6596 Clouds 12 1013 83 10000 1.45 21 20:57 31.08.2021
6597 Clouds 11 1015 91 10000 1.91 21 19:44 31.08.2021
6598 Clouds 12 1014 86 10000 2.54 28 18:27 31.08.2021
6599 Rain 12 1014 86 10000 2.54 28 17:34 31.08.2021
6600 Rain 13 1013 80 10000 2.63 23 16:52 31.08.2021
6601 Clouds 14 1010 70 10000 1.82 29 16:23 31.08.2021
6602 Clouds 20 1004 45 10000 0.9 234 12:56 31.08.2021
6603 Clouds 19 1005 45 10000 1.38 184 11:26 31.08.2021
6604 Clouds 19 1005 45 10000 1.38 184 10:52 31.08.2021
6605 Clouds 19 1006 46 10000 1.28 199 09:43 31.08.2021
6606 Clouds 19 1007 47 10000 1.29 208 08:37 31.08.2021
6607 Clouds 18 1011 53 10000 1.81 186 05:58 31.08.2021
6608 Clouds 12 1012 79 10000 1.11 166 00:23 31.08.2021
6609 Clouds 12 1012 80 10000 1.26 186 23:29 30.08.2021
6610 Clouds 12 1012 82 10000 1.45 188 21:43 30.08.2021
6611 Clouds 12 1013 84 10000 1.41 199 20:42 30.08.2021
6612 Rain 12 1012 83 10000 1.59 190 20:18 30.08.2021
6613 Rain 13 1010 74 10000 1.63 179 19:29 30.08.2021
6614 Clouds 14 1009 69 10000 2.05 170 18:29 30.08.2021
6615 Clouds 14 1009 69 10000 2.05 170 17:44 30.08.2021
6616 Clouds 15 1007 67 10000 2.13 173 15:56 30.08.2021
6617 Clouds 15 1006 65 10000 2.54 175 14:51 30.08.2021
6618 Clouds 18 1003 54 10000 2.71 175 13:27 30.08.2021
6619 Clouds 19 1003 52 10000 2.5 169 11:57 30.08.2021
6620 Clouds 17 1007 55 10000 2.13 198 08:27 30.08.2021
6621 Rain 12 1010 76 10000 2.29 175 22:20 29.08.2021
6622 Rain 12 1010 76 10000 2.29 175 21:31 29.08.2021
6623 Rain 13 1009 75 10000 2.79 161 19:33 29.08.2021
6624 Clouds 14 1008 75 10000 2.73 173 18:30 29.08.2021
6625 Clouds 14 1007 73 10000 3.05 177 17:41 29.08.2021
6626 Clouds 15 1002 71 10000 2.73 167 15:29 29.08.2021
6627 Clouds 16 1001 67 10000 2.6 170 13:57 29.08.2021
6628 Clouds 18 999 57 10000 2.37 169 12:58 29.08.2021
6629 Clouds 19 999 54 10000 1.87 189 12:21 29.08.2021
6630 Clouds 19 999 54 10000 1.87 189 11:41 29.08.2021
6631 Clouds 18 1000 56 10000 1.56 182 10:49 29.08.2021
6632 Clouds 18 1000 56 10000 1.56 182 10:30 29.08.2021
6633 Clouds 18 1000 56 10000 1.56 182 10:30 29.08.2021
6634 Clouds 17 1002 61 10000 0.81 166 09:44 29.08.2021
6635 Clouds 15 1008 71 10000 0.59 127 06:38 29.08.2021
6636 Clouds 10 1009 92 8847 1.79 161 23:33 28.08.2021